<?xml version="1.0" encoding="UTF-8" standalone="no" ?>
<gpx xmlns="http://www.topografix.com/GPX/1/1" xmlns:xsi="http://www.w3.org/2001/XMLSchema-instance" xsi:schemaLocation="http://www.topografix.com/GPX/1/1 http://www.topografix.com/GPX/1/1/gpx.xsd" version="1.1" creator="VisuGPX - https://www.visugpx.com">
  <metadata>
    <name>ST ROMAIN AU Mt D\'OR-25km NUIT DES CABORNES</name>
    <desc><![CDATA[Trail nocturne 97% sur chemin.]]></desc>
  </metadata>
  <trk>
    <name><![CDATA[ST ROMAIN AU Mt D\'OR-25km NUIT DES CABORNES_1]]></name>
    <trkseg>
      <trkpt lat="45.83788" lon="4.82423">
        <ele>154.39999389648</ele>
        <time>2011-09-09T18:31:03Z</time>
      </trkpt>
      <trkpt lat="45.83779" lon="4.82414">
        <ele>154.60000610352</ele>
        <time>2011-09-09T18:31:03Z</time>
      </trkpt>
      <trkpt lat="45.8377" lon="4.82404">
        <ele>155.39999389648</ele>
        <time>2011-09-09T18:31:07Z</time>
      </trkpt>
      <trkpt lat="45.83762" lon="4.82389">
        <ele>159.80000305176</ele>
        <time>2011-09-09T18:31:13Z</time>
      </trkpt>
      <trkpt lat="45.83759" lon="4.8238">
        <ele>162.39999389648</ele>
        <time>2011-09-09T18:31:16Z</time>
      </trkpt>
      <trkpt lat="45.83754" lon="4.82369">
        <ele>166.19999694824</ele>
        <time>2011-09-09T18:31:20Z</time>
      </trkpt>
      <trkpt lat="45.83751" lon="4.82362">
        <ele>168.80000305176</ele>
        <time>2011-09-09T18:31:23Z</time>
      </trkpt>
      <trkpt lat="45.8374" lon="4.82341">
        <ele>174.80000305176</ele>
        <time>2011-09-09T18:31:30Z</time>
      </trkpt>
      <trkpt lat="45.83727" lon="4.82326">
        <ele>178.60000610352</ele>
        <time>2011-09-09T18:31:35Z</time>
      </trkpt>
      <trkpt lat="45.83711" lon="4.82317">
        <ele>183.19999694824</ele>
        <time>2011-09-09T18:31:41Z</time>
      </trkpt>
      <trkpt lat="45.83702" lon="4.82313">
        <ele>186.80000305176</ele>
        <time>2011-09-09T18:31:46Z</time>
      </trkpt>
      <trkpt lat="45.83689" lon="4.8231">
        <ele>190.60000610352</ele>
        <time>2011-09-09T18:31:52Z</time>
      </trkpt>
      <trkpt lat="45.83677" lon="4.82305">
        <ele>193.39999389648</ele>
        <time>2011-09-09T18:31:57Z</time>
      </trkpt>
      <trkpt lat="45.8366" lon="4.82296">
        <ele>197</ele>
        <time>2011-09-09T18:32:03Z</time>
      </trkpt>
      <trkpt lat="45.83647" lon="4.82289">
        <ele>200.60000610352</ele>
        <time>2011-09-09T18:32:09Z</time>
      </trkpt>
      <trkpt lat="45.83635" lon="4.82281">
        <ele>204.19999694824</ele>
        <time>2011-09-09T18:32:15Z</time>
      </trkpt>
      <trkpt lat="45.83623" lon="4.82275">
        <ele>207</ele>
        <time>2011-09-09T18:32:21Z</time>
      </trkpt>
      <trkpt lat="45.8361" lon="4.82271">
        <ele>209.39999389648</ele>
        <time>2011-09-09T18:32:27Z</time>
      </trkpt>
      <trkpt lat="45.836" lon="4.82276">
        <ele>211.19999694824</ele>
        <time>2011-09-09T18:32:32Z</time>
      </trkpt>
      <trkpt lat="45.83596" lon="4.82288">
        <ele>212.80000305176</ele>
        <time>2011-09-09T18:32:37Z</time>
      </trkpt>
      <trkpt lat="45.83597" lon="4.82305">
        <ele>214.19999694824</ele>
        <time>2011-09-09T18:32:43Z</time>
      </trkpt>
      <trkpt lat="45.83601" lon="4.82326">
        <ele>216</ele>
        <time>2011-09-09T18:32:50Z</time>
      </trkpt>
      <trkpt lat="45.83603" lon="4.8234">
        <ele>216.80000305176</ele>
        <time>2011-09-09T18:32:55Z</time>
      </trkpt>
      <trkpt lat="45.83604" lon="4.82358">
        <ele>217.19999694824</ele>
        <time>2011-09-09T18:33:01Z</time>
      </trkpt>
      <trkpt lat="45.83604" lon="4.82378">
        <ele>218.60000610352</ele>
        <time>2011-09-09T18:33:08Z</time>
      </trkpt>
      <trkpt lat="45.83604" lon="4.82381">
        <ele>218.80000305176</ele>
        <time>2011-09-09T18:33:09Z</time>
      </trkpt>
      <trkpt lat="45.83599" lon="4.824">
        <ele>219.39999389648</ele>
        <time>2011-09-09T18:33:16Z</time>
      </trkpt>
      <trkpt lat="45.83592" lon="4.82415">
        <ele>219.60000610352</ele>
        <time>2011-09-09T18:33:22Z</time>
      </trkpt>
      <trkpt lat="45.83584" lon="4.82429">
        <ele>220.39999389648</ele>
        <time>2011-09-09T18:33:28Z</time>
      </trkpt>
      <trkpt lat="45.83577" lon="4.82443">
        <ele>221.19999694824</ele>
        <time>2011-09-09T18:33:34Z</time>
      </trkpt>
      <trkpt lat="45.83567" lon="4.8246">
        <ele>221.60000610352</ele>
        <time>2011-09-09T18:33:41Z</time>
      </trkpt>
      <trkpt lat="45.83561" lon="4.82476">
        <ele>222.60000610352</ele>
        <time>2011-09-09T18:33:47Z</time>
      </trkpt>
      <trkpt lat="45.83556" lon="4.8249">
        <ele>223</ele>
        <time>2011-09-09T18:33:52Z</time>
      </trkpt>
      <trkpt lat="45.83551" lon="4.82504">
        <ele>223.60000610352</ele>
        <time>2011-09-09T18:33:57Z</time>
      </trkpt>
      <trkpt lat="45.83547" lon="4.82501">
        <ele>224.39999389648</ele>
        <time>2011-09-09T18:34:01Z</time>
      </trkpt>
      <trkpt lat="45.83547" lon="4.82498">
        <ele>224.60000610352</ele>
        <time>2011-09-09T18:34:02Z</time>
      </trkpt>
      <trkpt lat="45.83544" lon="4.82481">
        <ele>225.60000610352</ele>
        <time>2011-09-09T18:34:08Z</time>
      </trkpt>
      <trkpt lat="45.83542" lon="4.82467">
        <ele>226.60000610352</ele>
        <time>2011-09-09T18:34:13Z</time>
      </trkpt>
      <trkpt lat="45.8354" lon="4.8245">
        <ele>227.80000305176</ele>
        <time>2011-09-09T18:34:19Z</time>
      </trkpt>
      <trkpt lat="45.83538" lon="4.8243">
        <ele>229.60000610352</ele>
        <time>2011-09-09T18:34:26Z</time>
      </trkpt>
      <trkpt lat="45.83535" lon="4.82413">
        <ele>230.80000305176</ele>
        <time>2011-09-09T18:34:32Z</time>
      </trkpt>
      <trkpt lat="45.83533" lon="4.82396">
        <ele>232.39999389648</ele>
        <time>2011-09-09T18:34:38Z</time>
      </trkpt>
      <trkpt lat="45.83531" lon="4.8238">
        <ele>234</ele>
        <time>2011-09-09T18:34:44Z</time>
      </trkpt>
      <trkpt lat="45.83525" lon="4.82371">
        <ele>235.19999694824</ele>
        <time>2011-09-09T18:34:49Z</time>
      </trkpt>
      <trkpt lat="45.83514" lon="4.82368">
        <ele>236.80000305176</ele>
        <time>2011-09-09T18:34:54Z</time>
      </trkpt>
      <trkpt lat="45.83502" lon="4.8237">
        <ele>238.19999694824</ele>
        <time>2011-09-09T18:35:00Z</time>
      </trkpt>
      <trkpt lat="45.83491" lon="4.82369">
        <ele>239.39999389648</ele>
        <time>2011-09-09T18:35:05Z</time>
      </trkpt>
      <trkpt lat="45.83476" lon="4.82368">
        <ele>241.39999389648</ele>
        <time>2011-09-09T18:35:12Z</time>
      </trkpt>
      <trkpt lat="45.83466" lon="4.82366">
        <ele>243</ele>
        <time>2011-09-09T18:35:17Z</time>
      </trkpt>
      <trkpt lat="45.83459" lon="4.82356">
        <ele>244.39999389648</ele>
        <time>2011-09-09T18:35:21Z</time>
      </trkpt>
      <trkpt lat="45.83449" lon="4.82337">
        <ele>246.39999389648</ele>
        <time>2011-09-09T18:35:28Z</time>
      </trkpt>
      <trkpt lat="45.83442" lon="4.82322">
        <ele>247.60000610352</ele>
        <time>2011-09-09T18:35:33Z</time>
      </trkpt>
      <trkpt lat="45.83434" lon="4.82307">
        <ele>249.19999694824</ele>
        <time>2011-09-09T18:35:38Z</time>
      </trkpt>
      <trkpt lat="45.83425" lon="4.82299">
        <ele>250.19999694824</ele>
        <time>2011-09-09T18:35:42Z</time>
      </trkpt>
      <trkpt lat="45.83416" lon="4.82291">
        <ele>251.19999694824</ele>
        <time>2011-09-09T18:35:47Z</time>
      </trkpt>
      <trkpt lat="45.83406" lon="4.82287">
        <ele>252.19999694824</ele>
        <time>2011-09-09T18:35:52Z</time>
      </trkpt>
      <trkpt lat="45.83394" lon="4.82281">
        <ele>253</ele>
        <time>2011-09-09T18:35:58Z</time>
      </trkpt>
      <trkpt lat="45.83392" lon="4.8228">
        <ele>253.19999694824</ele>
        <time>2011-09-09T18:35:59Z</time>
      </trkpt>
      <trkpt lat="45.83381" lon="4.82267">
        <ele>253.39999389648</ele>
        <time>2011-09-09T18:36:05Z</time>
      </trkpt>
      <trkpt lat="45.83374" lon="4.82255">
        <ele>254.39999389648</ele>
        <time>2011-09-09T18:36:10Z</time>
      </trkpt>
      <trkpt lat="45.83372" lon="4.82253">
        <ele>254.60000610352</ele>
        <time>2011-09-09T18:36:11Z</time>
      </trkpt>
      <trkpt lat="45.83364" lon="4.82244">
        <ele>255</ele>
        <time>2011-09-09T18:36:16Z</time>
      </trkpt>
      <trkpt lat="45.83355" lon="4.82232">
        <ele>255.39999389648</ele>
        <time>2011-09-09T18:36:21Z</time>
      </trkpt>
      <trkpt lat="45.83353" lon="4.8223">
        <ele>255.39999389648</ele>
        <time>2011-09-09T18:36:22Z</time>
      </trkpt>
      <trkpt lat="45.83342" lon="4.82214">
        <ele>256</ele>
        <time>2011-09-09T18:36:29Z</time>
      </trkpt>
      <trkpt lat="45.83336" lon="4.82204">
        <ele>256.79998779297</ele>
        <time>2011-09-09T18:36:33Z</time>
      </trkpt>
      <trkpt lat="45.83327" lon="4.82193">
        <ele>257.79998779297</ele>
        <time>2011-09-09T18:36:38Z</time>
      </trkpt>
      <trkpt lat="45.83317" lon="4.82185">
        <ele>258.79998779297</ele>
        <time>2011-09-09T18:36:43Z</time>
      </trkpt>
      <trkpt lat="45.83308" lon="4.82176">
        <ele>260.20001220703</ele>
        <time>2011-09-09T18:36:49Z</time>
      </trkpt>
      <trkpt lat="45.83306" lon="4.82174">
        <ele>260.39999389648</ele>
        <time>2011-09-09T18:36:50Z</time>
      </trkpt>
      <trkpt lat="45.83296" lon="4.82167">
        <ele>261.20001220703</ele>
        <time>2011-09-09T18:36:55Z</time>
      </trkpt>
      <trkpt lat="45.83289" lon="4.8216">
        <ele>262</ele>
        <time>2011-09-09T18:36:59Z</time>
      </trkpt>
      <trkpt lat="45.83287" lon="4.82158">
        <ele>262.20001220703</ele>
        <time>2011-09-09T18:37:00Z</time>
      </trkpt>
      <trkpt lat="45.83275" lon="4.82143">
        <ele>263.39999389648</ele>
        <time>2011-09-09T18:37:07Z</time>
      </trkpt>
      <trkpt lat="45.83268" lon="4.82133">
        <ele>264.20001220703</ele>
        <time>2011-09-09T18:37:12Z</time>
      </trkpt>
      <trkpt lat="45.83264" lon="4.82129">
        <ele>264.60000610352</ele>
        <time>2011-09-09T18:37:14Z</time>
      </trkpt>
      <trkpt lat="45.83254" lon="4.82121">
        <ele>265.39999389648</ele>
        <time>2011-09-09T18:37:19Z</time>
      </trkpt>
      <trkpt lat="45.83244" lon="4.82111">
        <ele>266.20001220703</ele>
        <time>2011-09-09T18:37:24Z</time>
      </trkpt>
      <trkpt lat="45.83234" lon="4.82102">
        <ele>267.20001220703</ele>
        <time>2011-09-09T18:37:29Z</time>
      </trkpt>
      <trkpt lat="45.83221" lon="4.8209">
        <ele>268.39999389648</ele>
        <time>2011-09-09T18:37:35Z</time>
      </trkpt>
      <trkpt lat="45.83212" lon="4.82081">
        <ele>269.39999389648</ele>
        <time>2011-09-09T18:37:40Z</time>
      </trkpt>
      <trkpt lat="45.83207" lon="4.82075">
        <ele>270.39999389648</ele>
        <time>2011-09-09T18:37:43Z</time>
      </trkpt>
      <trkpt lat="45.83201" lon="4.82062">
        <ele>271.39999389648</ele>
        <time>2011-09-09T18:37:48Z</time>
      </trkpt>
      <trkpt lat="45.83196" lon="4.82046">
        <ele>272.79998779297</ele>
        <time>2011-09-09T18:37:53Z</time>
      </trkpt>
      <trkpt lat="45.83195" lon="4.82043">
        <ele>273</ele>
        <time>2011-09-09T18:37:54Z</time>
      </trkpt>
      <trkpt lat="45.83192" lon="4.82038">
        <ele>273.39999389648</ele>
        <time>2011-09-09T18:37:56Z</time>
      </trkpt>
      <trkpt lat="45.83186" lon="4.8204">
        <ele>275</ele>
        <time>2011-09-09T18:38:01Z</time>
      </trkpt>
      <trkpt lat="45.83189" lon="4.82051">
        <ele>275.60000610352</ele>
        <time>2011-09-09T18:38:05Z</time>
      </trkpt>
      <trkpt lat="45.83189" lon="4.82058">
        <ele>276.39999389648</ele>
        <time>2011-09-09T18:38:07Z</time>
      </trkpt>
      <trkpt lat="45.83192" lon="4.82073">
        <ele>277.39999389648</ele>
        <time>2011-09-09T18:38:12Z</time>
      </trkpt>
      <trkpt lat="45.83192" lon="4.82077">
        <ele>277.60000610352</ele>
        <time>2011-09-09T18:38:13Z</time>
      </trkpt>
      <trkpt lat="45.83197" lon="4.82094">
        <ele>278.79998779297</ele>
        <time>2011-09-09T18:38:19Z</time>
      </trkpt>
      <trkpt lat="45.83197" lon="4.82097">
        <ele>279</ele>
        <time>2011-09-09T18:38:20Z</time>
      </trkpt>
      <trkpt lat="45.83201" lon="4.8211">
        <ele>279.79998779297</ele>
        <time>2011-09-09T18:38:25Z</time>
      </trkpt>
      <trkpt lat="45.83202" lon="4.82112">
        <ele>280</ele>
        <time>2011-09-09T18:38:26Z</time>
      </trkpt>
      <trkpt lat="45.83203" lon="4.82115">
        <ele>280.20001220703</ele>
        <time>2011-09-09T18:38:27Z</time>
      </trkpt>
      <trkpt lat="45.83205" lon="4.82123">
        <ele>280.39999389648</ele>
        <time>2011-09-09T18:38:30Z</time>
      </trkpt>
      <trkpt lat="45.83211" lon="4.82134">
        <ele>281.20001220703</ele>
        <time>2011-09-09T18:38:35Z</time>
      </trkpt>
      <trkpt lat="45.83213" lon="4.82136">
        <ele>281.39999389648</ele>
        <time>2011-09-09T18:38:36Z</time>
      </trkpt>
      <trkpt lat="45.83216" lon="4.8214">
        <ele>281.79998779297</ele>
        <time>2011-09-09T18:38:38Z</time>
      </trkpt>
      <trkpt lat="45.83224" lon="4.82147">
        <ele>282.20001220703</ele>
        <time>2011-09-09T18:38:42Z</time>
      </trkpt>
      <trkpt lat="45.83228" lon="4.82154">
        <ele>283.20001220703</ele>
        <time>2011-09-09T18:38:46Z</time>
      </trkpt>
      <trkpt lat="45.83238" lon="4.82165">
        <ele>284.60000610352</ele>
        <time>2011-09-09T18:38:52Z</time>
      </trkpt>
      <trkpt lat="45.83243" lon="4.82175">
        <ele>285.60000610352</ele>
        <time>2011-09-09T18:38:56Z</time>
      </trkpt>
      <trkpt lat="45.83252" lon="4.82188">
        <ele>287</ele>
        <time>2011-09-09T18:39:01Z</time>
      </trkpt>
      <trkpt lat="45.83253" lon="4.8219">
        <ele>287.20001220703</ele>
        <time>2011-09-09T18:39:02Z</time>
      </trkpt>
      <trkpt lat="45.83263" lon="4.82207">
        <ele>289.20001220703</ele>
        <time>2011-09-09T18:39:09Z</time>
      </trkpt>
      <trkpt lat="45.83268" lon="4.82217">
        <ele>290.20001220703</ele>
        <time>2011-09-09T18:39:13Z</time>
      </trkpt>
      <trkpt lat="45.83274" lon="4.82225">
        <ele>291.39999389648</ele>
        <time>2011-09-09T18:39:17Z</time>
      </trkpt>
      <trkpt lat="45.8328" lon="4.82239">
        <ele>293</ele>
        <time>2011-09-09T18:39:23Z</time>
      </trkpt>
      <trkpt lat="45.83287" lon="4.8225">
        <ele>294.20001220703</ele>
        <time>2011-09-09T18:39:28Z</time>
      </trkpt>
      <trkpt lat="45.8329" lon="4.82256">
        <ele>294.79998779297</ele>
        <time>2011-09-09T18:39:31Z</time>
      </trkpt>
      <trkpt lat="45.83297" lon="4.82264">
        <ele>295.60000610352</ele>
        <time>2011-09-09T18:39:34Z</time>
      </trkpt>
      <trkpt lat="45.83309" lon="4.82276">
        <ele>296.60000610352</ele>
        <time>2011-09-09T18:39:39Z</time>
      </trkpt>
      <trkpt lat="45.83319" lon="4.82286">
        <ele>297.20001220703</ele>
        <time>2011-09-09T18:39:43Z</time>
      </trkpt>
      <trkpt lat="45.83328" lon="4.82298">
        <ele>298.20001220703</ele>
        <time>2011-09-09T18:39:47Z</time>
      </trkpt>
      <trkpt lat="45.83342" lon="4.82321">
        <ele>299</ele>
        <time>2011-09-09T18:39:53Z</time>
      </trkpt>
      <trkpt lat="45.83344" lon="4.82329">
        <ele>299.20001220703</ele>
        <time>2011-09-09T18:39:55Z</time>
      </trkpt>
      <trkpt lat="45.83339" lon="4.8235">
        <ele>300</ele>
        <time>2011-09-09T18:40:00Z</time>
      </trkpt>
      <trkpt lat="45.83331" lon="4.82369">
        <ele>300.79998779297</ele>
        <time>2011-09-09T18:40:05Z</time>
      </trkpt>
      <trkpt lat="45.83325" lon="4.82387">
        <ele>301.39999389648</ele>
        <time>2011-09-09T18:40:10Z</time>
      </trkpt>
      <trkpt lat="45.83317" lon="4.82411">
        <ele>301.79998779297</ele>
        <time>2011-09-09T18:40:16Z</time>
      </trkpt>
      <trkpt lat="45.83311" lon="4.82431">
        <ele>302</ele>
        <time>2011-09-09T18:40:21Z</time>
      </trkpt>
      <trkpt lat="45.83304" lon="4.8245">
        <ele>302</ele>
        <time>2011-09-09T18:40:26Z</time>
      </trkpt>
      <trkpt lat="45.83297" lon="4.82469">
        <ele>302.20001220703</ele>
        <time>2011-09-09T18:40:31Z</time>
      </trkpt>
      <trkpt lat="45.83287" lon="4.82491">
        <ele>302.20001220703</ele>
        <time>2011-09-09T18:40:38Z</time>
      </trkpt>
      <trkpt lat="45.83279" lon="4.82513">
        <ele>302.20001220703</ele>
        <time>2011-09-09T18:40:44Z</time>
      </trkpt>
      <trkpt lat="45.83275" lon="4.82542">
        <ele>302.20001220703</ele>
        <time>2011-09-09T18:40:51Z</time>
      </trkpt>
      <trkpt lat="45.83275" lon="4.82559">
        <ele>302.20001220703</ele>
        <time>2011-09-09T18:40:55Z</time>
      </trkpt>
      <trkpt lat="45.83276" lon="4.82579">
        <ele>302.20001220703</ele>
        <time>2011-09-09T18:41:00Z</time>
      </trkpt>
      <trkpt lat="45.83272" lon="4.82602">
        <ele>302.20001220703</ele>
        <time>2011-09-09T18:41:06Z</time>
      </trkpt>
      <trkpt lat="45.83264" lon="4.82623">
        <ele>302.20001220703</ele>
        <time>2011-09-09T18:41:12Z</time>
      </trkpt>
      <trkpt lat="45.83251" lon="4.82641">
        <ele>302.20001220703</ele>
        <time>2011-09-09T18:41:18Z</time>
      </trkpt>
      <trkpt lat="45.83239" lon="4.82655">
        <ele>302.20001220703</ele>
        <time>2011-09-09T18:41:23Z</time>
      </trkpt>
      <trkpt lat="45.83231" lon="4.82669">
        <ele>302.20001220703</ele>
        <time>2011-09-09T18:41:28Z</time>
      </trkpt>
      <trkpt lat="45.83226" lon="4.82687">
        <ele>302.20001220703</ele>
        <time>2011-09-09T18:41:33Z</time>
      </trkpt>
      <trkpt lat="45.83222" lon="4.82704">
        <ele>302.20001220703</ele>
        <time>2011-09-09T18:41:37Z</time>
      </trkpt>
      <trkpt lat="45.8322" lon="4.82723">
        <ele>302.20001220703</ele>
        <time>2011-09-09T18:41:42Z</time>
      </trkpt>
      <trkpt lat="45.83217" lon="4.82744">
        <ele>302.20001220703</ele>
        <time>2011-09-09T18:41:47Z</time>
      </trkpt>
      <trkpt lat="45.83212" lon="4.8277">
        <ele>302.20001220703</ele>
        <time>2011-09-09T18:41:53Z</time>
      </trkpt>
      <trkpt lat="45.83207" lon="4.8279">
        <ele>302.20001220703</ele>
        <time>2011-09-09T18:41:58Z</time>
      </trkpt>
      <trkpt lat="45.83204" lon="4.82816">
        <ele>302.60000610352</ele>
        <time>2011-09-09T18:42:04Z</time>
      </trkpt>
      <trkpt lat="45.83205" lon="4.8282">
        <ele>302.79998779297</ele>
        <time>2011-09-09T18:42:05Z</time>
      </trkpt>
      <trkpt lat="45.83204" lon="4.82839">
        <ele>303.20001220703</ele>
        <time>2011-09-09T18:42:09Z</time>
      </trkpt>
      <trkpt lat="45.83196" lon="4.82862">
        <ele>303.79998779297</ele>
        <time>2011-09-09T18:42:15Z</time>
      </trkpt>
      <trkpt lat="45.83192" lon="4.82876">
        <ele>303.79998779297</ele>
        <time>2011-09-09T18:42:19Z</time>
      </trkpt>
      <trkpt lat="45.83184" lon="4.82894">
        <ele>304</ele>
        <time>2011-09-09T18:42:24Z</time>
      </trkpt>
      <trkpt lat="45.83177" lon="4.82911">
        <ele>304</ele>
        <time>2011-09-09T18:42:29Z</time>
      </trkpt>
      <trkpt lat="45.83172" lon="4.82922">
        <ele>304.20001220703</ele>
        <time>2011-09-09T18:42:35Z</time>
      </trkpt>
      <trkpt lat="45.83165" lon="4.82934">
        <ele>304.20001220703</ele>
        <time>2011-09-09T18:42:41Z</time>
      </trkpt>
      <trkpt lat="45.83157" lon="4.82948">
        <ele>304.20001220703</ele>
        <time>2011-09-09T18:42:47Z</time>
      </trkpt>
      <trkpt lat="45.83152" lon="4.82955">
        <ele>304.20001220703</ele>
        <time>2011-09-09T18:42:50Z</time>
      </trkpt>
      <trkpt lat="45.83147" lon="4.82971">
        <ele>304.20001220703</ele>
        <time>2011-09-09T18:42:55Z</time>
      </trkpt>
      <trkpt lat="45.83148" lon="4.8298">
        <ele>304.20001220703</ele>
        <time>2011-09-09T18:42:58Z</time>
      </trkpt>
      <trkpt lat="45.83147" lon="4.82987">
        <ele>304.20001220703</ele>
        <time>2011-09-09T18:43:00Z</time>
      </trkpt>
      <trkpt lat="45.83144" lon="4.83003">
        <ele>304.20001220703</ele>
        <time>2011-09-09T18:43:04Z</time>
      </trkpt>
      <trkpt lat="45.83143" lon="4.83007">
        <ele>304.20001220703</ele>
        <time>2011-09-09T18:43:05Z</time>
      </trkpt>
      <trkpt lat="45.83139" lon="4.83022">
        <ele>304.20001220703</ele>
        <time>2011-09-09T18:43:11Z</time>
      </trkpt>
      <trkpt lat="45.83138" lon="4.8303">
        <ele>304.20001220703</ele>
        <time>2011-09-09T18:43:14Z</time>
      </trkpt>
      <trkpt lat="45.83137" lon="4.83039">
        <ele>304.20001220703</ele>
        <time>2011-09-09T18:43:18Z</time>
      </trkpt>
      <trkpt lat="45.83134" lon="4.83051">
        <ele>304.20001220703</ele>
        <time>2011-09-09T18:43:23Z</time>
      </trkpt>
      <trkpt lat="45.83132" lon="4.83061">
        <ele>304.20001220703</ele>
        <time>2011-09-09T18:43:27Z</time>
      </trkpt>
      <trkpt lat="45.83131" lon="4.83069">
        <ele>304.20001220703</ele>
        <time>2011-09-09T18:43:31Z</time>
      </trkpt>
      <trkpt lat="45.83128" lon="4.83082">
        <ele>304.20001220703</ele>
        <time>2011-09-09T18:43:37Z</time>
      </trkpt>
      <trkpt lat="45.83122" lon="4.83086">
        <ele>304.20001220703</ele>
        <time>2011-09-09T18:43:41Z</time>
      </trkpt>
      <trkpt lat="45.83119" lon="4.83086">
        <ele>304.20001220703</ele>
        <time>2011-09-09T18:43:43Z</time>
      </trkpt>
      <trkpt lat="45.83116" lon="4.83086">
        <ele>304.20001220703</ele>
        <time>2011-09-09T18:43:45Z</time>
      </trkpt>
      <trkpt lat="45.83106" lon="4.83084">
        <ele>304.20001220703</ele>
        <time>2011-09-09T18:43:50Z</time>
      </trkpt>
      <trkpt lat="45.83104" lon="4.83084">
        <ele>304.20001220703</ele>
        <time>2011-09-09T18:43:51Z</time>
      </trkpt>
      <trkpt lat="45.83096" lon="4.83083">
        <ele>304.20001220703</ele>
        <time>2011-09-09T18:43:55Z</time>
      </trkpt>
      <trkpt lat="45.83092" lon="4.83083">
        <ele>304.20001220703</ele>
        <time>2011-09-09T18:43:57Z</time>
      </trkpt>
      <trkpt lat="45.83078" lon="4.83083">
        <ele>304.20001220703</ele>
        <time>2011-09-09T18:44:04Z</time>
      </trkpt>
      <trkpt lat="45.83076" lon="4.83083">
        <ele>304.20001220703</ele>
        <time>2011-09-09T18:44:05Z</time>
      </trkpt>
      <trkpt lat="45.83068" lon="4.83082">
        <ele>304.20001220703</ele>
        <time>2011-09-09T18:44:09Z</time>
      </trkpt>
      <trkpt lat="45.83062" lon="4.83083">
        <ele>304.79998779297</ele>
        <time>2011-09-09T18:44:12Z</time>
      </trkpt>
      <trkpt lat="45.83054" lon="4.8308">
        <ele>305.39999389648</ele>
        <time>2011-09-09T18:44:16Z</time>
      </trkpt>
      <trkpt lat="45.83046" lon="4.8308">
        <ele>305.60000610352</ele>
        <time>2011-09-09T18:44:20Z</time>
      </trkpt>
      <trkpt lat="45.8304" lon="4.83079">
        <ele>305.79998779297</ele>
        <time>2011-09-09T18:44:23Z</time>
      </trkpt>
      <trkpt lat="45.83037" lon="4.83079">
        <ele>306</ele>
        <time>2011-09-09T18:44:25Z</time>
      </trkpt>
      <trkpt lat="45.83034" lon="4.83069">
        <ele>306.60000610352</ele>
        <time>2011-09-09T18:44:30Z</time>
      </trkpt>
      <trkpt lat="45.83036" lon="4.83058">
        <ele>307.20001220703</ele>
        <time>2011-09-09T18:44:34Z</time>
      </trkpt>
      <trkpt lat="45.83038" lon="4.83036">
        <ele>307.79998779297</ele>
        <time>2011-09-09T18:44:41Z</time>
      </trkpt>
      <trkpt lat="45.8304" lon="4.83015">
        <ele>308</ele>
        <time>2011-09-09T18:44:47Z</time>
      </trkpt>
      <trkpt lat="45.83043" lon="4.82993">
        <ele>308.20001220703</ele>
        <time>2011-09-09T18:44:53Z</time>
      </trkpt>
      <trkpt lat="45.83043" lon="4.82989">
        <ele>308.20001220703</ele>
        <time>2011-09-09T18:44:54Z</time>
      </trkpt>
      <trkpt lat="45.83045" lon="4.82971">
        <ele>308.20001220703</ele>
        <time>2011-09-09T18:44:59Z</time>
      </trkpt>
      <trkpt lat="45.83046" lon="4.82959">
        <ele>308.20001220703</ele>
        <time>2011-09-09T18:45:03Z</time>
      </trkpt>
      <trkpt lat="45.83047" lon="4.82956">
        <ele>308.20001220703</ele>
        <time>2011-09-09T18:45:04Z</time>
      </trkpt>
      <trkpt lat="45.83047" lon="4.82941">
        <ele>308.39999389648</ele>
        <time>2011-09-09T18:45:08Z</time>
      </trkpt>
      <trkpt lat="45.83049" lon="4.82928">
        <ele>308.79998779297</ele>
        <time>2011-09-09T18:45:12Z</time>
      </trkpt>
      <trkpt lat="45.83049" lon="4.8292">
        <ele>309.20001220703</ele>
        <time>2011-09-09T18:45:14Z</time>
      </trkpt>
      <trkpt lat="45.83051" lon="4.82898">
        <ele>309.79998779297</ele>
        <time>2011-09-09T18:45:20Z</time>
      </trkpt>
      <trkpt lat="45.83053" lon="4.82892">
        <ele>309.79998779297</ele>
        <time>2011-09-09T18:45:22Z</time>
      </trkpt>
      <trkpt lat="45.83056" lon="4.82876">
        <ele>310.20001220703</ele>
        <time>2011-09-09T18:45:27Z</time>
      </trkpt>
      <trkpt lat="45.83057" lon="4.82872">
        <ele>310.60000610352</ele>
        <time>2011-09-09T18:45:29Z</time>
      </trkpt>
      <trkpt lat="45.83057" lon="4.82866">
        <ele>311</ele>
        <time>2011-09-09T18:45:31Z</time>
      </trkpt>
      <trkpt lat="45.83054" lon="4.82862">
        <ele>311.39999389648</ele>
        <time>2011-09-09T18:45:35Z</time>
      </trkpt>
      <trkpt lat="45.8305" lon="4.82859">
        <ele>312.60000610352</ele>
        <time>2011-09-09T18:45:40Z</time>
      </trkpt>
      <trkpt lat="45.83049" lon="4.82858">
        <ele>313</ele>
        <time>2011-09-09T18:45:42Z</time>
      </trkpt>
      <trkpt lat="45.83045" lon="4.82856">
        <ele>314.60000610352</ele>
        <time>2011-09-09T18:45:48Z</time>
      </trkpt>
      <trkpt lat="45.83042" lon="4.82854">
        <ele>316</ele>
        <time>2011-09-09T18:45:54Z</time>
      </trkpt>
      <trkpt lat="45.83039" lon="4.82853">
        <ele>317.60000610352</ele>
        <time>2011-09-09T18:46:00Z</time>
      </trkpt>
      <trkpt lat="45.83034" lon="4.82849">
        <ele>319.39999389648</ele>
        <time>2011-09-09T18:46:07Z</time>
      </trkpt>
      <trkpt lat="45.8303" lon="4.82847">
        <ele>320.60000610352</ele>
        <time>2011-09-09T18:46:13Z</time>
      </trkpt>
      <trkpt lat="45.83024" lon="4.82844">
        <ele>322</ele>
        <time>2011-09-09T18:46:19Z</time>
      </trkpt>
      <trkpt lat="45.83022" lon="4.82842">
        <ele>322.20001220703</ele>
        <time>2011-09-09T18:46:21Z</time>
      </trkpt>
      <trkpt lat="45.83017" lon="4.8284">
        <ele>323.79998779297</ele>
        <time>2011-09-09T18:46:27Z</time>
      </trkpt>
      <trkpt lat="45.83014" lon="4.82841">
        <ele>324.79998779297</ele>
        <time>2011-09-09T18:46:32Z</time>
      </trkpt>
      <trkpt lat="45.83013" lon="4.8284">
        <ele>325</ele>
        <time>2011-09-09T18:46:33Z</time>
      </trkpt>
      <trkpt lat="45.83009" lon="4.82837">
        <ele>326.79998779297</ele>
        <time>2011-09-09T18:46:40Z</time>
      </trkpt>
      <trkpt lat="45.83005" lon="4.82836">
        <ele>328.39999389648</ele>
        <time>2011-09-09T18:46:46Z</time>
      </trkpt>
      <trkpt lat="45.83001" lon="4.82834">
        <ele>330.20001220703</ele>
        <time>2011-09-09T18:46:52Z</time>
      </trkpt>
      <trkpt lat="45.82998" lon="4.82831">
        <ele>331.79998779297</ele>
        <time>2011-09-09T18:46:58Z</time>
      </trkpt>
      <trkpt lat="45.82993" lon="4.82828">
        <ele>333.60000610352</ele>
        <time>2011-09-09T18:47:06Z</time>
      </trkpt>
      <trkpt lat="45.82989" lon="4.82827">
        <ele>334.79998779297</ele>
        <time>2011-09-09T18:47:11Z</time>
      </trkpt>
      <trkpt lat="45.82987" lon="4.82824">
        <ele>335.20001220703</ele>
        <time>2011-09-09T18:47:13Z</time>
      </trkpt>
      <trkpt lat="45.82991" lon="4.8282">
        <ele>336</ele>
        <time>2011-09-09T18:47:17Z</time>
      </trkpt>
      <trkpt lat="45.82996" lon="4.82808">
        <ele>337.20001220703</ele>
        <time>2011-09-09T18:47:22Z</time>
      </trkpt>
      <trkpt lat="45.83001" lon="4.82797">
        <ele>337.60000610352</ele>
        <time>2011-09-09T18:47:26Z</time>
      </trkpt>
      <trkpt lat="45.83003" lon="4.82794">
        <ele>338</ele>
        <time>2011-09-09T18:47:27Z</time>
      </trkpt>
      <trkpt lat="45.83013" lon="4.82777">
        <ele>339.20001220703</ele>
        <time>2011-09-09T18:47:33Z</time>
      </trkpt>
      <trkpt lat="45.83017" lon="4.82768">
        <ele>339.60000610352</ele>
        <time>2011-09-09T18:47:36Z</time>
      </trkpt>
      <trkpt lat="45.83024" lon="4.82754">
        <ele>340.79998779297</ele>
        <time>2011-09-09T18:47:41Z</time>
      </trkpt>
      <trkpt lat="45.83029" lon="4.82741">
        <ele>341.60000610352</ele>
        <time>2011-09-09T18:47:45Z</time>
      </trkpt>
      <trkpt lat="45.83035" lon="4.82728">
        <ele>342.60000610352</ele>
        <time>2011-09-09T18:47:49Z</time>
      </trkpt>
      <trkpt lat="45.83039" lon="4.8272">
        <ele>343</ele>
        <time>2011-09-09T18:47:51Z</time>
      </trkpt>
      <trkpt lat="45.83045" lon="4.82706">
        <ele>344</ele>
        <time>2011-09-09T18:47:55Z</time>
      </trkpt>
      <trkpt lat="45.83055" lon="4.8269">
        <ele>345.20001220703</ele>
        <time>2011-09-09T18:48:00Z</time>
      </trkpt>
      <trkpt lat="45.83057" lon="4.82688">
        <ele>345.39999389648</ele>
        <time>2011-09-09T18:48:01Z</time>
      </trkpt>
      <trkpt lat="45.83065" lon="4.82678">
        <ele>346.60000610352</ele>
        <time>2011-09-09T18:48:05Z</time>
      </trkpt>
      <trkpt lat="45.83072" lon="4.82668">
        <ele>347.39999389648</ele>
        <time>2011-09-09T18:48:09Z</time>
      </trkpt>
      <trkpt lat="45.83083" lon="4.8265">
        <ele>349</ele>
        <time>2011-09-09T18:48:15Z</time>
      </trkpt>
      <trkpt lat="45.83094" lon="4.82633">
        <ele>349.79998779297</ele>
        <time>2011-09-09T18:48:20Z</time>
      </trkpt>
      <trkpt lat="45.83102" lon="4.82613">
        <ele>350.39999389648</ele>
        <time>2011-09-09T18:48:25Z</time>
      </trkpt>
      <trkpt lat="45.83103" lon="4.82609">
        <ele>350.39999389648</ele>
        <time>2011-09-09T18:48:26Z</time>
      </trkpt>
      <trkpt lat="45.83109" lon="4.82597">
        <ele>350.79998779297</ele>
        <time>2011-09-09T18:48:30Z</time>
      </trkpt>
      <trkpt lat="45.83111" lon="4.82591">
        <ele>350.79998779297</ele>
        <time>2011-09-09T18:48:32Z</time>
      </trkpt>
      <trkpt lat="45.83113" lon="4.82584">
        <ele>351.20001220703</ele>
        <time>2011-09-09T18:48:34Z</time>
      </trkpt>
      <trkpt lat="45.83119" lon="4.8257">
        <ele>352</ele>
        <time>2011-09-09T18:48:39Z</time>
      </trkpt>
      <trkpt lat="45.83124" lon="4.82558">
        <ele>352.39999389648</ele>
        <time>2011-09-09T18:48:42Z</time>
      </trkpt>
      <trkpt lat="45.8313" lon="4.82537">
        <ele>352.60000610352</ele>
        <time>2011-09-09T18:48:47Z</time>
      </trkpt>
      <trkpt lat="45.83133" lon="4.82526">
        <ele>352.79998779297</ele>
        <time>2011-09-09T18:48:50Z</time>
      </trkpt>
      <trkpt lat="45.83133" lon="4.82502">
        <ele>353</ele>
        <time>2011-09-09T18:48:56Z</time>
      </trkpt>
      <trkpt lat="45.83132" lon="4.82499">
        <ele>353</ele>
        <time>2011-09-09T18:48:57Z</time>
      </trkpt>
      <trkpt lat="45.83131" lon="4.82486">
        <ele>353</ele>
        <time>2011-09-09T18:49:01Z</time>
      </trkpt>
      <trkpt lat="45.8313" lon="4.82477">
        <ele>353.20001220703</ele>
        <time>2011-09-09T18:49:04Z</time>
      </trkpt>
      <trkpt lat="45.8313" lon="4.82462">
        <ele>353.20001220703</ele>
        <time>2011-09-09T18:49:08Z</time>
      </trkpt>
      <trkpt lat="45.8313" lon="4.8245">
        <ele>353.20001220703</ele>
        <time>2011-09-09T18:49:11Z</time>
      </trkpt>
      <trkpt lat="45.8313" lon="4.82439">
        <ele>353.20001220703</ele>
        <time>2011-09-09T18:49:14Z</time>
      </trkpt>
      <trkpt lat="45.83131" lon="4.82418">
        <ele>353.20001220703</ele>
        <time>2011-09-09T18:49:20Z</time>
      </trkpt>
      <trkpt lat="45.83131" lon="4.82411">
        <ele>353.20001220703</ele>
        <time>2011-09-09T18:49:22Z</time>
      </trkpt>
      <trkpt lat="45.83132" lon="4.82393">
        <ele>353.20001220703</ele>
        <time>2011-09-09T18:49:27Z</time>
      </trkpt>
      <trkpt lat="45.83134" lon="4.82374">
        <ele>353.20001220703</ele>
        <time>2011-09-09T18:49:32Z</time>
      </trkpt>
      <trkpt lat="45.83134" lon="4.82358">
        <ele>353.79998779297</ele>
        <time>2011-09-09T18:49:37Z</time>
      </trkpt>
      <trkpt lat="45.83135" lon="4.82355">
        <ele>354</ele>
        <time>2011-09-09T18:49:38Z</time>
      </trkpt>
      <trkpt lat="45.83134" lon="4.82347">
        <ele>354.39999389648</ele>
        <time>2011-09-09T18:49:41Z</time>
      </trkpt>
      <trkpt lat="45.83131" lon="4.82327">
        <ele>354.79998779297</ele>
        <time>2011-09-09T18:49:47Z</time>
      </trkpt>
      <trkpt lat="45.83129" lon="4.8232">
        <ele>354.79998779297</ele>
        <time>2011-09-09T18:49:49Z</time>
      </trkpt>
      <trkpt lat="45.83128" lon="4.82307">
        <ele>355</ele>
        <time>2011-09-09T18:49:53Z</time>
      </trkpt>
      <trkpt lat="45.83125" lon="4.82285">
        <ele>355.79998779297</ele>
        <time>2011-09-09T18:50:00Z</time>
      </trkpt>
      <trkpt lat="45.83125" lon="4.82282">
        <ele>356</ele>
        <time>2011-09-09T18:50:01Z</time>
      </trkpt>
      <trkpt lat="45.83125" lon="4.82271">
        <ele>356.39999389648</ele>
        <time>2011-09-09T18:50:05Z</time>
      </trkpt>
      <trkpt lat="45.83121" lon="4.82255">
        <ele>357.39999389648</ele>
        <time>2011-09-09T18:50:11Z</time>
      </trkpt>
      <trkpt lat="45.83118" lon="4.82242">
        <ele>358.39999389648</ele>
        <time>2011-09-09T18:50:17Z</time>
      </trkpt>
      <trkpt lat="45.83118" lon="4.82239">
        <ele>358.60000610352</ele>
        <time>2011-09-09T18:50:18Z</time>
      </trkpt>
      <trkpt lat="45.83117" lon="4.82237">
        <ele>359</ele>
        <time>2011-09-09T18:50:19Z</time>
      </trkpt>
      <trkpt lat="45.83115" lon="4.82226">
        <ele>359.79998779297</ele>
        <time>2011-09-09T18:50:23Z</time>
      </trkpt>
      <trkpt lat="45.83113" lon="4.82219">
        <ele>360.20001220703</ele>
        <time>2011-09-09T18:50:26Z</time>
      </trkpt>
      <trkpt lat="45.83109" lon="4.82206">
        <ele>361.60000610352</ele>
        <time>2011-09-09T18:50:31Z</time>
      </trkpt>
      <trkpt lat="45.83107" lon="4.82202">
        <ele>362</ele>
        <time>2011-09-09T18:50:33Z</time>
      </trkpt>
      <trkpt lat="45.83103" lon="4.82192">
        <ele>363</ele>
        <time>2011-09-09T18:50:37Z</time>
      </trkpt>
      <trkpt lat="45.831" lon="4.82186">
        <ele>363.60000610352</ele>
        <time>2011-09-09T18:50:39Z</time>
      </trkpt>
      <trkpt lat="45.83094" lon="4.82171">
        <ele>365</ele>
        <time>2011-09-09T18:50:45Z</time>
      </trkpt>
      <trkpt lat="45.83092" lon="4.82166">
        <ele>365.60000610352</ele>
        <time>2011-09-09T18:50:47Z</time>
      </trkpt>
      <trkpt lat="45.83088" lon="4.82161">
        <ele>366.20001220703</ele>
        <time>2011-09-09T18:50:50Z</time>
      </trkpt>
      <trkpt lat="45.83081" lon="4.82154">
        <ele>367</ele>
        <time>2011-09-09T18:50:54Z</time>
      </trkpt>
      <trkpt lat="45.83076" lon="4.82148">
        <ele>368</ele>
        <time>2011-09-09T18:50:58Z</time>
      </trkpt>
      <trkpt lat="45.83074" lon="4.82146">
        <ele>368.20001220703</ele>
        <time>2011-09-09T18:50:59Z</time>
      </trkpt>
      <trkpt lat="45.8307" lon="4.8214">
        <ele>368.79998779297</ele>
        <time>2011-09-09T18:51:03Z</time>
      </trkpt>
      <trkpt lat="45.83066" lon="4.82134">
        <ele>369</ele>
        <time>2011-09-09T18:51:06Z</time>
      </trkpt>
      <trkpt lat="45.8306" lon="4.82125">
        <ele>369.79998779297</ele>
        <time>2011-09-09T18:51:11Z</time>
      </trkpt>
      <trkpt lat="45.83056" lon="4.82119">
        <ele>370.39999389648</ele>
        <time>2011-09-09T18:51:14Z</time>
      </trkpt>
      <trkpt lat="45.83053" lon="4.82116">
        <ele>370.79998779297</ele>
        <time>2011-09-09T18:51:16Z</time>
      </trkpt>
      <trkpt lat="45.83046" lon="4.82106">
        <ele>372</ele>
        <time>2011-09-09T18:51:22Z</time>
      </trkpt>
      <trkpt lat="45.83044" lon="4.82104">
        <ele>372.20001220703</ele>
        <time>2011-09-09T18:51:23Z</time>
      </trkpt>
      <trkpt lat="45.83043" lon="4.82102">
        <ele>372.60000610352</ele>
        <time>2011-09-09T18:51:25Z</time>
      </trkpt>
      <trkpt lat="45.8304" lon="4.82097">
        <ele>373.20001220703</ele>
        <time>2011-09-09T18:51:28Z</time>
      </trkpt>
      <trkpt lat="45.83034" lon="4.82086">
        <ele>374.60000610352</ele>
        <time>2011-09-09T18:51:34Z</time>
      </trkpt>
      <trkpt lat="45.83033" lon="4.82084">
        <ele>374.79998779297</ele>
        <time>2011-09-09T18:51:35Z</time>
      </trkpt>
      <trkpt lat="45.8303" lon="4.8208">
        <ele>375</ele>
        <time>2011-09-09T18:51:38Z</time>
      </trkpt>
      <trkpt lat="45.83023" lon="4.82074">
        <ele>375.60000610352</ele>
        <time>2011-09-09T18:51:43Z</time>
      </trkpt>
      <trkpt lat="45.83016" lon="4.82067">
        <ele>376.39999389648</ele>
        <time>2011-09-09T18:51:49Z</time>
      </trkpt>
      <trkpt lat="45.83011" lon="4.82057">
        <ele>377.20001220703</ele>
        <time>2011-09-09T18:51:54Z</time>
      </trkpt>
      <trkpt lat="45.83006" lon="4.82046">
        <ele>377.60000610352</ele>
        <time>2011-09-09T18:52:00Z</time>
      </trkpt>
      <trkpt lat="45.83001" lon="4.8204">
        <ele>378</ele>
        <time>2011-09-09T18:52:03Z</time>
      </trkpt>
      <trkpt lat="45.83" lon="4.82037">
        <ele>378.20001220703</ele>
        <time>2011-09-09T18:52:04Z</time>
      </trkpt>
      <trkpt lat="45.82995" lon="4.82028">
        <ele>378.79998779297</ele>
        <time>2011-09-09T18:52:07Z</time>
      </trkpt>
      <trkpt lat="45.82984" lon="4.82013">
        <ele>379.39999389648</ele>
        <time>2011-09-09T18:52:12Z</time>
      </trkpt>
      <trkpt lat="45.82982" lon="4.8201">
        <ele>379.39999389648</ele>
        <time>2011-09-09T18:52:13Z</time>
      </trkpt>
      <trkpt lat="45.8298" lon="4.82003">
        <ele>379.60000610352</ele>
        <time>2011-09-09T18:52:15Z</time>
      </trkpt>
      <trkpt lat="45.82987" lon="4.81991">
        <ele>380.20001220703</ele>
        <time>2011-09-09T18:52:21Z</time>
      </trkpt>
      <trkpt lat="45.82993" lon="4.81986">
        <ele>380.79998779297</ele>
        <time>2011-09-09T18:52:24Z</time>
      </trkpt>
      <trkpt lat="45.82999" lon="4.81978">
        <ele>381.39999389648</ele>
        <time>2011-09-09T18:52:28Z</time>
      </trkpt>
      <trkpt lat="45.83001" lon="4.81973">
        <ele>381.39999389648</ele>
        <time>2011-09-09T18:52:30Z</time>
      </trkpt>
      <trkpt lat="45.83006" lon="4.8196">
        <ele>382.20001220703</ele>
        <time>2011-09-09T18:52:36Z</time>
      </trkpt>
      <trkpt lat="45.83012" lon="4.81948">
        <ele>383.39999389648</ele>
        <time>2011-09-09T18:52:43Z</time>
      </trkpt>
      <trkpt lat="45.83014" lon="4.81941">
        <ele>383.60000610352</ele>
        <time>2011-09-09T18:52:47Z</time>
      </trkpt>
      <trkpt lat="45.83014" lon="4.81938">
        <ele>383.79998779297</ele>
        <time>2011-09-09T18:52:48Z</time>
      </trkpt>
      <trkpt lat="45.83014" lon="4.81923">
        <ele>384</ele>
        <time>2011-09-09T18:52:53Z</time>
      </trkpt>
      <trkpt lat="45.83012" lon="4.81908">
        <ele>384.20001220703</ele>
        <time>2011-09-09T18:52:58Z</time>
      </trkpt>
      <trkpt lat="45.83011" lon="4.81906">
        <ele>384.20001220703</ele>
        <time>2011-09-09T18:52:59Z</time>
      </trkpt>
      <trkpt lat="45.83007" lon="4.81894">
        <ele>384.60000610352</ele>
        <time>2011-09-09T18:53:03Z</time>
      </trkpt>
      <trkpt lat="45.83005" lon="4.81888">
        <ele>385</ele>
        <time>2011-09-09T18:53:05Z</time>
      </trkpt>
      <trkpt lat="45.83" lon="4.81876">
        <ele>385.60000610352</ele>
        <time>2011-09-09T18:53:10Z</time>
      </trkpt>
      <trkpt lat="45.82993" lon="4.81865">
        <ele>385.79998779297</ele>
        <time>2011-09-09T18:53:14Z</time>
      </trkpt>
      <trkpt lat="45.82989" lon="4.8185">
        <ele>386</ele>
        <time>2011-09-09T18:53:19Z</time>
      </trkpt>
      <trkpt lat="45.82986" lon="4.81842">
        <ele>386.20001220703</ele>
        <time>2011-09-09T18:53:23Z</time>
      </trkpt>
      <trkpt lat="45.82985" lon="4.81839">
        <ele>386.20001220703</ele>
        <time>2011-09-09T18:53:24Z</time>
      </trkpt>
      <trkpt lat="45.82983" lon="4.81831">
        <ele>386.20001220703</ele>
        <time>2011-09-09T18:53:27Z</time>
      </trkpt>
      <trkpt lat="45.82979" lon="4.81817">
        <ele>386.60000610352</ele>
        <time>2011-09-09T18:53:32Z</time>
      </trkpt>
      <trkpt lat="45.82978" lon="4.81812">
        <ele>387.20001220703</ele>
        <time>2011-09-09T18:53:36Z</time>
      </trkpt>
      <trkpt lat="45.82977" lon="4.81811">
        <ele>387.39999389648</ele>
        <time>2011-09-09T18:53:37Z</time>
      </trkpt>
      <trkpt lat="45.82977" lon="4.81811">
        <ele>387.39999389648</ele>
        <time>2011-09-09T18:53:38Z</time>
      </trkpt>
      <trkpt lat="45.82976" lon="4.8181">
        <ele>387.60000610352</ele>
        <time>2011-09-09T18:53:39Z</time>
      </trkpt>
      <trkpt lat="45.82972" lon="4.81805">
        <ele>388</ele>
        <time>2011-09-09T18:53:45Z</time>
      </trkpt>
      <trkpt lat="45.8297" lon="4.81804">
        <ele>388</ele>
        <time>2011-09-09T18:53:47Z</time>
      </trkpt>
      <trkpt lat="45.82965" lon="4.81801">
        <ele>388.20001220703</ele>
        <time>2011-09-09T18:53:53Z</time>
      </trkpt>
      <trkpt lat="45.82962" lon="4.81795">
        <ele>388.20001220703</ele>
        <time>2011-09-09T18:53:57Z</time>
      </trkpt>
      <trkpt lat="45.8296" lon="4.81793">
        <ele>388.20001220703</ele>
        <time>2011-09-09T18:53:59Z</time>
      </trkpt>
      <trkpt lat="45.82955" lon="4.81787">
        <ele>388.39999389648</ele>
        <time>2011-09-09T18:54:04Z</time>
      </trkpt>
      <trkpt lat="45.82952" lon="4.81783">
        <ele>388.39999389648</ele>
        <time>2011-09-09T18:54:08Z</time>
      </trkpt>
      <trkpt lat="45.82946" lon="4.81776">
        <ele>388.39999389648</ele>
        <time>2011-09-09T18:54:14Z</time>
      </trkpt>
      <trkpt lat="45.82942" lon="4.81773">
        <ele>389.20001220703</ele>
        <time>2011-09-09T18:54:21Z</time>
      </trkpt>
      <trkpt lat="45.82936" lon="4.81769">
        <ele>389.79998779297</ele>
        <time>2011-09-09T18:54:27Z</time>
      </trkpt>
      <trkpt lat="45.82935" lon="4.81768">
        <ele>389.79998779297</ele>
        <time>2011-09-09T18:54:28Z</time>
      </trkpt>
      <trkpt lat="45.8293" lon="4.81761">
        <ele>390.20001220703</ele>
        <time>2011-09-09T18:54:32Z</time>
      </trkpt>
      <trkpt lat="45.82927" lon="4.81749">
        <ele>391.20001220703</ele>
        <time>2011-09-09T18:54:37Z</time>
      </trkpt>
      <trkpt lat="45.82926" lon="4.81746">
        <ele>391.39999389648</ele>
        <time>2011-09-09T18:54:38Z</time>
      </trkpt>
      <trkpt lat="45.82921" lon="4.81729">
        <ele>391.79998779297</ele>
        <time>2011-09-09T18:54:43Z</time>
      </trkpt>
      <trkpt lat="45.8292" lon="4.81726">
        <ele>392</ele>
        <time>2011-09-09T18:54:44Z</time>
      </trkpt>
      <trkpt lat="45.82915" lon="4.81709">
        <ele>392.60000610352</ele>
        <time>2011-09-09T18:54:50Z</time>
      </trkpt>
      <trkpt lat="45.82912" lon="4.81692">
        <ele>393.39999389648</ele>
        <time>2011-09-09T18:54:55Z</time>
      </trkpt>
      <trkpt lat="45.82911" lon="4.81689">
        <ele>393.60000610352</ele>
        <time>2011-09-09T18:54:56Z</time>
      </trkpt>
      <trkpt lat="45.82907" lon="4.81675">
        <ele>394</ele>
        <time>2011-09-09T18:55:00Z</time>
      </trkpt>
      <trkpt lat="45.82903" lon="4.81662">
        <ele>394.20001220703</ele>
        <time>2011-09-09T18:55:04Z</time>
      </trkpt>
      <trkpt lat="45.82896" lon="4.81651">
        <ele>394.39999389648</ele>
        <time>2011-09-09T18:55:08Z</time>
      </trkpt>
      <trkpt lat="45.82886" lon="4.8164">
        <ele>394.60000610352</ele>
        <time>2011-09-09T18:55:14Z</time>
      </trkpt>
      <trkpt lat="45.82884" lon="4.81639">
        <ele>394.60000610352</ele>
        <time>2011-09-09T18:55:15Z</time>
      </trkpt>
      <trkpt lat="45.82878" lon="4.81631">
        <ele>394.60000610352</ele>
        <time>2011-09-09T18:55:19Z</time>
      </trkpt>
      <trkpt lat="45.82874" lon="4.81627">
        <ele>394.60000610352</ele>
        <time>2011-09-09T18:55:21Z</time>
      </trkpt>
      <trkpt lat="45.82869" lon="4.81608">
        <ele>394.60000610352</ele>
        <time>2011-09-09T18:55:27Z</time>
      </trkpt>
      <trkpt lat="45.82868" lon="4.816">
        <ele>394.60000610352</ele>
        <time>2011-09-09T18:55:30Z</time>
      </trkpt>
      <trkpt lat="45.82867" lon="4.81595">
        <ele>394.60000610352</ele>
        <time>2011-09-09T18:55:32Z</time>
      </trkpt>
      <trkpt lat="45.82865" lon="4.8159">
        <ele>394.60000610352</ele>
        <time>2011-09-09T18:55:34Z</time>
      </trkpt>
      <trkpt lat="45.82862" lon="4.81573">
        <ele>394.60000610352</ele>
        <time>2011-09-09T18:55:39Z</time>
      </trkpt>
      <trkpt lat="45.82861" lon="4.81557">
        <ele>394.60000610352</ele>
        <time>2011-09-09T18:55:43Z</time>
      </trkpt>
      <trkpt lat="45.82864" lon="4.81536">
        <ele>394.39999389648</ele>
        <time>2011-09-09T18:55:49Z</time>
      </trkpt>
      <trkpt lat="45.82867" lon="4.81517">
        <ele>393.79998779297</ele>
        <time>2011-09-09T18:55:53Z</time>
      </trkpt>
      <trkpt lat="45.82874" lon="4.81494">
        <ele>393.39999389648</ele>
        <time>2011-09-09T18:55:58Z</time>
      </trkpt>
      <trkpt lat="45.8288" lon="4.81482">
        <ele>392.39999389648</ele>
        <time>2011-09-09T18:56:02Z</time>
      </trkpt>
      <trkpt lat="45.82882" lon="4.8148">
        <ele>392.20001220703</ele>
        <time>2011-09-09T18:56:03Z</time>
      </trkpt>
      <trkpt lat="45.82896" lon="4.81469">
        <ele>390.79998779297</ele>
        <time>2011-09-09T18:56:08Z</time>
      </trkpt>
      <trkpt lat="45.82909" lon="4.81452">
        <ele>389.39999389648</ele>
        <time>2011-09-09T18:56:14Z</time>
      </trkpt>
      <trkpt lat="45.82911" lon="4.8145">
        <ele>389</ele>
        <time>2011-09-09T18:56:15Z</time>
      </trkpt>
      <trkpt lat="45.8292" lon="4.8144">
        <ele>388</ele>
        <time>2011-09-09T18:56:19Z</time>
      </trkpt>
      <trkpt lat="45.82925" lon="4.81427">
        <ele>386.60000610352</ele>
        <time>2011-09-09T18:56:24Z</time>
      </trkpt>
      <trkpt lat="45.82935" lon="4.81412">
        <ele>385.20001220703</ele>
        <time>2011-09-09T18:56:29Z</time>
      </trkpt>
      <trkpt lat="45.82943" lon="4.81397">
        <ele>383.60000610352</ele>
        <time>2011-09-09T18:56:34Z</time>
      </trkpt>
      <trkpt lat="45.8295" lon="4.81385">
        <ele>382.20001220703</ele>
        <time>2011-09-09T18:56:38Z</time>
      </trkpt>
      <trkpt lat="45.82962" lon="4.8137">
        <ele>380.60000610352</ele>
        <time>2011-09-09T18:56:43Z</time>
      </trkpt>
      <trkpt lat="45.82969" lon="4.8136">
        <ele>379.60000610352</ele>
        <time>2011-09-09T18:56:46Z</time>
      </trkpt>
      <trkpt lat="45.82971" lon="4.81356">
        <ele>379.39999389648</ele>
        <time>2011-09-09T18:56:47Z</time>
      </trkpt>
      <trkpt lat="45.82983" lon="4.81344">
        <ele>377.60000610352</ele>
        <time>2011-09-09T18:56:52Z</time>
      </trkpt>
      <trkpt lat="45.82993" lon="4.81335">
        <ele>376.39999389648</ele>
        <time>2011-09-09T18:56:56Z</time>
      </trkpt>
      <trkpt lat="45.83007" lon="4.81323">
        <ele>374.60000610352</ele>
        <time>2011-09-09T18:57:01Z</time>
      </trkpt>
      <trkpt lat="45.8301" lon="4.81319">
        <ele>374</ele>
        <time>2011-09-09T18:57:03Z</time>
      </trkpt>
      <trkpt lat="45.83014" lon="4.81305">
        <ele>372</ele>
        <time>2011-09-09T18:57:08Z</time>
      </trkpt>
      <trkpt lat="45.83022" lon="4.81303">
        <ele>370.60000610352</ele>
        <time>2011-09-09T18:57:12Z</time>
      </trkpt>
      <trkpt lat="45.83032" lon="4.81312">
        <ele>369</ele>
        <time>2011-09-09T18:57:17Z</time>
      </trkpt>
      <trkpt lat="45.83033" lon="4.81314">
        <ele>368.39999389648</ele>
        <time>2011-09-09T18:57:18Z</time>
      </trkpt>
      <trkpt lat="45.83043" lon="4.81326">
        <ele>365.79998779297</ele>
        <time>2011-09-09T18:57:24Z</time>
      </trkpt>
      <trkpt lat="45.83053" lon="4.81338">
        <ele>363.20001220703</ele>
        <time>2011-09-09T18:57:29Z</time>
      </trkpt>
      <trkpt lat="45.83064" lon="4.81357">
        <ele>359.79998779297</ele>
        <time>2011-09-09T18:57:35Z</time>
      </trkpt>
      <trkpt lat="45.83068" lon="4.81375">
        <ele>356.79998779297</ele>
        <time>2011-09-09T18:57:40Z</time>
      </trkpt>
      <trkpt lat="45.83071" lon="4.81385">
        <ele>355</ele>
        <time>2011-09-09T18:57:43Z</time>
      </trkpt>
      <trkpt lat="45.83078" lon="4.81381">
        <ele>352.60000610352</ele>
        <time>2011-09-09T18:57:47Z</time>
      </trkpt>
      <trkpt lat="45.83083" lon="4.81373">
        <ele>350.20001220703</ele>
        <time>2011-09-09T18:57:51Z</time>
      </trkpt>
      <trkpt lat="45.83092" lon="4.81369">
        <ele>348</ele>
        <time>2011-09-09T18:57:55Z</time>
      </trkpt>
      <trkpt lat="45.83096" lon="4.81368">
        <ele>346.60000610352</ele>
        <time>2011-09-09T18:57:58Z</time>
      </trkpt>
      <trkpt lat="45.83099" lon="4.81367">
        <ele>345.39999389648</ele>
        <time>2011-09-09T18:58:00Z</time>
      </trkpt>
      <trkpt lat="45.83105" lon="4.81364">
        <ele>343.60000610352</ele>
        <time>2011-09-09T18:58:04Z</time>
      </trkpt>
      <trkpt lat="45.83109" lon="4.81361">
        <ele>342.60000610352</ele>
        <time>2011-09-09T18:58:06Z</time>
      </trkpt>
      <trkpt lat="45.83117" lon="4.81355">
        <ele>340.79998779297</ele>
        <time>2011-09-09T18:58:11Z</time>
      </trkpt>
      <trkpt lat="45.83119" lon="4.8135">
        <ele>339.20001220703</ele>
        <time>2011-09-09T18:58:16Z</time>
      </trkpt>
      <trkpt lat="45.8312" lon="4.81343">
        <ele>337.79998779297</ele>
        <time>2011-09-09T18:58:21Z</time>
      </trkpt>
      <trkpt lat="45.8312" lon="4.81336">
        <ele>337.20001220703</ele>
        <time>2011-09-09T18:58:26Z</time>
      </trkpt>
      <trkpt lat="45.83121" lon="4.81332">
        <ele>336.20001220703</ele>
        <time>2011-09-09T18:58:29Z</time>
      </trkpt>
      <trkpt lat="45.83121" lon="4.81325">
        <ele>335.39999389648</ele>
        <time>2011-09-09T18:58:34Z</time>
      </trkpt>
      <trkpt lat="45.83125" lon="4.81326">
        <ele>334.79998779297</ele>
        <time>2011-09-09T18:58:39Z</time>
      </trkpt>
      <trkpt lat="45.83128" lon="4.81329">
        <ele>334</ele>
        <time>2011-09-09T18:58:44Z</time>
      </trkpt>
      <trkpt lat="45.8313" lon="4.8133">
        <ele>333.79998779297</ele>
        <time>2011-09-09T18:58:45Z</time>
      </trkpt>
      <trkpt lat="45.83135" lon="4.81332">
        <ele>333</ele>
        <time>2011-09-09T18:58:51Z</time>
      </trkpt>
      <trkpt lat="45.83136" lon="4.81333">
        <ele>332.79998779297</ele>
        <time>2011-09-09T18:58:52Z</time>
      </trkpt>
      <trkpt lat="45.83137" lon="4.81334">
        <ele>332.60000610352</ele>
        <time>2011-09-09T18:58:54Z</time>
      </trkpt>
      <trkpt lat="45.83141" lon="4.81337">
        <ele>332.20001220703</ele>
        <time>2011-09-09T18:58:59Z</time>
      </trkpt>
      <trkpt lat="45.83142" lon="4.81339">
        <ele>332</ele>
        <time>2011-09-09T18:59:00Z</time>
      </trkpt>
      <trkpt lat="45.83148" lon="4.81342">
        <ele>331</ele>
        <time>2011-09-09T18:59:05Z</time>
      </trkpt>
      <trkpt lat="45.83149" lon="4.81343">
        <ele>330.79998779297</ele>
        <time>2011-09-09T18:59:07Z</time>
      </trkpt>
      <trkpt lat="45.83156" lon="4.81346">
        <ele>330.39999389648</ele>
        <time>2011-09-09T18:59:14Z</time>
      </trkpt>
      <trkpt lat="45.8316" lon="4.81348">
        <ele>330.20001220703</ele>
        <time>2011-09-09T18:59:19Z</time>
      </trkpt>
      <trkpt lat="45.83163" lon="4.81348">
        <ele>329.79998779297</ele>
        <time>2011-09-09T18:59:22Z</time>
      </trkpt>
      <trkpt lat="45.83168" lon="4.81352">
        <ele>329</ele>
        <time>2011-09-09T18:59:27Z</time>
      </trkpt>
      <trkpt lat="45.83173" lon="4.8135">
        <ele>328.39999389648</ele>
        <time>2011-09-09T18:59:33Z</time>
      </trkpt>
      <trkpt lat="45.83173" lon="4.8135">
        <ele>328.39999389648</ele>
        <time>2011-09-09T18:59:34Z</time>
      </trkpt>
      <trkpt lat="45.83176" lon="4.81353">
        <ele>328.20001220703</ele>
        <time>2011-09-09T18:59:38Z</time>
      </trkpt>
      <trkpt lat="45.83181" lon="4.81355">
        <ele>328</ele>
        <time>2011-09-09T18:59:44Z</time>
      </trkpt>
      <trkpt lat="45.83182" lon="4.81356">
        <ele>328</ele>
        <time>2011-09-09T18:59:46Z</time>
      </trkpt>
      <trkpt lat="45.83184" lon="4.81355">
        <ele>328</ele>
        <time>2011-09-09T18:59:49Z</time>
      </trkpt>
      <trkpt lat="45.83188" lon="4.81353">
        <ele>327.79998779297</ele>
        <time>2011-09-09T18:59:55Z</time>
      </trkpt>
      <trkpt lat="45.83192" lon="4.81356">
        <ele>327.79998779297</ele>
        <time>2011-09-09T19:00:00Z</time>
      </trkpt>
      <trkpt lat="45.83193" lon="4.81356">
        <ele>327.79998779297</ele>
        <time>2011-09-09T19:00:01Z</time>
      </trkpt>
      <trkpt lat="45.83199" lon="4.81355">
        <ele>327.79998779297</ele>
        <time>2011-09-09T19:00:06Z</time>
      </trkpt>
      <trkpt lat="45.83204" lon="4.8135">
        <ele>327.79998779297</ele>
        <time>2011-09-09T19:00:10Z</time>
      </trkpt>
      <trkpt lat="45.8321" lon="4.8135">
        <ele>327.79998779297</ele>
        <time>2011-09-09T19:00:14Z</time>
      </trkpt>
      <trkpt lat="45.83212" lon="4.81351">
        <ele>328</ele>
        <time>2011-09-09T19:00:15Z</time>
      </trkpt>
      <trkpt lat="45.83217" lon="4.81357">
        <ele>328.39999389648</ele>
        <time>2011-09-09T19:00:18Z</time>
      </trkpt>
      <trkpt lat="45.8322" lon="4.81361">
        <ele>328.60000610352</ele>
        <time>2011-09-09T19:00:20Z</time>
      </trkpt>
      <trkpt lat="45.83229" lon="4.81357">
        <ele>329.20001220703</ele>
        <time>2011-09-09T19:00:25Z</time>
      </trkpt>
      <trkpt lat="45.83231" lon="4.81356">
        <ele>329.39999389648</ele>
        <time>2011-09-09T19:00:28Z</time>
      </trkpt>
      <trkpt lat="45.83234" lon="4.81352">
        <ele>330</ele>
        <time>2011-09-09T19:00:33Z</time>
      </trkpt>
      <trkpt lat="45.83236" lon="4.8135">
        <ele>330.39999389648</ele>
        <time>2011-09-09T19:00:35Z</time>
      </trkpt>
      <trkpt lat="45.83239" lon="4.81349">
        <ele>331</ele>
        <time>2011-09-09T19:00:40Z</time>
      </trkpt>
      <trkpt lat="45.83241" lon="4.81345">
        <ele>331.39999389648</ele>
        <time>2011-09-09T19:00:46Z</time>
      </trkpt>
      <trkpt lat="45.83242" lon="4.8134">
        <ele>332.39999389648</ele>
        <time>2011-09-09T19:00:50Z</time>
      </trkpt>
      <trkpt lat="45.83246" lon="4.81336">
        <ele>333</ele>
        <time>2011-09-09T19:00:54Z</time>
      </trkpt>
      <trkpt lat="45.83252" lon="4.8133">
        <ele>333.39999389648</ele>
        <time>2011-09-09T19:01:00Z</time>
      </trkpt>
      <trkpt lat="45.83252" lon="4.81327">
        <ele>333.60000610352</ele>
        <time>2011-09-09T19:01:02Z</time>
      </trkpt>
      <trkpt lat="45.8325" lon="4.81316">
        <ele>334.79998779297</ele>
        <time>2011-09-09T19:01:09Z</time>
      </trkpt>
      <trkpt lat="45.83248" lon="4.81306">
        <ele>335.79998779297</ele>
        <time>2011-09-09T19:01:16Z</time>
      </trkpt>
      <trkpt lat="45.83247" lon="4.813">
        <ele>336.79998779297</ele>
        <time>2011-09-09T19:01:21Z</time>
      </trkpt>
      <trkpt lat="45.83244" lon="4.81292">
        <ele>338</ele>
        <time>2011-09-09T19:01:27Z</time>
      </trkpt>
      <trkpt lat="45.83241" lon="4.81285">
        <ele>339</ele>
        <time>2011-09-09T19:01:32Z</time>
      </trkpt>
      <trkpt lat="45.8324" lon="4.81283">
        <ele>339</ele>
        <time>2011-09-09T19:01:33Z</time>
      </trkpt>
      <trkpt lat="45.83239" lon="4.81273">
        <ele>340.20001220703</ele>
        <time>2011-09-09T19:01:39Z</time>
      </trkpt>
      <trkpt lat="45.83236" lon="4.81258">
        <ele>341.39999389648</ele>
        <time>2011-09-09T19:01:45Z</time>
      </trkpt>
      <trkpt lat="45.83235" lon="4.81242">
        <ele>342.79998779297</ele>
        <time>2011-09-09T19:01:50Z</time>
      </trkpt>
      <trkpt lat="45.83234" lon="4.81226">
        <ele>343.60000610352</ele>
        <time>2011-09-09T19:01:55Z</time>
      </trkpt>
      <trkpt lat="45.83234" lon="4.81215">
        <ele>344.79998779297</ele>
        <time>2011-09-09T19:01:59Z</time>
      </trkpt>
      <trkpt lat="45.83235" lon="4.81204">
        <ele>345.39999389648</ele>
        <time>2011-09-09T19:02:02Z</time>
      </trkpt>
      <trkpt lat="45.83233" lon="4.81188">
        <ele>346.39999389648</ele>
        <time>2011-09-09T19:02:08Z</time>
      </trkpt>
      <trkpt lat="45.83231" lon="4.81177">
        <ele>347.39999389648</ele>
        <time>2011-09-09T19:02:13Z</time>
      </trkpt>
      <trkpt lat="45.8323" lon="4.81167">
        <ele>348</ele>
        <time>2011-09-09T19:02:17Z</time>
      </trkpt>
      <trkpt lat="45.83232" lon="4.81157">
        <ele>349.20001220703</ele>
        <time>2011-09-09T19:02:22Z</time>
      </trkpt>
      <trkpt lat="45.83236" lon="4.81152">
        <ele>349.79998779297</ele>
        <time>2011-09-09T19:02:26Z</time>
      </trkpt>
      <trkpt lat="45.83237" lon="4.8114">
        <ele>350.39999389648</ele>
        <time>2011-09-09T19:02:32Z</time>
      </trkpt>
      <trkpt lat="45.83237" lon="4.81131">
        <ele>350.60000610352</ele>
        <time>2011-09-09T19:02:36Z</time>
      </trkpt>
      <trkpt lat="45.83237" lon="4.81124">
        <ele>351.20001220703</ele>
        <time>2011-09-09T19:02:39Z</time>
      </trkpt>
      <trkpt lat="45.83234" lon="4.81109">
        <ele>352.60000610352</ele>
        <time>2011-09-09T19:02:45Z</time>
      </trkpt>
      <trkpt lat="45.83229" lon="4.81098">
        <ele>353.79998779297</ele>
        <time>2011-09-09T19:02:50Z</time>
      </trkpt>
      <trkpt lat="45.83221" lon="4.81095">
        <ele>355.39999389648</ele>
        <time>2011-09-09T19:02:55Z</time>
      </trkpt>
      <trkpt lat="45.83214" lon="4.81093">
        <ele>356.79998779297</ele>
        <time>2011-09-09T19:02:59Z</time>
      </trkpt>
      <trkpt lat="45.83202" lon="4.8109">
        <ele>359</ele>
        <time>2011-09-09T19:03:05Z</time>
      </trkpt>
      <trkpt lat="45.83194" lon="4.81086">
        <ele>360.39999389648</ele>
        <time>2011-09-09T19:03:09Z</time>
      </trkpt>
      <trkpt lat="45.83186" lon="4.81081">
        <ele>362.79998779297</ele>
        <time>2011-09-09T19:03:15Z</time>
      </trkpt>
      <trkpt lat="45.83185" lon="4.81081">
        <ele>363</ele>
        <time>2011-09-09T19:03:16Z</time>
      </trkpt>
      <trkpt lat="45.8318" lon="4.8108">
        <ele>364</ele>
        <time>2011-09-09T19:03:19Z</time>
      </trkpt>
      <trkpt lat="45.8317" lon="4.81077">
        <ele>366.39999389648</ele>
        <time>2011-09-09T19:03:26Z</time>
      </trkpt>
      <trkpt lat="45.83168" lon="4.81076">
        <ele>366.79998779297</ele>
        <time>2011-09-09T19:03:28Z</time>
      </trkpt>
      <trkpt lat="45.83164" lon="4.81072">
        <ele>367.39999389648</ele>
        <time>2011-09-09T19:03:32Z</time>
      </trkpt>
      <trkpt lat="45.83158" lon="4.81062">
        <ele>369</ele>
        <time>2011-09-09T19:03:39Z</time>
      </trkpt>
      <trkpt lat="45.83155" lon="4.81053">
        <ele>369.79998779297</ele>
        <time>2011-09-09T19:03:45Z</time>
      </trkpt>
      <trkpt lat="45.83153" lon="4.81049">
        <ele>370</ele>
        <time>2011-09-09T19:03:48Z</time>
      </trkpt>
      <trkpt lat="45.8315" lon="4.81043">
        <ele>370.60000610352</ele>
        <time>2011-09-09T19:03:52Z</time>
      </trkpt>
      <trkpt lat="45.83148" lon="4.81039">
        <ele>371</ele>
        <time>2011-09-09T19:03:54Z</time>
      </trkpt>
      <trkpt lat="45.83145" lon="4.81027">
        <ele>371.79998779297</ele>
        <time>2011-09-09T19:03:59Z</time>
      </trkpt>
      <trkpt lat="45.83144" lon="4.8102">
        <ele>372</ele>
        <time>2011-09-09T19:04:02Z</time>
      </trkpt>
      <trkpt lat="45.83145" lon="4.81012">
        <ele>372.60000610352</ele>
        <time>2011-09-09T19:04:05Z</time>
      </trkpt>
      <trkpt lat="45.83147" lon="4.81001">
        <ele>373.60000610352</ele>
        <time>2011-09-09T19:04:10Z</time>
      </trkpt>
      <trkpt lat="45.83146" lon="4.80987">
        <ele>374</ele>
        <time>2011-09-09T19:04:16Z</time>
      </trkpt>
      <trkpt lat="45.83146" lon="4.80985">
        <ele>374.60000610352</ele>
        <time>2011-09-09T19:04:17Z</time>
      </trkpt>
      <trkpt lat="45.83147" lon="4.80978">
        <ele>375.39999389648</ele>
        <time>2011-09-09T19:04:21Z</time>
      </trkpt>
      <trkpt lat="45.83148" lon="4.80976">
        <ele>375.60000610352</ele>
        <time>2011-09-09T19:04:22Z</time>
      </trkpt>
      <trkpt lat="45.8315" lon="4.80973">
        <ele>376.39999389648</ele>
        <time>2011-09-09T19:04:26Z</time>
      </trkpt>
      <trkpt lat="45.83153" lon="4.80969">
        <ele>377.20001220703</ele>
        <time>2011-09-09T19:04:29Z</time>
      </trkpt>
      <trkpt lat="45.83158" lon="4.80956">
        <ele>379.39999389648</ele>
        <time>2011-09-09T19:04:38Z</time>
      </trkpt>
      <trkpt lat="45.83158" lon="4.80955">
        <ele>379.60000610352</ele>
        <time>2011-09-09T19:04:39Z</time>
      </trkpt>
      <trkpt lat="45.83162" lon="4.80946">
        <ele>381</ele>
        <time>2011-09-09T19:04:46Z</time>
      </trkpt>
      <trkpt lat="45.83163" lon="4.80936">
        <ele>382.20001220703</ele>
        <time>2011-09-09T19:04:53Z</time>
      </trkpt>
      <trkpt lat="45.83163" lon="4.80935">
        <ele>382.20001220703</ele>
        <time>2011-09-09T19:04:54Z</time>
      </trkpt>
      <trkpt lat="45.83163" lon="4.80931">
        <ele>382.60000610352</ele>
        <time>2011-09-09T19:04:56Z</time>
      </trkpt>
      <trkpt lat="45.83163" lon="4.80927">
        <ele>383.20001220703</ele>
        <time>2011-09-09T19:04:58Z</time>
      </trkpt>
      <trkpt lat="45.83164" lon="4.80925">
        <ele>383.60000610352</ele>
        <time>2011-09-09T19:05:00Z</time>
      </trkpt>
      <trkpt lat="45.83168" lon="4.80915">
        <ele>385</ele>
        <time>2011-09-09T19:05:07Z</time>
      </trkpt>
      <trkpt lat="45.83167" lon="4.80909">
        <ele>386</ele>
        <time>2011-09-09T19:05:12Z</time>
      </trkpt>
      <trkpt lat="45.83166" lon="4.80904">
        <ele>387</ele>
        <time>2011-09-09T19:05:16Z</time>
      </trkpt>
      <trkpt lat="45.83165" lon="4.80902">
        <ele>387.39999389648</ele>
        <time>2011-09-09T19:05:18Z</time>
      </trkpt>
      <trkpt lat="45.83163" lon="4.80888">
        <ele>389.79998779297</ele>
        <time>2011-09-09T19:05:27Z</time>
      </trkpt>
      <trkpt lat="45.83163" lon="4.80887">
        <ele>390.39999389648</ele>
        <time>2011-09-09T19:05:29Z</time>
      </trkpt>
      <trkpt lat="45.83162" lon="4.80884">
        <ele>391</ele>
        <time>2011-09-09T19:05:31Z</time>
      </trkpt>
      <trkpt lat="45.83159" lon="4.80876">
        <ele>392.60000610352</ele>
        <time>2011-09-09T19:05:37Z</time>
      </trkpt>
      <trkpt lat="45.83159" lon="4.80874">
        <ele>393</ele>
        <time>2011-09-09T19:05:38Z</time>
      </trkpt>
      <trkpt lat="45.83158" lon="4.80871">
        <ele>393.60000610352</ele>
        <time>2011-09-09T19:05:40Z</time>
      </trkpt>
      <trkpt lat="45.83155" lon="4.80862">
        <ele>395.39999389648</ele>
        <time>2011-09-09T19:05:48Z</time>
      </trkpt>
      <trkpt lat="45.83155" lon="4.80861">
        <ele>395.60000610352</ele>
        <time>2011-09-09T19:05:49Z</time>
      </trkpt>
      <trkpt lat="45.83157" lon="4.80853">
        <ele>396.39999389648</ele>
        <time>2011-09-09T19:05:53Z</time>
      </trkpt>
      <trkpt lat="45.83163" lon="4.80842">
        <ele>397.20001220703</ele>
        <time>2011-09-09T19:05:58Z</time>
      </trkpt>
      <trkpt lat="45.83165" lon="4.8084">
        <ele>397.20001220703</ele>
        <time>2011-09-09T19:05:59Z</time>
      </trkpt>
      <trkpt lat="45.83176" lon="4.80827">
        <ele>397.79998779297</ele>
        <time>2011-09-09T19:06:06Z</time>
      </trkpt>
      <trkpt lat="45.83177" lon="4.80827">
        <ele>397.79998779297</ele>
        <time>2011-09-09T19:06:07Z</time>
      </trkpt>
      <trkpt lat="45.83185" lon="4.80833">
        <ele>398</ele>
        <time>2011-09-09T19:06:12Z</time>
      </trkpt>
      <trkpt lat="45.83197" lon="4.80835">
        <ele>398</ele>
        <time>2011-09-09T19:06:21Z</time>
      </trkpt>
      <trkpt lat="45.83206" lon="4.8083">
        <ele>398.79998779297</ele>
        <time>2011-09-09T19:06:26Z</time>
      </trkpt>
      <trkpt lat="45.8321" lon="4.80826">
        <ele>399.20001220703</ele>
        <time>2011-09-09T19:06:28Z</time>
      </trkpt>
      <trkpt lat="45.83212" lon="4.80821">
        <ele>399.39999389648</ele>
        <time>2011-09-09T19:06:30Z</time>
      </trkpt>
      <trkpt lat="45.83218" lon="4.80814">
        <ele>400.39999389648</ele>
        <time>2011-09-09T19:06:34Z</time>
      </trkpt>
      <trkpt lat="45.83219" lon="4.80812">
        <ele>400.60000610352</ele>
        <time>2011-09-09T19:06:35Z</time>
      </trkpt>
      <trkpt lat="45.83221" lon="4.80807">
        <ele>401</ele>
        <time>2011-09-09T19:06:37Z</time>
      </trkpt>
      <trkpt lat="45.83228" lon="4.80797">
        <ele>402.20001220703</ele>
        <time>2011-09-09T19:06:42Z</time>
      </trkpt>
      <trkpt lat="45.83235" lon="4.80789">
        <ele>403.20001220703</ele>
        <time>2011-09-09T19:06:48Z</time>
      </trkpt>
      <trkpt lat="45.83239" lon="4.80788">
        <ele>404.20001220703</ele>
        <time>2011-09-09T19:06:51Z</time>
      </trkpt>
      <trkpt lat="45.83243" lon="4.80781">
        <ele>405</ele>
        <time>2011-09-09T19:06:55Z</time>
      </trkpt>
      <trkpt lat="45.8325" lon="4.80777">
        <ele>406.39999389648</ele>
        <time>2011-09-09T19:07:00Z</time>
      </trkpt>
      <trkpt lat="45.83254" lon="4.80775">
        <ele>407</ele>
        <time>2011-09-09T19:07:03Z</time>
      </trkpt>
      <trkpt lat="45.83264" lon="4.8077">
        <ele>408.20001220703</ele>
        <time>2011-09-09T19:07:08Z</time>
      </trkpt>
      <trkpt lat="45.83267" lon="4.80761">
        <ele>409.20001220703</ele>
        <time>2011-09-09T19:07:12Z</time>
      </trkpt>
      <trkpt lat="45.8327" lon="4.80755">
        <ele>409.60000610352</ele>
        <time>2011-09-09T19:07:16Z</time>
      </trkpt>
      <trkpt lat="45.8327" lon="4.80749">
        <ele>409.79998779297</ele>
        <time>2011-09-09T19:07:18Z</time>
      </trkpt>
      <trkpt lat="45.83273" lon="4.80741">
        <ele>410.20001220703</ele>
        <time>2011-09-09T19:07:21Z</time>
      </trkpt>
      <trkpt lat="45.83279" lon="4.80723">
        <ele>411.39999389648</ele>
        <time>2011-09-09T19:07:27Z</time>
      </trkpt>
      <trkpt lat="45.83282" lon="4.8072">
        <ele>412</ele>
        <time>2011-09-09T19:07:31Z</time>
      </trkpt>
      <trkpt lat="45.83285" lon="4.8072">
        <ele>412.39999389648</ele>
        <time>2011-09-09T19:07:37Z</time>
      </trkpt>
      <trkpt lat="45.83287" lon="4.8072">
        <ele>412.39999389648</ele>
        <time>2011-09-09T19:07:39Z</time>
      </trkpt>
      <trkpt lat="45.83296" lon="4.80716">
        <ele>413.60000610352</ele>
        <time>2011-09-09T19:07:46Z</time>
      </trkpt>
      <trkpt lat="45.83297" lon="4.80715">
        <ele>413.79998779297</ele>
        <time>2011-09-09T19:07:47Z</time>
      </trkpt>
      <trkpt lat="45.83305" lon="4.80712">
        <ele>414.20001220703</ele>
        <time>2011-09-09T19:07:52Z</time>
      </trkpt>
      <trkpt lat="45.83313" lon="4.80713">
        <ele>415.20001220703</ele>
        <time>2011-09-09T19:07:57Z</time>
      </trkpt>
      <trkpt lat="45.83321" lon="4.80708">
        <ele>416.39999389648</ele>
        <time>2011-09-09T19:08:03Z</time>
      </trkpt>
      <trkpt lat="45.83323" lon="4.80707">
        <ele>416.79998779297</ele>
        <time>2011-09-09T19:08:04Z</time>
      </trkpt>
      <trkpt lat="45.83324" lon="4.80706">
        <ele>417</ele>
        <time>2011-09-09T19:08:05Z</time>
      </trkpt>
      <trkpt lat="45.8333" lon="4.807">
        <ele>418.60000610352</ele>
        <time>2011-09-09T19:08:11Z</time>
      </trkpt>
      <trkpt lat="45.83332" lon="4.80696">
        <ele>419</ele>
        <time>2011-09-09T19:08:13Z</time>
      </trkpt>
      <trkpt lat="45.83336" lon="4.80685">
        <ele>419.79998779297</ele>
        <time>2011-09-09T19:08:17Z</time>
      </trkpt>
      <trkpt lat="45.83343" lon="4.80679">
        <ele>420.39999389648</ele>
        <time>2011-09-09T19:08:21Z</time>
      </trkpt>
      <trkpt lat="45.83347" lon="4.80673">
        <ele>421.20001220703</ele>
        <time>2011-09-09T19:08:24Z</time>
      </trkpt>
      <trkpt lat="45.83352" lon="4.80672">
        <ele>422</ele>
        <time>2011-09-09T19:08:29Z</time>
      </trkpt>
      <trkpt lat="45.83353" lon="4.80673">
        <ele>422.20001220703</ele>
        <time>2011-09-09T19:08:30Z</time>
      </trkpt>
      <trkpt lat="45.83353" lon="4.80672">
        <ele>422.20001220703</ele>
        <time>2011-09-09T19:08:31Z</time>
      </trkpt>
      <trkpt lat="45.83357" lon="4.80671">
        <ele>422.39999389648</ele>
        <time>2011-09-09T19:08:34Z</time>
      </trkpt>
      <trkpt lat="45.83363" lon="4.80669">
        <ele>423.60000610352</ele>
        <time>2011-09-09T19:08:39Z</time>
      </trkpt>
      <trkpt lat="45.83369" lon="4.80667">
        <ele>424.20001220703</ele>
        <time>2011-09-09T19:08:43Z</time>
      </trkpt>
      <trkpt lat="45.83374" lon="4.80662">
        <ele>424.60000610352</ele>
        <time>2011-09-09T19:08:47Z</time>
      </trkpt>
      <trkpt lat="45.83376" lon="4.80656">
        <ele>425.20001220703</ele>
        <time>2011-09-09T19:08:49Z</time>
      </trkpt>
      <trkpt lat="45.83377" lon="4.80639">
        <ele>426.20001220703</ele>
        <time>2011-09-09T19:08:54Z</time>
      </trkpt>
      <trkpt lat="45.83376" lon="4.80623">
        <ele>426.60000610352</ele>
        <time>2011-09-09T19:08:59Z</time>
      </trkpt>
      <trkpt lat="45.83374" lon="4.80604">
        <ele>428</ele>
        <time>2011-09-09T19:09:05Z</time>
      </trkpt>
      <trkpt lat="45.83371" lon="4.80583">
        <ele>429</ele>
        <time>2011-09-09T19:09:12Z</time>
      </trkpt>
      <trkpt lat="45.83368" lon="4.8057">
        <ele>429.20001220703</ele>
        <time>2011-09-09T19:09:16Z</time>
      </trkpt>
      <trkpt lat="45.83374" lon="4.80563">
        <ele>429.39999389648</ele>
        <time>2011-09-09T19:09:21Z</time>
      </trkpt>
      <trkpt lat="45.83376" lon="4.80563">
        <ele>429.39999389648</ele>
        <time>2011-09-09T19:09:22Z</time>
      </trkpt>
      <trkpt lat="45.83384" lon="4.80562">
        <ele>430.39999389648</ele>
        <time>2011-09-09T19:09:27Z</time>
      </trkpt>
      <trkpt lat="45.83393" lon="4.80559">
        <ele>431.20001220703</ele>
        <time>2011-09-09T19:09:33Z</time>
      </trkpt>
      <trkpt lat="45.83401" lon="4.80557">
        <ele>432.39999389648</ele>
        <time>2011-09-09T19:09:38Z</time>
      </trkpt>
      <trkpt lat="45.83403" lon="4.80557">
        <ele>432.39999389648</ele>
        <time>2011-09-09T19:09:39Z</time>
      </trkpt>
      <trkpt lat="45.83409" lon="4.80557">
        <ele>433.39999389648</ele>
        <time>2011-09-09T19:09:43Z</time>
      </trkpt>
      <trkpt lat="45.83417" lon="4.80551">
        <ele>434.60000610352</ele>
        <time>2011-09-09T19:09:50Z</time>
      </trkpt>
      <trkpt lat="45.83423" lon="4.80547">
        <ele>435.60000610352</ele>
        <time>2011-09-09T19:09:55Z</time>
      </trkpt>
      <trkpt lat="45.8343" lon="4.80539">
        <ele>436.79998779297</ele>
        <time>2011-09-09T19:10:02Z</time>
      </trkpt>
      <trkpt lat="45.83436" lon="4.80535">
        <ele>438.20001220703</ele>
        <time>2011-09-09T19:10:08Z</time>
      </trkpt>
      <trkpt lat="45.83437" lon="4.80535">
        <ele>438.39999389648</ele>
        <time>2011-09-09T19:10:09Z</time>
      </trkpt>
      <trkpt lat="45.83444" lon="4.80533">
        <ele>439.60000610352</ele>
        <time>2011-09-09T19:10:17Z</time>
      </trkpt>
      <trkpt lat="45.83445" lon="4.80533">
        <ele>440</ele>
        <time>2011-09-09T19:10:17Z</time>
      </trkpt>
      <trkpt lat="45.83451" lon="4.80531">
        <ele>440.79998779297</ele>
        <time>2011-09-09T19:10:22Z</time>
      </trkpt>
      <trkpt lat="45.8346" lon="4.80526">
        <ele>442.20001220703</ele>
        <time>2011-09-09T19:10:28Z</time>
      </trkpt>
      <trkpt lat="45.83462" lon="4.80526">
        <ele>442.39999389648</ele>
        <time>2011-09-09T19:10:29Z</time>
      </trkpt>
      <trkpt lat="45.83464" lon="4.80525">
        <ele>442.60000610352</ele>
        <time>2011-09-09T19:10:30Z</time>
      </trkpt>
      <trkpt lat="45.8347" lon="4.80521">
        <ele>443.39999389648</ele>
        <time>2011-09-09T19:10:34Z</time>
      </trkpt>
      <trkpt lat="45.83472" lon="4.80521">
        <ele>443.79998779297</ele>
        <time>2011-09-09T19:10:35Z</time>
      </trkpt>
      <trkpt lat="45.83474" lon="4.8052">
        <ele>444</ele>
        <time>2011-09-09T19:10:36Z</time>
      </trkpt>
      <trkpt lat="45.83476" lon="4.80519">
        <ele>444.20001220703</ele>
        <time>2011-09-09T19:10:37Z</time>
      </trkpt>
      <trkpt lat="45.83484" lon="4.80515">
        <ele>445.20001220703</ele>
        <time>2011-09-09T19:10:42Z</time>
      </trkpt>
      <trkpt lat="45.83485" lon="4.80513">
        <ele>445.20001220703</ele>
        <time>2011-09-09T19:10:43Z</time>
      </trkpt>
      <trkpt lat="45.83494" lon="4.80503">
        <ele>446.60000610352</ele>
        <time>2011-09-09T19:10:50Z</time>
      </trkpt>
      <trkpt lat="45.83503" lon="4.80495">
        <ele>447.79998779297</ele>
        <time>2011-09-09T19:10:56Z</time>
      </trkpt>
      <trkpt lat="45.83512" lon="4.80487">
        <ele>449</ele>
        <time>2011-09-09T19:11:02Z</time>
      </trkpt>
      <trkpt lat="45.83513" lon="4.80486">
        <ele>449.20001220703</ele>
        <time>2011-09-09T19:11:03Z</time>
      </trkpt>
      <trkpt lat="45.83521" lon="4.80481">
        <ele>449.79998779297</ele>
        <time>2011-09-09T19:11:08Z</time>
      </trkpt>
      <trkpt lat="45.83522" lon="4.8048">
        <ele>449.79998779297</ele>
        <time>2011-09-09T19:11:09Z</time>
      </trkpt>
      <trkpt lat="45.83527" lon="4.80478">
        <ele>450</ele>
        <time>2011-09-09T19:11:12Z</time>
      </trkpt>
      <trkpt lat="45.83535" lon="4.80475">
        <ele>450.20001220703</ele>
        <time>2011-09-09T19:11:17Z</time>
      </trkpt>
      <trkpt lat="45.83547" lon="4.80467">
        <ele>451.60000610352</ele>
        <time>2011-09-09T19:11:25Z</time>
      </trkpt>
      <trkpt lat="45.83549" lon="4.80466">
        <ele>451.79998779297</ele>
        <time>2011-09-09T19:11:26Z</time>
      </trkpt>
      <trkpt lat="45.83557" lon="4.80461">
        <ele>453</ele>
        <time>2011-09-09T19:11:31Z</time>
      </trkpt>
      <trkpt lat="45.83562" lon="4.80457">
        <ele>453.79998779297</ele>
        <time>2011-09-09T19:11:35Z</time>
      </trkpt>
      <trkpt lat="45.83569" lon="4.80453">
        <ele>455.20001220703</ele>
        <time>2011-09-09T19:11:40Z</time>
      </trkpt>
      <trkpt lat="45.8357" lon="4.80452">
        <ele>455.39999389648</ele>
        <time>2011-09-09T19:11:41Z</time>
      </trkpt>
      <trkpt lat="45.83579" lon="4.80448">
        <ele>457.39999389648</ele>
        <time>2011-09-09T19:11:48Z</time>
      </trkpt>
      <trkpt lat="45.83587" lon="4.80445">
        <ele>459.39999389648</ele>
        <time>2011-09-09T19:11:55Z</time>
      </trkpt>
      <trkpt lat="45.83588" lon="4.80445">
        <ele>459.79998779297</ele>
        <time>2011-09-09T19:11:56Z</time>
      </trkpt>
      <trkpt lat="45.83592" lon="4.80443">
        <ele>460.79998779297</ele>
        <time>2011-09-09T19:11:59Z</time>
      </trkpt>
      <trkpt lat="45.83596" lon="4.80441">
        <ele>461.39999389648</ele>
        <time>2011-09-09T19:12:01Z</time>
      </trkpt>
      <trkpt lat="45.83599" lon="4.80428">
        <ele>463.39999389648</ele>
        <time>2011-09-09T19:12:08Z</time>
      </trkpt>
      <trkpt lat="45.83599" lon="4.80426">
        <ele>463.79998779297</ele>
        <time>2011-09-09T19:12:09Z</time>
      </trkpt>
      <trkpt lat="45.83597" lon="4.80414">
        <ele>464.60000610352</ele>
        <time>2011-09-09T19:12:14Z</time>
      </trkpt>
      <trkpt lat="45.83597" lon="4.80412">
        <ele>465</ele>
        <time>2011-09-09T19:12:15Z</time>
      </trkpt>
      <trkpt lat="45.83593" lon="4.80396">
        <ele>466.39999389648</ele>
        <time>2011-09-09T19:12:22Z</time>
      </trkpt>
      <trkpt lat="45.83594" lon="4.80393">
        <ele>466.79998779297</ele>
        <time>2011-09-09T19:12:24Z</time>
      </trkpt>
      <trkpt lat="45.83595" lon="4.8039">
        <ele>467.39999389648</ele>
        <time>2011-09-09T19:12:26Z</time>
      </trkpt>
      <trkpt lat="45.83598" lon="4.8038">
        <ele>468.20001220703</ele>
        <time>2011-09-09T19:12:30Z</time>
      </trkpt>
      <trkpt lat="45.83602" lon="4.80372">
        <ele>468.79998779297</ele>
        <time>2011-09-09T19:12:34Z</time>
      </trkpt>
      <trkpt lat="45.83614" lon="4.8037">
        <ele>469.39999389648</ele>
        <time>2011-09-09T19:12:40Z</time>
      </trkpt>
      <trkpt lat="45.83617" lon="4.80372">
        <ele>469.39999389648</ele>
        <time>2011-09-09T19:12:42Z</time>
      </trkpt>
      <trkpt lat="45.83626" lon="4.80386">
        <ele>469.79998779297</ele>
        <time>2011-09-09T19:12:48Z</time>
      </trkpt>
      <trkpt lat="45.8363" lon="4.80396">
        <ele>469.79998779297</ele>
        <time>2011-09-09T19:12:52Z</time>
      </trkpt>
      <trkpt lat="45.83631" lon="4.80401">
        <ele>469.79998779297</ele>
        <time>2011-09-09T19:12:54Z</time>
      </trkpt>
      <trkpt lat="45.83633" lon="4.80403">
        <ele>469.79998779297</ele>
        <time>2011-09-09T19:12:56Z</time>
      </trkpt>
      <trkpt lat="45.83646" lon="4.80399">
        <ele>470</ele>
        <time>2011-09-09T19:13:01Z</time>
      </trkpt>
      <trkpt lat="45.83657" lon="4.80391">
        <ele>470</ele>
        <time>2011-09-09T19:13:05Z</time>
      </trkpt>
      <trkpt lat="45.83665" lon="4.80387">
        <ele>470</ele>
        <time>2011-09-09T19:13:08Z</time>
      </trkpt>
      <trkpt lat="45.83677" lon="4.80384">
        <ele>470</ele>
        <time>2011-09-09T19:13:13Z</time>
      </trkpt>
      <trkpt lat="45.83685" lon="4.80403">
        <ele>469</ele>
        <time>2011-09-09T19:13:19Z</time>
      </trkpt>
      <trkpt lat="45.83691" lon="4.80423">
        <ele>468.20001220703</ele>
        <time>2011-09-09T19:13:24Z</time>
      </trkpt>
      <trkpt lat="45.83692" lon="4.80438">
        <ele>467.20001220703</ele>
        <time>2011-09-09T19:13:29Z</time>
      </trkpt>
      <trkpt lat="45.83694" lon="4.80454">
        <ele>466</ele>
        <time>2011-09-09T19:13:34Z</time>
      </trkpt>
      <trkpt lat="45.83695" lon="4.80458">
        <ele>465.79998779297</ele>
        <time>2011-09-09T19:13:35Z</time>
      </trkpt>
      <trkpt lat="45.83697" lon="4.80475">
        <ele>464.60000610352</ele>
        <time>2011-09-09T19:13:40Z</time>
      </trkpt>
      <trkpt lat="45.83696" lon="4.8049">
        <ele>463.60000610352</ele>
        <time>2011-09-09T19:13:44Z</time>
      </trkpt>
      <trkpt lat="45.83696" lon="4.80493">
        <ele>463.39999389648</ele>
        <time>2011-09-09T19:13:45Z</time>
      </trkpt>
      <trkpt lat="45.837" lon="4.80513">
        <ele>462.60000610352</ele>
        <time>2011-09-09T19:13:50Z</time>
      </trkpt>
      <trkpt lat="45.83706" lon="4.80532">
        <ele>462.20001220703</ele>
        <time>2011-09-09T19:13:55Z</time>
      </trkpt>
      <trkpt lat="45.83707" lon="4.80534">
        <ele>462.20001220703</ele>
        <time>2011-09-09T19:13:56Z</time>
      </trkpt>
      <trkpt lat="45.83723" lon="4.80537">
        <ele>461.79998779297</ele>
        <time>2011-09-09T19:14:02Z</time>
      </trkpt>
      <trkpt lat="45.83738" lon="4.80538">
        <ele>460.79998779297</ele>
        <time>2011-09-09T19:14:08Z</time>
      </trkpt>
      <trkpt lat="45.83753" lon="4.80535">
        <ele>460.20001220703</ele>
        <time>2011-09-09T19:14:15Z</time>
      </trkpt>
      <trkpt lat="45.83765" lon="4.80532">
        <ele>459.60000610352</ele>
        <time>2011-09-09T19:14:21Z</time>
      </trkpt>
      <trkpt lat="45.83776" lon="4.80528">
        <ele>458.60000610352</ele>
        <time>2011-09-09T19:14:27Z</time>
      </trkpt>
      <trkpt lat="45.83778" lon="4.80527">
        <ele>458.39999389648</ele>
        <time>2011-09-09T19:14:28Z</time>
      </trkpt>
      <trkpt lat="45.83789" lon="4.80531">
        <ele>458</ele>
        <time>2011-09-09T19:14:34Z</time>
      </trkpt>
      <trkpt lat="45.83799" lon="4.80536">
        <ele>457.79998779297</ele>
        <time>2011-09-09T19:14:39Z</time>
      </trkpt>
      <trkpt lat="45.83805" lon="4.80541">
        <ele>457.60000610352</ele>
        <time>2011-09-09T19:14:43Z</time>
      </trkpt>
      <trkpt lat="45.83807" lon="4.80545">
        <ele>457.60000610352</ele>
        <time>2011-09-09T19:14:46Z</time>
      </trkpt>
      <trkpt lat="45.83814" lon="4.80553">
        <ele>457.39999389648</ele>
        <time>2011-09-09T19:14:52Z</time>
      </trkpt>
      <trkpt lat="45.83815" lon="4.80554">
        <ele>457.39999389648</ele>
        <time>2011-09-09T19:14:53Z</time>
      </trkpt>
      <trkpt lat="45.8382" lon="4.80562">
        <ele>457.39999389648</ele>
        <time>2011-09-09T19:14:58Z</time>
      </trkpt>
      <trkpt lat="45.83823" lon="4.80567">
        <ele>457.39999389648</ele>
        <time>2011-09-09T19:15:02Z</time>
      </trkpt>
      <trkpt lat="45.83825" lon="4.8057">
        <ele>457.39999389648</ele>
        <time>2011-09-09T19:15:04Z</time>
      </trkpt>
      <trkpt lat="45.83831" lon="4.80577">
        <ele>457.39999389648</ele>
        <time>2011-09-09T19:15:11Z</time>
      </trkpt>
      <trkpt lat="45.83832" lon="4.80578">
        <ele>457.39999389648</ele>
        <time>2011-09-09T19:15:12Z</time>
      </trkpt>
      <trkpt lat="45.83833" lon="4.80577">
        <ele>457.60000610352</ele>
        <time>2011-09-09T19:15:13Z</time>
      </trkpt>
      <trkpt lat="45.83835" lon="4.80571">
        <ele>458.39999389648</ele>
        <time>2011-09-09T19:15:18Z</time>
      </trkpt>
      <trkpt lat="45.83836" lon="4.80567">
        <ele>458.60000610352</ele>
        <time>2011-09-09T19:15:21Z</time>
      </trkpt>
      <trkpt lat="45.83837" lon="4.80554">
        <ele>459.20001220703</ele>
        <time>2011-09-09T19:15:30Z</time>
      </trkpt>
      <trkpt lat="45.83839" lon="4.8054">
        <ele>459.39999389648</ele>
        <time>2011-09-09T19:15:38Z</time>
      </trkpt>
      <trkpt lat="45.83841" lon="4.80522">
        <ele>460.60000610352</ele>
        <time>2011-09-09T19:15:48Z</time>
      </trkpt>
      <trkpt lat="45.83844" lon="4.80506">
        <ele>462</ele>
        <time>2011-09-09T19:15:58Z</time>
      </trkpt>
      <trkpt lat="45.83846" lon="4.80494">
        <ele>463.39999389648</ele>
        <time>2011-09-09T19:16:06Z</time>
      </trkpt>
      <trkpt lat="45.83847" lon="4.80485">
        <ele>464.39999389648</ele>
        <time>2011-09-09T19:16:12Z</time>
      </trkpt>
      <trkpt lat="45.83849" lon="4.80473">
        <ele>466</ele>
        <time>2011-09-09T19:16:20Z</time>
      </trkpt>
      <trkpt lat="45.83852" lon="4.80462">
        <ele>467.79998779297</ele>
        <time>2011-09-09T19:16:29Z</time>
      </trkpt>
      <trkpt lat="45.83854" lon="4.80451">
        <ele>469.60000610352</ele>
        <time>2011-09-09T19:16:37Z</time>
      </trkpt>
      <trkpt lat="45.83856" lon="4.8044">
        <ele>470.79998779297</ele>
        <time>2011-09-09T19:16:45Z</time>
      </trkpt>
      <trkpt lat="45.83857" lon="4.80436">
        <ele>471.79998779297</ele>
        <time>2011-09-09T19:16:48Z</time>
      </trkpt>
      <trkpt lat="45.8386" lon="4.80434">
        <ele>472.60000610352</ele>
        <time>2011-09-09T19:16:52Z</time>
      </trkpt>
      <trkpt lat="45.83864" lon="4.80436">
        <ele>474</ele>
        <time>2011-09-09T19:16:59Z</time>
      </trkpt>
      <trkpt lat="45.83867" lon="4.80439">
        <ele>475.20001220703</ele>
        <time>2011-09-09T19:17:05Z</time>
      </trkpt>
      <trkpt lat="45.83873" lon="4.80443">
        <ele>476.79998779297</ele>
        <time>2011-09-09T19:17:13Z</time>
      </trkpt>
      <trkpt lat="45.83879" lon="4.8045">
        <ele>478.60000610352</ele>
        <time>2011-09-09T19:17:20Z</time>
      </trkpt>
      <trkpt lat="45.83883" lon="4.80454">
        <ele>479.60000610352</ele>
        <time>2011-09-09T19:17:24Z</time>
      </trkpt>
      <trkpt lat="45.8389" lon="4.8046">
        <ele>481</ele>
        <time>2011-09-09T19:17:31Z</time>
      </trkpt>
      <trkpt lat="45.83897" lon="4.80456">
        <ele>482.60000610352</ele>
        <time>2011-09-09T19:17:38Z</time>
      </trkpt>
      <trkpt lat="45.83899" lon="4.80454">
        <ele>483</ele>
        <time>2011-09-09T19:17:40Z</time>
      </trkpt>
      <trkpt lat="45.83901" lon="4.80449">
        <ele>483.39999389648</ele>
        <time>2011-09-09T19:17:44Z</time>
      </trkpt>
      <trkpt lat="45.83905" lon="4.80438">
        <ele>484.79998779297</ele>
        <time>2011-09-09T19:17:53Z</time>
      </trkpt>
      <trkpt lat="45.83908" lon="4.80433">
        <ele>485.39999389648</ele>
        <time>2011-09-09T19:17:57Z</time>
      </trkpt>
      <trkpt lat="45.83913" lon="4.80424">
        <ele>486</ele>
        <time>2011-09-09T19:18:04Z</time>
      </trkpt>
      <trkpt lat="45.83918" lon="4.80414">
        <ele>487.60000610352</ele>
        <time>2011-09-09T19:18:12Z</time>
      </trkpt>
      <trkpt lat="45.83919" lon="4.80412">
        <ele>487.79998779297</ele>
        <time>2011-09-09T19:18:14Z</time>
      </trkpt>
      <trkpt lat="45.83923" lon="4.80405">
        <ele>489.20001220703</ele>
        <time>2011-09-09T19:18:21Z</time>
      </trkpt>
      <trkpt lat="45.83924" lon="4.80402">
        <ele>489.39999389648</ele>
        <time>2011-09-09T19:18:23Z</time>
      </trkpt>
      <trkpt lat="45.83929" lon="4.80395">
        <ele>491</ele>
        <time>2011-09-09T19:18:31Z</time>
      </trkpt>
      <trkpt lat="45.8393" lon="4.80394">
        <ele>491.20001220703</ele>
        <time>2011-09-09T19:18:32Z</time>
      </trkpt>
      <trkpt lat="45.83932" lon="4.80393">
        <ele>491.39999389648</ele>
        <time>2011-09-09T19:18:34Z</time>
      </trkpt>
      <trkpt lat="45.83937" lon="4.80387">
        <ele>492.60000610352</ele>
        <time>2011-09-09T19:18:40Z</time>
      </trkpt>
      <trkpt lat="45.83938" lon="4.80386">
        <ele>493</ele>
        <time>2011-09-09T19:18:41Z</time>
      </trkpt>
      <trkpt lat="45.83945" lon="4.80383">
        <ele>494.20001220703</ele>
        <time>2011-09-09T19:18:47Z</time>
      </trkpt>
      <trkpt lat="45.83947" lon="4.80383">
        <ele>494.60000610352</ele>
        <time>2011-09-09T19:18:48Z</time>
      </trkpt>
      <trkpt lat="45.83958" lon="4.80378">
        <ele>496.79998779297</ele>
        <time>2011-09-09T19:18:57Z</time>
      </trkpt>
      <trkpt lat="45.83964" lon="4.80375">
        <ele>497.60000610352</ele>
        <time>2011-09-09T19:19:01Z</time>
      </trkpt>
      <trkpt lat="45.83976" lon="4.8037">
        <ele>500.39999389648</ele>
        <time>2011-09-09T19:19:10Z</time>
      </trkpt>
      <trkpt lat="45.83991" lon="4.80362">
        <ele>504</ele>
        <time>2011-09-09T19:19:22Z</time>
      </trkpt>
      <trkpt lat="45.83992" lon="4.80361">
        <ele>504.39999389648</ele>
        <time>2011-09-09T19:19:23Z</time>
      </trkpt>
      <trkpt lat="45.8399" lon="4.80353">
        <ele>506</ele>
        <time>2011-09-09T19:19:28Z</time>
      </trkpt>
      <trkpt lat="45.83989" lon="4.80351">
        <ele>506.20001220703</ele>
        <time>2011-09-09T19:19:29Z</time>
      </trkpt>
      <trkpt lat="45.83986" lon="4.80338">
        <ele>508</ele>
        <time>2011-09-09T19:19:36Z</time>
      </trkpt>
      <trkpt lat="45.83983" lon="4.80326">
        <ele>510</ele>
        <time>2011-09-09T19:19:44Z</time>
      </trkpt>
      <trkpt lat="45.83982" lon="4.80323">
        <ele>510.39999389648</ele>
        <time>2011-09-09T19:19:46Z</time>
      </trkpt>
      <trkpt lat="45.83983" lon="4.80317">
        <ele>511.20001220703</ele>
        <time>2011-09-09T19:19:50Z</time>
      </trkpt>
      <trkpt lat="45.83985" lon="4.80314">
        <ele>511.60000610352</ele>
        <time>2011-09-09T19:19:52Z</time>
      </trkpt>
      <trkpt lat="45.83992" lon="4.8031">
        <ele>512.79998779297</ele>
        <time>2011-09-09T19:19:57Z</time>
      </trkpt>
      <trkpt lat="45.83998" lon="4.8031">
        <ele>513.20001220703</ele>
        <time>2011-09-09T19:20:01Z</time>
      </trkpt>
      <trkpt lat="45.84005" lon="4.80309">
        <ele>513.79998779297</ele>
        <time>2011-09-09T19:20:05Z</time>
      </trkpt>
      <trkpt lat="45.8401" lon="4.80309">
        <ele>514.59997558594</ele>
        <time>2011-09-09T19:20:08Z</time>
      </trkpt>
      <trkpt lat="45.84023" lon="4.80302">
        <ele>515.59997558594</ele>
        <time>2011-09-09T19:20:16Z</time>
      </trkpt>
      <trkpt lat="45.84029" lon="4.80299">
        <ele>516.59997558594</ele>
        <time>2011-09-09T19:20:20Z</time>
      </trkpt>
      <trkpt lat="45.84031" lon="4.80298">
        <ele>516.79998779297</ele>
        <time>2011-09-09T19:20:21Z</time>
      </trkpt>
      <trkpt lat="45.84036" lon="4.80292">
        <ele>517.59997558594</ele>
        <time>2011-09-09T19:20:26Z</time>
      </trkpt>
      <trkpt lat="45.84039" lon="4.80282">
        <ele>518.79998779297</ele>
        <time>2011-09-09T19:20:32Z</time>
      </trkpt>
      <trkpt lat="45.84039" lon="4.8028">
        <ele>519.20001220703</ele>
        <time>2011-09-09T19:20:34Z</time>
      </trkpt>
      <trkpt lat="45.84039" lon="4.80276">
        <ele>519.59997558594</ele>
        <time>2011-09-09T19:20:37Z</time>
      </trkpt>
      <trkpt lat="45.8404" lon="4.80275">
        <ele>519.59997558594</ele>
        <time>2011-09-09T19:20:38Z</time>
      </trkpt>
      <trkpt lat="45.8404" lon="4.80269">
        <ele>520</ele>
        <time>2011-09-09T19:20:41Z</time>
      </trkpt>
      <trkpt lat="45.84041" lon="4.80266">
        <ele>520.79998779297</ele>
        <time>2011-09-09T19:20:44Z</time>
      </trkpt>
      <trkpt lat="45.84042" lon="4.80259">
        <ele>521.40002441406</ele>
        <time>2011-09-09T19:20:48Z</time>
      </trkpt>
      <trkpt lat="45.84042" lon="4.80255">
        <ele>521.79998779297</ele>
        <time>2011-09-09T19:20:51Z</time>
      </trkpt>
      <trkpt lat="45.84042" lon="4.8025">
        <ele>523</ele>
        <time>2011-09-09T19:20:55Z</time>
      </trkpt>
      <trkpt lat="45.84046" lon="4.80244">
        <ele>524</ele>
        <time>2011-09-09T19:21:02Z</time>
      </trkpt>
      <trkpt lat="45.84047" lon="4.80243">
        <ele>524</ele>
        <time>2011-09-09T19:21:03Z</time>
      </trkpt>
      <trkpt lat="45.84048" lon="4.80232">
        <ele>525</ele>
        <time>2011-09-09T19:21:09Z</time>
      </trkpt>
      <trkpt lat="45.8405" lon="4.80231">
        <ele>525.40002441406</ele>
        <time>2011-09-09T19:21:11Z</time>
      </trkpt>
      <trkpt lat="45.84063" lon="4.80215">
        <ele>527.79998779297</ele>
        <time>2011-09-09T19:21:25Z</time>
      </trkpt>
      <trkpt lat="45.84064" lon="4.80213">
        <ele>528</ele>
        <time>2011-09-09T19:21:26Z</time>
      </trkpt>
      <trkpt lat="45.84072" lon="4.80208">
        <ele>529.59997558594</ele>
        <time>2011-09-09T19:21:32Z</time>
      </trkpt>
      <trkpt lat="45.84081" lon="4.80203">
        <ele>531.20001220703</ele>
        <time>2011-09-09T19:21:38Z</time>
      </trkpt>
      <trkpt lat="45.84092" lon="4.80196">
        <ele>533.79998779297</ele>
        <time>2011-09-09T19:21:46Z</time>
      </trkpt>
      <trkpt lat="45.84095" lon="4.80193">
        <ele>534.79998779297</ele>
        <time>2011-09-09T19:21:49Z</time>
      </trkpt>
      <trkpt lat="45.841" lon="4.80195">
        <ele>535.40002441406</ele>
        <time>2011-09-09T19:21:52Z</time>
      </trkpt>
      <trkpt lat="45.8411" lon="4.80192">
        <ele>537.20001220703</ele>
        <time>2011-09-09T19:21:57Z</time>
      </trkpt>
      <trkpt lat="45.84113" lon="4.80189">
        <ele>537.59997558594</ele>
        <time>2011-09-09T19:21:59Z</time>
      </trkpt>
      <trkpt lat="45.84115" lon="4.80182">
        <ele>539</ele>
        <time>2011-09-09T19:22:04Z</time>
      </trkpt>
      <trkpt lat="45.84116" lon="4.8018">
        <ele>539.40002441406</ele>
        <time>2011-09-09T19:22:06Z</time>
      </trkpt>
      <trkpt lat="45.84117" lon="4.80177">
        <ele>540</ele>
        <time>2011-09-09T19:22:09Z</time>
      </trkpt>
      <trkpt lat="45.84121" lon="4.80171">
        <ele>541.40002441406</ele>
        <time>2011-09-09T19:22:15Z</time>
      </trkpt>
      <trkpt lat="45.84123" lon="4.80165">
        <ele>542.40002441406</ele>
        <time>2011-09-09T19:22:20Z</time>
      </trkpt>
      <trkpt lat="45.84121" lon="4.80157">
        <ele>544</ele>
        <time>2011-09-09T19:22:26Z</time>
      </trkpt>
      <trkpt lat="45.84122" lon="4.80153">
        <ele>545.40002441406</ele>
        <time>2011-09-09T19:22:30Z</time>
      </trkpt>
      <trkpt lat="45.84123" lon="4.80148">
        <ele>546.40002441406</ele>
        <time>2011-09-09T19:22:34Z</time>
      </trkpt>
      <trkpt lat="45.84123" lon="4.80139">
        <ele>548</ele>
        <time>2011-09-09T19:22:40Z</time>
      </trkpt>
      <trkpt lat="45.84123" lon="4.80138">
        <ele>548.20001220703</ele>
        <time>2011-09-09T19:22:41Z</time>
      </trkpt>
      <trkpt lat="45.84123" lon="4.80137">
        <ele>548.40002441406</ele>
        <time>2011-09-09T19:22:42Z</time>
      </trkpt>
      <trkpt lat="45.84127" lon="4.80125">
        <ele>550</ele>
        <time>2011-09-09T19:22:50Z</time>
      </trkpt>
      <trkpt lat="45.84131" lon="4.80113">
        <ele>551</ele>
        <time>2011-09-09T19:22:56Z</time>
      </trkpt>
      <trkpt lat="45.84132" lon="4.80112">
        <ele>551.20001220703</ele>
        <time>2011-09-09T19:22:57Z</time>
      </trkpt>
      <trkpt lat="45.84135" lon="4.80106">
        <ele>551.40002441406</ele>
        <time>2011-09-09T19:23:00Z</time>
      </trkpt>
      <trkpt lat="45.84141" lon="4.80093">
        <ele>552</ele>
        <time>2011-09-09T19:23:08Z</time>
      </trkpt>
      <trkpt lat="45.8416" lon="4.80084">
        <ele>554.59997558594</ele>
        <time>2011-09-09T19:23:23Z</time>
      </trkpt>
      <trkpt lat="45.84172" lon="4.80087">
        <ele>555.79998779297</ele>
        <time>2011-09-09T19:23:31Z</time>
      </trkpt>
      <trkpt lat="45.84186" lon="4.8009">
        <ele>556.20001220703</ele>
        <time>2011-09-09T19:23:37Z</time>
      </trkpt>
      <trkpt lat="45.84203" lon="4.80094">
        <ele>557.40002441406</ele>
        <time>2011-09-09T19:23:44Z</time>
      </trkpt>
      <trkpt lat="45.84207" lon="4.80094">
        <ele>557.59997558594</ele>
        <time>2011-09-09T19:23:46Z</time>
      </trkpt>
      <trkpt lat="45.84214" lon="4.80085">
        <ele>558</ele>
        <time>2011-09-09T19:23:51Z</time>
      </trkpt>
      <trkpt lat="45.84217" lon="4.8007">
        <ele>559</ele>
        <time>2011-09-09T19:24:00Z</time>
      </trkpt>
      <trkpt lat="45.84222" lon="4.80057">
        <ele>559.79998779297</ele>
        <time>2011-09-09T19:24:07Z</time>
      </trkpt>
      <trkpt lat="45.84224" lon="4.80053">
        <ele>560.59997558594</ele>
        <time>2011-09-09T19:24:10Z</time>
      </trkpt>
      <trkpt lat="45.84232" lon="4.80038">
        <ele>562.79998779297</ele>
        <time>2011-09-09T19:24:21Z</time>
      </trkpt>
      <trkpt lat="45.84237" lon="4.80028">
        <ele>564.20001220703</ele>
        <time>2011-09-09T19:24:28Z</time>
      </trkpt>
      <trkpt lat="45.84243" lon="4.80015">
        <ele>566.40002441406</ele>
        <time>2011-09-09T19:24:37Z</time>
      </trkpt>
      <trkpt lat="45.84246" lon="4.80002">
        <ele>568.40002441406</ele>
        <time>2011-09-09T19:24:45Z</time>
      </trkpt>
      <trkpt lat="45.84249" lon="4.79988">
        <ele>570.20001220703</ele>
        <time>2011-09-09T19:24:53Z</time>
      </trkpt>
      <trkpt lat="45.8425" lon="4.79974">
        <ele>572</ele>
        <time>2011-09-09T19:25:01Z</time>
      </trkpt>
      <trkpt lat="45.84251" lon="4.79954">
        <ele>574.79998779297</ele>
        <time>2011-09-09T19:25:11Z</time>
      </trkpt>
      <trkpt lat="45.8425" lon="4.79952">
        <ele>575</ele>
        <time>2011-09-09T19:25:12Z</time>
      </trkpt>
      <trkpt lat="45.84252" lon="4.79939">
        <ele>576.59997558594</ele>
        <time>2011-09-09T19:25:18Z</time>
      </trkpt>
      <trkpt lat="45.84254" lon="4.79925">
        <ele>578.40002441406</ele>
        <time>2011-09-09T19:25:26Z</time>
      </trkpt>
      <trkpt lat="45.84253" lon="4.79911">
        <ele>580.20001220703</ele>
        <time>2011-09-09T19:25:33Z</time>
      </trkpt>
      <trkpt lat="45.8425" lon="4.79893">
        <ele>582.59997558594</ele>
        <time>2011-09-09T19:25:43Z</time>
      </trkpt>
      <trkpt lat="45.84245" lon="4.79877">
        <ele>584.40002441406</ele>
        <time>2011-09-09T19:25:52Z</time>
      </trkpt>
      <trkpt lat="45.8424" lon="4.79867">
        <ele>585.59997558594</ele>
        <time>2011-09-09T19:25:59Z</time>
      </trkpt>
      <trkpt lat="45.84232" lon="4.79854">
        <ele>587.20001220703</ele>
        <time>2011-09-09T19:26:08Z</time>
      </trkpt>
      <trkpt lat="45.84229" lon="4.79841">
        <ele>588.79998779297</ele>
        <time>2011-09-09T19:26:16Z</time>
      </trkpt>
      <trkpt lat="45.84226" lon="4.79827">
        <ele>589.59997558594</ele>
        <time>2011-09-09T19:26:23Z</time>
      </trkpt>
      <trkpt lat="45.84224" lon="4.79808">
        <ele>591.20001220703</ele>
        <time>2011-09-09T19:26:32Z</time>
      </trkpt>
      <trkpt lat="45.84225" lon="4.79807">
        <ele>591.40002441406</ele>
        <time>2011-09-09T19:26:33Z</time>
      </trkpt>
      <trkpt lat="45.84229" lon="4.79809">
        <ele>591.59997558594</ele>
        <time>2011-09-09T19:26:36Z</time>
      </trkpt>
      <trkpt lat="45.8424" lon="4.79819">
        <ele>592.79998779297</ele>
        <time>2011-09-09T19:26:44Z</time>
      </trkpt>
      <trkpt lat="45.84251" lon="4.7984">
        <ele>593.59997558594</ele>
        <time>2011-09-09T19:26:51Z</time>
      </trkpt>
      <trkpt lat="45.84263" lon="4.79857">
        <ele>594</ele>
        <time>2011-09-09T19:26:57Z</time>
      </trkpt>
      <trkpt lat="45.84275" lon="4.79873">
        <ele>593.40002441406</ele>
        <time>2011-09-09T19:27:03Z</time>
      </trkpt>
      <trkpt lat="45.84288" lon="4.79888">
        <ele>592.79998779297</ele>
        <time>2011-09-09T19:27:09Z</time>
      </trkpt>
      <trkpt lat="45.84305" lon="4.79906">
        <ele>591.40002441406</ele>
        <time>2011-09-09T19:27:16Z</time>
      </trkpt>
      <trkpt lat="45.8432" lon="4.79923">
        <ele>589.79998779297</ele>
        <time>2011-09-09T19:27:23Z</time>
      </trkpt>
      <trkpt lat="45.84335" lon="4.7994">
        <ele>588</ele>
        <time>2011-09-09T19:27:30Z</time>
      </trkpt>
      <trkpt lat="45.84339" lon="4.79949">
        <ele>587.40002441406</ele>
        <time>2011-09-09T19:27:33Z</time>
      </trkpt>
      <trkpt lat="45.84351" lon="4.79955">
        <ele>585.79998779297</ele>
        <time>2011-09-09T19:27:38Z</time>
      </trkpt>
      <trkpt lat="45.84363" lon="4.79964">
        <ele>584.59997558594</ele>
        <time>2011-09-09T19:27:43Z</time>
      </trkpt>
      <trkpt lat="45.84371" lon="4.79979">
        <ele>583.40002441406</ele>
        <time>2011-09-09T19:27:48Z</time>
      </trkpt>
      <trkpt lat="45.84369" lon="4.79996">
        <ele>581.79998779297</ele>
        <time>2011-09-09T19:27:53Z</time>
      </trkpt>
      <trkpt lat="45.84367" lon="4.80016">
        <ele>580.79998779297</ele>
        <time>2011-09-09T19:27:58Z</time>
      </trkpt>
      <trkpt lat="45.84368" lon="4.80027">
        <ele>580.20001220703</ele>
        <time>2011-09-09T19:28:01Z</time>
      </trkpt>
      <trkpt lat="45.84374" lon="4.80034">
        <ele>579.20001220703</ele>
        <time>2011-09-09T19:28:05Z</time>
      </trkpt>
      <trkpt lat="45.8438" lon="4.80035">
        <ele>578.59997558594</ele>
        <time>2011-09-09T19:28:08Z</time>
      </trkpt>
      <trkpt lat="45.84386" lon="4.80032">
        <ele>578.20001220703</ele>
        <time>2011-09-09T19:28:11Z</time>
      </trkpt>
      <trkpt lat="45.84397" lon="4.80033">
        <ele>577.40002441406</ele>
        <time>2011-09-09T19:28:16Z</time>
      </trkpt>
      <trkpt lat="45.84407" lon="4.80032">
        <ele>576.79998779297</ele>
        <time>2011-09-09T19:28:20Z</time>
      </trkpt>
      <trkpt lat="45.84414" lon="4.80038">
        <ele>576.40002441406</ele>
        <time>2011-09-09T19:28:23Z</time>
      </trkpt>
      <trkpt lat="45.84416" lon="4.80041">
        <ele>576.20001220703</ele>
        <time>2011-09-09T19:28:24Z</time>
      </trkpt>
      <trkpt lat="45.84424" lon="4.80047">
        <ele>575.20001220703</ele>
        <time>2011-09-09T19:28:28Z</time>
      </trkpt>
      <trkpt lat="45.84432" lon="4.80055">
        <ele>574.59997558594</ele>
        <time>2011-09-09T19:28:32Z</time>
      </trkpt>
      <trkpt lat="45.84437" lon="4.80057">
        <ele>574.20001220703</ele>
        <time>2011-09-09T19:28:34Z</time>
      </trkpt>
      <trkpt lat="45.84447" lon="4.80073">
        <ele>572.79998779297</ele>
        <time>2011-09-09T19:28:40Z</time>
      </trkpt>
      <trkpt lat="45.84449" lon="4.80076">
        <ele>572.40002441406</ele>
        <time>2011-09-09T19:28:41Z</time>
      </trkpt>
      <trkpt lat="45.84454" lon="4.80085">
        <ele>571.40002441406</ele>
        <time>2011-09-09T19:28:44Z</time>
      </trkpt>
      <trkpt lat="45.84461" lon="4.80105">
        <ele>569.40002441406</ele>
        <time>2011-09-09T19:28:50Z</time>
      </trkpt>
      <trkpt lat="45.8447" lon="4.80102">
        <ele>567.79998779297</ele>
        <time>2011-09-09T19:28:54Z</time>
      </trkpt>
      <trkpt lat="45.84476" lon="4.80096">
        <ele>567</ele>
        <time>2011-09-09T19:28:57Z</time>
      </trkpt>
      <trkpt lat="45.84486" lon="4.80078">
        <ele>565.20001220703</ele>
        <time>2011-09-09T19:29:03Z</time>
      </trkpt>
      <trkpt lat="45.84483" lon="4.80059">
        <ele>563.59997558594</ele>
        <time>2011-09-09T19:29:08Z</time>
      </trkpt>
      <trkpt lat="45.84478" lon="4.80045">
        <ele>562.40002441406</ele>
        <time>2011-09-09T19:29:13Z</time>
      </trkpt>
      <trkpt lat="45.84477" lon="4.80042">
        <ele>561.79998779297</ele>
        <time>2011-09-09T19:29:14Z</time>
      </trkpt>
      <trkpt lat="45.84473" lon="4.80029">
        <ele>560.40002441406</ele>
        <time>2011-09-09T19:29:19Z</time>
      </trkpt>
      <trkpt lat="45.84471" lon="4.8002">
        <ele>559</ele>
        <time>2011-09-09T19:29:23Z</time>
      </trkpt>
      <trkpt lat="45.84467" lon="4.80012">
        <ele>558</ele>
        <time>2011-09-09T19:29:27Z</time>
      </trkpt>
      <trkpt lat="45.84466" lon="4.8001">
        <ele>557.79998779297</ele>
        <time>2011-09-09T19:29:28Z</time>
      </trkpt>
      <trkpt lat="45.84465" lon="4.80004">
        <ele>557.20001220703</ele>
        <time>2011-09-09T19:29:31Z</time>
      </trkpt>
      <trkpt lat="45.84463" lon="4.79996">
        <ele>556.40002441406</ele>
        <time>2011-09-09T19:29:34Z</time>
      </trkpt>
      <trkpt lat="45.84461" lon="4.79991">
        <ele>555.59997558594</ele>
        <time>2011-09-09T19:29:37Z</time>
      </trkpt>
      <trkpt lat="45.84465" lon="4.79982">
        <ele>554.79998779297</ele>
        <time>2011-09-09T19:29:42Z</time>
      </trkpt>
      <trkpt lat="45.84467" lon="4.79975">
        <ele>554.20001220703</ele>
        <time>2011-09-09T19:29:46Z</time>
      </trkpt>
      <trkpt lat="45.84465" lon="4.7996">
        <ele>553.20001220703</ele>
        <time>2011-09-09T19:29:51Z</time>
      </trkpt>
      <trkpt lat="45.84465" lon="4.79956">
        <ele>553</ele>
        <time>2011-09-09T19:29:52Z</time>
      </trkpt>
      <trkpt lat="45.84465" lon="4.79953">
        <ele>552.79998779297</ele>
        <time>2011-09-09T19:29:53Z</time>
      </trkpt>
      <trkpt lat="45.84462" lon="4.79947">
        <ele>552.59997558594</ele>
        <time>2011-09-09T19:29:56Z</time>
      </trkpt>
      <trkpt lat="45.8446" lon="4.79946">
        <ele>552</ele>
        <time>2011-09-09T19:29:58Z</time>
      </trkpt>
      <trkpt lat="45.84454" lon="4.79948">
        <ele>550.79998779297</ele>
        <time>2011-09-09T19:30:04Z</time>
      </trkpt>
      <trkpt lat="45.8445" lon="4.7995">
        <ele>550.20001220703</ele>
        <time>2011-09-09T19:30:09Z</time>
      </trkpt>
      <trkpt lat="45.84449" lon="4.79951">
        <ele>549.59997558594</ele>
        <time>2011-09-09T19:30:11Z</time>
      </trkpt>
      <trkpt lat="45.84448" lon="4.79952">
        <ele>549.20001220703</ele>
        <time>2011-09-09T19:30:13Z</time>
      </trkpt>
      <trkpt lat="45.84444" lon="4.79947">
        <ele>548.40002441406</ele>
        <time>2011-09-09T19:30:19Z</time>
      </trkpt>
      <trkpt lat="45.8444" lon="4.79945">
        <ele>548.20001220703</ele>
        <time>2011-09-09T19:30:23Z</time>
      </trkpt>
      <trkpt lat="45.84435" lon="4.79941">
        <ele>548</ele>
        <time>2011-09-09T19:30:27Z</time>
      </trkpt>
      <trkpt lat="45.84433" lon="4.79937">
        <ele>548</ele>
        <time>2011-09-09T19:30:29Z</time>
      </trkpt>
      <trkpt lat="45.8443" lon="4.79931">
        <ele>547.79998779297</ele>
        <time>2011-09-09T19:30:34Z</time>
      </trkpt>
      <trkpt lat="45.84426" lon="4.79926">
        <ele>547.59997558594</ele>
        <time>2011-09-09T19:30:39Z</time>
      </trkpt>
      <trkpt lat="45.84424" lon="4.79926">
        <ele>547.59997558594</ele>
        <time>2011-09-09T19:30:41Z</time>
      </trkpt>
      <trkpt lat="45.84418" lon="4.79921">
        <ele>547.59997558594</ele>
        <time>2011-09-09T19:30:47Z</time>
      </trkpt>
      <trkpt lat="45.84416" lon="4.79918">
        <ele>547.59997558594</ele>
        <time>2011-09-09T19:30:51Z</time>
      </trkpt>
      <trkpt lat="45.84414" lon="4.79916">
        <ele>547.59997558594</ele>
        <time>2011-09-09T19:30:54Z</time>
      </trkpt>
      <trkpt lat="45.84406" lon="4.79908">
        <ele>548.59997558594</ele>
        <time>2011-09-09T19:31:02Z</time>
      </trkpt>
      <trkpt lat="45.84405" lon="4.79906">
        <ele>548.59997558594</ele>
        <time>2011-09-09T19:31:03Z</time>
      </trkpt>
      <trkpt lat="45.84401" lon="4.79899">
        <ele>549.20001220703</ele>
        <time>2011-09-09T19:31:09Z</time>
      </trkpt>
      <trkpt lat="45.844" lon="4.79898">
        <ele>549.20001220703</ele>
        <time>2011-09-09T19:31:10Z</time>
      </trkpt>
      <trkpt lat="45.84396" lon="4.79894">
        <ele>549.40002441406</ele>
        <time>2011-09-09T19:31:15Z</time>
      </trkpt>
      <trkpt lat="45.84395" lon="4.79893">
        <ele>549.40002441406</ele>
        <time>2011-09-09T19:31:17Z</time>
      </trkpt>
      <trkpt lat="45.84393" lon="4.79884">
        <ele>550.20001220703</ele>
        <time>2011-09-09T19:31:22Z</time>
      </trkpt>
      <trkpt lat="45.84387" lon="4.79873">
        <ele>550.79998779297</ele>
        <time>2011-09-09T19:31:27Z</time>
      </trkpt>
      <trkpt lat="45.84386" lon="4.79873">
        <ele>551</ele>
        <time>2011-09-09T19:31:28Z</time>
      </trkpt>
      <trkpt lat="45.84378" lon="4.79865">
        <ele>551.40002441406</ele>
        <time>2011-09-09T19:31:33Z</time>
      </trkpt>
      <trkpt lat="45.84371" lon="4.79855">
        <ele>552</ele>
        <time>2011-09-09T19:31:37Z</time>
      </trkpt>
      <trkpt lat="45.84365" lon="4.79846">
        <ele>552.59997558594</ele>
        <time>2011-09-09T19:31:41Z</time>
      </trkpt>
      <trkpt lat="45.8436" lon="4.79842">
        <ele>553</ele>
        <time>2011-09-09T19:31:45Z</time>
      </trkpt>
      <trkpt lat="45.84356" lon="4.79837">
        <ele>553.59997558594</ele>
        <time>2011-09-09T19:31:49Z</time>
      </trkpt>
      <trkpt lat="45.84352" lon="4.79834">
        <ele>554.40002441406</ele>
        <time>2011-09-09T19:31:53Z</time>
      </trkpt>
      <trkpt lat="45.84348" lon="4.7983">
        <ele>555</ele>
        <time>2011-09-09T19:31:57Z</time>
      </trkpt>
      <trkpt lat="45.84344" lon="4.79826">
        <ele>555.20001220703</ele>
        <time>2011-09-09T19:32:01Z</time>
      </trkpt>
      <trkpt lat="45.8434" lon="4.79821">
        <ele>555.79998779297</ele>
        <time>2011-09-09T19:32:07Z</time>
      </trkpt>
      <trkpt lat="45.84339" lon="4.7982">
        <ele>556</ele>
        <time>2011-09-09T19:32:08Z</time>
      </trkpt>
      <trkpt lat="45.84336" lon="4.79816">
        <ele>556.79998779297</ele>
        <time>2011-09-09T19:32:13Z</time>
      </trkpt>
      <trkpt lat="45.84334" lon="4.79809">
        <ele>557.20001220703</ele>
        <time>2011-09-09T19:32:18Z</time>
      </trkpt>
      <trkpt lat="45.8433" lon="4.79801">
        <ele>557.79998779297</ele>
        <time>2011-09-09T19:32:23Z</time>
      </trkpt>
      <trkpt lat="45.84326" lon="4.79792">
        <ele>558.40002441406</ele>
        <time>2011-09-09T19:32:27Z</time>
      </trkpt>
      <trkpt lat="45.84318" lon="4.79779">
        <ele>559</ele>
        <time>2011-09-09T19:32:32Z</time>
      </trkpt>
      <trkpt lat="45.84312" lon="4.7977">
        <ele>559.59997558594</ele>
        <time>2011-09-09T19:32:37Z</time>
      </trkpt>
      <trkpt lat="45.84308" lon="4.79762">
        <ele>560.40002441406</ele>
        <time>2011-09-09T19:32:41Z</time>
      </trkpt>
      <trkpt lat="45.84304" lon="4.7975">
        <ele>561.20001220703</ele>
        <time>2011-09-09T19:32:46Z</time>
      </trkpt>
      <trkpt lat="45.84297" lon="4.79737">
        <ele>561.59997558594</ele>
        <time>2011-09-09T19:32:51Z</time>
      </trkpt>
      <trkpt lat="45.84293" lon="4.79726">
        <ele>562.20001220703</ele>
        <time>2011-09-09T19:32:55Z</time>
      </trkpt>
      <trkpt lat="45.84293" lon="4.79725">
        <ele>562.40002441406</ele>
        <time>2011-09-09T19:32:56Z</time>
      </trkpt>
      <trkpt lat="45.84293" lon="4.79722">
        <ele>562.59997558594</ele>
        <time>2011-09-09T19:32:57Z</time>
      </trkpt>
      <trkpt lat="45.84289" lon="4.79709">
        <ele>563</ele>
        <time>2011-09-09T19:33:01Z</time>
      </trkpt>
      <trkpt lat="45.84288" lon="4.79706">
        <ele>563.20001220703</ele>
        <time>2011-09-09T19:33:02Z</time>
      </trkpt>
      <trkpt lat="45.84286" lon="4.79696">
        <ele>563.40002441406</ele>
        <time>2011-09-09T19:33:05Z</time>
      </trkpt>
      <trkpt lat="45.84286" lon="4.79681">
        <ele>564.40002441406</ele>
        <time>2011-09-09T19:33:09Z</time>
      </trkpt>
      <trkpt lat="45.84286" lon="4.79661">
        <ele>565.20001220703</ele>
        <time>2011-09-09T19:33:15Z</time>
      </trkpt>
      <trkpt lat="45.84285" lon="4.79658">
        <ele>565.40002441406</ele>
        <time>2011-09-09T19:33:16Z</time>
      </trkpt>
      <trkpt lat="45.84282" lon="4.79644">
        <ele>565.79998779297</ele>
        <time>2011-09-09T19:33:21Z</time>
      </trkpt>
      <trkpt lat="45.84281" lon="4.79641">
        <ele>565.79998779297</ele>
        <time>2011-09-09T19:33:22Z</time>
      </trkpt>
      <trkpt lat="45.84281" lon="4.79627">
        <ele>566</ele>
        <time>2011-09-09T19:33:26Z</time>
      </trkpt>
      <trkpt lat="45.84283" lon="4.79615">
        <ele>566</ele>
        <time>2011-09-09T19:33:30Z</time>
      </trkpt>
      <trkpt lat="45.84288" lon="4.79599">
        <ele>566.20001220703</ele>
        <time>2011-09-09T19:33:35Z</time>
      </trkpt>
      <trkpt lat="45.84289" lon="4.7958">
        <ele>566.20001220703</ele>
        <time>2011-09-09T19:33:40Z</time>
      </trkpt>
      <trkpt lat="45.84284" lon="4.79564">
        <ele>566.20001220703</ele>
        <time>2011-09-09T19:33:44Z</time>
      </trkpt>
      <trkpt lat="45.84277" lon="4.79546">
        <ele>565.40002441406</ele>
        <time>2011-09-09T19:33:49Z</time>
      </trkpt>
      <trkpt lat="45.84276" lon="4.79542">
        <ele>565.20001220703</ele>
        <time>2011-09-09T19:33:50Z</time>
      </trkpt>
      <trkpt lat="45.84274" lon="4.79519">
        <ele>564</ele>
        <time>2011-09-09T19:33:56Z</time>
      </trkpt>
      <trkpt lat="45.84282" lon="4.79497">
        <ele>562.40002441406</ele>
        <time>2011-09-09T19:34:02Z</time>
      </trkpt>
      <trkpt lat="45.84289" lon="4.79478">
        <ele>560.40002441406</ele>
        <time>2011-09-09T19:34:07Z</time>
      </trkpt>
      <trkpt lat="45.84298" lon="4.79458">
        <ele>557.59997558594</ele>
        <time>2011-09-09T19:34:13Z</time>
      </trkpt>
      <trkpt lat="45.84304" lon="4.79436">
        <ele>554.40002441406</ele>
        <time>2011-09-09T19:34:19Z</time>
      </trkpt>
      <trkpt lat="45.84312" lon="4.79413">
        <ele>551.40002441406</ele>
        <time>2011-09-09T19:34:25Z</time>
      </trkpt>
      <trkpt lat="45.8432" lon="4.79388">
        <ele>548</ele>
        <time>2011-09-09T19:34:32Z</time>
      </trkpt>
      <trkpt lat="45.84326" lon="4.79373">
        <ele>546</ele>
        <time>2011-09-09T19:34:37Z</time>
      </trkpt>
      <trkpt lat="45.84319" lon="4.79361">
        <ele>544.59997558594</ele>
        <time>2011-09-09T19:34:41Z</time>
      </trkpt>
      <trkpt lat="45.84308" lon="4.79351">
        <ele>542.79998779297</ele>
        <time>2011-09-09T19:34:46Z</time>
      </trkpt>
      <trkpt lat="45.84298" lon="4.79346">
        <ele>541.40002441406</ele>
        <time>2011-09-09T19:34:51Z</time>
      </trkpt>
      <trkpt lat="45.84279" lon="4.7934">
        <ele>540.40002441406</ele>
        <time>2011-09-09T19:34:57Z</time>
      </trkpt>
      <trkpt lat="45.84258" lon="4.79339">
        <ele>538.79998779297</ele>
        <time>2011-09-09T19:35:04Z</time>
      </trkpt>
      <trkpt lat="45.8424" lon="4.79337">
        <ele>538</ele>
        <time>2011-09-09T19:35:11Z</time>
      </trkpt>
      <trkpt lat="45.84234" lon="4.79323">
        <ele>537</ele>
        <time>2011-09-09T19:35:15Z</time>
      </trkpt>
      <trkpt lat="45.84237" lon="4.79308">
        <ele>536.40002441406</ele>
        <time>2011-09-09T19:35:20Z</time>
      </trkpt>
      <trkpt lat="45.84243" lon="4.7929">
        <ele>535.79998779297</ele>
        <time>2011-09-09T19:35:26Z</time>
      </trkpt>
      <trkpt lat="45.84242" lon="4.7927">
        <ele>535.59997558594</ele>
        <time>2011-09-09T19:35:32Z</time>
      </trkpt>
      <trkpt lat="45.84238" lon="4.79257">
        <ele>535.40002441406</ele>
        <time>2011-09-09T19:35:38Z</time>
      </trkpt>
      <trkpt lat="45.84229" lon="4.79242">
        <ele>535.40002441406</ele>
        <time>2011-09-09T19:35:47Z</time>
      </trkpt>
      <trkpt lat="45.8422" lon="4.7923">
        <ele>535.40002441406</ele>
        <time>2011-09-09T19:35:55Z</time>
      </trkpt>
      <trkpt lat="45.84214" lon="4.79221">
        <ele>535.20001220703</ele>
        <time>2011-09-09T19:36:00Z</time>
      </trkpt>
      <trkpt lat="45.84204" lon="4.79209">
        <ele>535.20001220703</ele>
        <time>2011-09-09T19:36:06Z</time>
      </trkpt>
      <trkpt lat="45.84194" lon="4.79196">
        <ele>535.20001220703</ele>
        <time>2011-09-09T19:36:12Z</time>
      </trkpt>
      <trkpt lat="45.84184" lon="4.79182">
        <ele>536</ele>
        <time>2011-09-09T19:36:18Z</time>
      </trkpt>
      <trkpt lat="45.84175" lon="4.79172">
        <ele>536.59997558594</ele>
        <time>2011-09-09T19:36:23Z</time>
      </trkpt>
      <trkpt lat="45.84164" lon="4.79165">
        <ele>537</ele>
        <time>2011-09-09T19:36:30Z</time>
      </trkpt>
      <trkpt lat="45.84157" lon="4.79158">
        <ele>537.20001220703</ele>
        <time>2011-09-09T19:36:36Z</time>
      </trkpt>
      <trkpt lat="45.84151" lon="4.7915">
        <ele>538.20001220703</ele>
        <time>2011-09-09T19:36:42Z</time>
      </trkpt>
      <trkpt lat="45.84144" lon="4.7914">
        <ele>538.79998779297</ele>
        <time>2011-09-09T19:36:48Z</time>
      </trkpt>
      <trkpt lat="45.84133" lon="4.79123">
        <ele>540</ele>
        <time>2011-09-09T19:36:58Z</time>
      </trkpt>
      <trkpt lat="45.84126" lon="4.79113">
        <ele>540.59997558594</ele>
        <time>2011-09-09T19:37:03Z</time>
      </trkpt>
      <trkpt lat="45.84114" lon="4.79097">
        <ele>541</ele>
        <time>2011-09-09T19:37:10Z</time>
      </trkpt>
      <trkpt lat="45.84104" lon="4.79085">
        <ele>541.20001220703</ele>
        <time>2011-09-09T19:37:15Z</time>
      </trkpt>
      <trkpt lat="45.84095" lon="4.79073">
        <ele>542</ele>
        <time>2011-09-09T19:37:20Z</time>
      </trkpt>
      <trkpt lat="45.84091" lon="4.79069">
        <ele>542.20001220703</ele>
        <time>2011-09-09T19:37:22Z</time>
      </trkpt>
      <trkpt lat="45.84081" lon="4.79061">
        <ele>542.79998779297</ele>
        <time>2011-09-09T19:37:27Z</time>
      </trkpt>
      <trkpt lat="45.84066" lon="4.79056">
        <ele>543</ele>
        <time>2011-09-09T19:37:33Z</time>
      </trkpt>
      <trkpt lat="45.84056" lon="4.7905">
        <ele>543.20001220703</ele>
        <time>2011-09-09T19:37:37Z</time>
      </trkpt>
      <trkpt lat="45.84048" lon="4.79046">
        <ele>543.20001220703</ele>
        <time>2011-09-09T19:37:41Z</time>
      </trkpt>
      <trkpt lat="45.84032" lon="4.79041">
        <ele>543.40002441406</ele>
        <time>2011-09-09T19:37:47Z</time>
      </trkpt>
      <trkpt lat="45.84013" lon="4.79036">
        <ele>543.40002441406</ele>
        <time>2011-09-09T19:37:55Z</time>
      </trkpt>
      <trkpt lat="45.84002" lon="4.79031">
        <ele>543.40002441406</ele>
        <time>2011-09-09T19:38:00Z</time>
      </trkpt>
      <trkpt lat="45.83989" lon="4.79025">
        <ele>543.40002441406</ele>
        <time>2011-09-09T19:38:05Z</time>
      </trkpt>
      <trkpt lat="45.83977" lon="4.79021">
        <ele>543.40002441406</ele>
        <time>2011-09-09T19:38:10Z</time>
      </trkpt>
      <trkpt lat="45.83965" lon="4.79017">
        <ele>543.40002441406</ele>
        <time>2011-09-09T19:38:15Z</time>
      </trkpt>
      <trkpt lat="45.83951" lon="4.79016">
        <ele>543.40002441406</ele>
        <time>2011-09-09T19:38:20Z</time>
      </trkpt>
      <trkpt lat="45.83939" lon="4.79021">
        <ele>543.40002441406</ele>
        <time>2011-09-09T19:38:25Z</time>
      </trkpt>
      <trkpt lat="45.83923" lon="4.79031">
        <ele>543.40002441406</ele>
        <time>2011-09-09T19:38:31Z</time>
      </trkpt>
      <trkpt lat="45.83904" lon="4.79034">
        <ele>543.40002441406</ele>
        <time>2011-09-09T19:38:37Z</time>
      </trkpt>
      <trkpt lat="45.83893" lon="4.79037">
        <ele>543.40002441406</ele>
        <time>2011-09-09T19:38:41Z</time>
      </trkpt>
      <trkpt lat="45.83878" lon="4.79041">
        <ele>543.40002441406</ele>
        <time>2011-09-09T19:38:46Z</time>
      </trkpt>
      <trkpt lat="45.83862" lon="4.79043">
        <ele>543.40002441406</ele>
        <time>2011-09-09T19:38:52Z</time>
      </trkpt>
      <trkpt lat="45.83848" lon="4.79047">
        <ele>543.40002441406</ele>
        <time>2011-09-09T19:38:57Z</time>
      </trkpt>
      <trkpt lat="45.83845" lon="4.79047">
        <ele>543.40002441406</ele>
        <time>2011-09-09T19:38:58Z</time>
      </trkpt>
      <trkpt lat="45.83841" lon="4.79041">
        <ele>543.40002441406</ele>
        <time>2011-09-09T19:39:02Z</time>
      </trkpt>
      <trkpt lat="45.83841" lon="4.79034">
        <ele>543.40002441406</ele>
        <time>2011-09-09T19:39:05Z</time>
      </trkpt>
      <trkpt lat="45.83842" lon="4.79033">
        <ele>543.40002441406</ele>
        <time>2011-09-09T19:39:06Z</time>
      </trkpt>
      <trkpt lat="45.83843" lon="4.79029">
        <ele>543.40002441406</ele>
        <time>2011-09-09T19:39:08Z</time>
      </trkpt>
      <trkpt lat="45.83842" lon="4.79019">
        <ele>543.40002441406</ele>
        <time>2011-09-09T19:39:12Z</time>
      </trkpt>
      <trkpt lat="45.83835" lon="4.79015">
        <ele>543.40002441406</ele>
        <time>2011-09-09T19:39:16Z</time>
      </trkpt>
      <trkpt lat="45.83831" lon="4.79021">
        <ele>543.40002441406</ele>
        <time>2011-09-09T19:39:20Z</time>
      </trkpt>
      <trkpt lat="45.83831" lon="4.79023">
        <ele>543.40002441406</ele>
        <time>2011-09-09T19:39:21Z</time>
      </trkpt>
      <trkpt lat="45.83829" lon="4.79026">
        <ele>543.40002441406</ele>
        <time>2011-09-09T19:39:22Z</time>
      </trkpt>
      <trkpt lat="45.8382" lon="4.79032">
        <ele>543.40002441406</ele>
        <time>2011-09-09T19:39:26Z</time>
      </trkpt>
      <trkpt lat="45.83803" lon="4.79034">
        <ele>543.40002441406</ele>
        <time>2011-09-09T19:39:32Z</time>
      </trkpt>
      <trkpt lat="45.83802" lon="4.79035">
        <ele>543.40002441406</ele>
        <time>2011-09-09T19:39:33Z</time>
      </trkpt>
      <trkpt lat="45.83794" lon="4.79042">
        <ele>543.40002441406</ele>
        <time>2011-09-09T19:39:37Z</time>
      </trkpt>
      <trkpt lat="45.83787" lon="4.79053">
        <ele>542.59997558594</ele>
        <time>2011-09-09T19:39:41Z</time>
      </trkpt>
      <trkpt lat="45.83784" lon="4.79054">
        <ele>542.59997558594</ele>
        <time>2011-09-09T19:39:42Z</time>
      </trkpt>
      <trkpt lat="45.83765" lon="4.79066">
        <ele>541.59997558594</ele>
        <time>2011-09-09T19:39:49Z</time>
      </trkpt>
      <trkpt lat="45.83748" lon="4.79081">
        <ele>540.59997558594</ele>
        <time>2011-09-09T19:39:55Z</time>
      </trkpt>
      <trkpt lat="45.83737" lon="4.79089">
        <ele>539.40002441406</ele>
        <time>2011-09-09T19:39:59Z</time>
      </trkpt>
      <trkpt lat="45.83723" lon="4.79096">
        <ele>538.40002441406</ele>
        <time>2011-09-09T19:40:04Z</time>
      </trkpt>
      <trkpt lat="45.83705" lon="4.79098">
        <ele>536.79998779297</ele>
        <time>2011-09-09T19:40:10Z</time>
      </trkpt>
      <trkpt lat="45.83688" lon="4.79097">
        <ele>535.59997558594</ele>
        <time>2011-09-09T19:40:16Z</time>
      </trkpt>
      <trkpt lat="45.83674" lon="4.79093">
        <ele>534.40002441406</ele>
        <time>2011-09-09T19:40:21Z</time>
      </trkpt>
      <trkpt lat="45.8366" lon="4.79094">
        <ele>533.59997558594</ele>
        <time>2011-09-09T19:40:26Z</time>
      </trkpt>
      <trkpt lat="45.83646" lon="4.791">
        <ele>532.40002441406</ele>
        <time>2011-09-09T19:40:31Z</time>
      </trkpt>
      <trkpt lat="45.83631" lon="4.7911">
        <ele>531</ele>
        <time>2011-09-09T19:40:37Z</time>
      </trkpt>
      <trkpt lat="45.83617" lon="4.79117">
        <ele>530</ele>
        <time>2011-09-09T19:40:42Z</time>
      </trkpt>
      <trkpt lat="45.836" lon="4.79116">
        <ele>529</ele>
        <time>2011-09-09T19:40:48Z</time>
      </trkpt>
      <trkpt lat="45.83585" lon="4.79115">
        <ele>527.79998779297</ele>
        <time>2011-09-09T19:40:53Z</time>
      </trkpt>
      <trkpt lat="45.83567" lon="4.79119">
        <ele>526.79998779297</ele>
        <time>2011-09-09T19:40:59Z</time>
      </trkpt>
      <trkpt lat="45.83555" lon="4.79124">
        <ele>525.59997558594</ele>
        <time>2011-09-09T19:41:04Z</time>
      </trkpt>
      <trkpt lat="45.83536" lon="4.79128">
        <ele>525</ele>
        <time>2011-09-09T19:41:11Z</time>
      </trkpt>
      <trkpt lat="45.83516" lon="4.79128">
        <ele>524.40002441406</ele>
        <time>2011-09-09T19:41:18Z</time>
      </trkpt>
      <trkpt lat="45.83501" lon="4.79129">
        <ele>523.40002441406</ele>
        <time>2011-09-09T19:41:23Z</time>
      </trkpt>
      <trkpt lat="45.8349" lon="4.7913">
        <ele>523</ele>
        <time>2011-09-09T19:41:27Z</time>
      </trkpt>
      <trkpt lat="45.83472" lon="4.79134">
        <ele>522.59997558594</ele>
        <time>2011-09-09T19:41:33Z</time>
      </trkpt>
      <trkpt lat="45.83456" lon="4.79141">
        <ele>521.79998779297</ele>
        <time>2011-09-09T19:41:39Z</time>
      </trkpt>
      <trkpt lat="45.8344" lon="4.79147">
        <ele>521</ele>
        <time>2011-09-09T19:41:45Z</time>
      </trkpt>
      <trkpt lat="45.83424" lon="4.79154">
        <ele>520.40002441406</ele>
        <time>2011-09-09T19:41:51Z</time>
      </trkpt>
      <trkpt lat="45.8341" lon="4.79156">
        <ele>519.40002441406</ele>
        <time>2011-09-09T19:41:56Z</time>
      </trkpt>
      <trkpt lat="45.834" lon="4.79159">
        <ele>519</ele>
        <time>2011-09-09T19:42:00Z</time>
      </trkpt>
      <trkpt lat="45.83389" lon="4.79165">
        <ele>518</ele>
        <time>2011-09-09T19:42:05Z</time>
      </trkpt>
      <trkpt lat="45.83372" lon="4.79176">
        <ele>517</ele>
        <time>2011-09-09T19:42:12Z</time>
      </trkpt>
      <trkpt lat="45.83358" lon="4.79187">
        <ele>516</ele>
        <time>2011-09-09T19:42:18Z</time>
      </trkpt>
      <trkpt lat="45.83347" lon="4.79201">
        <ele>515.20001220703</ele>
        <time>2011-09-09T19:42:23Z</time>
      </trkpt>
      <trkpt lat="45.83337" lon="4.79223">
        <ele>514.59997558594</ele>
        <time>2011-09-09T19:42:29Z</time>
      </trkpt>
      <trkpt lat="45.83326" lon="4.79233">
        <ele>514.20001220703</ele>
        <time>2011-09-09T19:42:34Z</time>
      </trkpt>
      <trkpt lat="45.83308" lon="4.79238">
        <ele>513.20001220703</ele>
        <time>2011-09-09T19:42:40Z</time>
      </trkpt>
      <trkpt lat="45.83291" lon="4.79242">
        <ele>512.40002441406</ele>
        <time>2011-09-09T19:42:46Z</time>
      </trkpt>
      <trkpt lat="45.83274" lon="4.79245">
        <ele>511.39999389648</ele>
        <time>2011-09-09T19:42:52Z</time>
      </trkpt>
      <trkpt lat="45.83272" lon="4.79246">
        <ele>511.20001220703</ele>
        <time>2011-09-09T19:42:53Z</time>
      </trkpt>
      <trkpt lat="45.83258" lon="4.79249">
        <ele>510.60000610352</ele>
        <time>2011-09-09T19:42:58Z</time>
      </trkpt>
      <trkpt lat="45.8324" lon="4.79256">
        <ele>509.20001220703</ele>
        <time>2011-09-09T19:43:05Z</time>
      </trkpt>
      <trkpt lat="45.8323" lon="4.79263">
        <ele>508.79998779297</ele>
        <time>2011-09-09T19:43:09Z</time>
      </trkpt>
      <trkpt lat="45.83228" lon="4.79263">
        <ele>508.60000610352</ele>
        <time>2011-09-09T19:43:10Z</time>
      </trkpt>
      <trkpt lat="45.83229" lon="4.79255">
        <ele>507.60000610352</ele>
        <time>2011-09-09T19:43:15Z</time>
      </trkpt>
      <trkpt lat="45.83231" lon="4.79251">
        <ele>507.20001220703</ele>
        <time>2011-09-09T19:43:17Z</time>
      </trkpt>
      <trkpt lat="45.83234" lon="4.79245">
        <ele>506.39999389648</ele>
        <time>2011-09-09T19:43:20Z</time>
      </trkpt>
      <trkpt lat="45.83236" lon="4.79236">
        <ele>505</ele>
        <time>2011-09-09T19:43:26Z</time>
      </trkpt>
      <trkpt lat="45.83239" lon="4.79228">
        <ele>504</ele>
        <time>2011-09-09T19:43:31Z</time>
      </trkpt>
      <trkpt lat="45.8324" lon="4.79223">
        <ele>503.39999389648</ele>
        <time>2011-09-09T19:43:34Z</time>
      </trkpt>
      <trkpt lat="45.83242" lon="4.79214">
        <ele>502.60000610352</ele>
        <time>2011-09-09T19:43:39Z</time>
      </trkpt>
      <trkpt lat="45.83244" lon="4.79208">
        <ele>502</ele>
        <time>2011-09-09T19:43:43Z</time>
      </trkpt>
      <trkpt lat="45.83248" lon="4.79193">
        <ele>500.39999389648</ele>
        <time>2011-09-09T19:43:51Z</time>
      </trkpt>
      <trkpt lat="45.8325" lon="4.79184">
        <ele>500</ele>
        <time>2011-09-09T19:43:57Z</time>
      </trkpt>
      <trkpt lat="45.83251" lon="4.79175">
        <ele>499.60000610352</ele>
        <time>2011-09-09T19:44:03Z</time>
      </trkpt>
      <trkpt lat="45.83252" lon="4.79174">
        <ele>499.60000610352</ele>
        <time>2011-09-09T19:44:04Z</time>
      </trkpt>
      <trkpt lat="45.83251" lon="4.79168">
        <ele>499.39999389648</ele>
        <time>2011-09-09T19:44:09Z</time>
      </trkpt>
      <trkpt lat="45.83229" lon="4.79163">
        <ele>499.39999389648</ele>
        <time>2011-09-09T19:44:20Z</time>
      </trkpt>
      <trkpt lat="45.83228" lon="4.7916">
        <ele>499.60000610352</ele>
        <time>2011-09-09T19:44:21Z</time>
      </trkpt>
      <trkpt lat="45.83234" lon="4.79148">
        <ele>500.39999389648</ele>
        <time>2011-09-09T19:44:27Z</time>
      </trkpt>
      <trkpt lat="45.8324" lon="4.79136">
        <ele>501</ele>
        <time>2011-09-09T19:44:34Z</time>
      </trkpt>
      <trkpt lat="45.83244" lon="4.79124">
        <ele>501.79998779297</ele>
        <time>2011-09-09T19:44:41Z</time>
      </trkpt>
      <trkpt lat="45.83248" lon="4.79112">
        <ele>502.60000610352</ele>
        <time>2011-09-09T19:44:48Z</time>
      </trkpt>
      <trkpt lat="45.83252" lon="4.79097">
        <ele>503.39999389648</ele>
        <time>2011-09-09T19:44:57Z</time>
      </trkpt>
      <trkpt lat="45.83254" lon="4.79092">
        <ele>504</ele>
        <time>2011-09-09T19:45:00Z</time>
      </trkpt>
      <trkpt lat="45.83256" lon="4.79085">
        <ele>504.60000610352</ele>
        <time>2011-09-09T19:45:04Z</time>
      </trkpt>
      <trkpt lat="45.83257" lon="4.79083">
        <ele>504.79998779297</ele>
        <time>2011-09-09T19:45:06Z</time>
      </trkpt>
      <trkpt lat="45.83258" lon="4.79076">
        <ele>505.60000610352</ele>
        <time>2011-09-09T19:45:10Z</time>
      </trkpt>
      <trkpt lat="45.83272" lon="4.79074">
        <ele>507.60000610352</ele>
        <time>2011-09-09T19:45:22Z</time>
      </trkpt>
      <trkpt lat="45.83282" lon="4.79076">
        <ele>508.79998779297</ele>
        <time>2011-09-09T19:45:30Z</time>
      </trkpt>
      <trkpt lat="45.8329" lon="4.79079">
        <ele>510.39999389648</ele>
        <time>2011-09-09T19:45:37Z</time>
      </trkpt>
      <trkpt lat="45.833" lon="4.79082">
        <ele>511.79998779297</ele>
        <time>2011-09-09T19:45:44Z</time>
      </trkpt>
      <trkpt lat="45.8331" lon="4.79077">
        <ele>513</ele>
        <time>2011-09-09T19:45:51Z</time>
      </trkpt>
      <trkpt lat="45.83314" lon="4.79068">
        <ele>514</ele>
        <time>2011-09-09T19:45:56Z</time>
      </trkpt>
      <trkpt lat="45.83316" lon="4.79051">
        <ele>515.20001220703</ele>
        <time>2011-09-09T19:46:04Z</time>
      </trkpt>
      <trkpt lat="45.83318" lon="4.7905">
        <ele>515.20001220703</ele>
        <time>2011-09-09T19:46:05Z</time>
      </trkpt>
      <trkpt lat="45.83323" lon="4.79046">
        <ele>515.59997558594</ele>
        <time>2011-09-09T19:46:09Z</time>
      </trkpt>
      <trkpt lat="45.8333" lon="4.79041">
        <ele>515.79998779297</ele>
        <time>2011-09-09T19:46:14Z</time>
      </trkpt>
      <trkpt lat="45.83332" lon="4.7904">
        <ele>516.20001220703</ele>
        <time>2011-09-09T19:46:16Z</time>
      </trkpt>
      <trkpt lat="45.83334" lon="4.79031">
        <ele>517</ele>
        <time>2011-09-09T19:46:21Z</time>
      </trkpt>
      <trkpt lat="45.83334" lon="4.79015">
        <ele>517.79998779297</ele>
        <time>2011-09-09T19:46:29Z</time>
      </trkpt>
      <trkpt lat="45.83334" lon="4.78999">
        <ele>518.79998779297</ele>
        <time>2011-09-09T19:46:37Z</time>
      </trkpt>
      <trkpt lat="45.83334" lon="4.78987">
        <ele>519.59997558594</ele>
        <time>2011-09-09T19:46:43Z</time>
      </trkpt>
      <trkpt lat="45.83336" lon="4.78978">
        <ele>520.20001220703</ele>
        <time>2011-09-09T19:46:49Z</time>
      </trkpt>
      <trkpt lat="45.83336" lon="4.78976">
        <ele>520.40002441406</ele>
        <time>2011-09-09T19:46:50Z</time>
      </trkpt>
      <trkpt lat="45.83335" lon="4.78965">
        <ele>521.40002441406</ele>
        <time>2011-09-09T19:46:56Z</time>
      </trkpt>
      <trkpt lat="45.83335" lon="4.78963">
        <ele>521.59997558594</ele>
        <time>2011-09-09T19:46:57Z</time>
      </trkpt>
      <trkpt lat="45.83336" lon="4.78954">
        <ele>523</ele>
        <time>2011-09-09T19:47:03Z</time>
      </trkpt>
      <trkpt lat="45.83336" lon="4.78944">
        <ele>524.59997558594</ele>
        <time>2011-09-09T19:47:10Z</time>
      </trkpt>
      <trkpt lat="45.83336" lon="4.78936">
        <ele>525.59997558594</ele>
        <time>2011-09-09T19:47:16Z</time>
      </trkpt>
      <trkpt lat="45.83335" lon="4.78924">
        <ele>526.59997558594</ele>
        <time>2011-09-09T19:47:23Z</time>
      </trkpt>
      <trkpt lat="45.83336" lon="4.7892">
        <ele>527</ele>
        <time>2011-09-09T19:47:25Z</time>
      </trkpt>
      <trkpt lat="45.83336" lon="4.78914">
        <ele>527.59997558594</ele>
        <time>2011-09-09T19:47:29Z</time>
      </trkpt>
      <trkpt lat="45.83336" lon="4.78903">
        <ele>529.40002441406</ele>
        <time>2011-09-09T19:47:36Z</time>
      </trkpt>
      <trkpt lat="45.83335" lon="4.78892">
        <ele>530.79998779297</ele>
        <time>2011-09-09T19:47:42Z</time>
      </trkpt>
      <trkpt lat="45.83334" lon="4.7888">
        <ele>532.20001220703</ele>
        <time>2011-09-09T19:47:48Z</time>
      </trkpt>
      <trkpt lat="45.83333" lon="4.78866">
        <ele>533.79998779297</ele>
        <time>2011-09-09T19:47:55Z</time>
      </trkpt>
      <trkpt lat="45.83333" lon="4.78859">
        <ele>534.79998779297</ele>
        <time>2011-09-09T19:47:59Z</time>
      </trkpt>
      <trkpt lat="45.83332" lon="4.78845">
        <ele>536.20001220703</ele>
        <time>2011-09-09T19:48:06Z</time>
      </trkpt>
      <trkpt lat="45.83332" lon="4.78841">
        <ele>536.59997558594</ele>
        <time>2011-09-09T19:48:08Z</time>
      </trkpt>
      <trkpt lat="45.83333" lon="4.78834">
        <ele>537.59997558594</ele>
        <time>2011-09-09T19:48:12Z</time>
      </trkpt>
      <trkpt lat="45.83332" lon="4.78828">
        <ele>538.20001220703</ele>
        <time>2011-09-09T19:48:15Z</time>
      </trkpt>
      <trkpt lat="45.83332" lon="4.78819">
        <ele>539.40002441406</ele>
        <time>2011-09-09T19:48:20Z</time>
      </trkpt>
      <trkpt lat="45.83332" lon="4.78808">
        <ele>540.20001220703</ele>
        <time>2011-09-09T19:48:25Z</time>
      </trkpt>
      <trkpt lat="45.83324" lon="4.78809">
        <ele>540.79998779297</ele>
        <time>2011-09-09T19:48:30Z</time>
      </trkpt>
      <trkpt lat="45.8332" lon="4.78812">
        <ele>541</ele>
        <time>2011-09-09T19:48:32Z</time>
      </trkpt>
      <trkpt lat="45.83309" lon="4.78822">
        <ele>541.40002441406</ele>
        <time>2011-09-09T19:48:38Z</time>
      </trkpt>
      <trkpt lat="45.83298" lon="4.78829">
        <ele>541.40002441406</ele>
        <time>2011-09-09T19:48:43Z</time>
      </trkpt>
      <trkpt lat="45.83287" lon="4.78837">
        <ele>541.59997558594</ele>
        <time>2011-09-09T19:48:48Z</time>
      </trkpt>
      <trkpt lat="45.83269" lon="4.78845">
        <ele>541.59997558594</ele>
        <time>2011-09-09T19:48:55Z</time>
      </trkpt>
      <trkpt lat="45.83253" lon="4.78852">
        <ele>541</ele>
        <time>2011-09-09T19:49:01Z</time>
      </trkpt>
      <trkpt lat="45.83241" lon="4.78862">
        <ele>540.40002441406</ele>
        <time>2011-09-09T19:49:06Z</time>
      </trkpt>
      <trkpt lat="45.83229" lon="4.78869">
        <ele>539.79998779297</ele>
        <time>2011-09-09T19:49:10Z</time>
      </trkpt>
      <trkpt lat="45.83216" lon="4.78881">
        <ele>538.79998779297</ele>
        <time>2011-09-09T19:49:15Z</time>
      </trkpt>
      <trkpt lat="45.83212" lon="4.78884">
        <ele>538.59997558594</ele>
        <time>2011-09-09T19:49:17Z</time>
      </trkpt>
      <trkpt lat="45.83196" lon="4.78893">
        <ele>537.59997558594</ele>
        <time>2011-09-09T19:49:23Z</time>
      </trkpt>
      <trkpt lat="45.83184" lon="4.78897">
        <ele>536.79998779297</ele>
        <time>2011-09-09T19:49:27Z</time>
      </trkpt>
      <trkpt lat="45.83184" lon="4.78887">
        <ele>536.20001220703</ele>
        <time>2011-09-09T19:49:31Z</time>
      </trkpt>
      <trkpt lat="45.83185" lon="4.78884">
        <ele>535.79998779297</ele>
        <time>2011-09-09T19:49:32Z</time>
      </trkpt>
      <trkpt lat="45.83192" lon="4.78869">
        <ele>535</ele>
        <time>2011-09-09T19:49:36Z</time>
      </trkpt>
      <trkpt lat="45.83199" lon="4.78856">
        <ele>534</ele>
        <time>2011-09-09T19:49:40Z</time>
      </trkpt>
      <trkpt lat="45.83207" lon="4.78837">
        <ele>532.59997558594</ele>
        <time>2011-09-09T19:49:46Z</time>
      </trkpt>
      <trkpt lat="45.83214" lon="4.78824">
        <ele>531.20001220703</ele>
        <time>2011-09-09T19:49:51Z</time>
      </trkpt>
      <trkpt lat="45.83216" lon="4.78823">
        <ele>531</ele>
        <time>2011-09-09T19:49:52Z</time>
      </trkpt>
      <trkpt lat="45.83224" lon="4.78811">
        <ele>530</ele>
        <time>2011-09-09T19:49:58Z</time>
      </trkpt>
      <trkpt lat="45.83231" lon="4.78804">
        <ele>529.59997558594</ele>
        <time>2011-09-09T19:50:02Z</time>
      </trkpt>
      <trkpt lat="45.83232" lon="4.78802">
        <ele>529.40002441406</ele>
        <time>2011-09-09T19:50:03Z</time>
      </trkpt>
      <trkpt lat="45.83239" lon="4.78794">
        <ele>528.40002441406</ele>
        <time>2011-09-09T19:50:08Z</time>
      </trkpt>
      <trkpt lat="45.83241" lon="4.78793">
        <ele>528.20001220703</ele>
        <time>2011-09-09T19:50:09Z</time>
      </trkpt>
      <trkpt lat="45.83256" lon="4.78777">
        <ele>527.20001220703</ele>
        <time>2011-09-09T19:50:22Z</time>
      </trkpt>
      <trkpt lat="45.83257" lon="4.78776">
        <ele>527.20001220703</ele>
        <time>2011-09-09T19:50:23Z</time>
      </trkpt>
      <trkpt lat="45.83265" lon="4.78772">
        <ele>527</ele>
        <time>2011-09-09T19:50:28Z</time>
      </trkpt>
      <trkpt lat="45.83266" lon="4.78771">
        <ele>527</ele>
        <time>2011-09-09T19:50:29Z</time>
      </trkpt>
      <trkpt lat="45.83273" lon="4.78767">
        <ele>527</ele>
        <time>2011-09-09T19:50:34Z</time>
      </trkpt>
      <trkpt lat="45.83282" lon="4.7876">
        <ele>527</ele>
        <time>2011-09-09T19:50:41Z</time>
      </trkpt>
      <trkpt lat="45.83286" lon="4.78755">
        <ele>527</ele>
        <time>2011-09-09T19:50:45Z</time>
      </trkpt>
      <trkpt lat="45.83294" lon="4.78747">
        <ele>527</ele>
        <time>2011-09-09T19:50:52Z</time>
      </trkpt>
      <trkpt lat="45.83295" lon="4.78745">
        <ele>527</ele>
        <time>2011-09-09T19:50:53Z</time>
      </trkpt>
      <trkpt lat="45.83301" lon="4.7874">
        <ele>527</ele>
        <time>2011-09-09T19:50:57Z</time>
      </trkpt>
      <trkpt lat="45.83309" lon="4.78736">
        <ele>527</ele>
        <time>2011-09-09T19:51:03Z</time>
      </trkpt>
      <trkpt lat="45.83314" lon="4.78735">
        <ele>527</ele>
        <time>2011-09-09T19:51:07Z</time>
      </trkpt>
      <trkpt lat="45.83318" lon="4.78737">
        <ele>527</ele>
        <time>2011-09-09T19:51:09Z</time>
      </trkpt>
      <trkpt lat="45.83321" lon="4.78736">
        <ele>527</ele>
        <time>2011-09-09T19:51:11Z</time>
      </trkpt>
      <trkpt lat="45.83323" lon="4.78736">
        <ele>527</ele>
        <time>2011-09-09T19:51:12Z</time>
      </trkpt>
      <trkpt lat="45.83333" lon="4.78733">
        <ele>527</ele>
        <time>2011-09-09T19:51:18Z</time>
      </trkpt>
      <trkpt lat="45.83335" lon="4.78732">
        <ele>527</ele>
        <time>2011-09-09T19:51:19Z</time>
      </trkpt>
      <trkpt lat="45.83347" lon="4.78726">
        <ele>527.59997558594</ele>
        <time>2011-09-09T19:51:25Z</time>
      </trkpt>
      <trkpt lat="45.83348" lon="4.78725">
        <ele>527.79998779297</ele>
        <time>2011-09-09T19:51:26Z</time>
      </trkpt>
      <trkpt lat="45.83358" lon="4.78722">
        <ele>528.59997558594</ele>
        <time>2011-09-09T19:51:32Z</time>
      </trkpt>
      <trkpt lat="45.83365" lon="4.78719">
        <ele>529.59997558594</ele>
        <time>2011-09-09T19:51:37Z</time>
      </trkpt>
      <trkpt lat="45.83373" lon="4.78717">
        <ele>530.79998779297</ele>
        <time>2011-09-09T19:51:43Z</time>
      </trkpt>
      <trkpt lat="45.83382" lon="4.78713">
        <ele>532</ele>
        <time>2011-09-09T19:51:50Z</time>
      </trkpt>
      <trkpt lat="45.83383" lon="4.78712">
        <ele>532.40002441406</ele>
        <time>2011-09-09T19:51:51Z</time>
      </trkpt>
      <trkpt lat="45.83389" lon="4.78704">
        <ele>533.40002441406</ele>
        <time>2011-09-09T19:51:55Z</time>
      </trkpt>
      <trkpt lat="45.83389" lon="4.78704">
        <ele>533.59997558594</ele>
        <time>2011-09-09T19:51:56Z</time>
      </trkpt>
      <trkpt lat="45.83397" lon="4.78698">
        <ele>534.40002441406</ele>
        <time>2011-09-09T19:52:01Z</time>
      </trkpt>
      <trkpt lat="45.83399" lon="4.78697">
        <ele>534.59997558594</ele>
        <time>2011-09-09T19:52:02Z</time>
      </trkpt>
      <trkpt lat="45.834" lon="4.78696">
        <ele>535</ele>
        <time>2011-09-09T19:52:03Z</time>
      </trkpt>
      <trkpt lat="45.83407" lon="4.78694">
        <ele>535.79998779297</ele>
        <time>2011-09-09T19:52:07Z</time>
      </trkpt>
      <trkpt lat="45.83414" lon="4.78687">
        <ele>536.20001220703</ele>
        <time>2011-09-09T19:52:11Z</time>
      </trkpt>
      <trkpt lat="45.83416" lon="4.78685">
        <ele>536.59997558594</ele>
        <time>2011-09-09T19:52:12Z</time>
      </trkpt>
      <trkpt lat="45.83423" lon="4.78676">
        <ele>537.79998779297</ele>
        <time>2011-09-09T19:52:17Z</time>
      </trkpt>
      <trkpt lat="45.83424" lon="4.78675">
        <ele>538</ele>
        <time>2011-09-09T19:52:18Z</time>
      </trkpt>
      <trkpt lat="45.8343" lon="4.78667">
        <ele>538.79998779297</ele>
        <time>2011-09-09T19:52:22Z</time>
      </trkpt>
      <trkpt lat="45.83432" lon="4.78665">
        <ele>539.20001220703</ele>
        <time>2011-09-09T19:52:23Z</time>
      </trkpt>
      <trkpt lat="45.83434" lon="4.78662">
        <ele>539.40002441406</ele>
        <time>2011-09-09T19:52:24Z</time>
      </trkpt>
      <trkpt lat="45.83443" lon="4.78651">
        <ele>540.59997558594</ele>
        <time>2011-09-09T19:52:29Z</time>
      </trkpt>
      <trkpt lat="45.83451" lon="4.78645">
        <ele>541.59997558594</ele>
        <time>2011-09-09T19:52:33Z</time>
      </trkpt>
      <trkpt lat="45.83462" lon="4.78636">
        <ele>543</ele>
        <time>2011-09-09T19:52:39Z</time>
      </trkpt>
      <trkpt lat="45.83473" lon="4.78624">
        <ele>544.40002441406</ele>
        <time>2011-09-09T19:52:45Z</time>
      </trkpt>
      <trkpt lat="45.83479" lon="4.78615">
        <ele>546</ele>
        <time>2011-09-09T19:52:51Z</time>
      </trkpt>
      <trkpt lat="45.83485" lon="4.78609">
        <ele>547.59997558594</ele>
        <time>2011-09-09T19:52:57Z</time>
      </trkpt>
      <trkpt lat="45.8349" lon="4.78603">
        <ele>548.40002441406</ele>
        <time>2011-09-09T19:53:01Z</time>
      </trkpt>
      <trkpt lat="45.83496" lon="4.78596">
        <ele>548.79998779297</ele>
        <time>2011-09-09T19:53:04Z</time>
      </trkpt>
      <trkpt lat="45.83508" lon="4.78588">
        <ele>550.20001220703</ele>
        <time>2011-09-09T19:53:10Z</time>
      </trkpt>
      <trkpt lat="45.83511" lon="4.78584">
        <ele>550.59997558594</ele>
        <time>2011-09-09T19:53:12Z</time>
      </trkpt>
      <trkpt lat="45.83516" lon="4.78579">
        <ele>551.20001220703</ele>
        <time>2011-09-09T19:53:17Z</time>
      </trkpt>
      <trkpt lat="45.83526" lon="4.7857">
        <ele>552</ele>
        <time>2011-09-09T19:53:24Z</time>
      </trkpt>
      <trkpt lat="45.83531" lon="4.78564">
        <ele>552.79998779297</ele>
        <time>2011-09-09T19:53:29Z</time>
      </trkpt>
      <trkpt lat="45.83539" lon="4.78549">
        <ele>553.40002441406</ele>
        <time>2011-09-09T19:53:35Z</time>
      </trkpt>
      <trkpt lat="45.83548" lon="4.78534">
        <ele>554.40002441406</ele>
        <time>2011-09-09T19:53:40Z</time>
      </trkpt>
      <trkpt lat="45.83554" lon="4.7852">
        <ele>555.20001220703</ele>
        <time>2011-09-09T19:53:45Z</time>
      </trkpt>
      <trkpt lat="45.8356" lon="4.78511">
        <ele>555.79998779297</ele>
        <time>2011-09-09T19:53:49Z</time>
      </trkpt>
      <trkpt lat="45.83567" lon="4.78498">
        <ele>556.79998779297</ele>
        <time>2011-09-09T19:53:54Z</time>
      </trkpt>
      <trkpt lat="45.83576" lon="4.7848">
        <ele>557.79998779297</ele>
        <time>2011-09-09T19:54:00Z</time>
      </trkpt>
      <trkpt lat="45.83583" lon="4.7847">
        <ele>558.59997558594</ele>
        <time>2011-09-09T19:54:04Z</time>
      </trkpt>
      <trkpt lat="45.83594" lon="4.78456">
        <ele>559.20001220703</ele>
        <time>2011-09-09T19:54:09Z</time>
      </trkpt>
      <trkpt lat="45.83604" lon="4.78445">
        <ele>559.59997558594</ele>
        <time>2011-09-09T19:54:13Z</time>
      </trkpt>
      <trkpt lat="45.83612" lon="4.78436">
        <ele>559.79998779297</ele>
        <time>2011-09-09T19:54:17Z</time>
      </trkpt>
      <trkpt lat="45.83621" lon="4.7843">
        <ele>560</ele>
        <time>2011-09-09T19:54:20Z</time>
      </trkpt>
      <trkpt lat="45.83629" lon="4.78425">
        <ele>560</ele>
        <time>2011-09-09T19:54:23Z</time>
      </trkpt>
      <trkpt lat="45.83644" lon="4.78412">
        <ele>560.20001220703</ele>
        <time>2011-09-09T19:54:29Z</time>
      </trkpt>
      <trkpt lat="45.83655" lon="4.78403">
        <ele>560.20001220703</ele>
        <time>2011-09-09T19:54:33Z</time>
      </trkpt>
      <trkpt lat="45.83669" lon="4.78395">
        <ele>560.20001220703</ele>
        <time>2011-09-09T19:54:37Z</time>
      </trkpt>
      <trkpt lat="45.83679" lon="4.78391">
        <ele>560.20001220703</ele>
        <time>2011-09-09T19:54:41Z</time>
      </trkpt>
      <trkpt lat="45.8369" lon="4.78389">
        <ele>560.20001220703</ele>
        <time>2011-09-09T19:54:45Z</time>
      </trkpt>
      <trkpt lat="45.83701" lon="4.78392">
        <ele>560.20001220703</ele>
        <time>2011-09-09T19:54:49Z</time>
      </trkpt>
      <trkpt lat="45.83712" lon="4.78393">
        <ele>560.20001220703</ele>
        <time>2011-09-09T19:54:54Z</time>
      </trkpt>
      <trkpt lat="45.83719" lon="4.78393">
        <ele>560.20001220703</ele>
        <time>2011-09-09T19:54:56Z</time>
      </trkpt>
      <trkpt lat="45.83733" lon="4.78394">
        <ele>560.20001220703</ele>
        <time>2011-09-09T19:55:01Z</time>
      </trkpt>
      <trkpt lat="45.83745" lon="4.78391">
        <ele>560.20001220703</ele>
        <time>2011-09-09T19:55:07Z</time>
      </trkpt>
      <trkpt lat="45.83757" lon="4.7839">
        <ele>560.20001220703</ele>
        <time>2011-09-09T19:55:12Z</time>
      </trkpt>
      <trkpt lat="45.83766" lon="4.78388">
        <ele>560.20001220703</ele>
        <time>2011-09-09T19:55:16Z</time>
      </trkpt>
      <trkpt lat="45.83779" lon="4.78382">
        <ele>560.20001220703</ele>
        <time>2011-09-09T19:55:21Z</time>
      </trkpt>
      <trkpt lat="45.83793" lon="4.78377">
        <ele>560.20001220703</ele>
        <time>2011-09-09T19:55:27Z</time>
      </trkpt>
      <trkpt lat="45.83795" lon="4.78377">
        <ele>560.20001220703</ele>
        <time>2011-09-09T19:55:28Z</time>
      </trkpt>
      <trkpt lat="45.83807" lon="4.78376">
        <ele>560.20001220703</ele>
        <time>2011-09-09T19:55:34Z</time>
      </trkpt>
      <trkpt lat="45.83817" lon="4.78369">
        <ele>560.20001220703</ele>
        <time>2011-09-09T19:55:39Z</time>
      </trkpt>
      <trkpt lat="45.83819" lon="4.78369">
        <ele>560.20001220703</ele>
        <time>2011-09-09T19:55:39Z</time>
      </trkpt>
      <trkpt lat="45.83829" lon="4.78365">
        <ele>560.20001220703</ele>
        <time>2011-09-09T19:55:46Z</time>
      </trkpt>
      <trkpt lat="45.8383" lon="4.78364">
        <ele>560.20001220703</ele>
        <time>2011-09-09T19:55:46Z</time>
      </trkpt>
      <trkpt lat="45.83839" lon="4.78361">
        <ele>560.20001220703</ele>
        <time>2011-09-09T19:55:51Z</time>
      </trkpt>
      <trkpt lat="45.83851" lon="4.78361">
        <ele>560.20001220703</ele>
        <time>2011-09-09T19:55:56Z</time>
      </trkpt>
      <trkpt lat="45.83858" lon="4.78365">
        <ele>560.20001220703</ele>
        <time>2011-09-09T19:56:00Z</time>
      </trkpt>
      <trkpt lat="45.83873" lon="4.78364">
        <ele>560.20001220703</ele>
        <time>2011-09-09T19:56:06Z</time>
      </trkpt>
      <trkpt lat="45.83875" lon="4.78365">
        <ele>560.20001220703</ele>
        <time>2011-09-09T19:56:06Z</time>
      </trkpt>
      <trkpt lat="45.83879" lon="4.78368">
        <ele>560.20001220703</ele>
        <time>2011-09-09T19:56:09Z</time>
      </trkpt>
      <trkpt lat="45.83894" lon="4.78367">
        <ele>560.20001220703</ele>
        <time>2011-09-09T19:56:15Z</time>
      </trkpt>
      <trkpt lat="45.83904" lon="4.78367">
        <ele>561</ele>
        <time>2011-09-09T19:56:19Z</time>
      </trkpt>
      <trkpt lat="45.83905" lon="4.78367">
        <ele>561.20001220703</ele>
        <time>2011-09-09T19:56:20Z</time>
      </trkpt>
      <trkpt lat="45.83911" lon="4.78366">
        <ele>561.59997558594</ele>
        <time>2011-09-09T19:56:24Z</time>
      </trkpt>
      <trkpt lat="45.8392" lon="4.78367">
        <ele>561.79998779297</ele>
        <time>2011-09-09T19:56:28Z</time>
      </trkpt>
      <trkpt lat="45.83928" lon="4.78364">
        <ele>562</ele>
        <time>2011-09-09T19:56:33Z</time>
      </trkpt>
      <trkpt lat="45.83939" lon="4.78361">
        <ele>562.20001220703</ele>
        <time>2011-09-09T19:56:39Z</time>
      </trkpt>
      <trkpt lat="45.83945" lon="4.7836">
        <ele>562.79998779297</ele>
        <time>2011-09-09T19:56:41Z</time>
      </trkpt>
      <trkpt lat="45.83957" lon="4.78356">
        <ele>563.40002441406</ele>
        <time>2011-09-09T19:56:48Z</time>
      </trkpt>
      <trkpt lat="45.83965" lon="4.78353">
        <ele>563.79998779297</ele>
        <time>2011-09-09T19:56:51Z</time>
      </trkpt>
      <trkpt lat="45.83973" lon="4.78348">
        <ele>564</ele>
        <time>2011-09-09T19:56:55Z</time>
      </trkpt>
      <trkpt lat="45.83986" lon="4.78348">
        <ele>564</ele>
        <time>2011-09-09T19:57:00Z</time>
      </trkpt>
      <trkpt lat="45.83998" lon="4.78348">
        <ele>564.59997558594</ele>
        <time>2011-09-09T19:57:06Z</time>
      </trkpt>
      <trkpt lat="45.84007" lon="4.78348">
        <ele>565.20001220703</ele>
        <time>2011-09-09T19:57:10Z</time>
      </trkpt>
      <trkpt lat="45.84009" lon="4.78347">
        <ele>565.40002441406</ele>
        <time>2011-09-09T19:57:10Z</time>
      </trkpt>
      <trkpt lat="45.84012" lon="4.78348">
        <ele>565.40002441406</ele>
        <time>2011-09-09T19:57:11Z</time>
      </trkpt>
      <trkpt lat="45.84024" lon="4.7835">
        <ele>565.79998779297</ele>
        <time>2011-09-09T19:57:16Z</time>
      </trkpt>
      <trkpt lat="45.84035" lon="4.78351">
        <ele>566</ele>
        <time>2011-09-09T19:57:21Z</time>
      </trkpt>
      <trkpt lat="45.84047" lon="4.78354">
        <ele>566.20001220703</ele>
        <time>2011-09-09T19:57:25Z</time>
      </trkpt>
      <trkpt lat="45.84063" lon="4.78359">
        <ele>566.20001220703</ele>
        <time>2011-09-09T19:57:31Z</time>
      </trkpt>
      <trkpt lat="45.84065" lon="4.7836">
        <ele>566.20001220703</ele>
        <time>2011-09-09T19:57:31Z</time>
      </trkpt>
      <trkpt lat="45.84076" lon="4.78361">
        <ele>566.20001220703</ele>
        <time>2011-09-09T19:57:36Z</time>
      </trkpt>
      <trkpt lat="45.84086" lon="4.78362">
        <ele>566.40002441406</ele>
        <time>2011-09-09T19:57:40Z</time>
      </trkpt>
      <trkpt lat="45.84088" lon="4.78363">
        <ele>566.40002441406</ele>
        <time>2011-09-09T19:57:41Z</time>
      </trkpt>
      <trkpt lat="45.84098" lon="4.78365">
        <ele>566.40002441406</ele>
        <time>2011-09-09T19:57:46Z</time>
      </trkpt>
      <trkpt lat="45.84109" lon="4.78364">
        <ele>566.40002441406</ele>
        <time>2011-09-09T19:57:51Z</time>
      </trkpt>
      <trkpt lat="45.84121" lon="4.78363">
        <ele>566.40002441406</ele>
        <time>2011-09-09T19:57:55Z</time>
      </trkpt>
      <trkpt lat="45.84122" lon="4.78362">
        <ele>566.40002441406</ele>
        <time>2011-09-09T19:57:56Z</time>
      </trkpt>
      <trkpt lat="45.84131" lon="4.78358">
        <ele>566.40002441406</ele>
        <time>2011-09-09T19:58:01Z</time>
      </trkpt>
      <trkpt lat="45.84142" lon="4.78353">
        <ele>566.20001220703</ele>
        <time>2011-09-09T19:58:04Z</time>
      </trkpt>
      <trkpt lat="45.84149" lon="4.7835">
        <ele>565.59997558594</ele>
        <time>2011-09-09T19:58:08Z</time>
      </trkpt>
      <trkpt lat="45.84156" lon="4.78347">
        <ele>565.40002441406</ele>
        <time>2011-09-09T19:58:10Z</time>
      </trkpt>
      <trkpt lat="45.84169" lon="4.78342">
        <ele>564.79998779297</ele>
        <time>2011-09-09T19:58:15Z</time>
      </trkpt>
      <trkpt lat="45.84173" lon="4.78336">
        <ele>564.79998779297</ele>
        <time>2011-09-09T19:58:18Z</time>
      </trkpt>
      <trkpt lat="45.84183" lon="4.78315">
        <ele>564.59997558594</ele>
        <time>2011-09-09T19:58:23Z</time>
      </trkpt>
      <trkpt lat="45.84188" lon="4.78301">
        <ele>564</ele>
        <time>2011-09-09T19:58:27Z</time>
      </trkpt>
      <trkpt lat="45.84194" lon="4.78291">
        <ele>563.40002441406</ele>
        <time>2011-09-09T19:58:31Z</time>
      </trkpt>
      <trkpt lat="45.84206" lon="4.78279">
        <ele>562.79998779297</ele>
        <time>2011-09-09T19:58:37Z</time>
      </trkpt>
      <trkpt lat="45.84214" lon="4.78273">
        <ele>562.20001220703</ele>
        <time>2011-09-09T19:58:42Z</time>
      </trkpt>
      <trkpt lat="45.84217" lon="4.7827">
        <ele>561.59997558594</ele>
        <time>2011-09-09T19:58:46Z</time>
      </trkpt>
      <trkpt lat="45.84218" lon="4.7827">
        <ele>560.79998779297</ele>
        <time>2011-09-09T19:58:54Z</time>
      </trkpt>
      <trkpt lat="45.84221" lon="4.78272">
        <ele>560</ele>
        <time>2011-09-09T19:59:08Z</time>
      </trkpt>
      <trkpt lat="45.84222" lon="4.78272">
        <ele>558.79998779297</ele>
        <time>2011-09-09T19:59:18Z</time>
      </trkpt>
      <trkpt lat="45.84221" lon="4.78271">
        <ele>558.59997558594</ele>
        <time>2011-09-09T19:59:25Z</time>
      </trkpt>
      <trkpt lat="45.84221" lon="4.78269">
        <ele>558.40002441406</ele>
        <time>2011-09-09T19:59:28Z</time>
      </trkpt>
      <trkpt lat="45.84223" lon="4.78271">
        <ele>556.79998779297</ele>
        <time>2011-09-09T19:59:41Z</time>
      </trkpt>
      <trkpt lat="45.84224" lon="4.78276">
        <ele>556.40002441406</ele>
        <time>2011-09-09T19:59:46Z</time>
      </trkpt>
      <trkpt lat="45.84225" lon="4.78285">
        <ele>555.59997558594</ele>
        <time>2011-09-09T19:59:51Z</time>
      </trkpt>
      <trkpt lat="45.8423" lon="4.78299">
        <ele>555</ele>
        <time>2011-09-09T19:59:57Z</time>
      </trkpt>
      <trkpt lat="45.84231" lon="4.78309">
        <ele>554.79998779297</ele>
        <time>2011-09-09T20:00:01Z</time>
      </trkpt>
      <trkpt lat="45.84239" lon="4.78323">
        <ele>554</ele>
        <time>2011-09-09T20:00:06Z</time>
      </trkpt>
      <trkpt lat="45.84246" lon="4.7833">
        <ele>553.20001220703</ele>
        <time>2011-09-09T20:00:10Z</time>
      </trkpt>
      <trkpt lat="45.84255" lon="4.78341">
        <ele>552.79998779297</ele>
        <time>2011-09-09T20:00:14Z</time>
      </trkpt>
      <trkpt lat="45.8427" lon="4.78335">
        <ele>552</ele>
        <time>2011-09-09T20:00:21Z</time>
      </trkpt>
      <trkpt lat="45.84272" lon="4.78332">
        <ele>551.79998779297</ele>
        <time>2011-09-09T20:00:21Z</time>
      </trkpt>
      <trkpt lat="45.8428" lon="4.78324">
        <ele>551.40002441406</ele>
        <time>2011-09-09T20:00:25Z</time>
      </trkpt>
      <trkpt lat="45.84297" lon="4.78322">
        <ele>550.79998779297</ele>
        <time>2011-09-09T20:00:31Z</time>
      </trkpt>
      <trkpt lat="45.84309" lon="4.78321">
        <ele>550.59997558594</ele>
        <time>2011-09-09T20:00:34Z</time>
      </trkpt>
      <trkpt lat="45.84311" lon="4.78321">
        <ele>550.40002441406</ele>
        <time>2011-09-09T20:00:36Z</time>
      </trkpt>
      <trkpt lat="45.84324" lon="4.78328">
        <ele>550.20001220703</ele>
        <time>2011-09-09T20:00:40Z</time>
      </trkpt>
      <trkpt lat="45.84327" lon="4.78328">
        <ele>550.20001220703</ele>
        <time>2011-09-09T20:00:41Z</time>
      </trkpt>
      <trkpt lat="45.84337" lon="4.78326">
        <ele>550.20001220703</ele>
        <time>2011-09-09T20:00:46Z</time>
      </trkpt>
      <trkpt lat="45.84357" lon="4.78333">
        <ele>550.20001220703</ele>
        <time>2011-09-09T20:00:51Z</time>
      </trkpt>
      <trkpt lat="45.84371" lon="4.78337">
        <ele>550</ele>
        <time>2011-09-09T20:00:56Z</time>
      </trkpt>
      <trkpt lat="45.84373" lon="4.78341">
        <ele>550</ele>
        <time>2011-09-09T20:00:56Z</time>
      </trkpt>
      <trkpt lat="45.84377" lon="4.78346">
        <ele>550</ele>
        <time>2011-09-09T20:00:58Z</time>
      </trkpt>
      <trkpt lat="45.84382" lon="4.7836">
        <ele>550</ele>
        <time>2011-09-09T20:01:04Z</time>
      </trkpt>
      <trkpt lat="45.84381" lon="4.78365">
        <ele>550</ele>
        <time>2011-09-09T20:01:06Z</time>
      </trkpt>
      <trkpt lat="45.84376" lon="4.78369">
        <ele>550</ele>
        <time>2011-09-09T20:01:10Z</time>
      </trkpt>
      <trkpt lat="45.84367" lon="4.7838">
        <ele>549.59997558594</ele>
        <time>2011-09-09T20:01:16Z</time>
      </trkpt>
      <trkpt lat="45.84365" lon="4.78382">
        <ele>549.40002441406</ele>
        <time>2011-09-09T20:01:16Z</time>
      </trkpt>
      <trkpt lat="45.84366" lon="4.78395">
        <ele>548.79998779297</ele>
        <time>2011-09-09T20:01:21Z</time>
      </trkpt>
      <trkpt lat="45.84372" lon="4.78407">
        <ele>547.79998779297</ele>
        <time>2011-09-09T20:01:26Z</time>
      </trkpt>
      <trkpt lat="45.84374" lon="4.7841">
        <ele>547.59997558594</ele>
        <time>2011-09-09T20:01:26Z</time>
      </trkpt>
      <trkpt lat="45.84377" lon="4.78412">
        <ele>547.40002441406</ele>
        <time>2011-09-09T20:01:28Z</time>
      </trkpt>
      <trkpt lat="45.84387" lon="4.78419">
        <ele>546.40002441406</ele>
        <time>2011-09-09T20:01:31Z</time>
      </trkpt>
      <trkpt lat="45.84398" lon="4.78428">
        <ele>545.20001220703</ele>
        <time>2011-09-09T20:01:34Z</time>
      </trkpt>
      <trkpt lat="45.84414" lon="4.78444">
        <ele>543.40002441406</ele>
        <time>2011-09-09T20:01:40Z</time>
      </trkpt>
      <trkpt lat="45.84417" lon="4.78446">
        <ele>543</ele>
        <time>2011-09-09T20:01:40Z</time>
      </trkpt>
      <trkpt lat="45.84426" lon="4.78457">
        <ele>541.59997558594</ele>
        <time>2011-09-09T20:01:45Z</time>
      </trkpt>
      <trkpt lat="45.84428" lon="4.78463">
        <ele>541.20001220703</ele>
        <time>2011-09-09T20:01:46Z</time>
      </trkpt>
      <trkpt lat="45.84434" lon="4.78471">
        <ele>540.40002441406</ele>
        <time>2011-09-09T20:01:49Z</time>
      </trkpt>
      <trkpt lat="45.84438" lon="4.78473">
        <ele>540</ele>
        <time>2011-09-09T20:01:50Z</time>
      </trkpt>
      <trkpt lat="45.84449" lon="4.78489">
        <ele>538.40002441406</ele>
        <time>2011-09-09T20:01:55Z</time>
      </trkpt>
      <trkpt lat="45.84452" lon="4.78493">
        <ele>538.20001220703</ele>
        <time>2011-09-09T20:01:56Z</time>
      </trkpt>
      <trkpt lat="45.84455" lon="4.78501">
        <ele>537.59997558594</ele>
        <time>2011-09-09T20:01:58Z</time>
      </trkpt>
      <trkpt lat="45.84466" lon="4.78519">
        <ele>535.79998779297</ele>
        <time>2011-09-09T20:02:03Z</time>
      </trkpt>
      <trkpt lat="45.84475" lon="4.78533">
        <ele>534.20001220703</ele>
        <time>2011-09-09T20:02:06Z</time>
      </trkpt>
      <trkpt lat="45.84476" lon="4.78537">
        <ele>534</ele>
        <time>2011-09-09T20:02:08Z</time>
      </trkpt>
      <trkpt lat="45.84478" lon="4.78541">
        <ele>533.79998779297</ele>
        <time>2011-09-09T20:02:09Z</time>
      </trkpt>
      <trkpt lat="45.84487" lon="4.78555">
        <ele>532.20001220703</ele>
        <time>2011-09-09T20:02:13Z</time>
      </trkpt>
      <trkpt lat="45.84492" lon="4.78575">
        <ele>530.59997558594</ele>
        <time>2011-09-09T20:02:18Z</time>
      </trkpt>
      <trkpt lat="45.84499" lon="4.78586">
        <ele>529.59997558594</ele>
        <time>2011-09-09T20:02:21Z</time>
      </trkpt>
      <trkpt lat="45.84514" lon="4.78602">
        <ele>528.20001220703</ele>
        <time>2011-09-09T20:02:26Z</time>
      </trkpt>
      <trkpt lat="45.84517" lon="4.7861">
        <ele>527.59997558594</ele>
        <time>2011-09-09T20:02:27Z</time>
      </trkpt>
      <trkpt lat="45.84527" lon="4.78633">
        <ele>526.20001220703</ele>
        <time>2011-09-09T20:02:34Z</time>
      </trkpt>
      <trkpt lat="45.84538" lon="4.78648">
        <ele>525</ele>
        <time>2011-09-09T20:02:39Z</time>
      </trkpt>
      <trkpt lat="45.84553" lon="4.78663">
        <ele>523.40002441406</ele>
        <time>2011-09-09T20:02:45Z</time>
      </trkpt>
      <trkpt lat="45.84564" lon="4.78677">
        <ele>522</ele>
        <time>2011-09-09T20:02:50Z</time>
      </trkpt>
      <trkpt lat="45.84573" lon="4.78693">
        <ele>521</ele>
        <time>2011-09-09T20:02:54Z</time>
      </trkpt>
      <trkpt lat="45.84575" lon="4.78696">
        <ele>520.79998779297</ele>
        <time>2011-09-09T20:02:55Z</time>
      </trkpt>
      <trkpt lat="45.84588" lon="4.78706">
        <ele>519.20001220703</ele>
        <time>2011-09-09T20:03:00Z</time>
      </trkpt>
      <trkpt lat="45.84592" lon="4.78708">
        <ele>518.79998779297</ele>
        <time>2011-09-09T20:03:01Z</time>
      </trkpt>
      <trkpt lat="45.84613" lon="4.78713">
        <ele>517.20001220703</ele>
        <time>2011-09-09T20:03:06Z</time>
      </trkpt>
      <trkpt lat="45.84616" lon="4.78715">
        <ele>517</ele>
        <time>2011-09-09T20:03:06Z</time>
      </trkpt>
      <trkpt lat="45.84622" lon="4.78732">
        <ele>515.40002441406</ele>
        <time>2011-09-09T20:03:10Z</time>
      </trkpt>
      <trkpt lat="45.84623" lon="4.7875">
        <ele>514.40002441406</ele>
        <time>2011-09-09T20:03:14Z</time>
      </trkpt>
      <trkpt lat="45.84626" lon="4.7877">
        <ele>513</ele>
        <time>2011-09-09T20:03:18Z</time>
      </trkpt>
      <trkpt lat="45.84631" lon="4.78797">
        <ele>510.60000610352</ele>
        <time>2011-09-09T20:03:24Z</time>
      </trkpt>
      <trkpt lat="45.84634" lon="4.78798">
        <ele>510</ele>
        <time>2011-09-09T20:03:24Z</time>
      </trkpt>
      <trkpt lat="45.8464" lon="4.78815">
        <ele>508.60000610352</ele>
        <time>2011-09-09T20:03:28Z</time>
      </trkpt>
      <trkpt lat="45.84641" lon="4.78819">
        <ele>508</ele>
        <time>2011-09-09T20:03:29Z</time>
      </trkpt>
      <trkpt lat="45.84647" lon="4.78838">
        <ele>505.79998779297</ele>
        <time>2011-09-09T20:03:33Z</time>
      </trkpt>
      <trkpt lat="45.8466" lon="4.78854">
        <ele>503</ele>
        <time>2011-09-09T20:03:38Z</time>
      </trkpt>
      <trkpt lat="45.84675" lon="4.78869">
        <ele>500.20001220703</ele>
        <time>2011-09-09T20:03:43Z</time>
      </trkpt>
      <trkpt lat="45.84686" lon="4.78877">
        <ele>498.20001220703</ele>
        <time>2011-09-09T20:03:46Z</time>
      </trkpt>
      <trkpt lat="45.84698" lon="4.78882">
        <ele>496.60000610352</ele>
        <time>2011-09-09T20:03:51Z</time>
      </trkpt>
      <trkpt lat="45.84711" lon="4.78887">
        <ele>494.79998779297</ele>
        <time>2011-09-09T20:03:55Z</time>
      </trkpt>
      <trkpt lat="45.84723" lon="4.78896">
        <ele>493.20001220703</ele>
        <time>2011-09-09T20:03:59Z</time>
      </trkpt>
      <trkpt lat="45.84733" lon="4.78907">
        <ele>491.60000610352</ele>
        <time>2011-09-09T20:04:03Z</time>
      </trkpt>
      <trkpt lat="45.84742" lon="4.78921">
        <ele>490</ele>
        <time>2011-09-09T20:04:07Z</time>
      </trkpt>
      <trkpt lat="45.8475" lon="4.78931">
        <ele>488.60000610352</ele>
        <time>2011-09-09T20:04:10Z</time>
      </trkpt>
      <trkpt lat="45.84765" lon="4.78938">
        <ele>486.79998779297</ele>
        <time>2011-09-09T20:04:14Z</time>
      </trkpt>
      <trkpt lat="45.84776" lon="4.78948">
        <ele>485</ele>
        <time>2011-09-09T20:04:18Z</time>
      </trkpt>
      <trkpt lat="45.8479" lon="4.78967">
        <ele>482.39999389648</ele>
        <time>2011-09-09T20:04:24Z</time>
      </trkpt>
      <trkpt lat="45.84795" lon="4.78973">
        <ele>481.60000610352</ele>
        <time>2011-09-09T20:04:26Z</time>
      </trkpt>
      <trkpt lat="45.84802" lon="4.7898">
        <ele>480.20001220703</ele>
        <time>2011-09-09T20:04:29Z</time>
      </trkpt>
      <trkpt lat="45.84813" lon="4.78996">
        <ele>478.20001220703</ele>
        <time>2011-09-09T20:04:34Z</time>
      </trkpt>
      <trkpt lat="45.84821" lon="4.79012">
        <ele>476.60000610352</ele>
        <time>2011-09-09T20:04:39Z</time>
      </trkpt>
      <trkpt lat="45.84825" lon="4.79014">
        <ele>476</ele>
        <time>2011-09-09T20:04:40Z</time>
      </trkpt>
      <trkpt lat="45.84832" lon="4.79027">
        <ele>474.60000610352</ele>
        <time>2011-09-09T20:04:44Z</time>
      </trkpt>
      <trkpt lat="45.84841" lon="4.79041">
        <ele>473.20001220703</ele>
        <time>2011-09-09T20:04:49Z</time>
      </trkpt>
      <trkpt lat="45.84843" lon="4.79042">
        <ele>472.79998779297</ele>
        <time>2011-09-09T20:04:50Z</time>
      </trkpt>
      <trkpt lat="45.84849" lon="4.79052">
        <ele>471.79998779297</ele>
        <time>2011-09-09T20:04:54Z</time>
      </trkpt>
      <trkpt lat="45.84854" lon="4.79054">
        <ele>471.20001220703</ele>
        <time>2011-09-09T20:04:56Z</time>
      </trkpt>
      <trkpt lat="45.84862" lon="4.79062">
        <ele>470</ele>
        <time>2011-09-09T20:05:00Z</time>
      </trkpt>
      <trkpt lat="45.84864" lon="4.79065">
        <ele>469.79998779297</ele>
        <time>2011-09-09T20:05:01Z</time>
      </trkpt>
      <trkpt lat="45.84871" lon="4.79077">
        <ele>469</ele>
        <time>2011-09-09T20:05:05Z</time>
      </trkpt>
      <trkpt lat="45.84878" lon="4.79093">
        <ele>467.79998779297</ele>
        <time>2011-09-09T20:05:10Z</time>
      </trkpt>
      <trkpt lat="45.84882" lon="4.79112">
        <ele>466.79998779297</ele>
        <time>2011-09-09T20:05:15Z</time>
      </trkpt>
      <trkpt lat="45.84881" lon="4.79133">
        <ele>466.39999389648</ele>
        <time>2011-09-09T20:05:20Z</time>
      </trkpt>
      <trkpt lat="45.84883" lon="4.79149">
        <ele>466</ele>
        <time>2011-09-09T20:05:24Z</time>
      </trkpt>
      <trkpt lat="45.84884" lon="4.79159">
        <ele>466</ele>
        <time>2011-09-09T20:05:26Z</time>
      </trkpt>
      <trkpt lat="45.84885" lon="4.79172">
        <ele>465.20001220703</ele>
        <time>2011-09-09T20:05:30Z</time>
      </trkpt>
      <trkpt lat="45.84886" lon="4.79185">
        <ele>464.60000610352</ele>
        <time>2011-09-09T20:05:35Z</time>
      </trkpt>
      <trkpt lat="45.84887" lon="4.79194">
        <ele>464.20001220703</ele>
        <time>2011-09-09T20:05:39Z</time>
      </trkpt>
      <trkpt lat="45.84887" lon="4.79197">
        <ele>464.20001220703</ele>
        <time>2011-09-09T20:05:40Z</time>
      </trkpt>
      <trkpt lat="45.84888" lon="4.79199">
        <ele>464</ele>
        <time>2011-09-09T20:05:41Z</time>
      </trkpt>
      <trkpt lat="45.84887" lon="4.79209">
        <ele>463.79998779297</ele>
        <time>2011-09-09T20:05:45Z</time>
      </trkpt>
      <trkpt lat="45.84888" lon="4.7922">
        <ele>463</ele>
        <time>2011-09-09T20:05:49Z</time>
      </trkpt>
      <trkpt lat="45.84891" lon="4.7923">
        <ele>462.60000610352</ele>
        <time>2011-09-09T20:05:52Z</time>
      </trkpt>
      <trkpt lat="45.84895" lon="4.79236">
        <ele>462.20001220703</ele>
        <time>2011-09-09T20:05:55Z</time>
      </trkpt>
      <trkpt lat="45.84898" lon="4.7925">
        <ele>461.79998779297</ele>
        <time>2011-09-09T20:06:01Z</time>
      </trkpt>
      <trkpt lat="45.84901" lon="4.79259">
        <ele>461.20001220703</ele>
        <time>2011-09-09T20:06:06Z</time>
      </trkpt>
      <trkpt lat="45.84902" lon="4.79261">
        <ele>461</ele>
        <time>2011-09-09T20:06:07Z</time>
      </trkpt>
      <trkpt lat="45.84906" lon="4.79267">
        <ele>460.39999389648</ele>
        <time>2011-09-09T20:06:12Z</time>
      </trkpt>
      <trkpt lat="45.84906" lon="4.79268">
        <ele>460.20001220703</ele>
        <time>2011-09-09T20:06:13Z</time>
      </trkpt>
      <trkpt lat="45.84911" lon="4.79272">
        <ele>460</ele>
        <time>2011-09-09T20:06:16Z</time>
      </trkpt>
      <trkpt lat="45.84917" lon="4.7928">
        <ele>459.60000610352</ele>
        <time>2011-09-09T20:06:21Z</time>
      </trkpt>
      <trkpt lat="45.84917" lon="4.79281">
        <ele>459.60000610352</ele>
        <time>2011-09-09T20:06:22Z</time>
      </trkpt>
      <trkpt lat="45.84922" lon="4.7929">
        <ele>459.39999389648</ele>
        <time>2011-09-09T20:06:28Z</time>
      </trkpt>
      <trkpt lat="45.84922" lon="4.79291">
        <ele>459.39999389648</ele>
        <time>2011-09-09T20:06:29Z</time>
      </trkpt>
      <trkpt lat="45.84928" lon="4.79293">
        <ele>458.79998779297</ele>
        <time>2011-09-09T20:06:34Z</time>
      </trkpt>
      <trkpt lat="45.84934" lon="4.79294">
        <ele>458</ele>
        <time>2011-09-09T20:06:40Z</time>
      </trkpt>
      <trkpt lat="45.84942" lon="4.79293">
        <ele>457.60000610352</ele>
        <time>2011-09-09T20:06:46Z</time>
      </trkpt>
      <trkpt lat="45.84953" lon="4.79298">
        <ele>457.39999389648</ele>
        <time>2011-09-09T20:06:51Z</time>
      </trkpt>
      <trkpt lat="45.84959" lon="4.79297">
        <ele>457.39999389648</ele>
        <time>2011-09-09T20:06:54Z</time>
      </trkpt>
      <trkpt lat="45.8496" lon="4.79291">
        <ele>457.20001220703</ele>
        <time>2011-09-09T20:06:58Z</time>
      </trkpt>
      <trkpt lat="45.84958" lon="4.79289">
        <ele>457.20001220703</ele>
        <time>2011-09-09T20:07:01Z</time>
      </trkpt>
      <trkpt lat="45.84955" lon="4.79287">
        <ele>457.20001220703</ele>
        <time>2011-09-09T20:07:03Z</time>
      </trkpt>
      <trkpt lat="45.84952" lon="4.7928">
        <ele>457.20001220703</ele>
        <time>2011-09-09T20:07:07Z</time>
      </trkpt>
      <trkpt lat="45.84948" lon="4.79274">
        <ele>457.79998779297</ele>
        <time>2011-09-09T20:07:13Z</time>
      </trkpt>
      <trkpt lat="45.84944" lon="4.79265">
        <ele>458.39999389648</ele>
        <time>2011-09-09T20:07:18Z</time>
      </trkpt>
      <trkpt lat="45.8494" lon="4.79252">
        <ele>458.79998779297</ele>
        <time>2011-09-09T20:07:26Z</time>
      </trkpt>
      <trkpt lat="45.8494" lon="4.79252">
        <ele>458.79998779297</ele>
        <time>2011-09-09T20:07:26Z</time>
      </trkpt>
      <trkpt lat="45.84945" lon="4.79248">
        <ele>459</ele>
        <time>2011-09-09T20:07:31Z</time>
      </trkpt>
      <trkpt lat="45.84952" lon="4.79246">
        <ele>459</ele>
        <time>2011-09-09T20:07:36Z</time>
      </trkpt>
      <trkpt lat="45.84955" lon="4.79245">
        <ele>459</ele>
        <time>2011-09-09T20:07:40Z</time>
      </trkpt>
      <trkpt lat="45.84964" lon="4.79243">
        <ele>459.20001220703</ele>
        <time>2011-09-09T20:07:48Z</time>
      </trkpt>
      <trkpt lat="45.84967" lon="4.79242">
        <ele>459.20001220703</ele>
        <time>2011-09-09T20:07:50Z</time>
      </trkpt>
      <trkpt lat="45.84974" lon="4.79241">
        <ele>459.39999389648</ele>
        <time>2011-09-09T20:07:55Z</time>
      </trkpt>
      <trkpt lat="45.84975" lon="4.79241">
        <ele>459.60000610352</ele>
        <time>2011-09-09T20:07:56Z</time>
      </trkpt>
      <trkpt lat="45.84978" lon="4.79241">
        <ele>459.79998779297</ele>
        <time>2011-09-09T20:07:58Z</time>
      </trkpt>
      <trkpt lat="45.84991" lon="4.79243">
        <ele>460.39999389648</ele>
        <time>2011-09-09T20:08:03Z</time>
      </trkpt>
      <trkpt lat="45.84991" lon="4.79243">
        <ele>460.60000610352</ele>
        <time>2011-09-09T20:08:04Z</time>
      </trkpt>
      <trkpt lat="45.84997" lon="4.79244">
        <ele>461</ele>
        <time>2011-09-09T20:08:07Z</time>
      </trkpt>
      <trkpt lat="45.85004" lon="4.79245">
        <ele>462</ele>
        <time>2011-09-09T20:08:12Z</time>
      </trkpt>
      <trkpt lat="45.85012" lon="4.79246">
        <ele>462.79998779297</ele>
        <time>2011-09-09T20:08:16Z</time>
      </trkpt>
      <trkpt lat="45.85019" lon="4.79246">
        <ele>463.60000610352</ele>
        <time>2011-09-09T20:08:21Z</time>
      </trkpt>
      <trkpt lat="45.85032" lon="4.79249">
        <ele>464.79998779297</ele>
        <time>2011-09-09T20:08:28Z</time>
      </trkpt>
      <trkpt lat="45.85043" lon="4.79249">
        <ele>465.79998779297</ele>
        <time>2011-09-09T20:08:33Z</time>
      </trkpt>
      <trkpt lat="45.85047" lon="4.79249">
        <ele>466.20001220703</ele>
        <time>2011-09-09T20:08:35Z</time>
      </trkpt>
      <trkpt lat="45.85056" lon="4.79247">
        <ele>467</ele>
        <time>2011-09-09T20:08:40Z</time>
      </trkpt>
      <trkpt lat="45.85062" lon="4.79252">
        <ele>467.79998779297</ele>
        <time>2011-09-09T20:08:44Z</time>
      </trkpt>
      <trkpt lat="45.85064" lon="4.79256">
        <ele>468.20001220703</ele>
        <time>2011-09-09T20:08:46Z</time>
      </trkpt>
      <trkpt lat="45.85065" lon="4.79257">
        <ele>468.39999389648</ele>
        <time>2011-09-09T20:08:48Z</time>
      </trkpt>
      <trkpt lat="45.85073" lon="4.79271">
        <ele>469</ele>
        <time>2011-09-09T20:08:54Z</time>
      </trkpt>
      <trkpt lat="45.85078" lon="4.79272">
        <ele>469</ele>
        <time>2011-09-09T20:08:56Z</time>
      </trkpt>
      <trkpt lat="45.85082" lon="4.79271">
        <ele>469.60000610352</ele>
        <time>2011-09-09T20:08:59Z</time>
      </trkpt>
      <trkpt lat="45.85088" lon="4.7927">
        <ele>470</ele>
        <time>2011-09-09T20:09:02Z</time>
      </trkpt>
      <trkpt lat="45.85096" lon="4.7927">
        <ele>470.79998779297</ele>
        <time>2011-09-09T20:09:09Z</time>
      </trkpt>
      <trkpt lat="45.85107" lon="4.79269">
        <ele>472.20001220703</ele>
        <time>2011-09-09T20:09:16Z</time>
      </trkpt>
      <trkpt lat="45.8511" lon="4.79268">
        <ele>472.39999389648</ele>
        <time>2011-09-09T20:09:18Z</time>
      </trkpt>
      <trkpt lat="45.85115" lon="4.79267">
        <ele>472.79998779297</ele>
        <time>2011-09-09T20:09:21Z</time>
      </trkpt>
      <trkpt lat="45.85125" lon="4.79267">
        <ele>473.79998779297</ele>
        <time>2011-09-09T20:09:28Z</time>
      </trkpt>
      <trkpt lat="45.85128" lon="4.79267">
        <ele>474.39999389648</ele>
        <time>2011-09-09T20:09:31Z</time>
      </trkpt>
      <trkpt lat="45.8513" lon="4.79267">
        <ele>474.60000610352</ele>
        <time>2011-09-09T20:09:34Z</time>
      </trkpt>
      <trkpt lat="45.85133" lon="4.79266">
        <ele>475</ele>
        <time>2011-09-09T20:09:36Z</time>
      </trkpt>
      <trkpt lat="45.85141" lon="4.79266">
        <ele>475.20001220703</ele>
        <time>2011-09-09T20:09:41Z</time>
      </trkpt>
      <trkpt lat="45.85143" lon="4.79266">
        <ele>475.39999389648</ele>
        <time>2011-09-09T20:09:42Z</time>
      </trkpt>
      <trkpt lat="45.85146" lon="4.79267">
        <ele>475.39999389648</ele>
        <time>2011-09-09T20:09:46Z</time>
      </trkpt>
      <trkpt lat="45.85158" lon="4.79265">
        <ele>476.60000610352</ele>
        <time>2011-09-09T20:09:52Z</time>
      </trkpt>
      <trkpt lat="45.85163" lon="4.79265">
        <ele>476.79998779297</ele>
        <time>2011-09-09T20:09:55Z</time>
      </trkpt>
      <trkpt lat="45.85174" lon="4.79273">
        <ele>477.20001220703</ele>
        <time>2011-09-09T20:10:00Z</time>
      </trkpt>
      <trkpt lat="45.85182" lon="4.79277">
        <ele>477.39999389648</ele>
        <time>2011-09-09T20:10:04Z</time>
      </trkpt>
      <trkpt lat="45.85184" lon="4.79279">
        <ele>477.39999389648</ele>
        <time>2011-09-09T20:10:05Z</time>
      </trkpt>
      <trkpt lat="45.85194" lon="4.79291">
        <ele>478.20001220703</ele>
        <time>2011-09-09T20:10:09Z</time>
      </trkpt>
      <trkpt lat="45.85195" lon="4.79294">
        <ele>478.39999389648</ele>
        <time>2011-09-09T20:10:10Z</time>
      </trkpt>
      <trkpt lat="45.85202" lon="4.79308">
        <ele>479</ele>
        <time>2011-09-09T20:10:14Z</time>
      </trkpt>
      <trkpt lat="45.85205" lon="4.7931">
        <ele>479</ele>
        <time>2011-09-09T20:10:15Z</time>
      </trkpt>
      <trkpt lat="45.85215" lon="4.79319">
        <ele>479.20001220703</ele>
        <time>2011-09-09T20:10:19Z</time>
      </trkpt>
      <trkpt lat="45.85226" lon="4.7933">
        <ele>479.60000610352</ele>
        <time>2011-09-09T20:10:24Z</time>
      </trkpt>
      <trkpt lat="45.85232" lon="4.79338">
        <ele>479.60000610352</ele>
        <time>2011-09-09T20:10:28Z</time>
      </trkpt>
      <trkpt lat="45.85243" lon="4.79339">
        <ele>479.79998779297</ele>
        <time>2011-09-09T20:10:33Z</time>
      </trkpt>
      <trkpt lat="45.85247" lon="4.79339">
        <ele>479.79998779297</ele>
        <time>2011-09-09T20:10:34Z</time>
      </trkpt>
      <trkpt lat="45.85253" lon="4.7934">
        <ele>479.79998779297</ele>
        <time>2011-09-09T20:10:37Z</time>
      </trkpt>
      <trkpt lat="45.85263" lon="4.79339">
        <ele>479.79998779297</ele>
        <time>2011-09-09T20:10:41Z</time>
      </trkpt>
      <trkpt lat="45.85278" lon="4.79334">
        <ele>479.79998779297</ele>
        <time>2011-09-09T20:10:45Z</time>
      </trkpt>
      <trkpt lat="45.85284" lon="4.79332">
        <ele>479.79998779297</ele>
        <time>2011-09-09T20:10:47Z</time>
      </trkpt>
      <trkpt lat="45.85297" lon="4.79333">
        <ele>479.20001220703</ele>
        <time>2011-09-09T20:10:51Z</time>
      </trkpt>
      <trkpt lat="45.85307" lon="4.7934">
        <ele>478.60000610352</ele>
        <time>2011-09-09T20:10:56Z</time>
      </trkpt>
      <trkpt lat="45.85312" lon="4.79344">
        <ele>478.39999389648</ele>
        <time>2011-09-09T20:10:58Z</time>
      </trkpt>
      <trkpt lat="45.85333" lon="4.7935">
        <ele>476.60000610352</ele>
        <time>2011-09-09T20:11:04Z</time>
      </trkpt>
      <trkpt lat="45.85352" lon="4.79357">
        <ele>474.20001220703</ele>
        <time>2011-09-09T20:11:10Z</time>
      </trkpt>
      <trkpt lat="45.85365" lon="4.79364">
        <ele>471.39999389648</ele>
        <time>2011-09-09T20:11:15Z</time>
      </trkpt>
      <trkpt lat="45.85374" lon="4.7937">
        <ele>469.39999389648</ele>
        <time>2011-09-09T20:11:19Z</time>
      </trkpt>
      <trkpt lat="45.85381" lon="4.79372">
        <ele>467.79998779297</ele>
        <time>2011-09-09T20:11:22Z</time>
      </trkpt>
      <trkpt lat="45.85386" lon="4.79359">
        <ele>465.39999389648</ele>
        <time>2011-09-09T20:11:26Z</time>
      </trkpt>
      <trkpt lat="45.85388" lon="4.7934">
        <ele>463</ele>
        <time>2011-09-09T20:11:33Z</time>
      </trkpt>
      <trkpt lat="45.85391" lon="4.79323">
        <ele>461.39999389648</ele>
        <time>2011-09-09T20:11:39Z</time>
      </trkpt>
      <trkpt lat="45.85393" lon="4.79308">
        <ele>459.79998779297</ele>
        <time>2011-09-09T20:11:44Z</time>
      </trkpt>
      <trkpt lat="45.85394" lon="4.79303">
        <ele>459.39999389648</ele>
        <time>2011-09-09T20:11:46Z</time>
      </trkpt>
      <trkpt lat="45.85402" lon="4.79297">
        <ele>458.39999389648</ele>
        <time>2011-09-09T20:11:52Z</time>
      </trkpt>
      <trkpt lat="45.85403" lon="4.79297">
        <ele>458.39999389648</ele>
        <time>2011-09-09T20:11:54Z</time>
      </trkpt>
      <trkpt lat="45.85414" lon="4.79299">
        <ele>458</ele>
        <time>2011-09-09T20:12:01Z</time>
      </trkpt>
      <trkpt lat="45.85415" lon="4.793">
        <ele>458</ele>
        <time>2011-09-09T20:12:02Z</time>
      </trkpt>
      <trkpt lat="45.85427" lon="4.79303">
        <ele>457.79998779297</ele>
        <time>2011-09-09T20:12:09Z</time>
      </trkpt>
      <trkpt lat="45.85434" lon="4.79305">
        <ele>457.60000610352</ele>
        <time>2011-09-09T20:12:14Z</time>
      </trkpt>
      <trkpt lat="45.85448" lon="4.79308">
        <ele>457.60000610352</ele>
        <time>2011-09-09T20:12:22Z</time>
      </trkpt>
      <trkpt lat="45.85461" lon="4.79312">
        <ele>458.39999389648</ele>
        <time>2011-09-09T20:12:32Z</time>
      </trkpt>
      <trkpt lat="45.85464" lon="4.79311">
        <ele>458.60000610352</ele>
        <time>2011-09-09T20:12:34Z</time>
      </trkpt>
      <trkpt lat="45.85468" lon="4.79305">
        <ele>459</ele>
        <time>2011-09-09T20:12:38Z</time>
      </trkpt>
      <trkpt lat="45.85468" lon="4.79302">
        <ele>459</ele>
        <time>2011-09-09T20:12:40Z</time>
      </trkpt>
      <trkpt lat="45.85469" lon="4.79284">
        <ele>460</ele>
        <time>2011-09-09T20:12:46Z</time>
      </trkpt>
      <trkpt lat="45.85469" lon="4.79278">
        <ele>460.39999389648</ele>
        <time>2011-09-09T20:12:49Z</time>
      </trkpt>
      <trkpt lat="45.85477" lon="4.79272">
        <ele>460.79998779297</ele>
        <time>2011-09-09T20:12:52Z</time>
      </trkpt>
      <trkpt lat="45.8549" lon="4.79271">
        <ele>461.20001220703</ele>
        <time>2011-09-09T20:13:00Z</time>
      </trkpt>
      <trkpt lat="45.85502" lon="4.79269">
        <ele>461.39999389648</ele>
        <time>2011-09-09T20:13:07Z</time>
      </trkpt>
      <trkpt lat="45.85522" lon="4.79265">
        <ele>461.60000610352</ele>
        <time>2011-09-09T20:13:21Z</time>
      </trkpt>
      <trkpt lat="45.85533" lon="4.79263">
        <ele>461.60000610352</ele>
        <time>2011-09-09T20:13:28Z</time>
      </trkpt>
      <trkpt lat="45.8555" lon="4.79262">
        <ele>463</ele>
        <time>2011-09-09T20:13:39Z</time>
      </trkpt>
      <trkpt lat="45.85554" lon="4.79263">
        <ele>463.20001220703</ele>
        <time>2011-09-09T20:13:41Z</time>
      </trkpt>
      <trkpt lat="45.85561" lon="4.79271">
        <ele>463.79998779297</ele>
        <time>2011-09-09T20:13:49Z</time>
      </trkpt>
      <trkpt lat="45.85564" lon="4.79274">
        <ele>464.20001220703</ele>
        <time>2011-09-09T20:13:51Z</time>
      </trkpt>
      <trkpt lat="45.8557" lon="4.79282">
        <ele>464.79998779297</ele>
        <time>2011-09-09T20:13:56Z</time>
      </trkpt>
      <trkpt lat="45.85577" lon="4.79293">
        <ele>465.39999389648</ele>
        <time>2011-09-09T20:14:04Z</time>
      </trkpt>
      <trkpt lat="45.85586" lon="4.79306">
        <ele>465.60000610352</ele>
        <time>2011-09-09T20:14:13Z</time>
      </trkpt>
      <trkpt lat="45.85593" lon="4.79317">
        <ele>465.79998779297</ele>
        <time>2011-09-09T20:14:21Z</time>
      </trkpt>
      <trkpt lat="45.85601" lon="4.79329">
        <ele>466.60000610352</ele>
        <time>2011-09-09T20:14:28Z</time>
      </trkpt>
      <trkpt lat="45.85609" lon="4.79341">
        <ele>467</ele>
        <time>2011-09-09T20:14:33Z</time>
      </trkpt>
      <trkpt lat="45.85613" lon="4.79348">
        <ele>467.20001220703</ele>
        <time>2011-09-09T20:14:36Z</time>
      </trkpt>
      <trkpt lat="45.85613" lon="4.79341">
        <ele>467.39999389648</ele>
        <time>2011-09-09T20:14:40Z</time>
      </trkpt>
      <trkpt lat="45.85613" lon="4.79339">
        <ele>467.39999389648</ele>
        <time>2011-09-09T20:14:41Z</time>
      </trkpt>
      <trkpt lat="45.85608" lon="4.79315">
        <ele>468.20001220703</ele>
        <time>2011-09-09T20:14:50Z</time>
      </trkpt>
      <trkpt lat="45.85604" lon="4.79299">
        <ele>469.39999389648</ele>
        <time>2011-09-09T20:14:58Z</time>
      </trkpt>
      <trkpt lat="45.85601" lon="4.79282">
        <ele>470.79998779297</ele>
        <time>2011-09-09T20:15:05Z</time>
      </trkpt>
      <trkpt lat="45.85598" lon="4.79266">
        <ele>471.60000610352</ele>
        <time>2011-09-09T20:15:10Z</time>
      </trkpt>
      <trkpt lat="45.85597" lon="4.7925">
        <ele>472.60000610352</ele>
        <time>2011-09-09T20:15:15Z</time>
      </trkpt>
      <trkpt lat="45.85595" lon="4.79232">
        <ele>473.39999389648</ele>
        <time>2011-09-09T20:15:21Z</time>
      </trkpt>
      <trkpt lat="45.85596" lon="4.79215">
        <ele>474.60000610352</ele>
        <time>2011-09-09T20:15:27Z</time>
      </trkpt>
      <trkpt lat="45.85595" lon="4.79195">
        <ele>475.39999389648</ele>
        <time>2011-09-09T20:15:34Z</time>
      </trkpt>
      <trkpt lat="45.85594" lon="4.7918">
        <ele>475.60000610352</ele>
        <time>2011-09-09T20:15:39Z</time>
      </trkpt>
      <trkpt lat="45.85593" lon="4.79167">
        <ele>476</ele>
        <time>2011-09-09T20:15:44Z</time>
      </trkpt>
      <trkpt lat="45.85593" lon="4.79153">
        <ele>477</ele>
        <time>2011-09-09T20:15:50Z</time>
      </trkpt>
      <trkpt lat="45.85592" lon="4.79143">
        <ele>477.39999389648</ele>
        <time>2011-09-09T20:15:55Z</time>
      </trkpt>
      <trkpt lat="45.85592" lon="4.79127">
        <ele>478.60000610352</ele>
        <time>2011-09-09T20:16:02Z</time>
      </trkpt>
      <trkpt lat="45.85591" lon="4.79117">
        <ele>479.20001220703</ele>
        <time>2011-09-09T20:16:07Z</time>
      </trkpt>
      <trkpt lat="45.85587" lon="4.79104">
        <ele>479.79998779297</ele>
        <time>2011-09-09T20:16:13Z</time>
      </trkpt>
      <trkpt lat="45.85585" lon="4.79098">
        <ele>480.20001220703</ele>
        <time>2011-09-09T20:16:16Z</time>
      </trkpt>
      <trkpt lat="45.85579" lon="4.79088">
        <ele>481.20001220703</ele>
        <time>2011-09-09T20:16:22Z</time>
      </trkpt>
      <trkpt lat="45.85572" lon="4.79081">
        <ele>482.20001220703</ele>
        <time>2011-09-09T20:16:28Z</time>
      </trkpt>
      <trkpt lat="45.85566" lon="4.79077">
        <ele>483</ele>
        <time>2011-09-09T20:16:34Z</time>
      </trkpt>
      <trkpt lat="45.8556" lon="4.79073">
        <ele>483.39999389648</ele>
        <time>2011-09-09T20:16:38Z</time>
      </trkpt>
      <trkpt lat="45.8556" lon="4.79073">
        <ele>483.60000610352</ele>
        <time>2011-09-09T20:16:39Z</time>
      </trkpt>
      <trkpt lat="45.85559" lon="4.79072">
        <ele>483.60000610352</ele>
        <time>2011-09-09T20:16:40Z</time>
      </trkpt>
      <trkpt lat="45.85554" lon="4.79071">
        <ele>484.60000610352</ele>
        <time>2011-09-09T20:16:44Z</time>
      </trkpt>
      <trkpt lat="45.85548" lon="4.79066">
        <ele>485.20001220703</ele>
        <time>2011-09-09T20:16:48Z</time>
      </trkpt>
      <trkpt lat="45.85542" lon="4.79061">
        <ele>485.79998779297</ele>
        <time>2011-09-09T20:16:51Z</time>
      </trkpt>
      <trkpt lat="45.85532" lon="4.79052">
        <ele>487</ele>
        <time>2011-09-09T20:16:57Z</time>
      </trkpt>
      <trkpt lat="45.8553" lon="4.79051">
        <ele>487.20001220703</ele>
        <time>2011-09-09T20:16:58Z</time>
      </trkpt>
      <trkpt lat="45.85521" lon="4.79044">
        <ele>487.79998779297</ele>
        <time>2011-09-09T20:17:03Z</time>
      </trkpt>
      <trkpt lat="45.8551" lon="4.79035">
        <ele>489.20001220703</ele>
        <time>2011-09-09T20:17:10Z</time>
      </trkpt>
      <trkpt lat="45.85505" lon="4.79032">
        <ele>489.79998779297</ele>
        <time>2011-09-09T20:17:15Z</time>
      </trkpt>
      <trkpt lat="45.85507" lon="4.79025">
        <ele>490.20001220703</ele>
        <time>2011-09-09T20:17:20Z</time>
      </trkpt>
      <trkpt lat="45.85515" lon="4.79027">
        <ele>490.39999389648</ele>
        <time>2011-09-09T20:17:25Z</time>
      </trkpt>
      <trkpt lat="45.85517" lon="4.79028">
        <ele>490.39999389648</ele>
        <time>2011-09-09T20:17:26Z</time>
      </trkpt>
      <trkpt lat="45.85532" lon="4.79037">
        <ele>490.60000610352</ele>
        <time>2011-09-09T20:17:34Z</time>
      </trkpt>
      <trkpt lat="45.85546" lon="4.79048">
        <ele>490.60000610352</ele>
        <time>2011-09-09T20:17:41Z</time>
      </trkpt>
      <trkpt lat="45.85548" lon="4.7905">
        <ele>490.60000610352</ele>
        <time>2011-09-09T20:17:42Z</time>
      </trkpt>
      <trkpt lat="45.8556" lon="4.79055">
        <ele>490.60000610352</ele>
        <time>2011-09-09T20:17:46Z</time>
      </trkpt>
      <trkpt lat="45.85565" lon="4.79058">
        <ele>490.60000610352</ele>
        <time>2011-09-09T20:17:51Z</time>
      </trkpt>
      <trkpt lat="45.85575" lon="4.79057">
        <ele>490.60000610352</ele>
        <time>2011-09-09T20:17:55Z</time>
      </trkpt>
      <trkpt lat="45.85576" lon="4.79058">
        <ele>490.60000610352</ele>
        <time>2011-09-09T20:17:56Z</time>
      </trkpt>
      <trkpt lat="45.85588" lon="4.79058">
        <ele>490.60000610352</ele>
        <time>2011-09-09T20:18:01Z</time>
      </trkpt>
      <trkpt lat="45.856" lon="4.79059">
        <ele>490.60000610352</ele>
        <time>2011-09-09T20:18:07Z</time>
      </trkpt>
      <trkpt lat="45.85612" lon="4.79061">
        <ele>490.60000610352</ele>
        <time>2011-09-09T20:18:13Z</time>
      </trkpt>
      <trkpt lat="45.85613" lon="4.79061">
        <ele>490.60000610352</ele>
        <time>2011-09-09T20:18:13Z</time>
      </trkpt>
      <trkpt lat="45.85615" lon="4.79061">
        <ele>490.60000610352</ele>
        <time>2011-09-09T20:18:15Z</time>
      </trkpt>
      <trkpt lat="45.85618" lon="4.79063">
        <ele>490.60000610352</ele>
        <time>2011-09-09T20:18:16Z</time>
      </trkpt>
      <trkpt lat="45.8563" lon="4.79067">
        <ele>490.60000610352</ele>
        <time>2011-09-09T20:18:23Z</time>
      </trkpt>
      <trkpt lat="45.85638" lon="4.79071">
        <ele>490.60000610352</ele>
        <time>2011-09-09T20:18:28Z</time>
      </trkpt>
      <trkpt lat="45.85649" lon="4.79077">
        <ele>491</ele>
        <time>2011-09-09T20:18:34Z</time>
      </trkpt>
      <trkpt lat="45.85654" lon="4.79084">
        <ele>491.39999389648</ele>
        <time>2011-09-09T20:18:37Z</time>
      </trkpt>
      <trkpt lat="45.85656" lon="4.79086">
        <ele>491.60000610352</ele>
        <time>2011-09-09T20:18:38Z</time>
      </trkpt>
      <trkpt lat="45.85659" lon="4.79087">
        <ele>491.79998779297</ele>
        <time>2011-09-09T20:18:40Z</time>
      </trkpt>
      <trkpt lat="45.85663" lon="4.79092">
        <ele>492.20001220703</ele>
        <time>2011-09-09T20:18:46Z</time>
      </trkpt>
      <trkpt lat="45.85666" lon="4.79094">
        <ele>492.39999389648</ele>
        <time>2011-09-09T20:18:49Z</time>
      </trkpt>
      <trkpt lat="45.85673" lon="4.79102">
        <ele>492.60000610352</ele>
        <time>2011-09-09T20:18:56Z</time>
      </trkpt>
      <trkpt lat="45.85674" lon="4.79103">
        <ele>492.60000610352</ele>
        <time>2011-09-09T20:18:57Z</time>
      </trkpt>
      <trkpt lat="45.85681" lon="4.79109">
        <ele>492.60000610352</ele>
        <time>2011-09-09T20:19:03Z</time>
      </trkpt>
      <trkpt lat="45.85682" lon="4.79109">
        <ele>492.60000610352</ele>
        <time>2011-09-09T20:19:04Z</time>
      </trkpt>
      <trkpt lat="45.85692" lon="4.79115">
        <ele>492.60000610352</ele>
        <time>2011-09-09T20:19:11Z</time>
      </trkpt>
      <trkpt lat="45.85702" lon="4.7912">
        <ele>493.20001220703</ele>
        <time>2011-09-09T20:19:18Z</time>
      </trkpt>
      <trkpt lat="45.85712" lon="4.79125">
        <ele>493.79998779297</ele>
        <time>2011-09-09T20:19:24Z</time>
      </trkpt>
      <trkpt lat="45.85723" lon="4.79128">
        <ele>494.39999389648</ele>
        <time>2011-09-09T20:19:31Z</time>
      </trkpt>
      <trkpt lat="45.85733" lon="4.79132">
        <ele>494.39999389648</ele>
        <time>2011-09-09T20:19:37Z</time>
      </trkpt>
      <trkpt lat="45.85741" lon="4.79134">
        <ele>495.39999389648</ele>
        <time>2011-09-09T20:19:43Z</time>
      </trkpt>
      <trkpt lat="45.85754" lon="4.79138">
        <ele>496</ele>
        <time>2011-09-09T20:19:50Z</time>
      </trkpt>
      <trkpt lat="45.85766" lon="4.79146">
        <ele>497.39999389648</ele>
        <time>2011-09-09T20:19:57Z</time>
      </trkpt>
      <trkpt lat="45.85768" lon="4.79147">
        <ele>497.60000610352</ele>
        <time>2011-09-09T20:19:58Z</time>
      </trkpt>
      <trkpt lat="45.8578" lon="4.79151">
        <ele>498.60000610352</ele>
        <time>2011-09-09T20:20:04Z</time>
      </trkpt>
      <trkpt lat="45.85793" lon="4.79155">
        <ele>499.60000610352</ele>
        <time>2011-09-09T20:20:10Z</time>
      </trkpt>
      <trkpt lat="45.85801" lon="4.79159">
        <ele>500.20001220703</ele>
        <time>2011-09-09T20:20:14Z</time>
      </trkpt>
      <trkpt lat="45.85811" lon="4.79164">
        <ele>501.20001220703</ele>
        <time>2011-09-09T20:20:20Z</time>
      </trkpt>
      <trkpt lat="45.85819" lon="4.79169">
        <ele>502</ele>
        <time>2011-09-09T20:20:26Z</time>
      </trkpt>
      <trkpt lat="45.85828" lon="4.79174">
        <ele>502.39999389648</ele>
        <time>2011-09-09T20:20:32Z</time>
      </trkpt>
      <trkpt lat="45.8584" lon="4.79181">
        <ele>502.79998779297</ele>
        <time>2011-09-09T20:20:42Z</time>
      </trkpt>
      <trkpt lat="45.85848" lon="4.79185">
        <ele>502.79998779297</ele>
        <time>2011-09-09T20:20:48Z</time>
      </trkpt>
      <trkpt lat="45.85854" lon="4.79187">
        <ele>503.39999389648</ele>
        <time>2011-09-09T20:20:53Z</time>
      </trkpt>
      <trkpt lat="45.85859" lon="4.79178">
        <ele>504.20001220703</ele>
        <time>2011-09-09T20:20:58Z</time>
      </trkpt>
      <trkpt lat="45.85859" lon="4.79176">
        <ele>504.20001220703</ele>
        <time>2011-09-09T20:20:59Z</time>
      </trkpt>
      <trkpt lat="45.85859" lon="4.79174">
        <ele>504.20001220703</ele>
        <time>2011-09-09T20:21:00Z</time>
      </trkpt>
      <trkpt lat="45.8586" lon="4.79166">
        <ele>504.60000610352</ele>
        <time>2011-09-09T20:21:04Z</time>
      </trkpt>
      <trkpt lat="45.8586" lon="4.79164">
        <ele>504.79998779297</ele>
        <time>2011-09-09T20:21:05Z</time>
      </trkpt>
      <trkpt lat="45.85856" lon="4.79147">
        <ele>506</ele>
        <time>2011-09-09T20:21:13Z</time>
      </trkpt>
      <trkpt lat="45.85852" lon="4.79126">
        <ele>508.39999389648</ele>
        <time>2011-09-09T20:21:23Z</time>
      </trkpt>
      <trkpt lat="45.85846" lon="4.79104">
        <ele>511</ele>
        <time>2011-09-09T20:21:33Z</time>
      </trkpt>
      <trkpt lat="45.85842" lon="4.79094">
        <ele>512.40002441406</ele>
        <time>2011-09-09T20:21:39Z</time>
      </trkpt>
      <trkpt lat="45.85836" lon="4.79079">
        <ele>514.40002441406</ele>
        <time>2011-09-09T20:21:46Z</time>
      </trkpt>
      <trkpt lat="45.85832" lon="4.79065">
        <ele>516.20001220703</ele>
        <time>2011-09-09T20:21:54Z</time>
      </trkpt>
      <trkpt lat="45.85829" lon="4.79056">
        <ele>517</ele>
        <time>2011-09-09T20:21:59Z</time>
      </trkpt>
      <trkpt lat="45.85823" lon="4.79038">
        <ele>519</ele>
        <time>2011-09-09T20:22:08Z</time>
      </trkpt>
      <trkpt lat="45.85821" lon="4.79024">
        <ele>519.79998779297</ele>
        <time>2011-09-09T20:22:15Z</time>
      </trkpt>
      <trkpt lat="45.85817" lon="4.79011">
        <ele>521</ele>
        <time>2011-09-09T20:22:21Z</time>
      </trkpt>
      <trkpt lat="45.85812" lon="4.78993">
        <ele>522.59997558594</ele>
        <time>2011-09-09T20:22:30Z</time>
      </trkpt>
      <trkpt lat="45.85808" lon="4.78977">
        <ele>523.79998779297</ele>
        <time>2011-09-09T20:22:37Z</time>
      </trkpt>
      <trkpt lat="45.85802" lon="4.78959">
        <ele>525.40002441406</ele>
        <time>2011-09-09T20:22:46Z</time>
      </trkpt>
      <trkpt lat="45.85799" lon="4.78943">
        <ele>527.20001220703</ele>
        <time>2011-09-09T20:22:54Z</time>
      </trkpt>
      <trkpt lat="45.85794" lon="4.78924">
        <ele>528</ele>
        <time>2011-09-09T20:23:03Z</time>
      </trkpt>
      <trkpt lat="45.85789" lon="4.78909">
        <ele>529</ele>
        <time>2011-09-09T20:23:10Z</time>
      </trkpt>
      <trkpt lat="45.85788" lon="4.78903">
        <ele>529.40002441406</ele>
        <time>2011-09-09T20:23:13Z</time>
      </trkpt>
      <trkpt lat="45.85791" lon="4.78887">
        <ele>530</ele>
        <time>2011-09-09T20:23:20Z</time>
      </trkpt>
      <trkpt lat="45.85794" lon="4.78882">
        <ele>530</ele>
        <time>2011-09-09T20:23:23Z</time>
      </trkpt>
      <trkpt lat="45.85798" lon="4.78867">
        <ele>530.20001220703</ele>
        <time>2011-09-09T20:23:31Z</time>
      </trkpt>
      <trkpt lat="45.85801" lon="4.78855">
        <ele>531.40002441406</ele>
        <time>2011-09-09T20:23:38Z</time>
      </trkpt>
      <trkpt lat="45.85804" lon="4.78845">
        <ele>531.79998779297</ele>
        <time>2011-09-09T20:23:44Z</time>
      </trkpt>
      <trkpt lat="45.85809" lon="4.7883">
        <ele>532.20001220703</ele>
        <time>2011-09-09T20:23:52Z</time>
      </trkpt>
      <trkpt lat="45.85816" lon="4.7882">
        <ele>532.40002441406</ele>
        <time>2011-09-09T20:23:59Z</time>
      </trkpt>
      <trkpt lat="45.85827" lon="4.78814">
        <ele>532.40002441406</ele>
        <time>2011-09-09T20:24:06Z</time>
      </trkpt>
      <trkpt lat="45.85834" lon="4.78817">
        <ele>532.40002441406</ele>
        <time>2011-09-09T20:24:12Z</time>
      </trkpt>
      <trkpt lat="45.85837" lon="4.78824">
        <ele>533.40002441406</ele>
        <time>2011-09-09T20:24:18Z</time>
      </trkpt>
      <trkpt lat="45.85841" lon="4.78831">
        <ele>533.79998779297</ele>
        <time>2011-09-09T20:24:23Z</time>
      </trkpt>
      <trkpt lat="45.85843" lon="4.78831">
        <ele>533.79998779297</ele>
        <time>2011-09-09T20:24:24Z</time>
      </trkpt>
      <trkpt lat="45.85844" lon="4.7883">
        <ele>534</ele>
        <time>2011-09-09T20:24:26Z</time>
      </trkpt>
      <trkpt lat="45.85853" lon="4.78827">
        <ele>534.59997558594</ele>
        <time>2011-09-09T20:24:32Z</time>
      </trkpt>
      <trkpt lat="45.85857" lon="4.78825">
        <ele>535</ele>
        <time>2011-09-09T20:24:34Z</time>
      </trkpt>
      <trkpt lat="45.8587" lon="4.7882">
        <ele>535.79998779297</ele>
        <time>2011-09-09T20:24:40Z</time>
      </trkpt>
      <trkpt lat="45.85884" lon="4.7882">
        <ele>536</ele>
        <time>2011-09-09T20:24:45Z</time>
      </trkpt>
      <trkpt lat="45.859" lon="4.7882">
        <ele>536.40002441406</ele>
        <time>2011-09-09T20:24:51Z</time>
      </trkpt>
      <trkpt lat="45.85915" lon="4.78821">
        <ele>536.40002441406</ele>
        <time>2011-09-09T20:24:56Z</time>
      </trkpt>
      <trkpt lat="45.85917" lon="4.78823">
        <ele>536.40002441406</ele>
        <time>2011-09-09T20:24:57Z</time>
      </trkpt>
      <trkpt lat="45.85926" lon="4.78819">
        <ele>536.40002441406</ele>
        <time>2011-09-09T20:25:00Z</time>
      </trkpt>
      <trkpt lat="45.85931" lon="4.78819">
        <ele>536.59997558594</ele>
        <time>2011-09-09T20:25:02Z</time>
      </trkpt>
      <trkpt lat="45.8595" lon="4.78823">
        <ele>536.59997558594</ele>
        <time>2011-09-09T20:25:08Z</time>
      </trkpt>
      <trkpt lat="45.85963" lon="4.78828">
        <ele>536.59997558594</ele>
        <time>2011-09-09T20:25:13Z</time>
      </trkpt>
      <trkpt lat="45.85967" lon="4.78829">
        <ele>536.59997558594</ele>
        <time>2011-09-09T20:25:15Z</time>
      </trkpt>
      <trkpt lat="45.85978" lon="4.78834">
        <ele>536.59997558594</ele>
        <time>2011-09-09T20:25:20Z</time>
      </trkpt>
      <trkpt lat="45.85991" lon="4.78842">
        <ele>536.59997558594</ele>
        <time>2011-09-09T20:25:25Z</time>
      </trkpt>
      <trkpt lat="45.86005" lon="4.78848">
        <ele>536.59997558594</ele>
        <time>2011-09-09T20:25:30Z</time>
      </trkpt>
      <trkpt lat="45.86017" lon="4.78855">
        <ele>536.59997558594</ele>
        <time>2011-09-09T20:25:35Z</time>
      </trkpt>
      <trkpt lat="45.86025" lon="4.78865">
        <ele>536.59997558594</ele>
        <time>2011-09-09T20:25:39Z</time>
      </trkpt>
      <trkpt lat="45.8604" lon="4.78876">
        <ele>536.20001220703</ele>
        <time>2011-09-09T20:25:45Z</time>
      </trkpt>
      <trkpt lat="45.86041" lon="4.78876">
        <ele>536</ele>
        <time>2011-09-09T20:25:46Z</time>
      </trkpt>
      <trkpt lat="45.86058" lon="4.78884">
        <ele>535.40002441406</ele>
        <time>2011-09-09T20:25:51Z</time>
      </trkpt>
      <trkpt lat="45.8606" lon="4.78886">
        <ele>535.40002441406</ele>
        <time>2011-09-09T20:25:52Z</time>
      </trkpt>
      <trkpt lat="45.86071" lon="4.78893">
        <ele>535</ele>
        <time>2011-09-09T20:25:56Z</time>
      </trkpt>
      <trkpt lat="45.86086" lon="4.789">
        <ele>534.20001220703</ele>
        <time>2011-09-09T20:26:02Z</time>
      </trkpt>
      <trkpt lat="45.86096" lon="4.78909">
        <ele>533.40002441406</ele>
        <time>2011-09-09T20:26:07Z</time>
      </trkpt>
      <trkpt lat="45.86105" lon="4.78919">
        <ele>533.20001220703</ele>
        <time>2011-09-09T20:26:11Z</time>
      </trkpt>
      <trkpt lat="45.86106" lon="4.78922">
        <ele>532.79998779297</ele>
        <time>2011-09-09T20:26:12Z</time>
      </trkpt>
      <trkpt lat="45.86107" lon="4.78923">
        <ele>532.59997558594</ele>
        <time>2011-09-09T20:26:13Z</time>
      </trkpt>
      <trkpt lat="45.86123" lon="4.7894">
        <ele>531.40002441406</ele>
        <time>2011-09-09T20:26:19Z</time>
      </trkpt>
      <trkpt lat="45.86125" lon="4.78942">
        <ele>531.40002441406</ele>
        <time>2011-09-09T20:26:20Z</time>
      </trkpt>
      <trkpt lat="45.86137" lon="4.78961">
        <ele>530.79998779297</ele>
        <time>2011-09-09T20:26:27Z</time>
      </trkpt>
      <trkpt lat="45.8615" lon="4.78976">
        <ele>530.20001220703</ele>
        <time>2011-09-09T20:26:33Z</time>
      </trkpt>
      <trkpt lat="45.8616" lon="4.78988">
        <ele>529.40002441406</ele>
        <time>2011-09-09T20:26:38Z</time>
      </trkpt>
      <trkpt lat="45.86168" lon="4.79003">
        <ele>528.79998779297</ele>
        <time>2011-09-09T20:26:43Z</time>
      </trkpt>
      <trkpt lat="45.86175" lon="4.79018">
        <ele>528.59997558594</ele>
        <time>2011-09-09T20:26:48Z</time>
      </trkpt>
      <trkpt lat="45.86176" lon="4.79022">
        <ele>528.59997558594</ele>
        <time>2011-09-09T20:26:49Z</time>
      </trkpt>
      <trkpt lat="45.86189" lon="4.79039">
        <ele>528.40002441406</ele>
        <time>2011-09-09T20:26:55Z</time>
      </trkpt>
      <trkpt lat="45.86205" lon="4.79057">
        <ele>527.79998779297</ele>
        <time>2011-09-09T20:27:02Z</time>
      </trkpt>
      <trkpt lat="45.86215" lon="4.79064">
        <ele>527.20001220703</ele>
        <time>2011-09-09T20:27:06Z</time>
      </trkpt>
      <trkpt lat="45.86217" lon="4.79066">
        <ele>527.20001220703</ele>
        <time>2011-09-09T20:27:07Z</time>
      </trkpt>
      <trkpt lat="45.86227" lon="4.79076">
        <ele>526.59997558594</ele>
        <time>2011-09-09T20:27:13Z</time>
      </trkpt>
      <trkpt lat="45.8624" lon="4.7909">
        <ele>525.79998779297</ele>
        <time>2011-09-09T20:27:19Z</time>
      </trkpt>
      <trkpt lat="45.86249" lon="4.79102">
        <ele>525.20001220703</ele>
        <time>2011-09-09T20:27:23Z</time>
      </trkpt>
      <trkpt lat="45.86256" lon="4.79116">
        <ele>524.59997558594</ele>
        <time>2011-09-09T20:27:28Z</time>
      </trkpt>
      <trkpt lat="45.86268" lon="4.79131">
        <ele>523.59997558594</ele>
        <time>2011-09-09T20:27:33Z</time>
      </trkpt>
      <trkpt lat="45.86276" lon="4.79146">
        <ele>522.79998779297</ele>
        <time>2011-09-09T20:27:37Z</time>
      </trkpt>
      <trkpt lat="45.8629" lon="4.79162">
        <ele>521.40002441406</ele>
        <time>2011-09-09T20:27:43Z</time>
      </trkpt>
      <trkpt lat="45.86296" lon="4.79168">
        <ele>521</ele>
        <time>2011-09-09T20:27:46Z</time>
      </trkpt>
      <trkpt lat="45.86308" lon="4.79178">
        <ele>520.20001220703</ele>
        <time>2011-09-09T20:27:51Z</time>
      </trkpt>
      <trkpt lat="45.86318" lon="4.79189">
        <ele>519.20001220703</ele>
        <time>2011-09-09T20:27:56Z</time>
      </trkpt>
      <trkpt lat="45.86327" lon="4.79201">
        <ele>518.79998779297</ele>
        <time>2011-09-09T20:28:00Z</time>
      </trkpt>
      <trkpt lat="45.86333" lon="4.79209">
        <ele>518.40002441406</ele>
        <time>2011-09-09T20:28:03Z</time>
      </trkpt>
      <trkpt lat="45.86336" lon="4.79214">
        <ele>518.20001220703</ele>
        <time>2011-09-09T20:28:05Z</time>
      </trkpt>
      <trkpt lat="45.86351" lon="4.7923">
        <ele>517</ele>
        <time>2011-09-09T20:28:11Z</time>
      </trkpt>
      <trkpt lat="45.8636" lon="4.7924">
        <ele>515.59997558594</ele>
        <time>2011-09-09T20:28:16Z</time>
      </trkpt>
      <trkpt lat="45.8637" lon="4.79251">
        <ele>515</ele>
        <time>2011-09-09T20:28:20Z</time>
      </trkpt>
      <trkpt lat="45.8638" lon="4.79261">
        <ele>513.79998779297</ele>
        <time>2011-09-09T20:28:24Z</time>
      </trkpt>
      <trkpt lat="45.8639" lon="4.79273">
        <ele>512.59997558594</ele>
        <time>2011-09-09T20:28:29Z</time>
      </trkpt>
      <trkpt lat="45.864" lon="4.79281">
        <ele>511.20001220703</ele>
        <time>2011-09-09T20:28:34Z</time>
      </trkpt>
      <trkpt lat="45.8641" lon="4.79291">
        <ele>510.20001220703</ele>
        <time>2011-09-09T20:28:38Z</time>
      </trkpt>
      <trkpt lat="45.86415" lon="4.79293">
        <ele>509.60000610352</ele>
        <time>2011-09-09T20:28:40Z</time>
      </trkpt>
      <trkpt lat="45.86426" lon="4.7931">
        <ele>508.20001220703</ele>
        <time>2011-09-09T20:28:45Z</time>
      </trkpt>
      <trkpt lat="45.86432" lon="4.79315">
        <ele>507.60000610352</ele>
        <time>2011-09-09T20:28:47Z</time>
      </trkpt>
      <trkpt lat="45.86441" lon="4.79327">
        <ele>506.60000610352</ele>
        <time>2011-09-09T20:28:51Z</time>
      </trkpt>
      <trkpt lat="45.86451" lon="4.79341">
        <ele>505</ele>
        <time>2011-09-09T20:28:56Z</time>
      </trkpt>
      <trkpt lat="45.86465" lon="4.79359">
        <ele>503.79998779297</ele>
        <time>2011-09-09T20:29:02Z</time>
      </trkpt>
      <trkpt lat="45.86479" lon="4.79375">
        <ele>502.60000610352</ele>
        <time>2011-09-09T20:29:08Z</time>
      </trkpt>
      <trkpt lat="45.86495" lon="4.79389">
        <ele>501.60000610352</ele>
        <time>2011-09-09T20:29:14Z</time>
      </trkpt>
      <trkpt lat="45.8651" lon="4.79405">
        <ele>501.20001220703</ele>
        <time>2011-09-09T20:29:20Z</time>
      </trkpt>
      <trkpt lat="45.86521" lon="4.79419">
        <ele>500.20001220703</ele>
        <time>2011-09-09T20:29:25Z</time>
      </trkpt>
      <trkpt lat="45.86536" lon="4.79431">
        <ele>499.60000610352</ele>
        <time>2011-09-09T20:29:30Z</time>
      </trkpt>
      <trkpt lat="45.86547" lon="4.79441">
        <ele>498.79998779297</ele>
        <time>2011-09-09T20:29:34Z</time>
      </trkpt>
      <trkpt lat="45.8656" lon="4.79456">
        <ele>497.79998779297</ele>
        <time>2011-09-09T20:29:39Z</time>
      </trkpt>
      <trkpt lat="45.86568" lon="4.79468">
        <ele>497</ele>
        <time>2011-09-09T20:29:43Z</time>
      </trkpt>
      <trkpt lat="45.86578" lon="4.79483">
        <ele>495.79998779297</ele>
        <time>2011-09-09T20:29:48Z</time>
      </trkpt>
      <trkpt lat="45.86592" lon="4.79495">
        <ele>494.39999389648</ele>
        <time>2011-09-09T20:29:54Z</time>
      </trkpt>
      <trkpt lat="45.86602" lon="4.79507">
        <ele>493.60000610352</ele>
        <time>2011-09-09T20:29:59Z</time>
      </trkpt>
      <trkpt lat="45.86608" lon="4.79514">
        <ele>492.79998779297</ele>
        <time>2011-09-09T20:30:02Z</time>
      </trkpt>
      <trkpt lat="45.86622" lon="4.79531">
        <ele>491.39999389648</ele>
        <time>2011-09-09T20:30:08Z</time>
      </trkpt>
      <trkpt lat="45.86633" lon="4.79551">
        <ele>490</ele>
        <time>2011-09-09T20:30:14Z</time>
      </trkpt>
      <trkpt lat="45.86639" lon="4.79566">
        <ele>488.79998779297</ele>
        <time>2011-09-09T20:30:18Z</time>
      </trkpt>
      <trkpt lat="45.8665" lon="4.79587">
        <ele>487</ele>
        <time>2011-09-09T20:30:24Z</time>
      </trkpt>
      <trkpt lat="45.86658" lon="4.79606">
        <ele>485</ele>
        <time>2011-09-09T20:30:30Z</time>
      </trkpt>
      <trkpt lat="45.86667" lon="4.79621">
        <ele>483.60000610352</ele>
        <time>2011-09-09T20:30:34Z</time>
      </trkpt>
      <trkpt lat="45.86669" lon="4.79639">
        <ele>482.20001220703</ele>
        <time>2011-09-09T20:30:38Z</time>
      </trkpt>
      <trkpt lat="45.8667" lon="4.79643">
        <ele>482</ele>
        <time>2011-09-09T20:30:39Z</time>
      </trkpt>
      <trkpt lat="45.86677" lon="4.79653">
        <ele>481</ele>
        <time>2011-09-09T20:30:42Z</time>
      </trkpt>
      <trkpt lat="45.86685" lon="4.79678">
        <ele>479</ele>
        <time>2011-09-09T20:30:48Z</time>
      </trkpt>
      <trkpt lat="45.86688" lon="4.79695">
        <ele>477.20001220703</ele>
        <time>2011-09-09T20:30:53Z</time>
      </trkpt>
      <trkpt lat="45.86685" lon="4.79711">
        <ele>475.60000610352</ele>
        <time>2011-09-09T20:30:57Z</time>
      </trkpt>
      <trkpt lat="45.86679" lon="4.79733">
        <ele>473.60000610352</ele>
        <time>2011-09-09T20:31:03Z</time>
      </trkpt>
      <trkpt lat="45.8667" lon="4.79752">
        <ele>471.20001220703</ele>
        <time>2011-09-09T20:31:09Z</time>
      </trkpt>
      <trkpt lat="45.8666" lon="4.79768">
        <ele>468.79998779297</ele>
        <time>2011-09-09T20:31:16Z</time>
      </trkpt>
      <trkpt lat="45.86658" lon="4.79772">
        <ele>468.39999389648</ele>
        <time>2011-09-09T20:31:17Z</time>
      </trkpt>
      <trkpt lat="45.86656" lon="4.79776">
        <ele>467.79998779297</ele>
        <time>2011-09-09T20:31:20Z</time>
      </trkpt>
      <trkpt lat="45.86656" lon="4.79781">
        <ele>467</ele>
        <time>2011-09-09T20:31:22Z</time>
      </trkpt>
      <trkpt lat="45.86651" lon="4.79794">
        <ele>465.39999389648</ele>
        <time>2011-09-09T20:31:28Z</time>
      </trkpt>
      <trkpt lat="45.86648" lon="4.79802">
        <ele>464.20001220703</ele>
        <time>2011-09-09T20:31:32Z</time>
      </trkpt>
      <trkpt lat="45.86645" lon="4.79814">
        <ele>462.79998779297</ele>
        <time>2011-09-09T20:31:38Z</time>
      </trkpt>
      <trkpt lat="45.8664" lon="4.79827">
        <ele>462.20001220703</ele>
        <time>2011-09-09T20:31:43Z</time>
      </trkpt>
      <trkpt lat="45.86634" lon="4.79841">
        <ele>460.79998779297</ele>
        <time>2011-09-09T20:31:50Z</time>
      </trkpt>
      <trkpt lat="45.86633" lon="4.79844">
        <ele>460.79998779297</ele>
        <time>2011-09-09T20:31:51Z</time>
      </trkpt>
      <trkpt lat="45.86631" lon="4.79846">
        <ele>460.39999389648</ele>
        <time>2011-09-09T20:31:53Z</time>
      </trkpt>
      <trkpt lat="45.8663" lon="4.79848">
        <ele>460.20001220703</ele>
        <time>2011-09-09T20:31:55Z</time>
      </trkpt>
      <trkpt lat="45.86625" lon="4.79855">
        <ele>459.79998779297</ele>
        <time>2011-09-09T20:32:00Z</time>
      </trkpt>
      <trkpt lat="45.86616" lon="4.79867">
        <ele>459.60000610352</ele>
        <time>2011-09-09T20:32:06Z</time>
      </trkpt>
      <trkpt lat="45.86608" lon="4.79879">
        <ele>459.39999389648</ele>
        <time>2011-09-09T20:32:12Z</time>
      </trkpt>
      <trkpt lat="45.86599" lon="4.79889">
        <ele>459.39999389648</ele>
        <time>2011-09-09T20:32:19Z</time>
      </trkpt>
      <trkpt lat="45.86595" lon="4.79898">
        <ele>459.39999389648</ele>
        <time>2011-09-09T20:32:23Z</time>
      </trkpt>
      <trkpt lat="45.86594" lon="4.79905">
        <ele>459.39999389648</ele>
        <time>2011-09-09T20:32:25Z</time>
      </trkpt>
      <trkpt lat="45.86599" lon="4.79914">
        <ele>459.39999389648</ele>
        <time>2011-09-09T20:32:29Z</time>
      </trkpt>
      <trkpt lat="45.86612" lon="4.79923">
        <ele>459.20001220703</ele>
        <time>2011-09-09T20:32:35Z</time>
      </trkpt>
      <trkpt lat="45.86623" lon="4.79929">
        <ele>459.20001220703</ele>
        <time>2011-09-09T20:32:40Z</time>
      </trkpt>
      <trkpt lat="45.86641" lon="4.7994">
        <ele>459.20001220703</ele>
        <time>2011-09-09T20:32:47Z</time>
      </trkpt>
      <trkpt lat="45.86653" lon="4.79949">
        <ele>459.20001220703</ele>
        <time>2011-09-09T20:32:52Z</time>
      </trkpt>
      <trkpt lat="45.86668" lon="4.79966">
        <ele>458.60000610352</ele>
        <time>2011-09-09T20:32:59Z</time>
      </trkpt>
      <trkpt lat="45.86678" lon="4.79983">
        <ele>458</ele>
        <time>2011-09-09T20:33:05Z</time>
      </trkpt>
      <trkpt lat="45.86679" lon="4.79987">
        <ele>457.79998779297</ele>
        <time>2011-09-09T20:33:06Z</time>
      </trkpt>
      <trkpt lat="45.86688" lon="4.80005">
        <ele>457.60000610352</ele>
        <time>2011-09-09T20:33:11Z</time>
      </trkpt>
      <trkpt lat="45.86697" lon="4.8001">
        <ele>457.39999389648</ele>
        <time>2011-09-09T20:33:15Z</time>
      </trkpt>
      <trkpt lat="45.86713" lon="4.80026">
        <ele>456</ele>
        <time>2011-09-09T20:33:28Z</time>
      </trkpt>
      <trkpt lat="45.86716" lon="4.80031">
        <ele>455.79998779297</ele>
        <time>2011-09-09T20:33:31Z</time>
      </trkpt>
      <trkpt lat="45.86719" lon="4.80042">
        <ele>455.39999389648</ele>
        <time>2011-09-09T20:33:38Z</time>
      </trkpt>
      <trkpt lat="45.86721" lon="4.80048">
        <ele>455.39999389648</ele>
        <time>2011-09-09T20:33:41Z</time>
      </trkpt>
      <trkpt lat="45.86722" lon="4.80056">
        <ele>455.20001220703</ele>
        <time>2011-09-09T20:33:46Z</time>
      </trkpt>
      <trkpt lat="45.86722" lon="4.80058">
        <ele>455.20001220703</ele>
        <time>2011-09-09T20:33:47Z</time>
      </trkpt>
      <trkpt lat="45.86723" lon="4.80065">
        <ele>455.20001220703</ele>
        <time>2011-09-09T20:33:53Z</time>
      </trkpt>
      <trkpt lat="45.86723" lon="4.80068">
        <ele>455.20001220703</ele>
        <time>2011-09-09T20:33:55Z</time>
      </trkpt>
      <trkpt lat="45.86726" lon="4.80081">
        <ele>455.20001220703</ele>
        <time>2011-09-09T20:34:02Z</time>
      </trkpt>
      <trkpt lat="45.86728" lon="4.80087">
        <ele>455.60000610352</ele>
        <time>2011-09-09T20:34:05Z</time>
      </trkpt>
      <trkpt lat="45.8673" lon="4.80094">
        <ele>456.20001220703</ele>
        <time>2011-09-09T20:34:09Z</time>
      </trkpt>
      <trkpt lat="45.86732" lon="4.80102">
        <ele>456.60000610352</ele>
        <time>2011-09-09T20:34:14Z</time>
      </trkpt>
      <trkpt lat="45.86733" lon="4.80104">
        <ele>456.60000610352</ele>
        <time>2011-09-09T20:34:16Z</time>
      </trkpt>
      <trkpt lat="45.86735" lon="4.8011">
        <ele>456.79998779297</ele>
        <time>2011-09-09T20:34:19Z</time>
      </trkpt>
      <trkpt lat="45.86738" lon="4.80116">
        <ele>457</ele>
        <time>2011-09-09T20:34:23Z</time>
      </trkpt>
      <trkpt lat="45.86743" lon="4.80126">
        <ele>457.39999389648</ele>
        <time>2011-09-09T20:34:29Z</time>
      </trkpt>
      <trkpt lat="45.86744" lon="4.80128">
        <ele>457.60000610352</ele>
        <time>2011-09-09T20:34:30Z</time>
      </trkpt>
      <trkpt lat="45.86749" lon="4.80138">
        <ele>458.39999389648</ele>
        <time>2011-09-09T20:34:37Z</time>
      </trkpt>
      <trkpt lat="45.86755" lon="4.80155">
        <ele>458.79998779297</ele>
        <time>2011-09-09T20:34:45Z</time>
      </trkpt>
      <trkpt lat="45.8676" lon="4.80159">
        <ele>459</ele>
        <time>2011-09-09T20:34:48Z</time>
      </trkpt>
      <trkpt lat="45.86766" lon="4.80161">
        <ele>459.60000610352</ele>
        <time>2011-09-09T20:34:52Z</time>
      </trkpt>
      <trkpt lat="45.86777" lon="4.80162">
        <ele>460.20001220703</ele>
        <time>2011-09-09T20:34:57Z</time>
      </trkpt>
      <trkpt lat="45.86778" lon="4.80165">
        <ele>460.39999389648</ele>
        <time>2011-09-09T20:34:58Z</time>
      </trkpt>
      <trkpt lat="45.8678" lon="4.80169">
        <ele>460.39999389648</ele>
        <time>2011-09-09T20:34:59Z</time>
      </trkpt>
      <trkpt lat="45.86792" lon="4.80189">
        <ele>461.79998779297</ele>
        <time>2011-09-09T20:35:05Z</time>
      </trkpt>
      <trkpt lat="45.868" lon="4.80211">
        <ele>462.39999389648</ele>
        <time>2011-09-09T20:35:11Z</time>
      </trkpt>
      <trkpt lat="45.86813" lon="4.80233">
        <ele>463</ele>
        <time>2011-09-09T20:35:19Z</time>
      </trkpt>
      <trkpt lat="45.86819" lon="4.80248">
        <ele>463</ele>
        <time>2011-09-09T20:35:24Z</time>
      </trkpt>
      <trkpt lat="45.86826" lon="4.80257">
        <ele>463.20001220703</ele>
        <time>2011-09-09T20:35:28Z</time>
      </trkpt>
      <trkpt lat="45.86827" lon="4.80265">
        <ele>463.20001220703</ele>
        <time>2011-09-09T20:35:30Z</time>
      </trkpt>
      <trkpt lat="45.86824" lon="4.80271">
        <ele>462.60000610352</ele>
        <time>2011-09-09T20:35:34Z</time>
      </trkpt>
      <trkpt lat="45.86819" lon="4.80283">
        <ele>462</ele>
        <time>2011-09-09T20:35:39Z</time>
      </trkpt>
      <trkpt lat="45.86819" lon="4.80284">
        <ele>462</ele>
        <time>2011-09-09T20:35:40Z</time>
      </trkpt>
      <trkpt lat="45.86816" lon="4.80288">
        <ele>461.79998779297</ele>
        <time>2011-09-09T20:35:41Z</time>
      </trkpt>
      <trkpt lat="45.86808" lon="4.80291">
        <ele>461.20001220703</ele>
        <time>2011-09-09T20:35:44Z</time>
      </trkpt>
      <trkpt lat="45.86807" lon="4.80293">
        <ele>461</ele>
        <time>2011-09-09T20:35:45Z</time>
      </trkpt>
      <trkpt lat="45.86803" lon="4.80307">
        <ele>460.39999389648</ele>
        <time>2011-09-09T20:35:49Z</time>
      </trkpt>
      <trkpt lat="45.86802" lon="4.80309">
        <ele>460</ele>
        <time>2011-09-09T20:35:50Z</time>
      </trkpt>
      <trkpt lat="45.86799" lon="4.80316">
        <ele>459.20001220703</ele>
        <time>2011-09-09T20:35:53Z</time>
      </trkpt>
      <trkpt lat="45.86795" lon="4.80319">
        <ele>458.79998779297</ele>
        <time>2011-09-09T20:35:55Z</time>
      </trkpt>
      <trkpt lat="45.86792" lon="4.80325">
        <ele>457.79998779297</ele>
        <time>2011-09-09T20:35:58Z</time>
      </trkpt>
      <trkpt lat="45.86797" lon="4.80334">
        <ele>456.79998779297</ele>
        <time>2011-09-09T20:36:02Z</time>
      </trkpt>
      <trkpt lat="45.868" lon="4.80345">
        <ele>455.60000610352</ele>
        <time>2011-09-09T20:36:06Z</time>
      </trkpt>
      <trkpt lat="45.86803" lon="4.80356">
        <ele>454.79998779297</ele>
        <time>2011-09-09T20:36:10Z</time>
      </trkpt>
      <trkpt lat="45.86803" lon="4.80368">
        <ele>453.60000610352</ele>
        <time>2011-09-09T20:36:14Z</time>
      </trkpt>
      <trkpt lat="45.86802" lon="4.80371">
        <ele>453.39999389648</ele>
        <time>2011-09-09T20:36:15Z</time>
      </trkpt>
      <trkpt lat="45.868" lon="4.80376">
        <ele>452.79998779297</ele>
        <time>2011-09-09T20:36:17Z</time>
      </trkpt>
      <trkpt lat="45.86802" lon="4.80386">
        <ele>451.39999389648</ele>
        <time>2011-09-09T20:36:22Z</time>
      </trkpt>
      <trkpt lat="45.86802" lon="4.80389">
        <ele>451.20001220703</ele>
        <time>2011-09-09T20:36:23Z</time>
      </trkpt>
      <trkpt lat="45.86805" lon="4.804">
        <ele>450.39999389648</ele>
        <time>2011-09-09T20:36:27Z</time>
      </trkpt>
      <trkpt lat="45.86808" lon="4.80405">
        <ele>449.60000610352</ele>
        <time>2011-09-09T20:36:29Z</time>
      </trkpt>
      <trkpt lat="45.86819" lon="4.80412">
        <ele>448.39999389648</ele>
        <time>2011-09-09T20:36:34Z</time>
      </trkpt>
      <trkpt lat="45.86818" lon="4.80416">
        <ele>447.60000610352</ele>
        <time>2011-09-09T20:36:36Z</time>
      </trkpt>
      <trkpt lat="45.86814" lon="4.80421">
        <ele>447</ele>
        <time>2011-09-09T20:36:38Z</time>
      </trkpt>
      <trkpt lat="45.86806" lon="4.80426">
        <ele>445.60000610352</ele>
        <time>2011-09-09T20:36:42Z</time>
      </trkpt>
      <trkpt lat="45.86803" lon="4.80431">
        <ele>445</ele>
        <time>2011-09-09T20:36:44Z</time>
      </trkpt>
      <trkpt lat="45.86797" lon="4.80442">
        <ele>443.60000610352</ele>
        <time>2011-09-09T20:36:48Z</time>
      </trkpt>
      <trkpt lat="45.86795" lon="4.80445">
        <ele>443.20001220703</ele>
        <time>2011-09-09T20:36:49Z</time>
      </trkpt>
      <trkpt lat="45.86787" lon="4.80448">
        <ele>441.60000610352</ele>
        <time>2011-09-09T20:36:53Z</time>
      </trkpt>
      <trkpt lat="45.86777" lon="4.80443">
        <ele>440.39999389648</ele>
        <time>2011-09-09T20:36:57Z</time>
      </trkpt>
      <trkpt lat="45.86768" lon="4.80436">
        <ele>438.39999389648</ele>
        <time>2011-09-09T20:37:02Z</time>
      </trkpt>
      <trkpt lat="45.86766" lon="4.80436">
        <ele>437.79998779297</ele>
        <time>2011-09-09T20:37:04Z</time>
      </trkpt>
      <trkpt lat="45.86761" lon="4.80446">
        <ele>436</ele>
        <time>2011-09-09T20:37:09Z</time>
      </trkpt>
      <trkpt lat="45.8676" lon="4.80446">
        <ele>435.79998779297</ele>
        <time>2011-09-09T20:37:10Z</time>
      </trkpt>
      <trkpt lat="45.86757" lon="4.80447">
        <ele>435.60000610352</ele>
        <time>2011-09-09T20:37:11Z</time>
      </trkpt>
      <trkpt lat="45.86748" lon="4.80441">
        <ele>434.20001220703</ele>
        <time>2011-09-09T20:37:15Z</time>
      </trkpt>
      <trkpt lat="45.86746" lon="4.80441">
        <ele>434</ele>
        <time>2011-09-09T20:37:16Z</time>
      </trkpt>
      <trkpt lat="45.86737" lon="4.80436">
        <ele>433.20001220703</ele>
        <time>2011-09-09T20:37:20Z</time>
      </trkpt>
      <trkpt lat="45.86729" lon="4.8043">
        <ele>431.79998779297</ele>
        <time>2011-09-09T20:37:24Z</time>
      </trkpt>
      <trkpt lat="45.86721" lon="4.80421">
        <ele>430.79998779297</ele>
        <time>2011-09-09T20:37:29Z</time>
      </trkpt>
      <trkpt lat="45.8672" lon="4.8042">
        <ele>430.60000610352</ele>
        <time>2011-09-09T20:37:30Z</time>
      </trkpt>
      <trkpt lat="45.86719" lon="4.80434">
        <ele>429.39999389648</ele>
        <time>2011-09-09T20:37:35Z</time>
      </trkpt>
      <trkpt lat="45.8672" lon="4.80443">
        <ele>428.79998779297</ele>
        <time>2011-09-09T20:37:38Z</time>
      </trkpt>
      <trkpt lat="45.86721" lon="4.80446">
        <ele>428.60000610352</ele>
        <time>2011-09-09T20:37:40Z</time>
      </trkpt>
      <trkpt lat="45.86728" lon="4.80457">
        <ele>428.20001220703</ele>
        <time>2011-09-09T20:37:44Z</time>
      </trkpt>
      <trkpt lat="45.86731" lon="4.80457">
        <ele>427.79998779297</ele>
        <time>2011-09-09T20:37:45Z</time>
      </trkpt>
      <trkpt lat="45.86736" lon="4.80461">
        <ele>427.39999389648</ele>
        <time>2011-09-09T20:37:47Z</time>
      </trkpt>
      <trkpt lat="45.86737" lon="4.80464">
        <ele>427.20001220703</ele>
        <time>2011-09-09T20:37:48Z</time>
      </trkpt>
      <trkpt lat="45.86741" lon="4.80484">
        <ele>426.20001220703</ele>
        <time>2011-09-09T20:37:54Z</time>
      </trkpt>
      <trkpt lat="45.86743" lon="4.80497">
        <ele>425.20001220703</ele>
        <time>2011-09-09T20:37:58Z</time>
      </trkpt>
      <trkpt lat="45.86753" lon="4.8052">
        <ele>423.79998779297</ele>
        <time>2011-09-09T20:38:05Z</time>
      </trkpt>
      <trkpt lat="45.86758" lon="4.80531">
        <ele>422.79998779297</ele>
        <time>2011-09-09T20:38:09Z</time>
      </trkpt>
      <trkpt lat="45.86768" lon="4.80541">
        <ele>421.79998779297</ele>
        <time>2011-09-09T20:38:14Z</time>
      </trkpt>
      <trkpt lat="45.86779" lon="4.80553">
        <ele>420.60000610352</ele>
        <time>2011-09-09T20:38:19Z</time>
      </trkpt>
      <trkpt lat="45.86788" lon="4.80562">
        <ele>420</ele>
        <time>2011-09-09T20:38:24Z</time>
      </trkpt>
      <trkpt lat="45.86797" lon="4.80579">
        <ele>418.39999389648</ele>
        <time>2011-09-09T20:38:31Z</time>
      </trkpt>
      <trkpt lat="45.86805" lon="4.80592">
        <ele>417.79998779297</ele>
        <time>2011-09-09T20:38:36Z</time>
      </trkpt>
      <trkpt lat="45.86809" lon="4.80609">
        <ele>416.79998779297</ele>
        <time>2011-09-09T20:38:41Z</time>
      </trkpt>
      <trkpt lat="45.86809" lon="4.80635">
        <ele>415.79998779297</ele>
        <time>2011-09-09T20:38:48Z</time>
      </trkpt>
      <trkpt lat="45.86809" lon="4.80661">
        <ele>414.20001220703</ele>
        <time>2011-09-09T20:38:55Z</time>
      </trkpt>
      <trkpt lat="45.86811" lon="4.80687">
        <ele>413.20001220703</ele>
        <time>2011-09-09T20:39:02Z</time>
      </trkpt>
      <trkpt lat="45.86814" lon="4.80712">
        <ele>411.79998779297</ele>
        <time>2011-09-09T20:39:09Z</time>
      </trkpt>
      <trkpt lat="45.86814" lon="4.80723">
        <ele>411.60000610352</ele>
        <time>2011-09-09T20:39:12Z</time>
      </trkpt>
      <trkpt lat="45.86809" lon="4.80731">
        <ele>410.39999389648</ele>
        <time>2011-09-09T20:39:17Z</time>
      </trkpt>
      <trkpt lat="45.86799" lon="4.8074">
        <ele>408.79998779297</ele>
        <time>2011-09-09T20:39:23Z</time>
      </trkpt>
      <trkpt lat="45.86796" lon="4.80742">
        <ele>408.39999389648</ele>
        <time>2011-09-09T20:39:25Z</time>
      </trkpt>
      <trkpt lat="45.8679" lon="4.80744">
        <ele>406.60000610352</ele>
        <time>2011-09-09T20:39:30Z</time>
      </trkpt>
      <trkpt lat="45.86781" lon="4.80745">
        <ele>404.60000610352</ele>
        <time>2011-09-09T20:39:36Z</time>
      </trkpt>
      <trkpt lat="45.86778" lon="4.80746">
        <ele>404</ele>
        <time>2011-09-09T20:39:38Z</time>
      </trkpt>
      <trkpt lat="45.86766" lon="4.8074">
        <ele>402</ele>
        <time>2011-09-09T20:39:45Z</time>
      </trkpt>
      <trkpt lat="45.86763" lon="4.80738">
        <ele>401.39999389648</ele>
        <time>2011-09-09T20:39:47Z</time>
      </trkpt>
      <trkpt lat="45.86756" lon="4.80736">
        <ele>400.39999389648</ele>
        <time>2011-09-09T20:39:51Z</time>
      </trkpt>
      <trkpt lat="45.86747" lon="4.80733">
        <ele>399</ele>
        <time>2011-09-09T20:39:57Z</time>
      </trkpt>
      <trkpt lat="45.86742" lon="4.80731">
        <ele>398</ele>
        <time>2011-09-09T20:40:00Z</time>
      </trkpt>
      <trkpt lat="45.86731" lon="4.80724">
        <ele>396.60000610352</ele>
        <time>2011-09-09T20:40:06Z</time>
      </trkpt>
      <trkpt lat="45.86729" lon="4.80723">
        <ele>396.39999389648</ele>
        <time>2011-09-09T20:40:08Z</time>
      </trkpt>
      <trkpt lat="45.86723" lon="4.80722">
        <ele>395</ele>
        <time>2011-09-09T20:40:13Z</time>
      </trkpt>
      <trkpt lat="45.86721" lon="4.80722">
        <ele>394.79998779297</ele>
        <time>2011-09-09T20:40:14Z</time>
      </trkpt>
      <trkpt lat="45.86721" lon="4.80725">
        <ele>393.79998779297</ele>
        <time>2011-09-09T20:40:18Z</time>
      </trkpt>
      <trkpt lat="45.86718" lon="4.80732">
        <ele>392.79998779297</ele>
        <time>2011-09-09T20:40:22Z</time>
      </trkpt>
      <trkpt lat="45.86716" lon="4.80737">
        <ele>391.79998779297</ele>
        <time>2011-09-09T20:40:25Z</time>
      </trkpt>
      <trkpt lat="45.86715" lon="4.8074">
        <ele>391.20001220703</ele>
        <time>2011-09-09T20:40:27Z</time>
      </trkpt>
      <trkpt lat="45.8671" lon="4.8075">
        <ele>390.20001220703</ele>
        <time>2011-09-09T20:40:31Z</time>
      </trkpt>
      <trkpt lat="45.86707" lon="4.8076">
        <ele>389</ele>
        <time>2011-09-09T20:40:35Z</time>
      </trkpt>
      <trkpt lat="45.86707" lon="4.80765">
        <ele>388.79998779297</ele>
        <time>2011-09-09T20:40:36Z</time>
      </trkpt>
      <trkpt lat="45.86707" lon="4.80772">
        <ele>388</ele>
        <time>2011-09-09T20:40:38Z</time>
      </trkpt>
      <trkpt lat="45.86713" lon="4.80779">
        <ele>386.79998779297</ele>
        <time>2011-09-09T20:40:42Z</time>
      </trkpt>
      <trkpt lat="45.86715" lon="4.80781">
        <ele>386.39999389648</ele>
        <time>2011-09-09T20:40:43Z</time>
      </trkpt>
      <trkpt lat="45.86715" lon="4.80784">
        <ele>386</ele>
        <time>2011-09-09T20:40:44Z</time>
      </trkpt>
      <trkpt lat="45.86712" lon="4.80795">
        <ele>384.79998779297</ele>
        <time>2011-09-09T20:40:48Z</time>
      </trkpt>
      <trkpt lat="45.86711" lon="4.80808">
        <ele>383.39999389648</ele>
        <time>2011-09-09T20:40:52Z</time>
      </trkpt>
      <trkpt lat="45.86712" lon="4.80821">
        <ele>382</ele>
        <time>2011-09-09T20:40:57Z</time>
      </trkpt>
      <trkpt lat="45.86713" lon="4.80833">
        <ele>380.79998779297</ele>
        <time>2011-09-09T20:41:01Z</time>
      </trkpt>
      <trkpt lat="45.86714" lon="4.80841">
        <ele>380</ele>
        <time>2011-09-09T20:41:04Z</time>
      </trkpt>
      <trkpt lat="45.86715" lon="4.80852">
        <ele>379</ele>
        <time>2011-09-09T20:41:08Z</time>
      </trkpt>
      <trkpt lat="45.86715" lon="4.80857">
        <ele>378.39999389648</ele>
        <time>2011-09-09T20:41:10Z</time>
      </trkpt>
      <trkpt lat="45.86714" lon="4.80861">
        <ele>378</ele>
        <time>2011-09-09T20:41:12Z</time>
      </trkpt>
      <trkpt lat="45.86711" lon="4.80867">
        <ele>377.39999389648</ele>
        <time>2011-09-09T20:41:16Z</time>
      </trkpt>
      <trkpt lat="45.8671" lon="4.80877">
        <ele>376.39999389648</ele>
        <time>2011-09-09T20:41:21Z</time>
      </trkpt>
      <trkpt lat="45.86714" lon="4.80904">
        <ele>375</ele>
        <time>2011-09-09T20:41:26Z</time>
      </trkpt>
      <trkpt lat="45.86718" lon="4.80927">
        <ele>371.79998779297</ele>
        <time>2011-09-09T20:41:33Z</time>
      </trkpt>
      <trkpt lat="45.86719" lon="4.80931">
        <ele>371</ele>
        <time>2011-09-09T20:41:34Z</time>
      </trkpt>
      <trkpt lat="45.8672" lon="4.80948">
        <ele>366.79998779297</ele>
        <time>2011-09-09T20:41:40Z</time>
      </trkpt>
      <trkpt lat="45.86723" lon="4.80961">
        <ele>363.39999389648</ele>
        <time>2011-09-09T20:41:45Z</time>
      </trkpt>
      <trkpt lat="45.86724" lon="4.80966">
        <ele>361.79998779297</ele>
        <time>2011-09-09T20:41:47Z</time>
      </trkpt>
      <trkpt lat="45.8673" lon="4.80981">
        <ele>357.39999389648</ele>
        <time>2011-09-09T20:41:53Z</time>
      </trkpt>
      <trkpt lat="45.8673" lon="4.80996">
        <ele>354.60000610352</ele>
        <time>2011-09-09T20:41:57Z</time>
      </trkpt>
      <trkpt lat="45.86732" lon="4.81014">
        <ele>351.20001220703</ele>
        <time>2011-09-09T20:42:02Z</time>
      </trkpt>
      <trkpt lat="45.86728" lon="4.81025">
        <ele>348.60000610352</ele>
        <time>2011-09-09T20:42:06Z</time>
      </trkpt>
      <trkpt lat="45.86717" lon="4.81034">
        <ele>345.39999389648</ele>
        <time>2011-09-09T20:42:11Z</time>
      </trkpt>
      <trkpt lat="45.86701" lon="4.81045">
        <ele>342.20001220703</ele>
        <time>2011-09-09T20:42:17Z</time>
      </trkpt>
      <trkpt lat="45.86699" lon="4.81055">
        <ele>340.60000610352</ele>
        <time>2011-09-09T20:42:20Z</time>
      </trkpt>
      <trkpt lat="45.867" lon="4.81059">
        <ele>340.20001220703</ele>
        <time>2011-09-09T20:42:21Z</time>
      </trkpt>
      <trkpt lat="45.86703" lon="4.81074">
        <ele>338</ele>
        <time>2011-09-09T20:42:25Z</time>
      </trkpt>
      <trkpt lat="45.8671" lon="4.81095">
        <ele>335.20001220703</ele>
        <time>2011-09-09T20:42:30Z</time>
      </trkpt>
      <trkpt lat="45.86718" lon="4.81112">
        <ele>331.79998779297</ele>
        <time>2011-09-09T20:42:35Z</time>
      </trkpt>
      <trkpt lat="45.86724" lon="4.81131">
        <ele>329</ele>
        <time>2011-09-09T20:42:40Z</time>
      </trkpt>
      <trkpt lat="45.86729" lon="4.81155">
        <ele>325.60000610352</ele>
        <time>2011-09-09T20:42:46Z</time>
      </trkpt>
      <trkpt lat="45.8673" lon="4.81159">
        <ele>325</ele>
        <time>2011-09-09T20:42:47Z</time>
      </trkpt>
      <trkpt lat="45.86737" lon="4.81182">
        <ele>322.39999389648</ele>
        <time>2011-09-09T20:42:52Z</time>
      </trkpt>
      <trkpt lat="45.8674" lon="4.81199">
        <ele>320.60000610352</ele>
        <time>2011-09-09T20:42:56Z</time>
      </trkpt>
      <trkpt lat="45.86744" lon="4.8121">
        <ele>318.79998779297</ele>
        <time>2011-09-09T20:43:00Z</time>
      </trkpt>
      <trkpt lat="45.86749" lon="4.81225">
        <ele>317.20001220703</ele>
        <time>2011-09-09T20:43:04Z</time>
      </trkpt>
      <trkpt lat="45.8675" lon="4.81238">
        <ele>315.79998779297</ele>
        <time>2011-09-09T20:43:08Z</time>
      </trkpt>
      <trkpt lat="45.86752" lon="4.81248">
        <ele>314.60000610352</ele>
        <time>2011-09-09T20:43:11Z</time>
      </trkpt>
      <trkpt lat="45.86757" lon="4.81272">
        <ele>313</ele>
        <time>2011-09-09T20:43:16Z</time>
      </trkpt>
      <trkpt lat="45.86762" lon="4.81296">
        <ele>311.39999389648</ele>
        <time>2011-09-09T20:43:22Z</time>
      </trkpt>
      <trkpt lat="45.86769" lon="4.81313">
        <ele>310.20001220703</ele>
        <time>2011-09-09T20:43:27Z</time>
      </trkpt>
      <trkpt lat="45.86775" lon="4.8133">
        <ele>309</ele>
        <time>2011-09-09T20:43:31Z</time>
      </trkpt>
      <trkpt lat="45.86779" lon="4.81354">
        <ele>307.60000610352</ele>
        <time>2011-09-09T20:43:36Z</time>
      </trkpt>
      <trkpt lat="45.86779" lon="4.81358">
        <ele>307.39999389648</ele>
        <time>2011-09-09T20:43:37Z</time>
      </trkpt>
      <trkpt lat="45.86782" lon="4.8138">
        <ele>306.20001220703</ele>
        <time>2011-09-09T20:43:42Z</time>
      </trkpt>
      <trkpt lat="45.86787" lon="4.81391">
        <ele>305.20001220703</ele>
        <time>2011-09-09T20:43:45Z</time>
      </trkpt>
      <trkpt lat="45.86789" lon="4.81405">
        <ele>304.60000610352</ele>
        <time>2011-09-09T20:43:48Z</time>
      </trkpt>
      <trkpt lat="45.86794" lon="4.81421">
        <ele>303.20001220703</ele>
        <time>2011-09-09T20:43:52Z</time>
      </trkpt>
      <trkpt lat="45.86799" lon="4.8144">
        <ele>302</ele>
        <time>2011-09-09T20:43:57Z</time>
      </trkpt>
      <trkpt lat="45.868" lon="4.81445">
        <ele>301.60000610352</ele>
        <time>2011-09-09T20:43:58Z</time>
      </trkpt>
      <trkpt lat="45.86806" lon="4.81471">
        <ele>300</ele>
        <time>2011-09-09T20:44:04Z</time>
      </trkpt>
      <trkpt lat="45.86807" lon="4.81474">
        <ele>299.60000610352</ele>
        <time>2011-09-09T20:44:05Z</time>
      </trkpt>
      <trkpt lat="45.86808" lon="4.81482">
        <ele>299</ele>
        <time>2011-09-09T20:44:07Z</time>
      </trkpt>
      <trkpt lat="45.86818" lon="4.81535">
        <ele>294.79998779297</ele>
        <time>2011-09-09T20:44:19Z</time>
      </trkpt>
      <trkpt lat="45.86819" lon="4.81539">
        <ele>294.60000610352</ele>
        <time>2011-09-09T20:44:20Z</time>
      </trkpt>
      <trkpt lat="45.8682" lon="4.81542">
        <ele>294.39999389648</ele>
        <time>2011-09-09T20:44:21Z</time>
      </trkpt>
      <trkpt lat="45.8682" lon="4.81564">
        <ele>292.60000610352</ele>
        <time>2011-09-09T20:44:26Z</time>
      </trkpt>
      <trkpt lat="45.86821" lon="4.81581">
        <ele>291.20001220703</ele>
        <time>2011-09-09T20:44:30Z</time>
      </trkpt>
      <trkpt lat="45.86824" lon="4.81607">
        <ele>288.79998779297</ele>
        <time>2011-09-09T20:44:36Z</time>
      </trkpt>
      <trkpt lat="45.86826" lon="4.81629">
        <ele>286.39999389648</ele>
        <time>2011-09-09T20:44:42Z</time>
      </trkpt>
      <trkpt lat="45.86824" lon="4.81652">
        <ele>283.20001220703</ele>
        <time>2011-09-09T20:44:48Z</time>
      </trkpt>
      <trkpt lat="45.86823" lon="4.81667">
        <ele>280.79998779297</ele>
        <time>2011-09-09T20:44:52Z</time>
      </trkpt>
      <trkpt lat="45.8682" lon="4.81686">
        <ele>277.79998779297</ele>
        <time>2011-09-09T20:44:57Z</time>
      </trkpt>
      <trkpt lat="45.86818" lon="4.81714">
        <ele>273.79998779297</ele>
        <time>2011-09-09T20:45:04Z</time>
      </trkpt>
      <trkpt lat="45.86818" lon="4.81717">
        <ele>273.39999389648</ele>
        <time>2011-09-09T20:45:05Z</time>
      </trkpt>
      <trkpt lat="45.86816" lon="4.81734">
        <ele>270.20001220703</ele>
        <time>2011-09-09T20:45:10Z</time>
      </trkpt>
      <trkpt lat="45.86819" lon="4.81751">
        <ele>267</ele>
        <time>2011-09-09T20:45:15Z</time>
      </trkpt>
      <trkpt lat="45.86821" lon="4.81769">
        <ele>263.60000610352</ele>
        <time>2011-09-09T20:45:20Z</time>
      </trkpt>
      <trkpt lat="45.86822" lon="4.81787">
        <ele>260.20001220703</ele>
        <time>2011-09-09T20:45:25Z</time>
      </trkpt>
      <trkpt lat="45.86822" lon="4.81798">
        <ele>258.39999389648</ele>
        <time>2011-09-09T20:45:28Z</time>
      </trkpt>
      <trkpt lat="45.86826" lon="4.81811">
        <ele>256.20001220703</ele>
        <time>2011-09-09T20:45:32Z</time>
      </trkpt>
      <trkpt lat="45.86833" lon="4.81836">
        <ele>253.39999389648</ele>
        <time>2011-09-09T20:45:38Z</time>
      </trkpt>
      <trkpt lat="45.86844" lon="4.81857">
        <ele>251</ele>
        <time>2011-09-09T20:45:44Z</time>
      </trkpt>
      <trkpt lat="45.86859" lon="4.81878">
        <ele>248.60000610352</ele>
        <time>2011-09-09T20:45:51Z</time>
      </trkpt>
      <trkpt lat="45.86867" lon="4.8189">
        <ele>247</ele>
        <time>2011-09-09T20:45:56Z</time>
      </trkpt>
      <trkpt lat="45.86868" lon="4.81899">
        <ele>245.19999694824</ele>
        <time>2011-09-09T20:46:02Z</time>
      </trkpt>
      <trkpt lat="45.86868" lon="4.819">
        <ele>245</ele>
        <time>2011-09-09T20:46:03Z</time>
      </trkpt>
      <trkpt lat="45.86869" lon="4.819">
        <ele>243.19999694824</ele>
        <time>2011-09-09T20:46:20Z</time>
      </trkpt>
      <trkpt lat="45.86869" lon="4.81904">
        <ele>242.80000305176</ele>
        <time>2011-09-09T20:46:45Z</time>
      </trkpt>
      <trkpt lat="45.8687" lon="4.81906">
        <ele>242.80000305176</ele>
        <time>2011-09-09T20:46:50Z</time>
      </trkpt>
      <trkpt lat="45.86869" lon="4.81908">
        <ele>242.80000305176</ele>
        <time>2011-09-09T20:46:52Z</time>
      </trkpt>
      <trkpt lat="45.86864" lon="4.81913">
        <ele>242.80000305176</ele>
        <time>2011-09-09T20:46:57Z</time>
      </trkpt>
      <trkpt lat="45.86862" lon="4.81913">
        <ele>242.80000305176</ele>
        <time>2011-09-09T20:46:58Z</time>
      </trkpt>
      <trkpt lat="45.86858" lon="4.81918">
        <ele>242.80000305176</ele>
        <time>2011-09-09T20:47:02Z</time>
      </trkpt>
      <trkpt lat="45.86855" lon="4.81922">
        <ele>242.80000305176</ele>
        <time>2011-09-09T20:47:06Z</time>
      </trkpt>
      <trkpt lat="45.86847" lon="4.8193">
        <ele>242.80000305176</ele>
        <time>2011-09-09T20:47:11Z</time>
      </trkpt>
      <trkpt lat="45.86846" lon="4.8193">
        <ele>242.80000305176</ele>
        <time>2011-09-09T20:47:12Z</time>
      </trkpt>
      <trkpt lat="45.86836" lon="4.81927">
        <ele>242.60000610352</ele>
        <time>2011-09-09T20:47:19Z</time>
      </trkpt>
      <trkpt lat="45.86826" lon="4.81915">
        <ele>241.60000610352</ele>
        <time>2011-09-09T20:47:26Z</time>
      </trkpt>
      <trkpt lat="45.86826" lon="4.81914">
        <ele>241.60000610352</ele>
        <time>2011-09-09T20:47:27Z</time>
      </trkpt>
      <trkpt lat="45.8682" lon="4.81909">
        <ele>241.19999694824</ele>
        <time>2011-09-09T20:47:30Z</time>
      </trkpt>
      <trkpt lat="45.86811" lon="4.81899">
        <ele>241</ele>
        <time>2011-09-09T20:47:35Z</time>
      </trkpt>
      <trkpt lat="45.86804" lon="4.81889">
        <ele>241</ele>
        <time>2011-09-09T20:47:39Z</time>
      </trkpt>
      <trkpt lat="45.86799" lon="4.81882">
        <ele>240.80000305176</ele>
        <time>2011-09-09T20:47:42Z</time>
      </trkpt>
      <trkpt lat="45.86797" lon="4.8188">
        <ele>240.80000305176</ele>
        <time>2011-09-09T20:47:43Z</time>
      </trkpt>
      <trkpt lat="45.86795" lon="4.81878">
        <ele>240.80000305176</ele>
        <time>2011-09-09T20:47:44Z</time>
      </trkpt>
      <trkpt lat="45.86789" lon="4.81869">
        <ele>240.80000305176</ele>
        <time>2011-09-09T20:47:49Z</time>
      </trkpt>
      <trkpt lat="45.86784" lon="4.81862">
        <ele>240.80000305176</ele>
        <time>2011-09-09T20:47:53Z</time>
      </trkpt>
      <trkpt lat="45.86783" lon="4.8186">
        <ele>240.80000305176</ele>
        <time>2011-09-09T20:47:54Z</time>
      </trkpt>
      <trkpt lat="45.86776" lon="4.81853">
        <ele>240.80000305176</ele>
        <time>2011-09-09T20:47:58Z</time>
      </trkpt>
      <trkpt lat="45.86775" lon="4.81851">
        <ele>240.80000305176</ele>
        <time>2011-09-09T20:47:59Z</time>
      </trkpt>
      <trkpt lat="45.86769" lon="4.81844">
        <ele>240.60000610352</ele>
        <time>2011-09-09T20:48:02Z</time>
      </trkpt>
      <trkpt lat="45.8676" lon="4.81827">
        <ele>240.60000610352</ele>
        <time>2011-09-09T20:48:08Z</time>
      </trkpt>
      <trkpt lat="45.86758" lon="4.81821">
        <ele>240.60000610352</ele>
        <time>2011-09-09T20:48:10Z</time>
      </trkpt>
      <trkpt lat="45.86758" lon="4.81817">
        <ele>240.60000610352</ele>
        <time>2011-09-09T20:48:12Z</time>
      </trkpt>
      <trkpt lat="45.86754" lon="4.81803">
        <ele>241.60000610352</ele>
        <time>2011-09-09T20:48:17Z</time>
      </trkpt>
      <trkpt lat="45.86752" lon="4.8179">
        <ele>242</ele>
        <time>2011-09-09T20:48:21Z</time>
      </trkpt>
      <trkpt lat="45.86751" lon="4.81788">
        <ele>242.19999694824</ele>
        <time>2011-09-09T20:48:22Z</time>
      </trkpt>
      <trkpt lat="45.86748" lon="4.81775">
        <ele>242.80000305176</ele>
        <time>2011-09-09T20:48:26Z</time>
      </trkpt>
      <trkpt lat="45.86747" lon="4.81767">
        <ele>243.19999694824</ele>
        <time>2011-09-09T20:48:28Z</time>
      </trkpt>
      <trkpt lat="45.86743" lon="4.81754">
        <ele>243.80000305176</ele>
        <time>2011-09-09T20:48:32Z</time>
      </trkpt>
      <trkpt lat="45.8674" lon="4.81744">
        <ele>244.39999389648</ele>
        <time>2011-09-09T20:48:35Z</time>
      </trkpt>
      <trkpt lat="45.86737" lon="4.81734">
        <ele>245.19999694824</ele>
        <time>2011-09-09T20:48:39Z</time>
      </trkpt>
      <trkpt lat="45.86736" lon="4.81729">
        <ele>246.19999694824</ele>
        <time>2011-09-09T20:48:45Z</time>
      </trkpt>
      <trkpt lat="45.86735" lon="4.81723">
        <ele>247</ele>
        <time>2011-09-09T20:49:07Z</time>
      </trkpt>
      <trkpt lat="45.86731" lon="4.81716">
        <ele>247</ele>
        <time>2011-09-09T20:49:12Z</time>
      </trkpt>
      <trkpt lat="45.86727" lon="4.81708">
        <ele>247</ele>
        <time>2011-09-09T20:49:16Z</time>
      </trkpt>
      <trkpt lat="45.86727" lon="4.81706">
        <ele>247</ele>
        <time>2011-09-09T20:49:17Z</time>
      </trkpt>
      <trkpt lat="45.86724" lon="4.81698">
        <ele>247</ele>
        <time>2011-09-09T20:49:21Z</time>
      </trkpt>
      <trkpt lat="45.8672" lon="4.81691">
        <ele>247</ele>
        <time>2011-09-09T20:49:25Z</time>
      </trkpt>
      <trkpt lat="45.86714" lon="4.8168">
        <ele>247</ele>
        <time>2011-09-09T20:49:31Z</time>
      </trkpt>
      <trkpt lat="45.86713" lon="4.81679">
        <ele>247</ele>
        <time>2011-09-09T20:49:32Z</time>
      </trkpt>
      <trkpt lat="45.86712" lon="4.81678">
        <ele>247</ele>
        <time>2011-09-09T20:49:33Z</time>
      </trkpt>
      <trkpt lat="45.86711" lon="4.81675">
        <ele>247</ele>
        <time>2011-09-09T20:49:35Z</time>
      </trkpt>
      <trkpt lat="45.86708" lon="4.8167">
        <ele>247</ele>
        <time>2011-09-09T20:49:39Z</time>
      </trkpt>
      <trkpt lat="45.867" lon="4.81664">
        <ele>247</ele>
        <time>2011-09-09T20:49:46Z</time>
      </trkpt>
      <trkpt lat="45.86697" lon="4.81662">
        <ele>247</ele>
        <time>2011-09-09T20:49:50Z</time>
      </trkpt>
      <trkpt lat="45.86693" lon="4.81658">
        <ele>247</ele>
        <time>2011-09-09T20:49:55Z</time>
      </trkpt>
      <trkpt lat="45.86692" lon="4.81657">
        <ele>247</ele>
        <time>2011-09-09T20:49:56Z</time>
      </trkpt>
      <trkpt lat="45.8669" lon="4.81655">
        <ele>247</ele>
        <time>2011-09-09T20:49:58Z</time>
      </trkpt>
      <trkpt lat="45.86683" lon="4.81651">
        <ele>247</ele>
        <time>2011-09-09T20:50:03Z</time>
      </trkpt>
      <trkpt lat="45.86677" lon="4.81645">
        <ele>248.19999694824</ele>
        <time>2011-09-09T20:50:10Z</time>
      </trkpt>
      <trkpt lat="45.86676" lon="4.81644">
        <ele>248.19999694824</ele>
        <time>2011-09-09T20:50:11Z</time>
      </trkpt>
      <trkpt lat="45.86671" lon="4.8164">
        <ele>249.60000610352</ele>
        <time>2011-09-09T20:50:17Z</time>
      </trkpt>
      <trkpt lat="45.86667" lon="4.81637">
        <ele>250.60000610352</ele>
        <time>2011-09-09T20:50:21Z</time>
      </trkpt>
      <trkpt lat="45.86665" lon="4.81637">
        <ele>251</ele>
        <time>2011-09-09T20:50:23Z</time>
      </trkpt>
      <trkpt lat="45.86663" lon="4.81636">
        <ele>251.60000610352</ele>
        <time>2011-09-09T20:50:26Z</time>
      </trkpt>
      <trkpt lat="45.86661" lon="4.81636">
        <ele>252.39999389648</ele>
        <time>2011-09-09T20:50:28Z</time>
      </trkpt>
      <trkpt lat="45.86655" lon="4.81627">
        <ele>254.39999389648</ele>
        <time>2011-09-09T20:50:35Z</time>
      </trkpt>
      <trkpt lat="45.86652" lon="4.81622">
        <ele>255.39999389648</ele>
        <time>2011-09-09T20:50:38Z</time>
      </trkpt>
      <trkpt lat="45.86651" lon="4.81621">
        <ele>255.80000305176</ele>
        <time>2011-09-09T20:50:40Z</time>
      </trkpt>
      <trkpt lat="45.86647" lon="4.81616">
        <ele>257</ele>
        <time>2011-09-09T20:50:45Z</time>
      </trkpt>
      <trkpt lat="45.86643" lon="4.81612">
        <ele>258</ele>
        <time>2011-09-09T20:50:50Z</time>
      </trkpt>
      <trkpt lat="45.8664" lon="4.81607">
        <ele>258.60000610352</ele>
        <time>2011-09-09T20:50:54Z</time>
      </trkpt>
      <trkpt lat="45.86638" lon="4.81604">
        <ele>259.39999389648</ele>
        <time>2011-09-09T20:50:57Z</time>
      </trkpt>
      <trkpt lat="45.86635" lon="4.81606">
        <ele>260.60000610352</ele>
        <time>2011-09-09T20:51:03Z</time>
      </trkpt>
      <trkpt lat="45.86637" lon="4.81616">
        <ele>261.20001220703</ele>
        <time>2011-09-09T20:51:07Z</time>
      </trkpt>
      <trkpt lat="45.86641" lon="4.81628">
        <ele>262.60000610352</ele>
        <time>2011-09-09T20:51:13Z</time>
      </trkpt>
      <trkpt lat="45.86644" lon="4.8164">
        <ele>263.60000610352</ele>
        <time>2011-09-09T20:51:20Z</time>
      </trkpt>
      <trkpt lat="45.86645" lon="4.81641">
        <ele>264</ele>
        <time>2011-09-09T20:51:21Z</time>
      </trkpt>
      <trkpt lat="45.86648" lon="4.81648">
        <ele>264.79998779297</ele>
        <time>2011-09-09T20:51:26Z</time>
      </trkpt>
      <trkpt lat="45.86648" lon="4.8165">
        <ele>265.60000610352</ele>
        <time>2011-09-09T20:51:29Z</time>
      </trkpt>
      <trkpt lat="45.86648" lon="4.81652">
        <ele>266</ele>
        <time>2011-09-09T20:51:31Z</time>
      </trkpt>
      <trkpt lat="45.86655" lon="4.81662">
        <ele>266.79998779297</ele>
        <time>2011-09-09T20:51:36Z</time>
      </trkpt>
      <trkpt lat="45.86661" lon="4.81675">
        <ele>267.60000610352</ele>
        <time>2011-09-09T20:51:40Z</time>
      </trkpt>
      <trkpt lat="45.86664" lon="4.81689">
        <ele>268.79998779297</ele>
        <time>2011-09-09T20:51:45Z</time>
      </trkpt>
      <trkpt lat="45.86669" lon="4.81701">
        <ele>269.20001220703</ele>
        <time>2011-09-09T20:51:49Z</time>
      </trkpt>
      <trkpt lat="45.86671" lon="4.81704">
        <ele>269.39999389648</ele>
        <time>2011-09-09T20:51:50Z</time>
      </trkpt>
      <trkpt lat="45.86674" lon="4.81715">
        <ele>269.60000610352</ele>
        <time>2011-09-09T20:51:53Z</time>
      </trkpt>
      <trkpt lat="45.86681" lon="4.81728">
        <ele>269.79998779297</ele>
        <time>2011-09-09T20:51:57Z</time>
      </trkpt>
      <trkpt lat="45.86683" lon="4.81732">
        <ele>269.79998779297</ele>
        <time>2011-09-09T20:51:58Z</time>
      </trkpt>
      <trkpt lat="45.86689" lon="4.81744">
        <ele>270.60000610352</ele>
        <time>2011-09-09T20:52:02Z</time>
      </trkpt>
      <trkpt lat="45.86692" lon="4.8175">
        <ele>271</ele>
        <time>2011-09-09T20:52:04Z</time>
      </trkpt>
      <trkpt lat="45.86701" lon="4.81767">
        <ele>271.39999389648</ele>
        <time>2011-09-09T20:52:09Z</time>
      </trkpt>
      <trkpt lat="45.86703" lon="4.81773">
        <ele>271.60000610352</ele>
        <time>2011-09-09T20:52:11Z</time>
      </trkpt>
      <trkpt lat="45.86707" lon="4.81783">
        <ele>271.79998779297</ele>
        <time>2011-09-09T20:52:14Z</time>
      </trkpt>
      <trkpt lat="45.86714" lon="4.818">
        <ele>272</ele>
        <time>2011-09-09T20:52:19Z</time>
      </trkpt>
      <trkpt lat="45.86716" lon="4.81804">
        <ele>272</ele>
        <time>2011-09-09T20:52:20Z</time>
      </trkpt>
      <trkpt lat="45.8672" lon="4.8182">
        <ele>272.20001220703</ele>
        <time>2011-09-09T20:52:26Z</time>
      </trkpt>
      <trkpt lat="45.86721" lon="4.81823">
        <ele>272.20001220703</ele>
        <time>2011-09-09T20:52:27Z</time>
      </trkpt>
      <trkpt lat="45.8672" lon="4.81834">
        <ele>272.20001220703</ele>
        <time>2011-09-09T20:52:32Z</time>
      </trkpt>
      <trkpt lat="45.8672" lon="4.81836">
        <ele>272.20001220703</ele>
        <time>2011-09-09T20:52:33Z</time>
      </trkpt>
      <trkpt lat="45.86721" lon="4.81845">
        <ele>272.20001220703</ele>
        <time>2011-09-09T20:52:38Z</time>
      </trkpt>
      <trkpt lat="45.86718" lon="4.81855">
        <ele>272</ele>
        <time>2011-09-09T20:52:43Z</time>
      </trkpt>
      <trkpt lat="45.86714" lon="4.81862">
        <ele>271.20001220703</ele>
        <time>2011-09-09T20:52:48Z</time>
      </trkpt>
      <trkpt lat="45.86709" lon="4.81864">
        <ele>270.79998779297</ele>
        <time>2011-09-09T20:52:51Z</time>
      </trkpt>
      <trkpt lat="45.86702" lon="4.81862">
        <ele>269.39999389648</ele>
        <time>2011-09-09T20:52:57Z</time>
      </trkpt>
      <trkpt lat="45.86698" lon="4.81859">
        <ele>268.60000610352</ele>
        <time>2011-09-09T20:53:01Z</time>
      </trkpt>
      <trkpt lat="45.86697" lon="4.81858">
        <ele>268.20001220703</ele>
        <time>2011-09-09T20:53:02Z</time>
      </trkpt>
      <trkpt lat="45.86691" lon="4.81852">
        <ele>267.20001220703</ele>
        <time>2011-09-09T20:53:08Z</time>
      </trkpt>
      <trkpt lat="45.86688" lon="4.8185">
        <ele>266.79998779297</ele>
        <time>2011-09-09T20:53:11Z</time>
      </trkpt>
      <trkpt lat="45.86684" lon="4.81844">
        <ele>266.39999389648</ele>
        <time>2011-09-09T20:53:17Z</time>
      </trkpt>
      <trkpt lat="45.86679" lon="4.81836">
        <ele>266.20001220703</ele>
        <time>2011-09-09T20:53:23Z</time>
      </trkpt>
      <trkpt lat="45.86678" lon="4.81834">
        <ele>266</ele>
        <time>2011-09-09T20:53:24Z</time>
      </trkpt>
      <trkpt lat="45.86674" lon="4.81826">
        <ele>266</ele>
        <time>2011-09-09T20:53:30Z</time>
      </trkpt>
      <trkpt lat="45.86668" lon="4.81819">
        <ele>266</ele>
        <time>2011-09-09T20:53:35Z</time>
      </trkpt>
      <trkpt lat="45.86666" lon="4.81815">
        <ele>266</ele>
        <time>2011-09-09T20:53:37Z</time>
      </trkpt>
      <trkpt lat="45.86661" lon="4.81808">
        <ele>265.79998779297</ele>
        <time>2011-09-09T20:53:42Z</time>
      </trkpt>
      <trkpt lat="45.86654" lon="4.81799">
        <ele>265.79998779297</ele>
        <time>2011-09-09T20:53:48Z</time>
      </trkpt>
      <trkpt lat="45.86652" lon="4.81797">
        <ele>265.79998779297</ele>
        <time>2011-09-09T20:53:50Z</time>
      </trkpt>
      <trkpt lat="45.86649" lon="4.81793">
        <ele>266</ele>
        <time>2011-09-09T20:53:53Z</time>
      </trkpt>
      <trkpt lat="45.86645" lon="4.81786">
        <ele>267</ele>
        <time>2011-09-09T20:53:59Z</time>
      </trkpt>
      <trkpt lat="45.8664" lon="4.81779">
        <ele>267.39999389648</ele>
        <time>2011-09-09T20:54:04Z</time>
      </trkpt>
      <trkpt lat="45.86637" lon="4.81774">
        <ele>267.60000610352</ele>
        <time>2011-09-09T20:54:08Z</time>
      </trkpt>
      <trkpt lat="45.86636" lon="4.81772">
        <ele>268</ele>
        <time>2011-09-09T20:54:10Z</time>
      </trkpt>
      <trkpt lat="45.86635" lon="4.8177">
        <ele>268.39999389648</ele>
        <time>2011-09-09T20:54:11Z</time>
      </trkpt>
      <trkpt lat="45.86631" lon="4.8176">
        <ele>269.20001220703</ele>
        <time>2011-09-09T20:54:19Z</time>
      </trkpt>
      <trkpt lat="45.86629" lon="4.81759">
        <ele>269.39999389648</ele>
        <time>2011-09-09T20:54:20Z</time>
      </trkpt>
      <trkpt lat="45.86626" lon="4.81753">
        <ele>270.39999389648</ele>
        <time>2011-09-09T20:54:24Z</time>
      </trkpt>
      <trkpt lat="45.8662" lon="4.81742">
        <ele>271.79998779297</ele>
        <time>2011-09-09T20:54:32Z</time>
      </trkpt>
      <trkpt lat="45.86619" lon="4.8174">
        <ele>272</ele>
        <time>2011-09-09T20:54:33Z</time>
      </trkpt>
      <trkpt lat="45.86616" lon="4.81734">
        <ele>272.79998779297</ele>
        <time>2011-09-09T20:54:37Z</time>
      </trkpt>
      <trkpt lat="45.86613" lon="4.81724">
        <ele>274.39999389648</ele>
        <time>2011-09-09T20:54:43Z</time>
      </trkpt>
      <trkpt lat="45.86611" lon="4.81718">
        <ele>275.39999389648</ele>
        <time>2011-09-09T20:54:47Z</time>
      </trkpt>
      <trkpt lat="45.8661" lon="4.81714">
        <ele>276.20001220703</ele>
        <time>2011-09-09T20:54:50Z</time>
      </trkpt>
      <trkpt lat="45.86607" lon="4.81708">
        <ele>277.79998779297</ele>
        <time>2011-09-09T20:54:55Z</time>
      </trkpt>
      <trkpt lat="45.86602" lon="4.81698">
        <ele>280.20001220703</ele>
        <time>2011-09-09T20:55:03Z</time>
      </trkpt>
      <trkpt lat="45.86599" lon="4.81694">
        <ele>281.79998779297</ele>
        <time>2011-09-09T20:55:08Z</time>
      </trkpt>
      <trkpt lat="45.86596" lon="4.81687">
        <ele>283</ele>
        <time>2011-09-09T20:55:14Z</time>
      </trkpt>
      <trkpt lat="45.86596" lon="4.81686">
        <ele>283.20001220703</ele>
        <time>2011-09-09T20:55:15Z</time>
      </trkpt>
      <trkpt lat="45.86587" lon="4.81686">
        <ele>285.60000610352</ele>
        <time>2011-09-09T20:55:26Z</time>
      </trkpt>
      <trkpt lat="45.86588" lon="4.81694">
        <ele>286.60000610352</ele>
        <time>2011-09-09T20:55:30Z</time>
      </trkpt>
      <trkpt lat="45.86588" lon="4.81697">
        <ele>287</ele>
        <time>2011-09-09T20:55:32Z</time>
      </trkpt>
      <trkpt lat="45.86588" lon="4.81704">
        <ele>287.60000610352</ele>
        <time>2011-09-09T20:55:36Z</time>
      </trkpt>
      <trkpt lat="45.8659" lon="4.81714">
        <ele>288.20001220703</ele>
        <time>2011-09-09T20:55:41Z</time>
      </trkpt>
      <trkpt lat="45.86589" lon="4.8172">
        <ele>288.20001220703</ele>
        <time>2011-09-09T20:55:43Z</time>
      </trkpt>
      <trkpt lat="45.86588" lon="4.81735">
        <ele>288.60000610352</ele>
        <time>2011-09-09T20:55:49Z</time>
      </trkpt>
      <trkpt lat="45.86588" lon="4.81741">
        <ele>288.60000610352</ele>
        <time>2011-09-09T20:55:51Z</time>
      </trkpt>
      <trkpt lat="45.8659" lon="4.81754">
        <ele>288.60000610352</ele>
        <time>2011-09-09T20:55:56Z</time>
      </trkpt>
      <trkpt lat="45.86593" lon="4.81763">
        <ele>289.20001220703</ele>
        <time>2011-09-09T20:55:59Z</time>
      </trkpt>
      <trkpt lat="45.86598" lon="4.81783">
        <ele>290</ele>
        <time>2011-09-09T20:56:05Z</time>
      </trkpt>
      <trkpt lat="45.866" lon="4.81798">
        <ele>290.20001220703</ele>
        <time>2011-09-09T20:56:09Z</time>
      </trkpt>
      <trkpt lat="45.86601" lon="4.8181">
        <ele>290.60000610352</ele>
        <time>2011-09-09T20:56:14Z</time>
      </trkpt>
      <trkpt lat="45.866" lon="4.81816">
        <ele>290.60000610352</ele>
        <time>2011-09-09T20:56:18Z</time>
      </trkpt>
      <trkpt lat="45.86589" lon="4.8183">
        <ele>292</ele>
        <time>2011-09-09T20:56:27Z</time>
      </trkpt>
      <trkpt lat="45.86589" lon="4.81831">
        <ele>292</ele>
        <time>2011-09-09T20:56:28Z</time>
      </trkpt>
      <trkpt lat="45.86583" lon="4.81838">
        <ele>292.39999389648</ele>
        <time>2011-09-09T20:56:34Z</time>
      </trkpt>
      <trkpt lat="45.86582" lon="4.81839">
        <ele>292.39999389648</ele>
        <time>2011-09-09T20:56:35Z</time>
      </trkpt>
      <trkpt lat="45.86573" lon="4.81846">
        <ele>293</ele>
        <time>2011-09-09T20:56:42Z</time>
      </trkpt>
      <trkpt lat="45.86563" lon="4.81847">
        <ele>294</ele>
        <time>2011-09-09T20:56:49Z</time>
      </trkpt>
      <trkpt lat="45.86553" lon="4.81846">
        <ele>295</ele>
        <time>2011-09-09T20:56:58Z</time>
      </trkpt>
      <trkpt lat="45.8654" lon="4.81845">
        <ele>296.20001220703</ele>
        <time>2011-09-09T20:57:07Z</time>
      </trkpt>
      <trkpt lat="45.86529" lon="4.81842">
        <ele>296.79998779297</ele>
        <time>2011-09-09T20:57:15Z</time>
      </trkpt>
      <trkpt lat="45.86522" lon="4.81841">
        <ele>297.79998779297</ele>
        <time>2011-09-09T20:57:21Z</time>
      </trkpt>
      <trkpt lat="45.86511" lon="4.8184">
        <ele>298.39999389648</ele>
        <time>2011-09-09T20:57:28Z</time>
      </trkpt>
      <trkpt lat="45.865" lon="4.81837">
        <ele>298.79998779297</ele>
        <time>2011-09-09T20:57:36Z</time>
      </trkpt>
      <trkpt lat="45.86499" lon="4.81836">
        <ele>298.79998779297</ele>
        <time>2011-09-09T20:57:37Z</time>
      </trkpt>
      <trkpt lat="45.86494" lon="4.81834">
        <ele>299</ele>
        <time>2011-09-09T20:57:42Z</time>
      </trkpt>
      <trkpt lat="45.8649" lon="4.8183">
        <ele>299</ele>
        <time>2011-09-09T20:57:45Z</time>
      </trkpt>
      <trkpt lat="45.86478" lon="4.81819">
        <ele>300</ele>
        <time>2011-09-09T20:57:54Z</time>
      </trkpt>
      <trkpt lat="45.86472" lon="4.81813">
        <ele>300.39999389648</ele>
        <time>2011-09-09T20:57:59Z</time>
      </trkpt>
      <trkpt lat="45.86466" lon="4.81809">
        <ele>301.39999389648</ele>
        <time>2011-09-09T20:58:04Z</time>
      </trkpt>
      <trkpt lat="45.86464" lon="4.81807">
        <ele>301.39999389648</ele>
        <time>2011-09-09T20:58:05Z</time>
      </trkpt>
      <trkpt lat="45.86452" lon="4.81804">
        <ele>302.39999389648</ele>
        <time>2011-09-09T20:58:11Z</time>
      </trkpt>
      <trkpt lat="45.86451" lon="4.81804">
        <ele>302.39999389648</ele>
        <time>2011-09-09T20:58:12Z</time>
      </trkpt>
      <trkpt lat="45.86442" lon="4.81799">
        <ele>302.79998779297</ele>
        <time>2011-09-09T20:58:19Z</time>
      </trkpt>
      <trkpt lat="45.8644" lon="4.81797">
        <ele>303</ele>
        <time>2011-09-09T20:58:21Z</time>
      </trkpt>
      <trkpt lat="45.86432" lon="4.81788">
        <ele>303.79998779297</ele>
        <time>2011-09-09T20:58:29Z</time>
      </trkpt>
      <trkpt lat="45.86429" lon="4.81785">
        <ele>304.20001220703</ele>
        <time>2011-09-09T20:58:32Z</time>
      </trkpt>
      <trkpt lat="45.86428" lon="4.81777">
        <ele>304.60000610352</ele>
        <time>2011-09-09T20:58:37Z</time>
      </trkpt>
      <trkpt lat="45.86429" lon="4.81764">
        <ele>305</ele>
        <time>2011-09-09T20:58:44Z</time>
      </trkpt>
      <trkpt lat="45.8643" lon="4.81755">
        <ele>306</ele>
        <time>2011-09-09T20:58:50Z</time>
      </trkpt>
      <trkpt lat="45.8643" lon="4.81753">
        <ele>306.20001220703</ele>
        <time>2011-09-09T20:58:51Z</time>
      </trkpt>
      <trkpt lat="45.8643" lon="4.81748">
        <ele>306.60000610352</ele>
        <time>2011-09-09T20:58:54Z</time>
      </trkpt>
      <trkpt lat="45.86431" lon="4.81739">
        <ele>307.20001220703</ele>
        <time>2011-09-09T20:58:58Z</time>
      </trkpt>
      <trkpt lat="45.86431" lon="4.8173">
        <ele>308</ele>
        <time>2011-09-09T20:59:03Z</time>
      </trkpt>
      <trkpt lat="45.86432" lon="4.81725">
        <ele>308.39999389648</ele>
        <time>2011-09-09T20:59:06Z</time>
      </trkpt>
      <trkpt lat="45.86433" lon="4.81711">
        <ele>310</ele>
        <time>2011-09-09T20:59:13Z</time>
      </trkpt>
      <trkpt lat="45.86433" lon="4.81703">
        <ele>310.60000610352</ele>
        <time>2011-09-09T20:59:18Z</time>
      </trkpt>
      <trkpt lat="45.86433" lon="4.81691">
        <ele>312.20001220703</ele>
        <time>2011-09-09T20:59:25Z</time>
      </trkpt>
      <trkpt lat="45.86434" lon="4.81687">
        <ele>312.39999389648</ele>
        <time>2011-09-09T20:59:27Z</time>
      </trkpt>
      <trkpt lat="45.86434" lon="4.81681">
        <ele>313</ele>
        <time>2011-09-09T20:59:31Z</time>
      </trkpt>
      <trkpt lat="45.86436" lon="4.81669">
        <ele>314.20001220703</ele>
        <time>2011-09-09T20:59:38Z</time>
      </trkpt>
      <trkpt lat="45.86437" lon="4.81664">
        <ele>314.60000610352</ele>
        <time>2011-09-09T20:59:41Z</time>
      </trkpt>
      <trkpt lat="45.86438" lon="4.81655">
        <ele>315.79998779297</ele>
        <time>2011-09-09T20:59:46Z</time>
      </trkpt>
      <trkpt lat="45.86438" lon="4.81643">
        <ele>317.20001220703</ele>
        <time>2011-09-09T20:59:52Z</time>
      </trkpt>
      <trkpt lat="45.86438" lon="4.81641">
        <ele>317.60000610352</ele>
        <time>2011-09-09T20:59:53Z</time>
      </trkpt>
      <trkpt lat="45.86436" lon="4.81625">
        <ele>319.79998779297</ele>
        <time>2011-09-09T21:00:01Z</time>
      </trkpt>
      <trkpt lat="45.86434" lon="4.81612">
        <ele>321.79998779297</ele>
        <time>2011-09-09T21:00:08Z</time>
      </trkpt>
      <trkpt lat="45.86434" lon="4.81611">
        <ele>322.20001220703</ele>
        <time>2011-09-09T21:00:09Z</time>
      </trkpt>
      <trkpt lat="45.86431" lon="4.81603">
        <ele>323.20001220703</ele>
        <time>2011-09-09T21:00:13Z</time>
      </trkpt>
      <trkpt lat="45.8643" lon="4.81597">
        <ele>324</ele>
        <time>2011-09-09T21:00:16Z</time>
      </trkpt>
      <trkpt lat="45.86427" lon="4.81588">
        <ele>325</ele>
        <time>2011-09-09T21:00:21Z</time>
      </trkpt>
      <trkpt lat="45.86427" lon="4.81586">
        <ele>325.39999389648</ele>
        <time>2011-09-09T21:00:22Z</time>
      </trkpt>
      <trkpt lat="45.86422" lon="4.81576">
        <ele>327</ele>
        <time>2011-09-09T21:00:28Z</time>
      </trkpt>
      <trkpt lat="45.86419" lon="4.81575">
        <ele>328.39999389648</ele>
        <time>2011-09-09T21:00:34Z</time>
      </trkpt>
      <trkpt lat="45.86419" lon="4.81576">
        <ele>328.60000610352</ele>
        <time>2011-09-09T21:00:35Z</time>
      </trkpt>
      <trkpt lat="45.86419" lon="4.81577">
        <ele>328.79998779297</ele>
        <time>2011-09-09T21:00:36Z</time>
      </trkpt>
      <trkpt lat="45.86419" lon="4.81581">
        <ele>329.39999389648</ele>
        <time>2011-09-09T21:00:39Z</time>
      </trkpt>
      <trkpt lat="45.86419" lon="4.8159">
        <ele>330.60000610352</ele>
        <time>2011-09-09T21:00:44Z</time>
      </trkpt>
      <trkpt lat="45.86419" lon="4.81596">
        <ele>331.39999389648</ele>
        <time>2011-09-09T21:00:48Z</time>
      </trkpt>
      <trkpt lat="45.86417" lon="4.81603">
        <ele>332.39999389648</ele>
        <time>2011-09-09T21:00:54Z</time>
      </trkpt>
      <trkpt lat="45.86416" lon="4.81604">
        <ele>332.60000610352</ele>
        <time>2011-09-09T21:00:55Z</time>
      </trkpt>
      <trkpt lat="45.8641" lon="4.81617">
        <ele>333.79998779297</ele>
        <time>2011-09-09T21:01:03Z</time>
      </trkpt>
      <trkpt lat="45.86401" lon="4.81624">
        <ele>335.39999389648</ele>
        <time>2011-09-09T21:01:11Z</time>
      </trkpt>
      <trkpt lat="45.86389" lon="4.81626">
        <ele>337</ele>
        <time>2011-09-09T21:01:21Z</time>
      </trkpt>
      <trkpt lat="45.86379" lon="4.81624">
        <ele>338.60000610352</ele>
        <time>2011-09-09T21:01:29Z</time>
      </trkpt>
      <trkpt lat="45.86372" lon="4.81617">
        <ele>340.79998779297</ele>
        <time>2011-09-09T21:01:37Z</time>
      </trkpt>
      <trkpt lat="45.86371" lon="4.81614">
        <ele>341.20001220703</ele>
        <time>2011-09-09T21:01:39Z</time>
      </trkpt>
      <trkpt lat="45.86369" lon="4.81604">
        <ele>343.39999389648</ele>
        <time>2011-09-09T21:01:46Z</time>
      </trkpt>
      <trkpt lat="45.86369" lon="4.81603">
        <ele>343.79998779297</ele>
        <time>2011-09-09T21:01:47Z</time>
      </trkpt>
      <trkpt lat="45.86367" lon="4.81599">
        <ele>345.20001220703</ele>
        <time>2011-09-09T21:01:51Z</time>
      </trkpt>
      <trkpt lat="45.86361" lon="4.81589">
        <ele>346.60000610352</ele>
        <time>2011-09-09T21:02:00Z</time>
      </trkpt>
      <trkpt lat="45.8636" lon="4.81587">
        <ele>346.79998779297</ele>
        <time>2011-09-09T21:02:02Z</time>
      </trkpt>
      <trkpt lat="45.86356" lon="4.81581">
        <ele>348.20001220703</ele>
        <time>2011-09-09T21:02:08Z</time>
      </trkpt>
      <trkpt lat="45.86351" lon="4.81575">
        <ele>348.79998779297</ele>
        <time>2011-09-09T21:02:13Z</time>
      </trkpt>
      <trkpt lat="45.86341" lon="4.81571">
        <ele>349.20001220703</ele>
        <time>2011-09-09T21:02:21Z</time>
      </trkpt>
      <trkpt lat="45.8634" lon="4.8157">
        <ele>349.20001220703</ele>
        <time>2011-09-09T21:02:22Z</time>
      </trkpt>
      <trkpt lat="45.86332" lon="4.81565">
        <ele>349.39999389648</ele>
        <time>2011-09-09T21:02:29Z</time>
      </trkpt>
      <trkpt lat="45.86327" lon="4.81557">
        <ele>349.79998779297</ele>
        <time>2011-09-09T21:02:34Z</time>
      </trkpt>
      <trkpt lat="45.86319" lon="4.81554">
        <ele>350.60000610352</ele>
        <time>2011-09-09T21:02:39Z</time>
      </trkpt>
      <trkpt lat="45.86311" lon="4.81547">
        <ele>351.20001220703</ele>
        <time>2011-09-09T21:02:46Z</time>
      </trkpt>
      <trkpt lat="45.86301" lon="4.81545">
        <ele>352.60000610352</ele>
        <time>2011-09-09T21:02:54Z</time>
      </trkpt>
      <trkpt lat="45.863" lon="4.81545">
        <ele>352.79998779297</ele>
        <time>2011-09-09T21:02:55Z</time>
      </trkpt>
      <trkpt lat="45.8629" lon="4.81541">
        <ele>353.39999389648</ele>
        <time>2011-09-09T21:03:03Z</time>
      </trkpt>
      <trkpt lat="45.86285" lon="4.81539">
        <ele>353.39999389648</ele>
        <time>2011-09-09T21:03:07Z</time>
      </trkpt>
      <trkpt lat="45.86269" lon="4.8153">
        <ele>355</ele>
        <time>2011-09-09T21:03:18Z</time>
      </trkpt>
      <trkpt lat="45.8626" lon="4.81527">
        <ele>355.39999389648</ele>
        <time>2011-09-09T21:03:25Z</time>
      </trkpt>
      <trkpt lat="45.86251" lon="4.81523">
        <ele>355.60000610352</ele>
        <time>2011-09-09T21:03:30Z</time>
      </trkpt>
      <trkpt lat="45.86237" lon="4.81522">
        <ele>355.60000610352</ele>
        <time>2011-09-09T21:03:36Z</time>
      </trkpt>
      <trkpt lat="45.86235" lon="4.81522">
        <ele>355.60000610352</ele>
        <time>2011-09-09T21:03:37Z</time>
      </trkpt>
      <trkpt lat="45.86226" lon="4.81516">
        <ele>355.60000610352</ele>
        <time>2011-09-09T21:03:41Z</time>
      </trkpt>
      <trkpt lat="45.86217" lon="4.8151">
        <ele>355.79998779297</ele>
        <time>2011-09-09T21:03:46Z</time>
      </trkpt>
      <trkpt lat="45.86208" lon="4.81505">
        <ele>355.79998779297</ele>
        <time>2011-09-09T21:03:51Z</time>
      </trkpt>
      <trkpt lat="45.86194" lon="4.815">
        <ele>355.79998779297</ele>
        <time>2011-09-09T21:03:56Z</time>
      </trkpt>
      <trkpt lat="45.86179" lon="4.81494">
        <ele>355.79998779297</ele>
        <time>2011-09-09T21:04:01Z</time>
      </trkpt>
      <trkpt lat="45.86166" lon="4.81488">
        <ele>355.79998779297</ele>
        <time>2011-09-09T21:04:06Z</time>
      </trkpt>
      <trkpt lat="45.86153" lon="4.81481">
        <ele>356.39999389648</ele>
        <time>2011-09-09T21:04:11Z</time>
      </trkpt>
      <trkpt lat="45.86142" lon="4.81479">
        <ele>356.79998779297</ele>
        <time>2011-09-09T21:04:15Z</time>
      </trkpt>
      <trkpt lat="45.86127" lon="4.81472">
        <ele>357.20001220703</ele>
        <time>2011-09-09T21:04:20Z</time>
      </trkpt>
      <trkpt lat="45.86111" lon="4.81464">
        <ele>357.39999389648</ele>
        <time>2011-09-09T21:04:26Z</time>
      </trkpt>
      <trkpt lat="45.86096" lon="4.81458">
        <ele>357.60000610352</ele>
        <time>2011-09-09T21:04:32Z</time>
      </trkpt>
      <trkpt lat="45.86083" lon="4.81451">
        <ele>357.79998779297</ele>
        <time>2011-09-09T21:04:37Z</time>
      </trkpt>
      <trkpt lat="45.86073" lon="4.81448">
        <ele>357.79998779297</ele>
        <time>2011-09-09T21:04:42Z</time>
      </trkpt>
      <trkpt lat="45.86066" lon="4.81448">
        <ele>357.79998779297</ele>
        <time>2011-09-09T21:04:46Z</time>
      </trkpt>
      <trkpt lat="45.86055" lon="4.81444">
        <ele>357.79998779297</ele>
        <time>2011-09-09T21:04:52Z</time>
      </trkpt>
      <trkpt lat="45.86044" lon="4.81441">
        <ele>357.79998779297</ele>
        <time>2011-09-09T21:04:57Z</time>
      </trkpt>
      <trkpt lat="45.86042" lon="4.8144">
        <ele>357.79998779297</ele>
        <time>2011-09-09T21:04:58Z</time>
      </trkpt>
      <trkpt lat="45.86032" lon="4.81437">
        <ele>357.79998779297</ele>
        <time>2011-09-09T21:05:03Z</time>
      </trkpt>
      <trkpt lat="45.86018" lon="4.81432">
        <ele>357.79998779297</ele>
        <time>2011-09-09T21:05:10Z</time>
      </trkpt>
      <trkpt lat="45.86009" lon="4.81429">
        <ele>358.79998779297</ele>
        <time>2011-09-09T21:05:16Z</time>
      </trkpt>
      <trkpt lat="45.86008" lon="4.81429">
        <ele>358.79998779297</ele>
        <time>2011-09-09T21:05:17Z</time>
      </trkpt>
      <trkpt lat="45.85999" lon="4.81427">
        <ele>359.20001220703</ele>
        <time>2011-09-09T21:05:23Z</time>
      </trkpt>
      <trkpt lat="45.85991" lon="4.81423">
        <ele>359.60000610352</ele>
        <time>2011-09-09T21:05:29Z</time>
      </trkpt>
      <trkpt lat="45.85986" lon="4.81418">
        <ele>359.60000610352</ele>
        <time>2011-09-09T21:05:32Z</time>
      </trkpt>
      <trkpt lat="45.85978" lon="4.81411">
        <ele>359.60000610352</ele>
        <time>2011-09-09T21:05:37Z</time>
      </trkpt>
      <trkpt lat="45.85969" lon="4.81406">
        <ele>359.79998779297</ele>
        <time>2011-09-09T21:05:42Z</time>
      </trkpt>
      <trkpt lat="45.85963" lon="4.81402">
        <ele>359.79998779297</ele>
        <time>2011-09-09T21:05:45Z</time>
      </trkpt>
      <trkpt lat="45.8595" lon="4.81395">
        <ele>359.79998779297</ele>
        <time>2011-09-09T21:05:51Z</time>
      </trkpt>
      <trkpt lat="45.8594" lon="4.81389">
        <ele>359.79998779297</ele>
        <time>2011-09-09T21:05:56Z</time>
      </trkpt>
      <trkpt lat="45.85932" lon="4.81387">
        <ele>359.79998779297</ele>
        <time>2011-09-09T21:06:00Z</time>
      </trkpt>
      <trkpt lat="45.85931" lon="4.81387">
        <ele>359.79998779297</ele>
        <time>2011-09-09T21:06:01Z</time>
      </trkpt>
      <trkpt lat="45.85924" lon="4.81384">
        <ele>359.79998779297</ele>
        <time>2011-09-09T21:06:06Z</time>
      </trkpt>
      <trkpt lat="45.85918" lon="4.81381">
        <ele>359.79998779297</ele>
        <time>2011-09-09T21:06:10Z</time>
      </trkpt>
      <trkpt lat="45.8591" lon="4.81389">
        <ele>360.79998779297</ele>
        <time>2011-09-09T21:06:16Z</time>
      </trkpt>
      <trkpt lat="45.85909" lon="4.81391">
        <ele>361</ele>
        <time>2011-09-09T21:06:17Z</time>
      </trkpt>
      <trkpt lat="45.85901" lon="4.81396">
        <ele>361.79998779297</ele>
        <time>2011-09-09T21:06:21Z</time>
      </trkpt>
      <trkpt lat="45.85896" lon="4.81399">
        <ele>363</ele>
        <time>2011-09-09T21:06:27Z</time>
      </trkpt>
      <trkpt lat="45.85892" lon="4.81397">
        <ele>364</ele>
        <time>2011-09-09T21:06:31Z</time>
      </trkpt>
      <trkpt lat="45.8589" lon="4.81396">
        <ele>364.60000610352</ele>
        <time>2011-09-09T21:06:34Z</time>
      </trkpt>
      <trkpt lat="45.85885" lon="4.81399">
        <ele>365.79998779297</ele>
        <time>2011-09-09T21:06:39Z</time>
      </trkpt>
      <trkpt lat="45.85882" lon="4.814">
        <ele>366.60000610352</ele>
        <time>2011-09-09T21:06:42Z</time>
      </trkpt>
      <trkpt lat="45.8588" lon="4.81401">
        <ele>366.79998779297</ele>
        <time>2011-09-09T21:06:44Z</time>
      </trkpt>
      <trkpt lat="45.85878" lon="4.81403">
        <ele>367.60000610352</ele>
        <time>2011-09-09T21:06:48Z</time>
      </trkpt>
      <trkpt lat="45.85876" lon="4.81403">
        <ele>368.20001220703</ele>
        <time>2011-09-09T21:06:50Z</time>
      </trkpt>
      <trkpt lat="45.85873" lon="4.81405">
        <ele>369</ele>
        <time>2011-09-09T21:06:55Z</time>
      </trkpt>
      <trkpt lat="45.85869" lon="4.81405">
        <ele>369.60000610352</ele>
        <time>2011-09-09T21:07:00Z</time>
      </trkpt>
      <trkpt lat="45.85862" lon="4.81405">
        <ele>370</ele>
        <time>2011-09-09T21:07:08Z</time>
      </trkpt>
      <trkpt lat="45.85857" lon="4.81404">
        <ele>371</ele>
        <time>2011-09-09T21:07:15Z</time>
      </trkpt>
      <trkpt lat="45.85856" lon="4.81405">
        <ele>371</ele>
        <time>2011-09-09T21:07:16Z</time>
      </trkpt>
      <trkpt lat="45.85852" lon="4.81406">
        <ele>371.39999389648</ele>
        <time>2011-09-09T21:07:20Z</time>
      </trkpt>
      <trkpt lat="45.85851" lon="4.81406">
        <ele>371.60000610352</ele>
        <time>2011-09-09T21:07:22Z</time>
      </trkpt>
      <trkpt lat="45.85847" lon="4.81408">
        <ele>372.20001220703</ele>
        <time>2011-09-09T21:07:27Z</time>
      </trkpt>
      <trkpt lat="45.85844" lon="4.8141">
        <ele>373.60000610352</ele>
        <time>2011-09-09T21:07:34Z</time>
      </trkpt>
      <trkpt lat="45.85841" lon="4.81413">
        <ele>375</ele>
        <time>2011-09-09T21:07:40Z</time>
      </trkpt>
      <trkpt lat="45.85838" lon="4.81417">
        <ele>376.60000610352</ele>
        <time>2011-09-09T21:07:45Z</time>
      </trkpt>
      <trkpt lat="45.85835" lon="4.81419">
        <ele>378</ele>
        <time>2011-09-09T21:07:50Z</time>
      </trkpt>
      <trkpt lat="45.85831" lon="4.81421">
        <ele>379.20001220703</ele>
        <time>2011-09-09T21:07:55Z</time>
      </trkpt>
      <trkpt lat="45.85827" lon="4.81421">
        <ele>380.79998779297</ele>
        <time>2011-09-09T21:08:01Z</time>
      </trkpt>
      <trkpt lat="45.85824" lon="4.81422">
        <ele>381.60000610352</ele>
        <time>2011-09-09T21:08:05Z</time>
      </trkpt>
      <trkpt lat="45.85819" lon="4.81426">
        <ele>383.20001220703</ele>
        <time>2011-09-09T21:08:12Z</time>
      </trkpt>
      <trkpt lat="45.85816" lon="4.81427">
        <ele>384.20001220703</ele>
        <time>2011-09-09T21:08:18Z</time>
      </trkpt>
      <trkpt lat="45.85812" lon="4.81428">
        <ele>385.39999389648</ele>
        <time>2011-09-09T21:08:23Z</time>
      </trkpt>
      <trkpt lat="45.85809" lon="4.8143">
        <ele>386.20001220703</ele>
        <time>2011-09-09T21:08:29Z</time>
      </trkpt>
      <trkpt lat="45.85805" lon="4.81432">
        <ele>387.39999389648</ele>
        <time>2011-09-09T21:08:34Z</time>
      </trkpt>
      <trkpt lat="45.85801" lon="4.81431">
        <ele>388</ele>
        <time>2011-09-09T21:08:38Z</time>
      </trkpt>
      <trkpt lat="45.85799" lon="4.8143">
        <ele>388.39999389648</ele>
        <time>2011-09-09T21:08:41Z</time>
      </trkpt>
      <trkpt lat="45.85794" lon="4.8143">
        <ele>389.60000610352</ele>
        <time>2011-09-09T21:08:48Z</time>
      </trkpt>
      <trkpt lat="45.85789" lon="4.81431">
        <ele>390.20001220703</ele>
        <time>2011-09-09T21:08:53Z</time>
      </trkpt>
      <trkpt lat="45.85782" lon="4.81431">
        <ele>391.79998779297</ele>
        <time>2011-09-09T21:09:02Z</time>
      </trkpt>
      <trkpt lat="45.85776" lon="4.81433">
        <ele>392.60000610352</ele>
        <time>2011-09-09T21:09:09Z</time>
      </trkpt>
      <trkpt lat="45.85769" lon="4.81433">
        <ele>393.20001220703</ele>
        <time>2011-09-09T21:09:15Z</time>
      </trkpt>
      <trkpt lat="45.85755" lon="4.81424">
        <ele>395.39999389648</ele>
        <time>2011-09-09T21:09:29Z</time>
      </trkpt>
      <trkpt lat="45.8575" lon="4.81421">
        <ele>396.39999389648</ele>
        <time>2011-09-09T21:09:35Z</time>
      </trkpt>
      <trkpt lat="45.85745" lon="4.8142">
        <ele>396.79998779297</ele>
        <time>2011-09-09T21:09:39Z</time>
      </trkpt>
      <trkpt lat="45.85744" lon="4.81419">
        <ele>396.79998779297</ele>
        <time>2011-09-09T21:09:40Z</time>
      </trkpt>
      <trkpt lat="45.85739" lon="4.81415">
        <ele>397.79998779297</ele>
        <time>2011-09-09T21:09:46Z</time>
      </trkpt>
      <trkpt lat="45.85733" lon="4.81412">
        <ele>398.60000610352</ele>
        <time>2011-09-09T21:09:51Z</time>
      </trkpt>
      <trkpt lat="45.85732" lon="4.81411">
        <ele>398.60000610352</ele>
        <time>2011-09-09T21:09:52Z</time>
      </trkpt>
      <trkpt lat="45.85729" lon="4.8141">
        <ele>398.79998779297</ele>
        <time>2011-09-09T21:09:55Z</time>
      </trkpt>
      <trkpt lat="45.85725" lon="4.81407">
        <ele>400</ele>
        <time>2011-09-09T21:10:00Z</time>
      </trkpt>
      <trkpt lat="45.85717" lon="4.81405">
        <ele>400.79998779297</ele>
        <time>2011-09-09T21:10:07Z</time>
      </trkpt>
      <trkpt lat="45.85713" lon="4.81403">
        <ele>401.79998779297</ele>
        <time>2011-09-09T21:10:11Z</time>
      </trkpt>
      <trkpt lat="45.85712" lon="4.81402">
        <ele>402</ele>
        <time>2011-09-09T21:10:12Z</time>
      </trkpt>
      <trkpt lat="45.85711" lon="4.81401">
        <ele>402.20001220703</ele>
        <time>2011-09-09T21:10:13Z</time>
      </trkpt>
      <trkpt lat="45.8571" lon="4.81401">
        <ele>402.39999389648</ele>
        <time>2011-09-09T21:10:14Z</time>
      </trkpt>
      <trkpt lat="45.85706" lon="4.81398">
        <ele>403.20001220703</ele>
        <time>2011-09-09T21:10:18Z</time>
      </trkpt>
      <trkpt lat="45.857" lon="4.81395">
        <ele>404.20001220703</ele>
        <time>2011-09-09T21:10:23Z</time>
      </trkpt>
      <trkpt lat="45.85699" lon="4.81395">
        <ele>404.39999389648</ele>
        <time>2011-09-09T21:10:24Z</time>
      </trkpt>
      <trkpt lat="45.85691" lon="4.81389">
        <ele>406</ele>
        <time>2011-09-09T21:10:31Z</time>
      </trkpt>
      <trkpt lat="45.85684" lon="4.81383">
        <ele>407.20001220703</ele>
        <time>2011-09-09T21:10:39Z</time>
      </trkpt>
      <trkpt lat="45.8568" lon="4.8138">
        <ele>407.60000610352</ele>
        <time>2011-09-09T21:10:43Z</time>
      </trkpt>
      <trkpt lat="45.85673" lon="4.81375">
        <ele>408.79998779297</ele>
        <time>2011-09-09T21:10:50Z</time>
      </trkpt>
      <trkpt lat="45.85667" lon="4.8137">
        <ele>409.39999389648</ele>
        <time>2011-09-09T21:10:56Z</time>
      </trkpt>
      <trkpt lat="45.85662" lon="4.81367">
        <ele>409.60000610352</ele>
        <time>2011-09-09T21:11:01Z</time>
      </trkpt>
      <trkpt lat="45.85657" lon="4.81364">
        <ele>410.60000610352</ele>
        <time>2011-09-09T21:11:06Z</time>
      </trkpt>
      <trkpt lat="45.85655" lon="4.81358">
        <ele>411.20001220703</ele>
        <time>2011-09-09T21:11:11Z</time>
      </trkpt>
      <trkpt lat="45.85647" lon="4.81361">
        <ele>411.60000610352</ele>
        <time>2011-09-09T21:11:18Z</time>
      </trkpt>
      <trkpt lat="45.85637" lon="4.81355">
        <ele>412.79998779297</ele>
        <time>2011-09-09T21:11:27Z</time>
      </trkpt>
      <trkpt lat="45.85628" lon="4.8135">
        <ele>413.79998779297</ele>
        <time>2011-09-09T21:11:34Z</time>
      </trkpt>
      <trkpt lat="45.85627" lon="4.81349">
        <ele>414</ele>
        <time>2011-09-09T21:11:35Z</time>
      </trkpt>
      <trkpt lat="45.85621" lon="4.81346">
        <ele>414.79998779297</ele>
        <time>2011-09-09T21:11:40Z</time>
      </trkpt>
      <trkpt lat="45.85612" lon="4.8134">
        <ele>416.39999389648</ele>
        <time>2011-09-09T21:11:48Z</time>
      </trkpt>
      <trkpt lat="45.85611" lon="4.8134">
        <ele>416.60000610352</ele>
        <time>2011-09-09T21:11:49Z</time>
      </trkpt>
      <trkpt lat="45.85608" lon="4.81338">
        <ele>417</ele>
        <time>2011-09-09T21:11:52Z</time>
      </trkpt>
      <trkpt lat="45.85604" lon="4.81335">
        <ele>418</ele>
        <time>2011-09-09T21:11:55Z</time>
      </trkpt>
      <trkpt lat="45.85596" lon="4.81331">
        <ele>419.79998779297</ele>
        <time>2011-09-09T21:12:02Z</time>
      </trkpt>
      <trkpt lat="45.85595" lon="4.81331">
        <ele>420.20001220703</ele>
        <time>2011-09-09T21:12:03Z</time>
      </trkpt>
      <trkpt lat="45.85586" lon="4.81326">
        <ele>422.20001220703</ele>
        <time>2011-09-09T21:12:10Z</time>
      </trkpt>
      <trkpt lat="45.85574" lon="4.81321">
        <ele>424.20001220703</ele>
        <time>2011-09-09T21:12:19Z</time>
      </trkpt>
      <trkpt lat="45.85564" lon="4.81315">
        <ele>425.60000610352</ele>
        <time>2011-09-09T21:12:27Z</time>
      </trkpt>
      <trkpt lat="45.85555" lon="4.81312">
        <ele>427.39999389648</ele>
        <time>2011-09-09T21:12:34Z</time>
      </trkpt>
      <trkpt lat="45.8555" lon="4.81309">
        <ele>428</ele>
        <time>2011-09-09T21:12:39Z</time>
      </trkpt>
      <trkpt lat="45.85543" lon="4.81305">
        <ele>428.39999389648</ele>
        <time>2011-09-09T21:12:45Z</time>
      </trkpt>
      <trkpt lat="45.85542" lon="4.81305">
        <ele>428.39999389648</ele>
        <time>2011-09-09T21:12:46Z</time>
      </trkpt>
      <trkpt lat="45.85535" lon="4.813">
        <ele>428.60000610352</ele>
        <time>2011-09-09T21:12:51Z</time>
      </trkpt>
      <trkpt lat="45.85526" lon="4.81296">
        <ele>428.60000610352</ele>
        <time>2011-09-09T21:12:58Z</time>
      </trkpt>
      <trkpt lat="45.85516" lon="4.81291">
        <ele>429.60000610352</ele>
        <time>2011-09-09T21:13:05Z</time>
      </trkpt>
      <trkpt lat="45.85515" lon="4.81291">
        <ele>429.79998779297</ele>
        <time>2011-09-09T21:13:06Z</time>
      </trkpt>
      <trkpt lat="45.85506" lon="4.81293">
        <ele>430.60000610352</ele>
        <time>2011-09-09T21:13:13Z</time>
      </trkpt>
      <trkpt lat="45.85497" lon="4.81295">
        <ele>431.60000610352</ele>
        <time>2011-09-09T21:13:19Z</time>
      </trkpt>
      <trkpt lat="45.85493" lon="4.81294">
        <ele>432.60000610352</ele>
        <time>2011-09-09T21:13:24Z</time>
      </trkpt>
      <trkpt lat="45.85492" lon="4.81293">
        <ele>433.20001220703</ele>
        <time>2011-09-09T21:13:27Z</time>
      </trkpt>
      <trkpt lat="45.85486" lon="4.81291">
        <ele>434.20001220703</ele>
        <time>2011-09-09T21:13:34Z</time>
      </trkpt>
      <trkpt lat="45.85481" lon="4.81287">
        <ele>435.20001220703</ele>
        <time>2011-09-09T21:13:40Z</time>
      </trkpt>
      <trkpt lat="45.8548" lon="4.81287">
        <ele>435.39999389648</ele>
        <time>2011-09-09T21:13:41Z</time>
      </trkpt>
      <trkpt lat="45.85477" lon="4.81288">
        <ele>436</ele>
        <time>2011-09-09T21:13:44Z</time>
      </trkpt>
      <trkpt lat="45.85473" lon="4.81286">
        <ele>436.39999389648</ele>
        <time>2011-09-09T21:13:49Z</time>
      </trkpt>
      <trkpt lat="45.85469" lon="4.81287">
        <ele>436.60000610352</ele>
        <time>2011-09-09T21:13:54Z</time>
      </trkpt>
      <trkpt lat="45.85469" lon="4.81287">
        <ele>436.79998779297</ele>
        <time>2011-09-09T21:13:55Z</time>
      </trkpt>
      <trkpt lat="45.85467" lon="4.81287">
        <ele>436.79998779297</ele>
        <time>2011-09-09T21:13:57Z</time>
      </trkpt>
      <trkpt lat="45.85462" lon="4.81285">
        <ele>437.79998779297</ele>
        <time>2011-09-09T21:14:03Z</time>
      </trkpt>
      <trkpt lat="45.85458" lon="4.81284">
        <ele>438.39999389648</ele>
        <time>2011-09-09T21:14:08Z</time>
      </trkpt>
      <trkpt lat="45.85453" lon="4.81283">
        <ele>438.79998779297</ele>
        <time>2011-09-09T21:14:14Z</time>
      </trkpt>
      <trkpt lat="45.85447" lon="4.81281">
        <ele>439</ele>
        <time>2011-09-09T21:14:21Z</time>
      </trkpt>
      <trkpt lat="45.85441" lon="4.81279">
        <ele>439</ele>
        <time>2011-09-09T21:14:27Z</time>
      </trkpt>
      <trkpt lat="45.85439" lon="4.81278">
        <ele>439.20001220703</ele>
        <time>2011-09-09T21:14:29Z</time>
      </trkpt>
      <trkpt lat="45.85432" lon="4.81277">
        <ele>440.20001220703</ele>
        <time>2011-09-09T21:14:36Z</time>
      </trkpt>
      <trkpt lat="45.85428" lon="4.81277">
        <ele>440.39999389648</ele>
        <time>2011-09-09T21:14:39Z</time>
      </trkpt>
      <trkpt lat="45.85426" lon="4.81277">
        <ele>440.60000610352</ele>
        <time>2011-09-09T21:14:41Z</time>
      </trkpt>
      <trkpt lat="45.85421" lon="4.81277">
        <ele>441.79998779297</ele>
        <time>2011-09-09T21:14:46Z</time>
      </trkpt>
      <trkpt lat="45.85417" lon="4.81274">
        <ele>442.20001220703</ele>
        <time>2011-09-09T21:14:50Z</time>
      </trkpt>
      <trkpt lat="45.85416" lon="4.81274">
        <ele>442.39999389648</ele>
        <time>2011-09-09T21:14:51Z</time>
      </trkpt>
      <trkpt lat="45.85416" lon="4.81274">
        <ele>442.60000610352</ele>
        <time>2011-09-09T21:14:52Z</time>
      </trkpt>
      <trkpt lat="45.85414" lon="4.81272">
        <ele>443.39999389648</ele>
        <time>2011-09-09T21:14:55Z</time>
      </trkpt>
      <trkpt lat="45.85409" lon="4.81269">
        <ele>444.39999389648</ele>
        <time>2011-09-09T21:15:01Z</time>
      </trkpt>
      <trkpt lat="45.85405" lon="4.81268">
        <ele>445.39999389648</ele>
        <time>2011-09-09T21:15:05Z</time>
      </trkpt>
      <trkpt lat="45.85402" lon="4.81267">
        <ele>446.20001220703</ele>
        <time>2011-09-09T21:15:09Z</time>
      </trkpt>
      <trkpt lat="45.85397" lon="4.81263">
        <ele>446.79998779297</ele>
        <time>2011-09-09T21:15:13Z</time>
      </trkpt>
      <trkpt lat="45.8539" lon="4.8126">
        <ele>447.60000610352</ele>
        <time>2011-09-09T21:15:19Z</time>
      </trkpt>
      <trkpt lat="45.85383" lon="4.81257">
        <ele>448.39999389648</ele>
        <time>2011-09-09T21:15:24Z</time>
      </trkpt>
      <trkpt lat="45.85381" lon="4.81256">
        <ele>448.60000610352</ele>
        <time>2011-09-09T21:15:25Z</time>
      </trkpt>
      <trkpt lat="45.85374" lon="4.81249">
        <ele>450</ele>
        <time>2011-09-09T21:15:31Z</time>
      </trkpt>
      <trkpt lat="45.85373" lon="4.81248">
        <ele>450.20001220703</ele>
        <time>2011-09-09T21:15:32Z</time>
      </trkpt>
      <trkpt lat="45.85363" lon="4.8124">
        <ele>452</ele>
        <time>2011-09-09T21:15:38Z</time>
      </trkpt>
      <trkpt lat="45.85355" lon="4.81234">
        <ele>453.39999389648</ele>
        <time>2011-09-09T21:15:42Z</time>
      </trkpt>
      <trkpt lat="45.85345" lon="4.81223">
        <ele>455.39999389648</ele>
        <time>2011-09-09T21:15:48Z</time>
      </trkpt>
      <trkpt lat="45.85339" lon="4.81217">
        <ele>456.60000610352</ele>
        <time>2011-09-09T21:15:52Z</time>
      </trkpt>
      <trkpt lat="45.85332" lon="4.81212">
        <ele>457.39999389648</ele>
        <time>2011-09-09T21:15:56Z</time>
      </trkpt>
      <trkpt lat="45.85324" lon="4.81206">
        <ele>458</ele>
        <time>2011-09-09T21:16:02Z</time>
      </trkpt>
      <trkpt lat="45.85319" lon="4.81203">
        <ele>458.60000610352</ele>
        <time>2011-09-09T21:16:05Z</time>
      </trkpt>
      <trkpt lat="45.85311" lon="4.812">
        <ele>459.60000610352</ele>
        <time>2011-09-09T21:16:11Z</time>
      </trkpt>
      <trkpt lat="45.853" lon="4.8119">
        <ele>460.39999389648</ele>
        <time>2011-09-09T21:16:19Z</time>
      </trkpt>
      <trkpt lat="45.85293" lon="4.81179">
        <ele>460.60000610352</ele>
        <time>2011-09-09T21:16:26Z</time>
      </trkpt>
      <trkpt lat="45.85287" lon="4.8117">
        <ele>460.79998779297</ele>
        <time>2011-09-09T21:16:32Z</time>
      </trkpt>
      <trkpt lat="45.85284" lon="4.81166">
        <ele>461.20001220703</ele>
        <time>2011-09-09T21:16:34Z</time>
      </trkpt>
      <trkpt lat="45.85281" lon="4.81159">
        <ele>461.39999389648</ele>
        <time>2011-09-09T21:16:36Z</time>
      </trkpt>
      <trkpt lat="45.85273" lon="4.81148">
        <ele>462.20001220703</ele>
        <time>2011-09-09T21:16:43Z</time>
      </trkpt>
      <trkpt lat="45.85265" lon="4.81141">
        <ele>463.20001220703</ele>
        <time>2011-09-09T21:16:49Z</time>
      </trkpt>
      <trkpt lat="45.85258" lon="4.81132">
        <ele>464</ele>
        <time>2011-09-09T21:16:55Z</time>
      </trkpt>
      <trkpt lat="45.85255" lon="4.81128">
        <ele>464.20001220703</ele>
        <time>2011-09-09T21:16:58Z</time>
      </trkpt>
      <trkpt lat="45.85249" lon="4.81123">
        <ele>465.20001220703</ele>
        <time>2011-09-09T21:17:03Z</time>
      </trkpt>
      <trkpt lat="45.85248" lon="4.81122">
        <ele>465.20001220703</ele>
        <time>2011-09-09T21:17:04Z</time>
      </trkpt>
      <trkpt lat="45.85242" lon="4.81118">
        <ele>465.79998779297</ele>
        <time>2011-09-09T21:17:08Z</time>
      </trkpt>
      <trkpt lat="45.85239" lon="4.81115">
        <ele>466</ele>
        <time>2011-09-09T21:17:10Z</time>
      </trkpt>
      <trkpt lat="45.85229" lon="4.8111">
        <ele>466.60000610352</ele>
        <time>2011-09-09T21:17:16Z</time>
      </trkpt>
      <trkpt lat="45.85223" lon="4.81104">
        <ele>467.60000610352</ele>
        <time>2011-09-09T21:17:21Z</time>
      </trkpt>
      <trkpt lat="45.85219" lon="4.81101">
        <ele>468</ele>
        <time>2011-09-09T21:17:24Z</time>
      </trkpt>
      <trkpt lat="45.85213" lon="4.81095">
        <ele>468.60000610352</ele>
        <time>2011-09-09T21:17:30Z</time>
      </trkpt>
      <trkpt lat="45.85212" lon="4.81093">
        <ele>468.60000610352</ele>
        <time>2011-09-09T21:17:31Z</time>
      </trkpt>
      <trkpt lat="45.85205" lon="4.81086">
        <ele>468.79998779297</ele>
        <time>2011-09-09T21:17:38Z</time>
      </trkpt>
      <trkpt lat="45.85204" lon="4.81085">
        <ele>469</ele>
        <time>2011-09-09T21:17:39Z</time>
      </trkpt>
      <trkpt lat="45.85196" lon="4.81076">
        <ele>470</ele>
        <time>2011-09-09T21:17:46Z</time>
      </trkpt>
      <trkpt lat="45.85195" lon="4.81074">
        <ele>470.20001220703</ele>
        <time>2011-09-09T21:17:47Z</time>
      </trkpt>
      <trkpt lat="45.85191" lon="4.81066">
        <ele>470.60000610352</ele>
        <time>2011-09-09T21:17:52Z</time>
      </trkpt>
      <trkpt lat="45.85184" lon="4.81058">
        <ele>470.79998779297</ele>
        <time>2011-09-09T21:17:58Z</time>
      </trkpt>
      <trkpt lat="45.85182" lon="4.81053">
        <ele>471</ele>
        <time>2011-09-09T21:18:01Z</time>
      </trkpt>
      <trkpt lat="45.85178" lon="4.81048">
        <ele>471</ele>
        <time>2011-09-09T21:18:06Z</time>
      </trkpt>
      <trkpt lat="45.85169" lon="4.81035">
        <ele>472</ele>
        <time>2011-09-09T21:18:14Z</time>
      </trkpt>
      <trkpt lat="45.85163" lon="4.81025">
        <ele>472.60000610352</ele>
        <time>2011-09-09T21:18:19Z</time>
      </trkpt>
      <trkpt lat="45.85157" lon="4.81017">
        <ele>473.79998779297</ele>
        <time>2011-09-09T21:18:24Z</time>
      </trkpt>
      <trkpt lat="45.85155" lon="4.81016">
        <ele>473.79998779297</ele>
        <time>2011-09-09T21:18:25Z</time>
      </trkpt>
      <trkpt lat="45.85147" lon="4.81011">
        <ele>475.20001220703</ele>
        <time>2011-09-09T21:18:30Z</time>
      </trkpt>
      <trkpt lat="45.85146" lon="4.8101">
        <ele>475.39999389648</ele>
        <time>2011-09-09T21:18:31Z</time>
      </trkpt>
      <trkpt lat="45.85138" lon="4.81006">
        <ele>476.20001220703</ele>
        <time>2011-09-09T21:18:36Z</time>
      </trkpt>
      <trkpt lat="45.85132" lon="4.80999">
        <ele>476.79998779297</ele>
        <time>2011-09-09T21:18:41Z</time>
      </trkpt>
      <trkpt lat="45.85125" lon="4.80991">
        <ele>477</ele>
        <time>2011-09-09T21:18:46Z</time>
      </trkpt>
      <trkpt lat="45.85124" lon="4.80988">
        <ele>477</ele>
        <time>2011-09-09T21:18:47Z</time>
      </trkpt>
      <trkpt lat="45.85117" lon="4.80976">
        <ele>477.79998779297</ele>
        <time>2011-09-09T21:18:52Z</time>
      </trkpt>
      <trkpt lat="45.85109" lon="4.80964">
        <ele>478.60000610352</ele>
        <time>2011-09-09T21:18:57Z</time>
      </trkpt>
      <trkpt lat="45.85108" lon="4.80962">
        <ele>478.60000610352</ele>
        <time>2011-09-09T21:18:58Z</time>
      </trkpt>
      <trkpt lat="45.85096" lon="4.80947">
        <ele>479</ele>
        <time>2011-09-09T21:19:05Z</time>
      </trkpt>
      <trkpt lat="45.85091" lon="4.80939">
        <ele>480</ele>
        <time>2011-09-09T21:19:09Z</time>
      </trkpt>
      <trkpt lat="45.85085" lon="4.80928">
        <ele>480.79998779297</ele>
        <time>2011-09-09T21:19:16Z</time>
      </trkpt>
      <trkpt lat="45.85084" lon="4.80926">
        <ele>480.79998779297</ele>
        <time>2011-09-09T21:19:17Z</time>
      </trkpt>
      <trkpt lat="45.85076" lon="4.8091">
        <ele>481.20001220703</ele>
        <time>2011-09-09T21:19:26Z</time>
      </trkpt>
      <trkpt lat="45.8507" lon="4.80901">
        <ele>481.39999389648</ele>
        <time>2011-09-09T21:19:31Z</time>
      </trkpt>
      <trkpt lat="45.85064" lon="4.80891">
        <ele>481.60000610352</ele>
        <time>2011-09-09T21:19:37Z</time>
      </trkpt>
      <trkpt lat="45.85057" lon="4.80882">
        <ele>481.60000610352</ele>
        <time>2011-09-09T21:19:42Z</time>
      </trkpt>
      <trkpt lat="45.85048" lon="4.80872">
        <ele>481.60000610352</ele>
        <time>2011-09-09T21:19:49Z</time>
      </trkpt>
      <trkpt lat="45.85046" lon="4.80869">
        <ele>481.60000610352</ele>
        <time>2011-09-09T21:19:50Z</time>
      </trkpt>
      <trkpt lat="45.85043" lon="4.8086">
        <ele>482</ele>
        <time>2011-09-09T21:19:53Z</time>
      </trkpt>
      <trkpt lat="45.8504" lon="4.80855">
        <ele>482.39999389648</ele>
        <time>2011-09-09T21:19:55Z</time>
      </trkpt>
      <trkpt lat="45.85033" lon="4.80846">
        <ele>482.79998779297</ele>
        <time>2011-09-09T21:19:59Z</time>
      </trkpt>
      <trkpt lat="45.85025" lon="4.80835">
        <ele>484</ele>
        <time>2011-09-09T21:20:04Z</time>
      </trkpt>
      <trkpt lat="45.85019" lon="4.80821">
        <ele>485.20001220703</ele>
        <time>2011-09-09T21:20:09Z</time>
      </trkpt>
      <trkpt lat="45.85018" lon="4.80819">
        <ele>485.60000610352</ele>
        <time>2011-09-09T21:20:10Z</time>
      </trkpt>
      <trkpt lat="45.85012" lon="4.8081">
        <ele>486.79998779297</ele>
        <time>2011-09-09T21:20:16Z</time>
      </trkpt>
      <trkpt lat="45.8501" lon="4.80807">
        <ele>487.39999389648</ele>
        <time>2011-09-09T21:20:18Z</time>
      </trkpt>
      <trkpt lat="45.85006" lon="4.808">
        <ele>488.60000610352</ele>
        <time>2011-09-09T21:20:23Z</time>
      </trkpt>
      <trkpt lat="45.85003" lon="4.80793">
        <ele>489.60000610352</ele>
        <time>2011-09-09T21:20:27Z</time>
      </trkpt>
      <trkpt lat="45.84998" lon="4.80781">
        <ele>491</ele>
        <time>2011-09-09T21:20:34Z</time>
      </trkpt>
      <trkpt lat="45.84996" lon="4.80779">
        <ele>491.20001220703</ele>
        <time>2011-09-09T21:20:35Z</time>
      </trkpt>
      <trkpt lat="45.84991" lon="4.80768">
        <ele>491.60000610352</ele>
        <time>2011-09-09T21:20:40Z</time>
      </trkpt>
      <trkpt lat="45.8499" lon="4.80766">
        <ele>491.60000610352</ele>
        <time>2011-09-09T21:20:41Z</time>
      </trkpt>
      <trkpt lat="45.84984" lon="4.80753">
        <ele>492</ele>
        <time>2011-09-09T21:20:48Z</time>
      </trkpt>
      <trkpt lat="45.84983" lon="4.80751">
        <ele>492</ele>
        <time>2011-09-09T21:20:49Z</time>
      </trkpt>
      <trkpt lat="45.84979" lon="4.80741">
        <ele>492.20001220703</ele>
        <time>2011-09-09T21:20:54Z</time>
      </trkpt>
      <trkpt lat="45.84977" lon="4.80737">
        <ele>492.20001220703</ele>
        <time>2011-09-09T21:20:56Z</time>
      </trkpt>
      <trkpt lat="45.84973" lon="4.80727">
        <ele>492.20001220703</ele>
        <time>2011-09-09T21:21:00Z</time>
      </trkpt>
      <trkpt lat="45.84967" lon="4.80714">
        <ele>492.20001220703</ele>
        <time>2011-09-09T21:21:06Z</time>
      </trkpt>
      <trkpt lat="45.84962" lon="4.80703">
        <ele>492.20001220703</ele>
        <time>2011-09-09T21:21:12Z</time>
      </trkpt>
      <trkpt lat="45.84954" lon="4.80691">
        <ele>492.20001220703</ele>
        <time>2011-09-09T21:21:19Z</time>
      </trkpt>
      <trkpt lat="45.84948" lon="4.80685">
        <ele>492.20001220703</ele>
        <time>2011-09-09T21:21:24Z</time>
      </trkpt>
      <trkpt lat="45.84943" lon="4.80682">
        <ele>492.20001220703</ele>
        <time>2011-09-09T21:21:28Z</time>
      </trkpt>
      <trkpt lat="45.84933" lon="4.80678">
        <ele>493.39999389648</ele>
        <time>2011-09-09T21:21:36Z</time>
      </trkpt>
      <trkpt lat="45.84922" lon="4.80674">
        <ele>494.60000610352</ele>
        <time>2011-09-09T21:21:42Z</time>
      </trkpt>
      <trkpt lat="45.84919" lon="4.80674">
        <ele>494.79998779297</ele>
        <time>2011-09-09T21:21:43Z</time>
      </trkpt>
      <trkpt lat="45.84905" lon="4.80671">
        <ele>495.60000610352</ele>
        <time>2011-09-09T21:21:49Z</time>
      </trkpt>
      <trkpt lat="45.84903" lon="4.8067">
        <ele>495.79998779297</ele>
        <time>2011-09-09T21:21:50Z</time>
      </trkpt>
      <trkpt lat="45.84887" lon="4.80662">
        <ele>496.20001220703</ele>
        <time>2011-09-09T21:21:57Z</time>
      </trkpt>
      <trkpt lat="45.84874" lon="4.80658">
        <ele>496.79998779297</ele>
        <time>2011-09-09T21:22:03Z</time>
      </trkpt>
      <trkpt lat="45.84863" lon="4.80654">
        <ele>497.60000610352</ele>
        <time>2011-09-09T21:22:08Z</time>
      </trkpt>
      <trkpt lat="45.8485" lon="4.80651">
        <ele>498</ele>
        <time>2011-09-09T21:22:13Z</time>
      </trkpt>
      <trkpt lat="45.84838" lon="4.80648">
        <ele>498.20001220703</ele>
        <time>2011-09-09T21:22:18Z</time>
      </trkpt>
      <trkpt lat="45.8483" lon="4.80646">
        <ele>498.39999389648</ele>
        <time>2011-09-09T21:22:22Z</time>
      </trkpt>
      <trkpt lat="45.84823" lon="4.80645">
        <ele>498.39999389648</ele>
        <time>2011-09-09T21:22:26Z</time>
      </trkpt>
      <trkpt lat="45.84814" lon="4.80642">
        <ele>498.39999389648</ele>
        <time>2011-09-09T21:22:32Z</time>
      </trkpt>
      <trkpt lat="45.84801" lon="4.80641">
        <ele>498.60000610352</ele>
        <time>2011-09-09T21:22:39Z</time>
      </trkpt>
      <trkpt lat="45.84798" lon="4.8064">
        <ele>498.60000610352</ele>
        <time>2011-09-09T21:22:41Z</time>
      </trkpt>
      <trkpt lat="45.84792" lon="4.80641">
        <ele>498.60000610352</ele>
        <time>2011-09-09T21:22:45Z</time>
      </trkpt>
      <trkpt lat="45.84788" lon="4.8064">
        <ele>498.60000610352</ele>
        <time>2011-09-09T21:22:48Z</time>
      </trkpt>
      <trkpt lat="45.84779" lon="4.80641">
        <ele>498.60000610352</ele>
        <time>2011-09-09T21:22:54Z</time>
      </trkpt>
      <trkpt lat="45.84772" lon="4.80642">
        <ele>498.60000610352</ele>
        <time>2011-09-09T21:22:59Z</time>
      </trkpt>
      <trkpt lat="45.84764" lon="4.80642">
        <ele>498</ele>
        <time>2011-09-09T21:23:04Z</time>
      </trkpt>
      <trkpt lat="45.84762" lon="4.80642">
        <ele>497.79998779297</ele>
        <time>2011-09-09T21:23:05Z</time>
      </trkpt>
      <trkpt lat="45.84752" lon="4.80645">
        <ele>497.20001220703</ele>
        <time>2011-09-09T21:23:11Z</time>
      </trkpt>
      <trkpt lat="45.84733" lon="4.80649">
        <ele>496.79998779297</ele>
        <time>2011-09-09T21:23:19Z</time>
      </trkpt>
      <trkpt lat="45.84719" lon="4.8065">
        <ele>496.60000610352</ele>
        <time>2011-09-09T21:23:25Z</time>
      </trkpt>
      <trkpt lat="45.84704" lon="4.8065">
        <ele>496.60000610352</ele>
        <time>2011-09-09T21:23:31Z</time>
      </trkpt>
      <trkpt lat="45.84692" lon="4.80651">
        <ele>496.60000610352</ele>
        <time>2011-09-09T21:23:36Z</time>
      </trkpt>
      <trkpt lat="45.84681" lon="4.80648">
        <ele>496.60000610352</ele>
        <time>2011-09-09T21:23:41Z</time>
      </trkpt>
      <trkpt lat="45.84671" lon="4.80645">
        <ele>496.60000610352</ele>
        <time>2011-09-09T21:23:46Z</time>
      </trkpt>
      <trkpt lat="45.84659" lon="4.80643">
        <ele>496.60000610352</ele>
        <time>2011-09-09T21:23:51Z</time>
      </trkpt>
      <trkpt lat="45.84649" lon="4.8064">
        <ele>496.60000610352</ele>
        <time>2011-09-09T21:23:56Z</time>
      </trkpt>
      <trkpt lat="45.84633" lon="4.80639">
        <ele>496.60000610352</ele>
        <time>2011-09-09T21:24:03Z</time>
      </trkpt>
      <trkpt lat="45.84621" lon="4.8064">
        <ele>496.60000610352</ele>
        <time>2011-09-09T21:24:08Z</time>
      </trkpt>
      <trkpt lat="45.84619" lon="4.80639">
        <ele>496.60000610352</ele>
        <time>2011-09-09T21:24:09Z</time>
      </trkpt>
      <trkpt lat="45.8461" lon="4.80635">
        <ele>496.60000610352</ele>
        <time>2011-09-09T21:24:13Z</time>
      </trkpt>
      <trkpt lat="45.84597" lon="4.80621">
        <ele>496.60000610352</ele>
        <time>2011-09-09T21:24:20Z</time>
      </trkpt>
      <trkpt lat="45.84586" lon="4.80602">
        <ele>496.60000610352</ele>
        <time>2011-09-09T21:24:27Z</time>
      </trkpt>
      <trkpt lat="45.84586" lon="4.806">
        <ele>496.60000610352</ele>
        <time>2011-09-09T21:24:28Z</time>
      </trkpt>
      <trkpt lat="45.84586" lon="4.80603">
        <ele>496.60000610352</ele>
        <time>2011-09-09T21:24:31Z</time>
      </trkpt>
      <trkpt lat="45.84586" lon="4.8061">
        <ele>496.60000610352</ele>
        <time>2011-09-09T21:24:35Z</time>
      </trkpt>
      <trkpt lat="45.84585" lon="4.80609">
        <ele>496.60000610352</ele>
        <time>2011-09-09T21:24:37Z</time>
      </trkpt>
      <trkpt lat="45.84581" lon="4.80596">
        <ele>496.60000610352</ele>
        <time>2011-09-09T21:24:42Z</time>
      </trkpt>
      <trkpt lat="45.84575" lon="4.80576">
        <ele>496.60000610352</ele>
        <time>2011-09-09T21:24:49Z</time>
      </trkpt>
      <trkpt lat="45.84566" lon="4.80568">
        <ele>496.60000610352</ele>
        <time>2011-09-09T21:24:53Z</time>
      </trkpt>
      <trkpt lat="45.84563" lon="4.80566">
        <ele>496.60000610352</ele>
        <time>2011-09-09T21:24:54Z</time>
      </trkpt>
      <trkpt lat="45.84551" lon="4.80567">
        <ele>496.60000610352</ele>
        <time>2011-09-09T21:24:59Z</time>
      </trkpt>
      <trkpt lat="45.84543" lon="4.8057">
        <ele>496.60000610352</ele>
        <time>2011-09-09T21:25:03Z</time>
      </trkpt>
      <trkpt lat="45.84535" lon="4.80576">
        <ele>496.60000610352</ele>
        <time>2011-09-09T21:25:07Z</time>
      </trkpt>
      <trkpt lat="45.84527" lon="4.80582">
        <ele>496.60000610352</ele>
        <time>2011-09-09T21:25:12Z</time>
      </trkpt>
      <trkpt lat="45.84526" lon="4.80584">
        <ele>496.60000610352</ele>
        <time>2011-09-09T21:25:13Z</time>
      </trkpt>
      <trkpt lat="45.84519" lon="4.80588">
        <ele>496.60000610352</ele>
        <time>2011-09-09T21:25:17Z</time>
      </trkpt>
      <trkpt lat="45.84517" lon="4.80591">
        <ele>496.60000610352</ele>
        <time>2011-09-09T21:25:19Z</time>
      </trkpt>
      <trkpt lat="45.84507" lon="4.80596">
        <ele>496.60000610352</ele>
        <time>2011-09-09T21:25:27Z</time>
      </trkpt>
      <trkpt lat="45.84506" lon="4.80596">
        <ele>496.60000610352</ele>
        <time>2011-09-09T21:25:28Z</time>
      </trkpt>
      <trkpt lat="45.84499" lon="4.80598">
        <ele>496.60000610352</ele>
        <time>2011-09-09T21:25:34Z</time>
      </trkpt>
      <trkpt lat="45.84497" lon="4.80598">
        <ele>496.60000610352</ele>
        <time>2011-09-09T21:25:36Z</time>
      </trkpt>
      <trkpt lat="45.84494" lon="4.80598">
        <ele>496.60000610352</ele>
        <time>2011-09-09T21:25:38Z</time>
      </trkpt>
      <trkpt lat="45.84489" lon="4.80598">
        <ele>496.60000610352</ele>
        <time>2011-09-09T21:25:43Z</time>
      </trkpt>
      <trkpt lat="45.84486" lon="4.80597">
        <ele>496.60000610352</ele>
        <time>2011-09-09T21:25:45Z</time>
      </trkpt>
      <trkpt lat="45.84484" lon="4.80597">
        <ele>496.60000610352</ele>
        <time>2011-09-09T21:25:47Z</time>
      </trkpt>
      <trkpt lat="45.8448" lon="4.80598">
        <ele>496.60000610352</ele>
        <time>2011-09-09T21:25:51Z</time>
      </trkpt>
      <trkpt lat="45.84477" lon="4.80598">
        <ele>496.60000610352</ele>
        <time>2011-09-09T21:25:53Z</time>
      </trkpt>
      <trkpt lat="45.84467" lon="4.80599">
        <ele>496.60000610352</ele>
        <time>2011-09-09T21:25:59Z</time>
      </trkpt>
      <trkpt lat="45.84463" lon="4.80598">
        <ele>496.60000610352</ele>
        <time>2011-09-09T21:26:02Z</time>
      </trkpt>
      <trkpt lat="45.84452" lon="4.80595">
        <ele>496.60000610352</ele>
        <time>2011-09-09T21:26:10Z</time>
      </trkpt>
      <trkpt lat="45.84446" lon="4.80594">
        <ele>496.60000610352</ele>
        <time>2011-09-09T21:26:15Z</time>
      </trkpt>
      <trkpt lat="45.84444" lon="4.80593">
        <ele>496.60000610352</ele>
        <time>2011-09-09T21:26:17Z</time>
      </trkpt>
      <trkpt lat="45.84441" lon="4.80594">
        <ele>496.60000610352</ele>
        <time>2011-09-09T21:26:19Z</time>
      </trkpt>
      <trkpt lat="45.84434" lon="4.80595">
        <ele>497.39999389648</ele>
        <time>2011-09-09T21:26:25Z</time>
      </trkpt>
      <trkpt lat="45.84433" lon="4.80595">
        <ele>497.60000610352</ele>
        <time>2011-09-09T21:26:26Z</time>
      </trkpt>
      <trkpt lat="45.84429" lon="4.806">
        <ele>498</ele>
        <time>2011-09-09T21:26:30Z</time>
      </trkpt>
      <trkpt lat="45.84424" lon="4.80613">
        <ele>498.20001220703</ele>
        <time>2011-09-09T21:26:37Z</time>
      </trkpt>
      <trkpt lat="45.84423" lon="4.80616">
        <ele>498.20001220703</ele>
        <time>2011-09-09T21:26:38Z</time>
      </trkpt>
      <trkpt lat="45.84418" lon="4.80633">
        <ele>498.39999389648</ele>
        <time>2011-09-09T21:26:45Z</time>
      </trkpt>
      <trkpt lat="45.84417" lon="4.80635">
        <ele>498.39999389648</ele>
        <time>2011-09-09T21:26:46Z</time>
      </trkpt>
      <trkpt lat="45.84413" lon="4.80645">
        <ele>498.20001220703</ele>
        <time>2011-09-09T21:26:50Z</time>
      </trkpt>
      <trkpt lat="45.84414" lon="4.80659">
        <ele>497.39999389648</ele>
        <time>2011-09-09T21:26:55Z</time>
      </trkpt>
      <trkpt lat="45.84414" lon="4.80672">
        <ele>496.20001220703</ele>
        <time>2011-09-09T21:27:00Z</time>
      </trkpt>
      <trkpt lat="45.84414" lon="4.80679">
        <ele>495.39999389648</ele>
        <time>2011-09-09T21:27:04Z</time>
      </trkpt>
      <trkpt lat="45.84412" lon="4.80692">
        <ele>494.20001220703</ele>
        <time>2011-09-09T21:27:09Z</time>
      </trkpt>
      <trkpt lat="45.84412" lon="4.80695">
        <ele>494</ele>
        <time>2011-09-09T21:27:10Z</time>
      </trkpt>
      <trkpt lat="45.84411" lon="4.80711">
        <ele>492.60000610352</ele>
        <time>2011-09-09T21:27:16Z</time>
      </trkpt>
      <trkpt lat="45.84413" lon="4.80728">
        <ele>491.20001220703</ele>
        <time>2011-09-09T21:27:22Z</time>
      </trkpt>
      <trkpt lat="45.84414" lon="4.80746">
        <ele>489.39999389648</ele>
        <time>2011-09-09T21:27:28Z</time>
      </trkpt>
      <trkpt lat="45.84417" lon="4.80762">
        <ele>487.79998779297</ele>
        <time>2011-09-09T21:27:33Z</time>
      </trkpt>
      <trkpt lat="45.84418" lon="4.80766">
        <ele>487.39999389648</ele>
        <time>2011-09-09T21:27:34Z</time>
      </trkpt>
      <trkpt lat="45.84419" lon="4.80779">
        <ele>485.60000610352</ele>
        <time>2011-09-09T21:27:39Z</time>
      </trkpt>
      <trkpt lat="45.8442" lon="4.80781">
        <ele>485</ele>
        <time>2011-09-09T21:27:40Z</time>
      </trkpt>
      <trkpt lat="45.84421" lon="4.80797">
        <ele>483</ele>
        <time>2011-09-09T21:27:45Z</time>
      </trkpt>
      <trkpt lat="45.84419" lon="4.80809">
        <ele>481.60000610352</ele>
        <time>2011-09-09T21:27:49Z</time>
      </trkpt>
      <trkpt lat="45.84418" lon="4.80815">
        <ele>480.79998779297</ele>
        <time>2011-09-09T21:27:51Z</time>
      </trkpt>
      <trkpt lat="45.84417" lon="4.80829">
        <ele>479.20001220703</ele>
        <time>2011-09-09T21:27:56Z</time>
      </trkpt>
      <trkpt lat="45.84417" lon="4.80837">
        <ele>478.20001220703</ele>
        <time>2011-09-09T21:27:58Z</time>
      </trkpt>
      <trkpt lat="45.84415" lon="4.80852">
        <ele>477</ele>
        <time>2011-09-09T21:28:02Z</time>
      </trkpt>
      <trkpt lat="45.84411" lon="4.80864">
        <ele>475.20001220703</ele>
        <time>2011-09-09T21:28:07Z</time>
      </trkpt>
      <trkpt lat="45.8441" lon="4.80866">
        <ele>475</ele>
        <time>2011-09-09T21:28:08Z</time>
      </trkpt>
      <trkpt lat="45.84409" lon="4.80869">
        <ele>474.79998779297</ele>
        <time>2011-09-09T21:28:09Z</time>
      </trkpt>
      <trkpt lat="45.84402" lon="4.80893">
        <ele>472.60000610352</ele>
        <time>2011-09-09T21:28:17Z</time>
      </trkpt>
      <trkpt lat="45.84398" lon="4.80912">
        <ele>471.60000610352</ele>
        <time>2011-09-09T21:28:22Z</time>
      </trkpt>
      <trkpt lat="45.84392" lon="4.8093">
        <ele>470.79998779297</ele>
        <time>2011-09-09T21:28:27Z</time>
      </trkpt>
      <trkpt lat="45.84391" lon="4.80934">
        <ele>470.60000610352</ele>
        <time>2011-09-09T21:28:28Z</time>
      </trkpt>
      <trkpt lat="45.84387" lon="4.8096">
        <ele>469.39999389648</ele>
        <time>2011-09-09T21:28:34Z</time>
      </trkpt>
      <trkpt lat="45.84381" lon="4.80978">
        <ele>468</ele>
        <time>2011-09-09T21:28:39Z</time>
      </trkpt>
      <trkpt lat="45.84378" lon="4.8099">
        <ele>467.39999389648</ele>
        <time>2011-09-09T21:28:42Z</time>
      </trkpt>
      <trkpt lat="45.84377" lon="4.80995">
        <ele>467</ele>
        <time>2011-09-09T21:28:43Z</time>
      </trkpt>
      <trkpt lat="45.84377" lon="4.80998">
        <ele>466.79998779297</ele>
        <time>2011-09-09T21:28:44Z</time>
      </trkpt>
      <trkpt lat="45.84374" lon="4.81013">
        <ele>465.79998779297</ele>
        <time>2011-09-09T21:28:48Z</time>
      </trkpt>
      <trkpt lat="45.84373" lon="4.81021">
        <ele>465</ele>
        <time>2011-09-09T21:28:50Z</time>
      </trkpt>
      <trkpt lat="45.84369" lon="4.81046">
        <ele>463.20001220703</ele>
        <time>2011-09-09T21:28:56Z</time>
      </trkpt>
      <trkpt lat="45.84367" lon="4.81061">
        <ele>461.60000610352</ele>
        <time>2011-09-09T21:29:01Z</time>
      </trkpt>
      <trkpt lat="45.84363" lon="4.81078">
        <ele>460.20001220703</ele>
        <time>2011-09-09T21:29:06Z</time>
      </trkpt>
      <trkpt lat="45.8436" lon="4.81088">
        <ele>459.20001220703</ele>
        <time>2011-09-09T21:29:10Z</time>
      </trkpt>
      <trkpt lat="45.84357" lon="4.81103">
        <ele>457.79998779297</ele>
        <time>2011-09-09T21:29:15Z</time>
      </trkpt>
      <trkpt lat="45.84356" lon="4.81124">
        <ele>456</ele>
        <time>2011-09-09T21:29:21Z</time>
      </trkpt>
      <trkpt lat="45.84353" lon="4.81136">
        <ele>454.39999389648</ele>
        <time>2011-09-09T21:29:25Z</time>
      </trkpt>
      <trkpt lat="45.84352" lon="4.8114">
        <ele>454</ele>
        <time>2011-09-09T21:29:26Z</time>
      </trkpt>
      <trkpt lat="45.84351" lon="4.81166">
        <ele>451.60000610352</ele>
        <time>2011-09-09T21:29:32Z</time>
      </trkpt>
      <trkpt lat="45.84348" lon="4.81185">
        <ele>449.20001220703</ele>
        <time>2011-09-09T21:29:37Z</time>
      </trkpt>
      <trkpt lat="45.84343" lon="4.81203">
        <ele>446.79998779297</ele>
        <time>2011-09-09T21:29:42Z</time>
      </trkpt>
      <trkpt lat="45.84338" lon="4.81223">
        <ele>444.60000610352</ele>
        <time>2011-09-09T21:29:47Z</time>
      </trkpt>
      <trkpt lat="45.84334" lon="4.81235">
        <ele>443.20001220703</ele>
        <time>2011-09-09T21:29:50Z</time>
      </trkpt>
      <trkpt lat="45.84327" lon="4.8126">
        <ele>441</ele>
        <time>2011-09-09T21:29:56Z</time>
      </trkpt>
      <trkpt lat="45.84325" lon="4.81263">
        <ele>440.60000610352</ele>
        <time>2011-09-09T21:29:57Z</time>
      </trkpt>
      <trkpt lat="45.84312" lon="4.81264">
        <ele>439.20001220703</ele>
        <time>2011-09-09T21:30:02Z</time>
      </trkpt>
      <trkpt lat="45.84306" lon="4.81264">
        <ele>438.79998779297</ele>
        <time>2011-09-09T21:30:04Z</time>
      </trkpt>
      <trkpt lat="45.8429" lon="4.81256">
        <ele>437</ele>
        <time>2011-09-09T21:30:11Z</time>
      </trkpt>
      <trkpt lat="45.84275" lon="4.81253">
        <ele>435.39999389648</ele>
        <time>2011-09-09T21:30:17Z</time>
      </trkpt>
      <trkpt lat="45.84266" lon="4.8125">
        <ele>434.60000610352</ele>
        <time>2011-09-09T21:30:21Z</time>
      </trkpt>
      <trkpt lat="45.84252" lon="4.81247">
        <ele>433</ele>
        <time>2011-09-09T21:30:27Z</time>
      </trkpt>
      <trkpt lat="45.84242" lon="4.81243">
        <ele>432.39999389648</ele>
        <time>2011-09-09T21:30:31Z</time>
      </trkpt>
      <trkpt lat="45.84237" lon="4.81241">
        <ele>431.79998779297</ele>
        <time>2011-09-09T21:30:33Z</time>
      </trkpt>
      <trkpt lat="45.84223" lon="4.81238">
        <ele>430.39999389648</ele>
        <time>2011-09-09T21:30:39Z</time>
      </trkpt>
      <trkpt lat="45.84214" lon="4.8124">
        <ele>430</ele>
        <time>2011-09-09T21:30:43Z</time>
      </trkpt>
      <trkpt lat="45.84201" lon="4.81242">
        <ele>429.39999389648</ele>
        <time>2011-09-09T21:30:49Z</time>
      </trkpt>
      <trkpt lat="45.84192" lon="4.81245">
        <ele>429.20001220703</ele>
        <time>2011-09-09T21:30:55Z</time>
      </trkpt>
      <trkpt lat="45.8419" lon="4.81245">
        <ele>429.20001220703</ele>
        <time>2011-09-09T21:30:56Z</time>
      </trkpt>
      <trkpt lat="45.84184" lon="4.81246">
        <ele>429.20001220703</ele>
        <time>2011-09-09T21:30:59Z</time>
      </trkpt>
      <trkpt lat="45.84175" lon="4.8125">
        <ele>429</ele>
        <time>2011-09-09T21:31:04Z</time>
      </trkpt>
      <trkpt lat="45.84166" lon="4.81253">
        <ele>429</ele>
        <time>2011-09-09T21:31:09Z</time>
      </trkpt>
      <trkpt lat="45.84165" lon="4.81254">
        <ele>429</ele>
        <time>2011-09-09T21:31:10Z</time>
      </trkpt>
      <trkpt lat="45.84156" lon="4.81258">
        <ele>429</ele>
        <time>2011-09-09T21:31:16Z</time>
      </trkpt>
      <trkpt lat="45.84148" lon="4.81259">
        <ele>429</ele>
        <time>2011-09-09T21:31:21Z</time>
      </trkpt>
      <trkpt lat="45.84138" lon="4.81258">
        <ele>429</ele>
        <time>2011-09-09T21:31:27Z</time>
      </trkpt>
      <trkpt lat="45.84129" lon="4.8126">
        <ele>429</ele>
        <time>2011-09-09T21:31:33Z</time>
      </trkpt>
      <trkpt lat="45.8412" lon="4.8126">
        <ele>429</ele>
        <time>2011-09-09T21:31:38Z</time>
      </trkpt>
      <trkpt lat="45.84111" lon="4.81257">
        <ele>429</ele>
        <time>2011-09-09T21:31:43Z</time>
      </trkpt>
      <trkpt lat="45.841" lon="4.81257">
        <ele>429</ele>
        <time>2011-09-09T21:31:48Z</time>
      </trkpt>
      <trkpt lat="45.84089" lon="4.81258">
        <ele>429</ele>
        <time>2011-09-09T21:31:53Z</time>
      </trkpt>
      <trkpt lat="45.84082" lon="4.81255">
        <ele>429.39999389648</ele>
        <time>2011-09-09T21:31:57Z</time>
      </trkpt>
      <trkpt lat="45.84068" lon="4.81253">
        <ele>430</ele>
        <time>2011-09-09T21:32:03Z</time>
      </trkpt>
      <trkpt lat="45.84056" lon="4.81251">
        <ele>430.39999389648</ele>
        <time>2011-09-09T21:32:08Z</time>
      </trkpt>
      <trkpt lat="45.84052" lon="4.81251">
        <ele>430.60000610352</ele>
        <time>2011-09-09T21:32:10Z</time>
      </trkpt>
      <trkpt lat="45.84045" lon="4.81251">
        <ele>430.60000610352</ele>
        <time>2011-09-09T21:32:14Z</time>
      </trkpt>
      <trkpt lat="45.84037" lon="4.81246">
        <ele>431.79998779297</ele>
        <time>2011-09-09T21:32:20Z</time>
      </trkpt>
      <trkpt lat="45.84035" lon="4.81246">
        <ele>432</ele>
        <time>2011-09-09T21:32:23Z</time>
      </trkpt>
      <trkpt lat="45.84029" lon="4.81241">
        <ele>432.39999389648</ele>
        <time>2011-09-09T21:32:27Z</time>
      </trkpt>
      <trkpt lat="45.84021" lon="4.81235">
        <ele>432.60000610352</ele>
        <time>2011-09-09T21:32:31Z</time>
      </trkpt>
      <trkpt lat="45.84015" lon="4.81231">
        <ele>432.79998779297</ele>
        <time>2011-09-09T21:32:34Z</time>
      </trkpt>
      <trkpt lat="45.84001" lon="4.81216">
        <ele>433</ele>
        <time>2011-09-09T21:32:41Z</time>
      </trkpt>
      <trkpt lat="45.83988" lon="4.81187">
        <ele>433</ele>
        <time>2011-09-09T21:32:51Z</time>
      </trkpt>
      <trkpt lat="45.83987" lon="4.81184">
        <ele>433</ele>
        <time>2011-09-09T21:32:52Z</time>
      </trkpt>
      <trkpt lat="45.83981" lon="4.81167">
        <ele>433.39999389648</ele>
        <time>2011-09-09T21:32:57Z</time>
      </trkpt>
      <trkpt lat="45.83975" lon="4.8115">
        <ele>434.20001220703</ele>
        <time>2011-09-09T21:33:02Z</time>
      </trkpt>
      <trkpt lat="45.83969" lon="4.81134">
        <ele>434.60000610352</ele>
        <time>2011-09-09T21:33:07Z</time>
      </trkpt>
      <trkpt lat="45.83966" lon="4.81125">
        <ele>434.60000610352</ele>
        <time>2011-09-09T21:33:10Z</time>
      </trkpt>
      <trkpt lat="45.83957" lon="4.811">
        <ele>435</ele>
        <time>2011-09-09T21:33:18Z</time>
      </trkpt>
      <trkpt lat="45.83951" lon="4.8108">
        <ele>435</ele>
        <time>2011-09-09T21:33:24Z</time>
      </trkpt>
      <trkpt lat="45.83949" lon="4.81061">
        <ele>435</ele>
        <time>2011-09-09T21:33:29Z</time>
      </trkpt>
      <trkpt lat="45.83948" lon="4.81054">
        <ele>435</ele>
        <time>2011-09-09T21:33:31Z</time>
      </trkpt>
      <trkpt lat="45.83947" lon="4.81043">
        <ele>435</ele>
        <time>2011-09-09T21:33:36Z</time>
      </trkpt>
      <trkpt lat="45.83947" lon="4.8104">
        <ele>435</ele>
        <time>2011-09-09T21:33:37Z</time>
      </trkpt>
      <trkpt lat="45.83945" lon="4.81037">
        <ele>435</ele>
        <time>2011-09-09T21:33:39Z</time>
      </trkpt>
      <trkpt lat="45.83945" lon="4.81021">
        <ele>435</ele>
        <time>2011-09-09T21:33:45Z</time>
      </trkpt>
      <trkpt lat="45.83945" lon="4.81002">
        <ele>435</ele>
        <time>2011-09-09T21:33:51Z</time>
      </trkpt>
      <trkpt lat="45.83945" lon="4.80998">
        <ele>435</ele>
        <time>2011-09-09T21:33:52Z</time>
      </trkpt>
      <trkpt lat="45.83949" lon="4.80975">
        <ele>435</ele>
        <time>2011-09-09T21:34:00Z</time>
      </trkpt>
      <trkpt lat="45.83948" lon="4.80973">
        <ele>435</ele>
        <time>2011-09-09T21:34:01Z</time>
      </trkpt>
      <trkpt lat="45.83944" lon="4.80967">
        <ele>435</ele>
        <time>2011-09-09T21:34:05Z</time>
      </trkpt>
      <trkpt lat="45.83941" lon="4.80967">
        <ele>435</ele>
        <time>2011-09-09T21:34:07Z</time>
      </trkpt>
      <trkpt lat="45.83929" lon="4.80975">
        <ele>435</ele>
        <time>2011-09-09T21:34:13Z</time>
      </trkpt>
      <trkpt lat="45.83926" lon="4.80975">
        <ele>435</ele>
        <time>2011-09-09T21:34:14Z</time>
      </trkpt>
      <trkpt lat="45.83919" lon="4.80976">
        <ele>435</ele>
        <time>2011-09-09T21:34:18Z</time>
      </trkpt>
      <trkpt lat="45.83909" lon="4.80981">
        <ele>435</ele>
        <time>2011-09-09T21:34:23Z</time>
      </trkpt>
      <trkpt lat="45.839" lon="4.80978">
        <ele>435</ele>
        <time>2011-09-09T21:34:28Z</time>
      </trkpt>
      <trkpt lat="45.83894" lon="4.80981">
        <ele>434.79998779297</ele>
        <time>2011-09-09T21:34:32Z</time>
      </trkpt>
      <trkpt lat="45.8388" lon="4.80991">
        <ele>433.20001220703</ele>
        <time>2011-09-09T21:34:41Z</time>
      </trkpt>
      <trkpt lat="45.83878" lon="4.80991">
        <ele>432.79998779297</ele>
        <time>2011-09-09T21:34:43Z</time>
      </trkpt>
      <trkpt lat="45.83869" lon="4.80993">
        <ele>431.39999389648</ele>
        <time>2011-09-09T21:34:48Z</time>
      </trkpt>
      <trkpt lat="45.8386" lon="4.80999">
        <ele>429.60000610352</ele>
        <time>2011-09-09T21:34:54Z</time>
      </trkpt>
      <trkpt lat="45.83859" lon="4.80999">
        <ele>429.20001220703</ele>
        <time>2011-09-09T21:34:55Z</time>
      </trkpt>
      <trkpt lat="45.83857" lon="4.80998">
        <ele>429</ele>
        <time>2011-09-09T21:34:56Z</time>
      </trkpt>
      <trkpt lat="45.83855" lon="4.80996">
        <ele>428.20001220703</ele>
        <time>2011-09-09T21:34:58Z</time>
      </trkpt>
      <trkpt lat="45.83852" lon="4.80987">
        <ele>426.39999389648</ele>
        <time>2011-09-09T21:35:03Z</time>
      </trkpt>
      <trkpt lat="45.83854" lon="4.80975">
        <ele>424.60000610352</ele>
        <time>2011-09-09T21:35:07Z</time>
      </trkpt>
      <trkpt lat="45.83856" lon="4.80961">
        <ele>422.39999389648</ele>
        <time>2011-09-09T21:35:12Z</time>
      </trkpt>
      <trkpt lat="45.8386" lon="4.8095">
        <ele>420.79998779297</ele>
        <time>2011-09-09T21:35:16Z</time>
      </trkpt>
      <trkpt lat="45.83861" lon="4.80945">
        <ele>419.79998779297</ele>
        <time>2011-09-09T21:35:18Z</time>
      </trkpt>
      <trkpt lat="45.8386" lon="4.80932">
        <ele>418</ele>
        <time>2011-09-09T21:35:23Z</time>
      </trkpt>
      <trkpt lat="45.83857" lon="4.80934">
        <ele>417.39999389648</ele>
        <time>2011-09-09T21:35:25Z</time>
      </trkpt>
      <trkpt lat="45.83846" lon="4.80944">
        <ele>415.39999389648</ele>
        <time>2011-09-09T21:35:32Z</time>
      </trkpt>
      <trkpt lat="45.83844" lon="4.80944">
        <ele>415.20001220703</ele>
        <time>2011-09-09T21:35:33Z</time>
      </trkpt>
      <trkpt lat="45.83837" lon="4.80947">
        <ele>414.39999389648</ele>
        <time>2011-09-09T21:35:37Z</time>
      </trkpt>
      <trkpt lat="45.8383" lon="4.80952">
        <ele>414</ele>
        <time>2011-09-09T21:35:41Z</time>
      </trkpt>
      <trkpt lat="45.83822" lon="4.80959">
        <ele>412.79998779297</ele>
        <time>2011-09-09T21:35:46Z</time>
      </trkpt>
      <trkpt lat="45.83819" lon="4.80961">
        <ele>412.60000610352</ele>
        <time>2011-09-09T21:35:48Z</time>
      </trkpt>
      <trkpt lat="45.83814" lon="4.80964">
        <ele>412.20001220703</ele>
        <time>2011-09-09T21:35:51Z</time>
      </trkpt>
      <trkpt lat="45.83808" lon="4.80972">
        <ele>410.79998779297</ele>
        <time>2011-09-09T21:35:56Z</time>
      </trkpt>
      <trkpt lat="45.83806" lon="4.80978">
        <ele>410.20001220703</ele>
        <time>2011-09-09T21:35:59Z</time>
      </trkpt>
      <trkpt lat="45.83802" lon="4.80981">
        <ele>409.60000610352</ele>
        <time>2011-09-09T21:36:01Z</time>
      </trkpt>
      <trkpt lat="45.83797" lon="4.80982">
        <ele>408.79998779297</ele>
        <time>2011-09-09T21:36:04Z</time>
      </trkpt>
      <trkpt lat="45.83796" lon="4.80982">
        <ele>408.60000610352</ele>
        <time>2011-09-09T21:36:05Z</time>
      </trkpt>
      <trkpt lat="45.83793" lon="4.80984">
        <ele>408</ele>
        <time>2011-09-09T21:36:07Z</time>
      </trkpt>
      <trkpt lat="45.83791" lon="4.80991">
        <ele>407.20001220703</ele>
        <time>2011-09-09T21:36:10Z</time>
      </trkpt>
      <trkpt lat="45.83788" lon="4.80999">
        <ele>405.60000610352</ele>
        <time>2011-09-09T21:36:16Z</time>
      </trkpt>
      <trkpt lat="45.83786" lon="4.81011">
        <ele>403.79998779297</ele>
        <time>2011-09-09T21:36:21Z</time>
      </trkpt>
      <trkpt lat="45.83785" lon="4.81024">
        <ele>401.39999389648</ele>
        <time>2011-09-09T21:36:27Z</time>
      </trkpt>
      <trkpt lat="45.83785" lon="4.81026">
        <ele>400.79998779297</ele>
        <time>2011-09-09T21:36:28Z</time>
      </trkpt>
      <trkpt lat="45.83783" lon="4.81037">
        <ele>398.20001220703</ele>
        <time>2011-09-09T21:36:33Z</time>
      </trkpt>
      <trkpt lat="45.83782" lon="4.81045">
        <ele>395.79998779297</ele>
        <time>2011-09-09T21:36:37Z</time>
      </trkpt>
      <trkpt lat="45.83783" lon="4.81056">
        <ele>393.20001220703</ele>
        <time>2011-09-09T21:36:42Z</time>
      </trkpt>
      <trkpt lat="45.83786" lon="4.81067">
        <ele>390.60000610352</ele>
        <time>2011-09-09T21:36:48Z</time>
      </trkpt>
      <trkpt lat="45.83788" lon="4.81075">
        <ele>389.60000610352</ele>
        <time>2011-09-09T21:36:51Z</time>
      </trkpt>
      <trkpt lat="45.83788" lon="4.81078">
        <ele>389</ele>
        <time>2011-09-09T21:36:52Z</time>
      </trkpt>
      <trkpt lat="45.83788" lon="4.81082">
        <ele>388.20001220703</ele>
        <time>2011-09-09T21:36:54Z</time>
      </trkpt>
      <trkpt lat="45.83788" lon="4.81094">
        <ele>386.20001220703</ele>
        <time>2011-09-09T21:36:59Z</time>
      </trkpt>
      <trkpt lat="45.83786" lon="4.81105">
        <ele>384.20001220703</ele>
        <time>2011-09-09T21:37:04Z</time>
      </trkpt>
      <trkpt lat="45.83784" lon="4.81112">
        <ele>382.60000610352</ele>
        <time>2011-09-09T21:37:08Z</time>
      </trkpt>
      <trkpt lat="45.83784" lon="4.81117">
        <ele>381.60000610352</ele>
        <time>2011-09-09T21:37:10Z</time>
      </trkpt>
      <trkpt lat="45.83784" lon="4.81121">
        <ele>380.79998779297</ele>
        <time>2011-09-09T21:37:12Z</time>
      </trkpt>
      <trkpt lat="45.83786" lon="4.8113">
        <ele>378.79998779297</ele>
        <time>2011-09-09T21:37:16Z</time>
      </trkpt>
      <trkpt lat="45.83786" lon="4.81132">
        <ele>378.39999389648</ele>
        <time>2011-09-09T21:37:17Z</time>
      </trkpt>
      <trkpt lat="45.83787" lon="4.81145">
        <ele>375.20001220703</ele>
        <time>2011-09-09T21:37:23Z</time>
      </trkpt>
      <trkpt lat="45.83787" lon="4.81155">
        <ele>373.20001220703</ele>
        <time>2011-09-09T21:37:27Z</time>
      </trkpt>
      <trkpt lat="45.83788" lon="4.81167">
        <ele>370.60000610352</ele>
        <time>2011-09-09T21:37:32Z</time>
      </trkpt>
      <trkpt lat="45.83788" lon="4.81175">
        <ele>368.39999389648</ele>
        <time>2011-09-09T21:37:36Z</time>
      </trkpt>
      <trkpt lat="45.83789" lon="4.81176">
        <ele>367.60000610352</ele>
        <time>2011-09-09T21:37:38Z</time>
      </trkpt>
      <trkpt lat="45.83788" lon="4.81175">
        <ele>365.20001220703</ele>
        <time>2011-09-09T21:37:43Z</time>
      </trkpt>
      <trkpt lat="45.83785" lon="4.8118">
        <ele>361.79998779297</ele>
        <time>2011-09-09T21:37:53Z</time>
      </trkpt>
      <trkpt lat="45.83784" lon="4.81183">
        <ele>361.60000610352</ele>
        <time>2011-09-09T21:37:54Z</time>
      </trkpt>
      <trkpt lat="45.83782" lon="4.81198">
        <ele>360.20001220703</ele>
        <time>2011-09-09T21:38:00Z</time>
      </trkpt>
      <trkpt lat="45.8378" lon="4.81211">
        <ele>358.79998779297</ele>
        <time>2011-09-09T21:38:06Z</time>
      </trkpt>
      <trkpt lat="45.83779" lon="4.81213">
        <ele>358.39999389648</ele>
        <time>2011-09-09T21:38:07Z</time>
      </trkpt>
      <trkpt lat="45.8378" lon="4.8122">
        <ele>357.79998779297</ele>
        <time>2011-09-09T21:38:09Z</time>
      </trkpt>
      <trkpt lat="45.83778" lon="4.81238">
        <ele>356</ele>
        <time>2011-09-09T21:38:15Z</time>
      </trkpt>
      <trkpt lat="45.83778" lon="4.81248">
        <ele>354.60000610352</ele>
        <time>2011-09-09T21:38:19Z</time>
      </trkpt>
      <trkpt lat="45.83776" lon="4.81267">
        <ele>352.79998779297</ele>
        <time>2011-09-09T21:38:25Z</time>
      </trkpt>
      <trkpt lat="45.83776" lon="4.81279">
        <ele>351.20001220703</ele>
        <time>2011-09-09T21:38:30Z</time>
      </trkpt>
      <trkpt lat="45.83775" lon="4.81285">
        <ele>350.20001220703</ele>
        <time>2011-09-09T21:38:32Z</time>
      </trkpt>
      <trkpt lat="45.83775" lon="4.81301">
        <ele>348</ele>
        <time>2011-09-09T21:38:38Z</time>
      </trkpt>
      <trkpt lat="45.83777" lon="4.81318">
        <ele>345.79998779297</ele>
        <time>2011-09-09T21:38:43Z</time>
      </trkpt>
      <trkpt lat="45.83778" lon="4.81325">
        <ele>345.20001220703</ele>
        <time>2011-09-09T21:38:45Z</time>
      </trkpt>
      <trkpt lat="45.8378" lon="4.81343">
        <ele>342.79998779297</ele>
        <time>2011-09-09T21:38:50Z</time>
      </trkpt>
      <trkpt lat="45.83781" lon="4.8136">
        <ele>340.60000610352</ele>
        <time>2011-09-09T21:38:55Z</time>
      </trkpt>
      <trkpt lat="45.83785" lon="4.81374">
        <ele>338.39999389648</ele>
        <time>2011-09-09T21:39:00Z</time>
      </trkpt>
      <trkpt lat="45.83786" lon="4.81378">
        <ele>338</ele>
        <time>2011-09-09T21:39:01Z</time>
      </trkpt>
      <trkpt lat="45.83789" lon="4.81392">
        <ele>336.39999389648</ele>
        <time>2011-09-09T21:39:05Z</time>
      </trkpt>
      <trkpt lat="45.83792" lon="4.81411">
        <ele>334.39999389648</ele>
        <time>2011-09-09T21:39:10Z</time>
      </trkpt>
      <trkpt lat="45.83791" lon="4.81433">
        <ele>332</ele>
        <time>2011-09-09T21:39:16Z</time>
      </trkpt>
      <trkpt lat="45.83791" lon="4.8144">
        <ele>331.39999389648</ele>
        <time>2011-09-09T21:39:18Z</time>
      </trkpt>
      <trkpt lat="45.83788" lon="4.81456">
        <ele>329.60000610352</ele>
        <time>2011-09-09T21:39:23Z</time>
      </trkpt>
      <trkpt lat="45.83788" lon="4.81469">
        <ele>328</ele>
        <time>2011-09-09T21:39:27Z</time>
      </trkpt>
      <trkpt lat="45.83789" lon="4.81483">
        <ele>326.39999389648</ele>
        <time>2011-09-09T21:39:31Z</time>
      </trkpt>
      <trkpt lat="45.8379" lon="4.81489">
        <ele>325.39999389648</ele>
        <time>2011-09-09T21:39:33Z</time>
      </trkpt>
      <trkpt lat="45.83789" lon="4.81501">
        <ele>323.20001220703</ele>
        <time>2011-09-09T21:39:38Z</time>
      </trkpt>
      <trkpt lat="45.83789" lon="4.81513">
        <ele>321</ele>
        <time>2011-09-09T21:39:43Z</time>
      </trkpt>
      <trkpt lat="45.83791" lon="4.81531">
        <ele>317.60000610352</ele>
        <time>2011-09-09T21:39:50Z</time>
      </trkpt>
      <trkpt lat="45.83791" lon="4.81533">
        <ele>317.20001220703</ele>
        <time>2011-09-09T21:39:51Z</time>
      </trkpt>
      <trkpt lat="45.83792" lon="4.81545">
        <ele>315.20001220703</ele>
        <time>2011-09-09T21:39:55Z</time>
      </trkpt>
      <trkpt lat="45.83792" lon="4.81549">
        <ele>314.79998779297</ele>
        <time>2011-09-09T21:39:56Z</time>
      </trkpt>
      <trkpt lat="45.83794" lon="4.8156">
        <ele>312.79998779297</ele>
        <time>2011-09-09T21:40:00Z</time>
      </trkpt>
      <trkpt lat="45.83796" lon="4.81571">
        <ele>310.20001220703</ele>
        <time>2011-09-09T21:40:05Z</time>
      </trkpt>
      <trkpt lat="45.83795" lon="4.81585">
        <ele>307.60000610352</ele>
        <time>2011-09-09T21:40:10Z</time>
      </trkpt>
      <trkpt lat="45.83795" lon="4.81592">
        <ele>306.60000610352</ele>
        <time>2011-09-09T21:40:12Z</time>
      </trkpt>
      <trkpt lat="45.83799" lon="4.81607">
        <ele>304</ele>
        <time>2011-09-09T21:40:17Z</time>
      </trkpt>
      <trkpt lat="45.83803" lon="4.8162">
        <ele>301.79998779297</ele>
        <time>2011-09-09T21:40:21Z</time>
      </trkpt>
      <trkpt lat="45.83803" lon="4.81628">
        <ele>300.60000610352</ele>
        <time>2011-09-09T21:40:23Z</time>
      </trkpt>
      <trkpt lat="45.83806" lon="4.81643">
        <ele>298</ele>
        <time>2011-09-09T21:40:28Z</time>
      </trkpt>
      <trkpt lat="45.83812" lon="4.81655">
        <ele>295.79998779297</ele>
        <time>2011-09-09T21:40:32Z</time>
      </trkpt>
      <trkpt lat="45.83813" lon="4.81658">
        <ele>295.20001220703</ele>
        <time>2011-09-09T21:40:33Z</time>
      </trkpt>
      <trkpt lat="45.83815" lon="4.81666">
        <ele>293.79998779297</ele>
        <time>2011-09-09T21:40:36Z</time>
      </trkpt>
      <trkpt lat="45.83822" lon="4.81684">
        <ele>291</ele>
        <time>2011-09-09T21:40:42Z</time>
      </trkpt>
      <trkpt lat="45.83823" lon="4.81687">
        <ele>290.60000610352</ele>
        <time>2011-09-09T21:40:43Z</time>
      </trkpt>
      <trkpt lat="45.8383" lon="4.81707">
        <ele>288.60000610352</ele>
        <time>2011-09-09T21:40:48Z</time>
      </trkpt>
      <trkpt lat="45.83833" lon="4.81726">
        <ele>286.79998779297</ele>
        <time>2011-09-09T21:40:53Z</time>
      </trkpt>
      <trkpt lat="45.83838" lon="4.81743">
        <ele>284.79998779297</ele>
        <time>2011-09-09T21:40:58Z</time>
      </trkpt>
      <trkpt lat="45.8384" lon="4.81756">
        <ele>283.60000610352</ele>
        <time>2011-09-09T21:41:01Z</time>
      </trkpt>
      <trkpt lat="45.83841" lon="4.81766">
        <ele>282.39999389648</ele>
        <time>2011-09-09T21:41:04Z</time>
      </trkpt>
      <trkpt lat="45.83844" lon="4.81789">
        <ele>279.60000610352</ele>
        <time>2011-09-09T21:41:10Z</time>
      </trkpt>
      <trkpt lat="45.83845" lon="4.81793">
        <ele>279.20001220703</ele>
        <time>2011-09-09T21:41:11Z</time>
      </trkpt>
      <trkpt lat="45.8385" lon="4.81816">
        <ele>276</ele>
        <time>2011-09-09T21:41:17Z</time>
      </trkpt>
      <trkpt lat="45.83854" lon="4.81828">
        <ele>273.60000610352</ele>
        <time>2011-09-09T21:41:21Z</time>
      </trkpt>
      <trkpt lat="45.83858" lon="4.81845">
        <ele>269.60000610352</ele>
        <time>2011-09-09T21:41:27Z</time>
      </trkpt>
      <trkpt lat="45.83859" lon="4.81849">
        <ele>269</ele>
        <time>2011-09-09T21:41:28Z</time>
      </trkpt>
      <trkpt lat="45.83865" lon="4.81867">
        <ele>265.39999389648</ele>
        <time>2011-09-09T21:41:33Z</time>
      </trkpt>
      <trkpt lat="45.83866" lon="4.81872">
        <ele>264.79998779297</ele>
        <time>2011-09-09T21:41:34Z</time>
      </trkpt>
      <trkpt lat="45.83868" lon="4.819">
        <ele>261</ele>
        <time>2011-09-09T21:41:40Z</time>
      </trkpt>
      <trkpt lat="45.83868" lon="4.81926">
        <ele>257.79998779297</ele>
        <time>2011-09-09T21:41:46Z</time>
      </trkpt>
      <trkpt lat="45.83869" lon="4.81954">
        <ele>254.60000610352</ele>
        <time>2011-09-09T21:41:52Z</time>
      </trkpt>
      <trkpt lat="45.83872" lon="4.81981">
        <ele>251.80000305176</ele>
        <time>2011-09-09T21:41:58Z</time>
      </trkpt>
      <trkpt lat="45.83876" lon="4.82002">
        <ele>249.39999389648</ele>
        <time>2011-09-09T21:42:03Z</time>
      </trkpt>
      <trkpt lat="45.83878" lon="4.82012">
        <ele>248.39999389648</ele>
        <time>2011-09-09T21:42:05Z</time>
      </trkpt>
      <trkpt lat="45.83875" lon="4.82031">
        <ele>246.60000610352</ele>
        <time>2011-09-09T21:42:09Z</time>
      </trkpt>
      <trkpt lat="45.83872" lon="4.82067">
        <ele>243.39999389648</ele>
        <time>2011-09-09T21:42:16Z</time>
      </trkpt>
      <trkpt lat="45.83873" lon="4.82095">
        <ele>240.60000610352</ele>
        <time>2011-09-09T21:42:22Z</time>
      </trkpt>
      <trkpt lat="45.83871" lon="4.82124">
        <ele>238</ele>
        <time>2011-09-09T21:42:28Z</time>
      </trkpt>
      <trkpt lat="45.83868" lon="4.82148">
        <ele>236</ele>
        <time>2011-09-09T21:42:33Z</time>
      </trkpt>
      <trkpt lat="45.83865" lon="4.82167">
        <ele>234.39999389648</ele>
        <time>2011-09-09T21:42:37Z</time>
      </trkpt>
      <trkpt lat="45.83865" lon="4.82172">
        <ele>234</ele>
        <time>2011-09-09T21:42:38Z</time>
      </trkpt>
      <trkpt lat="45.83863" lon="4.82191">
        <ele>232.60000610352</ele>
        <time>2011-09-09T21:42:42Z</time>
      </trkpt>
      <trkpt lat="45.8386" lon="4.82219">
        <ele>230.60000610352</ele>
        <time>2011-09-09T21:42:48Z</time>
      </trkpt>
      <trkpt lat="45.83858" lon="4.82248">
        <ele>228.60000610352</ele>
        <time>2011-09-09T21:42:54Z</time>
      </trkpt>
      <trkpt lat="45.8386" lon="4.82276">
        <ele>226.39999389648</ele>
        <time>2011-09-09T21:43:00Z</time>
      </trkpt>
      <trkpt lat="45.83857" lon="4.82295">
        <ele>225.19999694824</ele>
        <time>2011-09-09T21:43:04Z</time>
      </trkpt>
      <trkpt lat="45.83856" lon="4.82322">
        <ele>223</ele>
        <time>2011-09-09T21:43:10Z</time>
      </trkpt>
      <trkpt lat="45.83851" lon="4.82351">
        <ele>221</ele>
        <time>2011-09-09T21:43:16Z</time>
      </trkpt>
      <trkpt lat="45.83846" lon="4.82365">
        <ele>219.80000305176</ele>
        <time>2011-09-09T21:43:20Z</time>
      </trkpt>
      <trkpt lat="45.83842" lon="4.82366">
        <ele>219.19999694824</ele>
        <time>2011-09-09T21:43:22Z</time>
      </trkpt>
      <trkpt lat="45.83824" lon="4.82361">
        <ele>217.60000610352</ele>
        <time>2011-09-09T21:43:28Z</time>
      </trkpt>
      <trkpt lat="45.83811" lon="4.82359">
        <ele>216</ele>
        <time>2011-09-09T21:43:33Z</time>
      </trkpt>
      <trkpt lat="45.83809" lon="4.8237">
        <ele>215</ele>
        <time>2011-09-09T21:43:37Z</time>
      </trkpt>
      <trkpt lat="45.83801" lon="4.82378">
        <ele>214</ele>
        <time>2011-09-09T21:43:40Z</time>
      </trkpt>
      <trkpt lat="45.83798" lon="4.82379">
        <ele>213.80000305176</ele>
        <time>2011-09-09T21:43:41Z</time>
      </trkpt>
      <trkpt lat="45.83781" lon="4.82385">
        <ele>213</ele>
        <time>2011-09-09T21:43:46Z</time>
      </trkpt>
      <trkpt lat="45.83765" lon="4.82391">
        <ele>212.19999694824</ele>
        <time>2011-09-09T21:43:51Z</time>
      </trkpt>
      <trkpt lat="45.83748" lon="4.82403">
        <ele>211</ele>
        <time>2011-09-09T21:43:57Z</time>
      </trkpt>
      <trkpt lat="45.83744" lon="4.82403">
        <ele>211</ele>
        <time>2011-09-09T21:43:58Z</time>
      </trkpt>
      <trkpt lat="45.83737" lon="4.82404">
        <ele>210.60000610352</ele>
        <time>2011-09-09T21:44:02Z</time>
      </trkpt>
      <trkpt lat="45.83735" lon="4.82407">
        <ele>210.39999389648</ele>
        <time>2011-09-09T21:44:03Z</time>
      </trkpt>
      <trkpt lat="45.8372" lon="4.82419">
        <ele>210.19999694824</ele>
        <time>2011-09-09T21:44:09Z</time>
      </trkpt>
    </trkseg>
  </trk>
</gpx>